<?xml version="1.0" encoding="UTF-8" standalone="no" ?>
<gpx xmlns="http://www.topografix.com/GPX/1/1" xmlns:xsi="http://www.w3.org/2001/XMLSchema-instance" xsi:schemaLocation="http://www.topografix.com/GPX/1/1 http://www.topografix.com/GPX/1/1/gpx.xsd" version="1.1" creator="VisuGPX - https://www.visugpx.com">
  <metadata>
    <name>MB. Sortie du 15/12/2019</name>
    <desc><![CDATA[Sortie VTT du dimanche 15 décembre 2019]]></desc>
  </metadata>
  <trk>
    <name><![CDATA[Pornichet Cyclisme]]></name>
    <trkseg>
      <trkpt lat="47.26422" lon="-2.31533">
        <ele>52</ele>
        <time>2019-12-15T07:53:10.000Z</time>
      </trkpt>
      <trkpt lat="47.26421" lon="-2.31533">
        <ele>52</ele>
        <time>2019-12-15T07:53:11.000Z</time>
      </trkpt>
      <trkpt lat="47.26417" lon="-2.31555">
        <ele>52</ele>
        <time>2019-12-15T07:53:44.000Z</time>
      </trkpt>
      <trkpt lat="47.26411" lon="-2.31558">
        <ele>52</ele>
        <time>2019-12-15T07:53:46.000Z</time>
      </trkpt>
      <trkpt lat="47.26409" lon="-2.31562">
        <ele>52</ele>
        <time>2019-12-15T07:53:47.000Z</time>
      </trkpt>
      <trkpt lat="47.26408" lon="-2.3157">
        <ele>52</ele>
        <time>2019-12-15T07:53:49.000Z</time>
      </trkpt>
      <trkpt lat="47.26408" lon="-2.31598">
        <ele>52</ele>
        <time>2019-12-15T07:53:55.000Z</time>
      </trkpt>
      <trkpt lat="47.26407" lon="-2.31623">
        <ele>52</ele>
        <time>2019-12-15T07:54:00.000Z</time>
      </trkpt>
      <trkpt lat="47.26407" lon="-2.31652">
        <ele>52</ele>
        <time>2019-12-15T07:54:06.000Z</time>
      </trkpt>
      <trkpt lat="47.26398" lon="-2.31667">
        <ele>52</ele>
        <time>2019-12-15T07:54:10.000Z</time>
      </trkpt>
      <trkpt lat="47.26389" lon="-2.31671">
        <ele>52</ele>
        <time>2019-12-15T07:54:12.000Z</time>
      </trkpt>
      <trkpt lat="47.2638" lon="-2.31677">
        <ele>52</ele>
        <time>2019-12-15T07:54:14.000Z</time>
      </trkpt>
      <trkpt lat="47.26376" lon="-2.31679">
        <ele>52</ele>
        <time>2019-12-15T07:54:15.000Z</time>
      </trkpt>
      <trkpt lat="47.26367" lon="-2.31686">
        <ele>51.599998474121</ele>
        <time>2019-12-15T07:54:17.000Z</time>
      </trkpt>
      <trkpt lat="47.26363" lon="-2.31689">
        <ele>51.200000762939</ele>
        <time>2019-12-15T07:54:18.000Z</time>
      </trkpt>
      <trkpt lat="47.26358" lon="-2.31691">
        <ele>50.799999237061</ele>
        <time>2019-12-15T07:54:19.000Z</time>
      </trkpt>
      <trkpt lat="47.26353" lon="-2.31694">
        <ele>50.400001525879</ele>
        <time>2019-12-15T07:54:20.000Z</time>
      </trkpt>
      <trkpt lat="47.26347" lon="-2.31696">
        <ele>50</ele>
        <time>2019-12-15T07:54:21.000Z</time>
      </trkpt>
      <trkpt lat="47.26342" lon="-2.31699">
        <ele>50</ele>
        <time>2019-12-15T07:54:22.000Z</time>
      </trkpt>
      <trkpt lat="47.26328" lon="-2.31705">
        <ele>49.599998474121</ele>
        <time>2019-12-15T07:54:25.000Z</time>
      </trkpt>
      <trkpt lat="47.26324" lon="-2.31708">
        <ele>49.200000762939</ele>
        <time>2019-12-15T07:54:26.000Z</time>
      </trkpt>
      <trkpt lat="47.2632" lon="-2.3171">
        <ele>48.799999237061</ele>
        <time>2019-12-15T07:54:27.000Z</time>
      </trkpt>
      <trkpt lat="47.26316" lon="-2.31713">
        <ele>48.400001525879</ele>
        <time>2019-12-15T07:54:28.000Z</time>
      </trkpt>
      <trkpt lat="47.26312" lon="-2.31715">
        <ele>47.799999237061</ele>
        <time>2019-12-15T07:54:29.000Z</time>
      </trkpt>
      <trkpt lat="47.26301" lon="-2.31717">
        <ele>47.799999237061</ele>
        <time>2019-12-15T07:54:33.000Z</time>
      </trkpt>
      <trkpt lat="47.26293" lon="-2.31706">
        <ele>47.799999237061</ele>
        <time>2019-12-15T07:54:38.000Z</time>
      </trkpt>
      <trkpt lat="47.26291" lon="-2.31702">
        <ele>47.799999237061</ele>
        <time>2019-12-15T07:54:39.000Z</time>
      </trkpt>
      <trkpt lat="47.26278" lon="-2.31675">
        <ele>47.799999237061</ele>
        <time>2019-12-15T07:54:44.000Z</time>
      </trkpt>
      <trkpt lat="47.26276" lon="-2.31671">
        <ele>47.799999237061</ele>
        <time>2019-12-15T07:54:45.000Z</time>
      </trkpt>
      <trkpt lat="47.26259" lon="-2.31638">
        <ele>47.799999237061</ele>
        <time>2019-12-15T07:54:51.000Z</time>
      </trkpt>
      <trkpt lat="47.2624" lon="-2.31615">
        <ele>47.799999237061</ele>
        <time>2019-12-15T07:54:56.000Z</time>
      </trkpt>
      <trkpt lat="47.26222" lon="-2.31608">
        <ele>47.799999237061</ele>
        <time>2019-12-15T07:55:01.000Z</time>
      </trkpt>
      <trkpt lat="47.26212" lon="-2.31605">
        <ele>47.799999237061</ele>
        <time>2019-12-15T07:55:03.000Z</time>
      </trkpt>
      <trkpt lat="47.26207" lon="-2.31605">
        <ele>47.400001525879</ele>
        <time>2019-12-15T07:55:04.000Z</time>
      </trkpt>
      <trkpt lat="47.26202" lon="-2.31606">
        <ele>47</ele>
        <time>2019-12-15T07:55:05.000Z</time>
      </trkpt>
      <trkpt lat="47.26197" lon="-2.31607">
        <ele>46.599998474121</ele>
        <time>2019-12-15T07:55:06.000Z</time>
      </trkpt>
      <trkpt lat="47.26193" lon="-2.31608">
        <ele>46.200000762939</ele>
        <time>2019-12-15T07:55:07.000Z</time>
      </trkpt>
      <trkpt lat="47.26188" lon="-2.31609">
        <ele>45.799999237061</ele>
        <time>2019-12-15T07:55:08.000Z</time>
      </trkpt>
      <trkpt lat="47.26157" lon="-2.31617">
        <ele>45.799999237061</ele>
        <time>2019-12-15T07:55:15.000Z</time>
      </trkpt>
      <trkpt lat="47.26152" lon="-2.31618">
        <ele>45.799999237061</ele>
        <time>2019-12-15T07:55:16.000Z</time>
      </trkpt>
      <trkpt lat="47.26144" lon="-2.31619">
        <ele>45.799999237061</ele>
        <time>2019-12-15T07:55:18.000Z</time>
      </trkpt>
      <trkpt lat="47.26131" lon="-2.31621">
        <ele>45.799999237061</ele>
        <time>2019-12-15T07:55:21.000Z</time>
      </trkpt>
      <trkpt lat="47.26119" lon="-2.31631">
        <ele>45.799999237061</ele>
        <time>2019-12-15T07:55:25.000Z</time>
      </trkpt>
      <trkpt lat="47.26119" lon="-2.31651">
        <ele>45.799999237061</ele>
        <time>2019-12-15T07:55:29.000Z</time>
      </trkpt>
      <trkpt lat="47.26124" lon="-2.31686">
        <ele>45.799999237061</ele>
        <time>2019-12-15T07:55:35.000Z</time>
      </trkpt>
      <trkpt lat="47.26125" lon="-2.31693">
        <ele>45.799999237061</ele>
        <time>2019-12-15T07:55:36.000Z</time>
      </trkpt>
      <trkpt lat="47.26131" lon="-2.31734">
        <ele>45.799999237061</ele>
        <time>2019-12-15T07:55:43.000Z</time>
      </trkpt>
      <trkpt lat="47.26135" lon="-2.31774">
        <ele>45.799999237061</ele>
        <time>2019-12-15T07:55:49.000Z</time>
      </trkpt>
      <trkpt lat="47.26139" lon="-2.31818">
        <ele>45.799999237061</ele>
        <time>2019-12-15T07:55:55.000Z</time>
      </trkpt>
      <trkpt lat="47.26142" lon="-2.31853">
        <ele>45.799999237061</ele>
        <time>2019-12-15T07:56:00.000Z</time>
      </trkpt>
      <trkpt lat="47.26143" lon="-2.3186">
        <ele>45.799999237061</ele>
        <time>2019-12-15T07:56:01.000Z</time>
      </trkpt>
      <trkpt lat="47.26146" lon="-2.31879">
        <ele>45.799999237061</ele>
        <time>2019-12-15T07:56:04.000Z</time>
      </trkpt>
      <trkpt lat="47.26149" lon="-2.31899">
        <ele>45.799999237061</ele>
        <time>2019-12-15T07:56:07.000Z</time>
      </trkpt>
      <trkpt lat="47.26152" lon="-2.31941">
        <ele>45.799999237061</ele>
        <time>2019-12-15T07:56:13.000Z</time>
      </trkpt>
      <trkpt lat="47.26157" lon="-2.31986">
        <ele>45.799999237061</ele>
        <time>2019-12-15T07:56:20.000Z</time>
      </trkpt>
      <trkpt lat="47.26154" lon="-2.3203">
        <ele>45.799999237061</ele>
        <time>2019-12-15T07:56:26.000Z</time>
      </trkpt>
      <trkpt lat="47.26148" lon="-2.32068">
        <ele>45.799999237061</ele>
        <time>2019-12-15T07:56:31.000Z</time>
      </trkpt>
      <trkpt lat="47.26145" lon="-2.32075">
        <ele>45.799999237061</ele>
        <time>2019-12-15T07:56:32.000Z</time>
      </trkpt>
      <trkpt lat="47.26139" lon="-2.32095">
        <ele>45.799999237061</ele>
        <time>2019-12-15T07:56:35.000Z</time>
      </trkpt>
      <trkpt lat="47.26135" lon="-2.32108">
        <ele>45.799999237061</ele>
        <time>2019-12-15T07:56:37.000Z</time>
      </trkpt>
      <trkpt lat="47.26125" lon="-2.32148">
        <ele>45.799999237061</ele>
        <time>2019-12-15T07:56:43.000Z</time>
      </trkpt>
      <trkpt lat="47.2612" lon="-2.32166">
        <ele>45.799999237061</ele>
        <time>2019-12-15T07:56:46.000Z</time>
      </trkpt>
      <trkpt lat="47.26115" lon="-2.32178">
        <ele>45.799999237061</ele>
        <time>2019-12-15T07:56:48.000Z</time>
      </trkpt>
      <trkpt lat="47.26102" lon="-2.32207">
        <ele>45.799999237061</ele>
        <time>2019-12-15T07:56:53.000Z</time>
      </trkpt>
      <trkpt lat="47.26094" lon="-2.32226">
        <ele>45.799999237061</ele>
        <time>2019-12-15T07:56:56.000Z</time>
      </trkpt>
      <trkpt lat="47.26088" lon="-2.32237">
        <ele>45.799999237061</ele>
        <time>2019-12-15T07:56:58.000Z</time>
      </trkpt>
      <trkpt lat="47.26078" lon="-2.32251">
        <ele>45.799999237061</ele>
        <time>2019-12-15T07:57:01.000Z</time>
      </trkpt>
      <trkpt lat="47.26071" lon="-2.3226">
        <ele>45.799999237061</ele>
        <time>2019-12-15T07:57:03.000Z</time>
      </trkpt>
      <trkpt lat="47.26064" lon="-2.32272">
        <ele>45.799999237061</ele>
        <time>2019-12-15T07:57:05.000Z</time>
      </trkpt>
      <trkpt lat="47.26053" lon="-2.32288">
        <ele>45.799999237061</ele>
        <time>2019-12-15T07:57:08.000Z</time>
      </trkpt>
      <trkpt lat="47.26048" lon="-2.32291">
        <ele>45.799999237061</ele>
        <time>2019-12-15T07:57:09.000Z</time>
      </trkpt>
      <trkpt lat="47.26028" lon="-2.32308">
        <ele>45.799999237061</ele>
        <time>2019-12-15T07:57:14.000Z</time>
      </trkpt>
      <trkpt lat="47.26018" lon="-2.32321">
        <ele>45.799999237061</ele>
        <time>2019-12-15T07:57:17.000Z</time>
      </trkpt>
      <trkpt lat="47.25996" lon="-2.32348">
        <ele>45.799999237061</ele>
        <time>2019-12-15T07:57:23.000Z</time>
      </trkpt>
      <trkpt lat="47.25969" lon="-2.32379">
        <ele>45.799999237061</ele>
        <time>2019-12-15T07:57:30.000Z</time>
      </trkpt>
      <trkpt lat="47.25944" lon="-2.32409">
        <ele>45.799999237061</ele>
        <time>2019-12-15T07:57:37.000Z</time>
      </trkpt>
      <trkpt lat="47.25926" lon="-2.32431">
        <ele>45.799999237061</ele>
        <time>2019-12-15T07:57:42.000Z</time>
      </trkpt>
      <trkpt lat="47.25919" lon="-2.3244">
        <ele>45.799999237061</ele>
        <time>2019-12-15T07:57:44.000Z</time>
      </trkpt>
      <trkpt lat="47.25916" lon="-2.32444">
        <ele>45.799999237061</ele>
        <time>2019-12-15T07:57:45.000Z</time>
      </trkpt>
      <trkpt lat="47.25897" lon="-2.32469">
        <ele>45.799999237061</ele>
        <time>2019-12-15T07:57:51.000Z</time>
      </trkpt>
      <trkpt lat="47.25887" lon="-2.32477">
        <ele>45.799999237061</ele>
        <time>2019-12-15T07:57:54.000Z</time>
      </trkpt>
      <trkpt lat="47.25874" lon="-2.3248">
        <ele>45.799999237061</ele>
        <time>2019-12-15T07:57:57.000Z</time>
      </trkpt>
      <trkpt lat="47.25869" lon="-2.3248">
        <ele>45.799999237061</ele>
        <time>2019-12-15T07:57:58.000Z</time>
      </trkpt>
      <trkpt lat="47.25851" lon="-2.3248">
        <ele>45.799999237061</ele>
        <time>2019-12-15T07:58:02.000Z</time>
      </trkpt>
      <trkpt lat="47.25842" lon="-2.32477">
        <ele>45.799999237061</ele>
        <time>2019-12-15T07:58:04.000Z</time>
      </trkpt>
      <trkpt lat="47.2581" lon="-2.32461">
        <ele>45.799999237061</ele>
        <time>2019-12-15T07:58:11.000Z</time>
      </trkpt>
      <trkpt lat="47.25806" lon="-2.32459">
        <ele>45.799999237061</ele>
        <time>2019-12-15T07:58:12.000Z</time>
      </trkpt>
      <trkpt lat="47.25794" lon="-2.3246">
        <ele>45.799999237061</ele>
        <time>2019-12-15T07:58:15.000Z</time>
      </trkpt>
      <trkpt lat="47.25779" lon="-2.32449">
        <ele>45.799999237061</ele>
        <time>2019-12-15T07:58:19.000Z</time>
      </trkpt>
      <trkpt lat="47.25773" lon="-2.32439">
        <ele>45.799999237061</ele>
        <time>2019-12-15T07:58:21.000Z</time>
      </trkpt>
      <trkpt lat="47.25766" lon="-2.32429">
        <ele>45.799999237061</ele>
        <time>2019-12-15T07:58:23.000Z</time>
      </trkpt>
      <trkpt lat="47.25762" lon="-2.32426">
        <ele>45.799999237061</ele>
        <time>2019-12-15T07:58:24.000Z</time>
      </trkpt>
      <trkpt lat="47.25742" lon="-2.32423">
        <ele>45.799999237061</ele>
        <time>2019-12-15T07:58:28.000Z</time>
      </trkpt>
      <trkpt lat="47.25707" lon="-2.32422">
        <ele>45.799999237061</ele>
        <time>2019-12-15T07:58:35.000Z</time>
      </trkpt>
      <trkpt lat="47.25672" lon="-2.32421">
        <ele>45.799999237061</ele>
        <time>2019-12-15T07:58:43.000Z</time>
      </trkpt>
      <trkpt lat="47.25668" lon="-2.32423">
        <ele>45.799999237061</ele>
        <time>2019-12-15T07:58:44.000Z</time>
      </trkpt>
      <trkpt lat="47.25661" lon="-2.32435">
        <ele>45.799999237061</ele>
        <time>2019-12-15T07:58:47.000Z</time>
      </trkpt>
      <trkpt lat="47.25664" lon="-2.32454">
        <ele>45.799999237061</ele>
        <time>2019-12-15T07:58:50.000Z</time>
      </trkpt>
      <trkpt lat="47.25666" lon="-2.3246">
        <ele>45.799999237061</ele>
        <time>2019-12-15T07:58:51.000Z</time>
      </trkpt>
      <trkpt lat="47.25677" lon="-2.32494">
        <ele>45.799999237061</ele>
        <time>2019-12-15T07:58:57.000Z</time>
      </trkpt>
      <trkpt lat="47.25681" lon="-2.32505">
        <ele>46.200000762939</ele>
        <time>2019-12-15T07:58:59.000Z</time>
      </trkpt>
      <trkpt lat="47.25683" lon="-2.32511">
        <ele>46.599998474121</ele>
        <time>2019-12-15T07:59:00.000Z</time>
      </trkpt>
      <trkpt lat="47.25685" lon="-2.32516">
        <ele>47.200000762939</ele>
        <time>2019-12-15T07:59:01.000Z</time>
      </trkpt>
      <trkpt lat="47.25687" lon="-2.32521">
        <ele>47.599998474121</ele>
        <time>2019-12-15T07:59:02.000Z</time>
      </trkpt>
      <trkpt lat="47.25689" lon="-2.32526">
        <ele>48</ele>
        <time>2019-12-15T07:59:03.000Z</time>
      </trkpt>
      <trkpt lat="47.25692" lon="-2.32537">
        <ele>48</ele>
        <time>2019-12-15T07:59:05.000Z</time>
      </trkpt>
      <trkpt lat="47.25704" lon="-2.32575">
        <ele>48</ele>
        <time>2019-12-15T07:59:12.000Z</time>
      </trkpt>
      <trkpt lat="47.25707" lon="-2.32586">
        <ele>48.400001525879</ele>
        <time>2019-12-15T07:59:14.000Z</time>
      </trkpt>
      <trkpt lat="47.25708" lon="-2.32592">
        <ele>48.799999237061</ele>
        <time>2019-12-15T07:59:15.000Z</time>
      </trkpt>
      <trkpt lat="47.25709" lon="-2.32597">
        <ele>49.200000762939</ele>
        <time>2019-12-15T07:59:16.000Z</time>
      </trkpt>
      <trkpt lat="47.2571" lon="-2.32602">
        <ele>49.599998474121</ele>
        <time>2019-12-15T07:59:17.000Z</time>
      </trkpt>
      <trkpt lat="47.2571" lon="-2.32608">
        <ele>50</ele>
        <time>2019-12-15T07:59:18.000Z</time>
      </trkpt>
      <trkpt lat="47.25703" lon="-2.32623">
        <ele>50</ele>
        <time>2019-12-15T07:59:21.000Z</time>
      </trkpt>
      <trkpt lat="47.25693" lon="-2.32629">
        <ele>50</ele>
        <time>2019-12-15T07:59:24.000Z</time>
      </trkpt>
      <trkpt lat="47.25689" lon="-2.32631">
        <ele>50.400001525879</ele>
        <time>2019-12-15T07:59:25.000Z</time>
      </trkpt>
      <trkpt lat="47.25686" lon="-2.32632">
        <ele>50.799999237061</ele>
        <time>2019-12-15T07:59:26.000Z</time>
      </trkpt>
      <trkpt lat="47.25682" lon="-2.32634">
        <ele>51.200000762939</ele>
        <time>2019-12-15T07:59:27.000Z</time>
      </trkpt>
      <trkpt lat="47.25678" lon="-2.32636">
        <ele>51.599998474121</ele>
        <time>2019-12-15T07:59:28.000Z</time>
      </trkpt>
      <trkpt lat="47.25674" lon="-2.32638">
        <ele>52</ele>
        <time>2019-12-15T07:59:29.000Z</time>
      </trkpt>
      <trkpt lat="47.25659" lon="-2.32645">
        <ele>52</ele>
        <time>2019-12-15T07:59:33.000Z</time>
      </trkpt>
      <trkpt lat="47.25628" lon="-2.32658">
        <ele>52</ele>
        <time>2019-12-15T07:59:41.000Z</time>
      </trkpt>
      <trkpt lat="47.25608" lon="-2.32667">
        <ele>52.400001525879</ele>
        <time>2019-12-15T07:59:46.000Z</time>
      </trkpt>
      <trkpt lat="47.25605" lon="-2.32669">
        <ele>52.799999237061</ele>
        <time>2019-12-15T07:59:47.000Z</time>
      </trkpt>
      <trkpt lat="47.25601" lon="-2.3267">
        <ele>53.200000762939</ele>
        <time>2019-12-15T07:59:48.000Z</time>
      </trkpt>
      <trkpt lat="47.25597" lon="-2.32672">
        <ele>53.599998474121</ele>
        <time>2019-12-15T07:59:49.000Z</time>
      </trkpt>
      <trkpt lat="47.25593" lon="-2.32674">
        <ele>54</ele>
        <time>2019-12-15T07:59:50.000Z</time>
      </trkpt>
      <trkpt lat="47.25563" lon="-2.32686">
        <ele>54</ele>
        <time>2019-12-15T07:59:57.000Z</time>
      </trkpt>
      <trkpt lat="47.25546" lon="-2.32693">
        <ele>54</ele>
        <time>2019-12-15T08:00:01.000Z</time>
      </trkpt>
      <trkpt lat="47.25542" lon="-2.32697">
        <ele>54</ele>
        <time>2019-12-15T08:00:02.000Z</time>
      </trkpt>
      <trkpt lat="47.25538" lon="-2.32699">
        <ele>54</ele>
        <time>2019-12-15T08:00:03.000Z</time>
      </trkpt>
      <trkpt lat="47.25525" lon="-2.32703">
        <ele>54</ele>
        <time>2019-12-15T08:00:06.000Z</time>
      </trkpt>
      <trkpt lat="47.25493" lon="-2.32705">
        <ele>54</ele>
        <time>2019-12-15T08:00:13.000Z</time>
      </trkpt>
      <trkpt lat="47.25474" lon="-2.3272">
        <ele>54</ele>
        <time>2019-12-15T08:00:18.000Z</time>
      </trkpt>
      <trkpt lat="47.25471" lon="-2.32724">
        <ele>54</ele>
        <time>2019-12-15T08:00:19.000Z</time>
      </trkpt>
      <trkpt lat="47.25461" lon="-2.32738">
        <ele>54</ele>
        <time>2019-12-15T08:00:22.000Z</time>
      </trkpt>
      <trkpt lat="47.25454" lon="-2.32747">
        <ele>54</ele>
        <time>2019-12-15T08:00:24.000Z</time>
      </trkpt>
      <trkpt lat="47.2544" lon="-2.32769">
        <ele>54</ele>
        <time>2019-12-15T08:00:29.000Z</time>
      </trkpt>
      <trkpt lat="47.25436" lon="-2.32781">
        <ele>54</ele>
        <time>2019-12-15T08:00:31.000Z</time>
      </trkpt>
      <trkpt lat="47.25434" lon="-2.32786">
        <ele>54</ele>
        <time>2019-12-15T08:00:32.000Z</time>
      </trkpt>
      <trkpt lat="47.25424" lon="-2.32799">
        <ele>54</ele>
        <time>2019-12-15T08:00:35.000Z</time>
      </trkpt>
      <trkpt lat="47.25398" lon="-2.32835">
        <ele>54</ele>
        <time>2019-12-15T08:00:42.000Z</time>
      </trkpt>
      <trkpt lat="47.25386" lon="-2.32849">
        <ele>53.599998474121</ele>
        <time>2019-12-15T08:00:45.000Z</time>
      </trkpt>
      <trkpt lat="47.25382" lon="-2.32853">
        <ele>53.200000762939</ele>
        <time>2019-12-15T08:00:46.000Z</time>
      </trkpt>
      <trkpt lat="47.25378" lon="-2.32857">
        <ele>52.799999237061</ele>
        <time>2019-12-15T08:00:47.000Z</time>
      </trkpt>
      <trkpt lat="47.25374" lon="-2.32861">
        <ele>52.400001525879</ele>
        <time>2019-12-15T08:00:48.000Z</time>
      </trkpt>
      <trkpt lat="47.2537" lon="-2.32865">
        <ele>52</ele>
        <time>2019-12-15T08:00:49.000Z</time>
      </trkpt>
      <trkpt lat="47.2534" lon="-2.32896">
        <ele>52</ele>
        <time>2019-12-15T08:00:57.000Z</time>
      </trkpt>
      <trkpt lat="47.25314" lon="-2.32923">
        <ele>52</ele>
        <time>2019-12-15T08:01:04.000Z</time>
      </trkpt>
      <trkpt lat="47.2531" lon="-2.32941">
        <ele>52</ele>
        <time>2019-12-15T08:01:07.000Z</time>
      </trkpt>
      <trkpt lat="47.25315" lon="-2.32959">
        <ele>52</ele>
        <time>2019-12-15T08:01:10.000Z</time>
      </trkpt>
      <trkpt lat="47.25317" lon="-2.32965">
        <ele>52</ele>
        <time>2019-12-15T08:01:11.000Z</time>
      </trkpt>
      <trkpt lat="47.25322" lon="-2.32976">
        <ele>52</ele>
        <time>2019-12-15T08:01:13.000Z</time>
      </trkpt>
      <trkpt lat="47.25329" lon="-2.32995">
        <ele>52</ele>
        <time>2019-12-15T08:01:16.000Z</time>
      </trkpt>
      <trkpt lat="47.25348" lon="-2.33044">
        <ele>52</ele>
        <time>2019-12-15T08:01:24.000Z</time>
      </trkpt>
      <trkpt lat="47.25357" lon="-2.33067">
        <ele>52</ele>
        <time>2019-12-15T08:01:28.000Z</time>
      </trkpt>
      <trkpt lat="47.25361" lon="-2.3308">
        <ele>52</ele>
        <time>2019-12-15T08:01:30.000Z</time>
      </trkpt>
      <trkpt lat="47.25367" lon="-2.33096">
        <ele>51.400001525879</ele>
        <time>2019-12-15T08:01:33.000Z</time>
      </trkpt>
      <trkpt lat="47.25369" lon="-2.331">
        <ele>50.599998474121</ele>
        <time>2019-12-15T08:01:34.000Z</time>
      </trkpt>
      <trkpt lat="47.25371" lon="-2.33106">
        <ele>50.200000762939</ele>
        <time>2019-12-15T08:01:35.000Z</time>
      </trkpt>
      <trkpt lat="47.25372" lon="-2.33111">
        <ele>49.799999237061</ele>
        <time>2019-12-15T08:01:36.000Z</time>
      </trkpt>
      <trkpt lat="47.25375" lon="-2.33123">
        <ele>49.799999237061</ele>
        <time>2019-12-15T08:01:40.000Z</time>
      </trkpt>
      <trkpt lat="47.25379" lon="-2.3313">
        <ele>49.799999237061</ele>
        <time>2019-12-15T08:01:45.000Z</time>
      </trkpt>
      <trkpt lat="47.25379" lon="-2.33134">
        <ele>49.799999237061</ele>
        <time>2019-12-15T08:01:47.000Z</time>
      </trkpt>
      <trkpt lat="47.25377" lon="-2.33137">
        <ele>49.799999237061</ele>
        <time>2019-12-15T08:01:49.000Z</time>
      </trkpt>
      <trkpt lat="47.25374" lon="-2.33139">
        <ele>49.799999237061</ele>
        <time>2019-12-15T08:01:51.000Z</time>
      </trkpt>
      <trkpt lat="47.25374" lon="-2.33138">
        <ele>49.799999237061</ele>
        <time>2019-12-15T08:01:54.000Z</time>
      </trkpt>
      <trkpt lat="47.25379" lon="-2.33139">
        <ele>49.799999237061</ele>
        <time>2019-12-15T08:09:21.000Z</time>
      </trkpt>
      <trkpt lat="47.2539" lon="-2.33147">
        <ele>49.799999237061</ele>
        <time>2019-12-15T08:09:27.000Z</time>
      </trkpt>
      <trkpt lat="47.25404" lon="-2.33174">
        <ele>49.799999237061</ele>
        <time>2019-12-15T08:09:35.000Z</time>
      </trkpt>
      <trkpt lat="47.25414" lon="-2.33198">
        <ele>49.799999237061</ele>
        <time>2019-12-15T08:09:41.000Z</time>
      </trkpt>
      <trkpt lat="47.25426" lon="-2.33223">
        <ele>49.799999237061</ele>
        <time>2019-12-15T08:09:47.000Z</time>
      </trkpt>
      <trkpt lat="47.25436" lon="-2.33252">
        <ele>49.799999237061</ele>
        <time>2019-12-15T08:09:53.000Z</time>
      </trkpt>
      <trkpt lat="47.2545" lon="-2.3329">
        <ele>49.799999237061</ele>
        <time>2019-12-15T08:10:01.000Z</time>
      </trkpt>
      <trkpt lat="47.25448" lon="-2.33312">
        <ele>49.799999237061</ele>
        <time>2019-12-15T08:10:05.000Z</time>
      </trkpt>
      <trkpt lat="47.25444" lon="-2.33322">
        <ele>49.799999237061</ele>
        <time>2019-12-15T08:10:07.000Z</time>
      </trkpt>
      <trkpt lat="47.25435" lon="-2.33343">
        <ele>49.799999237061</ele>
        <time>2019-12-15T08:10:11.000Z</time>
      </trkpt>
      <trkpt lat="47.25433" lon="-2.33348">
        <ele>49.799999237061</ele>
        <time>2019-12-15T08:10:12.000Z</time>
      </trkpt>
      <trkpt lat="47.25432" lon="-2.33367">
        <ele>49.799999237061</ele>
        <time>2019-12-15T08:10:15.000Z</time>
      </trkpt>
      <trkpt lat="47.25432" lon="-2.33423">
        <ele>49.799999237061</ele>
        <time>2019-12-15T08:10:24.000Z</time>
      </trkpt>
      <trkpt lat="47.25435" lon="-2.33466">
        <ele>49.799999237061</ele>
        <time>2019-12-15T08:10:31.000Z</time>
      </trkpt>
      <trkpt lat="47.2544" lon="-2.33488">
        <ele>49.799999237061</ele>
        <time>2019-12-15T08:10:35.000Z</time>
      </trkpt>
      <trkpt lat="47.25442" lon="-2.33494">
        <ele>49.799999237061</ele>
        <time>2019-12-15T08:10:36.000Z</time>
      </trkpt>
      <trkpt lat="47.2545" lon="-2.33539">
        <ele>49.799999237061</ele>
        <time>2019-12-15T08:10:44.000Z</time>
      </trkpt>
      <trkpt lat="47.25458" lon="-2.33574">
        <ele>49.799999237061</ele>
        <time>2019-12-15T08:10:50.000Z</time>
      </trkpt>
      <trkpt lat="47.25457" lon="-2.33578">
        <ele>49.799999237061</ele>
        <time>2019-12-15T08:10:51.000Z</time>
      </trkpt>
      <trkpt lat="47.25452" lon="-2.33582">
        <ele>49.799999237061</ele>
        <time>2019-12-15T08:10:53.000Z</time>
      </trkpt>
      <trkpt lat="47.25442" lon="-2.33592">
        <ele>49.799999237061</ele>
        <time>2019-12-15T08:10:57.000Z</time>
      </trkpt>
      <trkpt lat="47.25442" lon="-2.33607">
        <ele>49.799999237061</ele>
        <time>2019-12-15T08:11:00.000Z</time>
      </trkpt>
      <trkpt lat="47.25442" lon="-2.33613">
        <ele>49.799999237061</ele>
        <time>2019-12-15T08:11:01.000Z</time>
      </trkpt>
      <trkpt lat="47.25445" lon="-2.33646">
        <ele>49.799999237061</ele>
        <time>2019-12-15T08:11:06.000Z</time>
      </trkpt>
      <trkpt lat="47.25447" lon="-2.33652">
        <ele>49.799999237061</ele>
        <time>2019-12-15T08:11:07.000Z</time>
      </trkpt>
      <trkpt lat="47.25449" lon="-2.33666">
        <ele>49.799999237061</ele>
        <time>2019-12-15T08:11:09.000Z</time>
      </trkpt>
      <trkpt lat="47.25449" lon="-2.3368">
        <ele>49.799999237061</ele>
        <time>2019-12-15T08:11:11.000Z</time>
      </trkpt>
      <trkpt lat="47.25455" lon="-2.33729">
        <ele>49.799999237061</ele>
        <time>2019-12-15T08:11:18.000Z</time>
      </trkpt>
      <trkpt lat="47.25456" lon="-2.33735">
        <ele>49.799999237061</ele>
        <time>2019-12-15T08:11:19.000Z</time>
      </trkpt>
      <trkpt lat="47.25467" lon="-2.33748">
        <ele>49.799999237061</ele>
        <time>2019-12-15T08:11:22.000Z</time>
      </trkpt>
      <trkpt lat="47.25481" lon="-2.33754">
        <ele>49.799999237061</ele>
        <time>2019-12-15T08:11:25.000Z</time>
      </trkpt>
      <trkpt lat="47.25491" lon="-2.33755">
        <ele>49.799999237061</ele>
        <time>2019-12-15T08:11:27.000Z</time>
      </trkpt>
      <trkpt lat="47.25524" lon="-2.33756">
        <ele>49.799999237061</ele>
        <time>2019-12-15T08:11:34.000Z</time>
      </trkpt>
      <trkpt lat="47.25528" lon="-2.33755">
        <ele>49.799999237061</ele>
        <time>2019-12-15T08:11:35.000Z</time>
      </trkpt>
      <trkpt lat="47.2555" lon="-2.33754">
        <ele>49.799999237061</ele>
        <time>2019-12-15T08:11:40.000Z</time>
      </trkpt>
      <trkpt lat="47.25586" lon="-2.33753">
        <ele>49.799999237061</ele>
        <time>2019-12-15T08:11:48.000Z</time>
      </trkpt>
      <trkpt lat="47.25599" lon="-2.33754">
        <ele>49.799999237061</ele>
        <time>2019-12-15T08:11:51.000Z</time>
      </trkpt>
      <trkpt lat="47.25612" lon="-2.33758">
        <ele>49.799999237061</ele>
        <time>2019-12-15T08:11:54.000Z</time>
      </trkpt>
      <trkpt lat="47.25632" lon="-2.33766">
        <ele>49.799999237061</ele>
        <time>2019-12-15T08:11:58.000Z</time>
      </trkpt>
      <trkpt lat="47.25637" lon="-2.33778">
        <ele>49.799999237061</ele>
        <time>2019-12-15T08:12:00.000Z</time>
      </trkpt>
      <trkpt lat="47.25641" lon="-2.33806">
        <ele>49.799999237061</ele>
        <time>2019-12-15T08:12:04.000Z</time>
      </trkpt>
      <trkpt lat="47.25641" lon="-2.33814">
        <ele>49.799999237061</ele>
        <time>2019-12-15T08:12:05.000Z</time>
      </trkpt>
      <trkpt lat="47.25642" lon="-2.3383">
        <ele>49.799999237061</ele>
        <time>2019-12-15T08:12:07.000Z</time>
      </trkpt>
      <trkpt lat="47.25645" lon="-2.33845">
        <ele>49.799999237061</ele>
        <time>2019-12-15T08:12:09.000Z</time>
      </trkpt>
      <trkpt lat="47.25645" lon="-2.33853">
        <ele>49.799999237061</ele>
        <time>2019-12-15T08:12:10.000Z</time>
      </trkpt>
      <trkpt lat="47.2565" lon="-2.33883">
        <ele>49.799999237061</ele>
        <time>2019-12-15T08:12:14.000Z</time>
      </trkpt>
      <trkpt lat="47.25662" lon="-2.3395">
        <ele>49.799999237061</ele>
        <time>2019-12-15T08:12:23.000Z</time>
      </trkpt>
      <trkpt lat="47.25662" lon="-2.33958">
        <ele>49.799999237061</ele>
        <time>2019-12-15T08:12:24.000Z</time>
      </trkpt>
      <trkpt lat="47.25659" lon="-2.3398">
        <ele>49.799999237061</ele>
        <time>2019-12-15T08:12:27.000Z</time>
      </trkpt>
      <trkpt lat="47.2565" lon="-2.34029">
        <ele>49.799999237061</ele>
        <time>2019-12-15T08:12:34.000Z</time>
      </trkpt>
      <trkpt lat="47.25643" lon="-2.3407">
        <ele>49.799999237061</ele>
        <time>2019-12-15T08:12:40.000Z</time>
      </trkpt>
      <trkpt lat="47.25641" lon="-2.34089">
        <ele>49.799999237061</ele>
        <time>2019-12-15T08:12:43.000Z</time>
      </trkpt>
      <trkpt lat="47.25643" lon="-2.3411">
        <ele>49.799999237061</ele>
        <time>2019-12-15T08:12:46.000Z</time>
      </trkpt>
      <trkpt lat="47.25644" lon="-2.34117">
        <ele>49.799999237061</ele>
        <time>2019-12-15T08:12:47.000Z</time>
      </trkpt>
      <trkpt lat="47.25647" lon="-2.34131">
        <ele>49.799999237061</ele>
        <time>2019-12-15T08:12:49.000Z</time>
      </trkpt>
      <trkpt lat="47.25653" lon="-2.3415">
        <ele>49.799999237061</ele>
        <time>2019-12-15T08:12:52.000Z</time>
      </trkpt>
      <trkpt lat="47.25671" lon="-2.34183">
        <ele>49.799999237061</ele>
        <time>2019-12-15T08:12:58.000Z</time>
      </trkpt>
      <trkpt lat="47.25682" lon="-2.34191">
        <ele>49.400001525879</ele>
        <time>2019-12-15T08:13:01.000Z</time>
      </trkpt>
      <trkpt lat="47.25687" lon="-2.34191">
        <ele>49</ele>
        <time>2019-12-15T08:13:02.000Z</time>
      </trkpt>
      <trkpt lat="47.25692" lon="-2.3419">
        <ele>48.599998474121</ele>
        <time>2019-12-15T08:13:03.000Z</time>
      </trkpt>
      <trkpt lat="47.25698" lon="-2.34189">
        <ele>48.200000762939</ele>
        <time>2019-12-15T08:13:04.000Z</time>
      </trkpt>
      <trkpt lat="47.25703" lon="-2.34189">
        <ele>47.799999237061</ele>
        <time>2019-12-15T08:13:05.000Z</time>
      </trkpt>
      <trkpt lat="47.25715" lon="-2.34186">
        <ele>47.799999237061</ele>
        <time>2019-12-15T08:13:07.000Z</time>
      </trkpt>
      <trkpt lat="47.25754" lon="-2.34178">
        <ele>47.799999237061</ele>
        <time>2019-12-15T08:13:14.000Z</time>
      </trkpt>
      <trkpt lat="47.25778" lon="-2.34174">
        <ele>47.799999237061</ele>
        <time>2019-12-15T08:13:19.000Z</time>
      </trkpt>
      <trkpt lat="47.25799" lon="-2.3417">
        <ele>47.799999237061</ele>
        <time>2019-12-15T08:13:24.000Z</time>
      </trkpt>
      <trkpt lat="47.25804" lon="-2.34171">
        <ele>47.799999237061</ele>
        <time>2019-12-15T08:13:25.000Z</time>
      </trkpt>
      <trkpt lat="47.25826" lon="-2.34174">
        <ele>47.799999237061</ele>
        <time>2019-12-15T08:13:31.000Z</time>
      </trkpt>
      <trkpt lat="47.25835" lon="-2.34163">
        <ele>47.799999237061</ele>
        <time>2019-12-15T08:13:35.000Z</time>
      </trkpt>
      <trkpt lat="47.25842" lon="-2.34155">
        <ele>47.799999237061</ele>
        <time>2019-12-15T08:13:39.000Z</time>
      </trkpt>
      <trkpt lat="47.25854" lon="-2.3416">
        <ele>47.799999237061</ele>
        <time>2019-12-15T08:13:42.000Z</time>
      </trkpt>
      <trkpt lat="47.25859" lon="-2.34161">
        <ele>47.799999237061</ele>
        <time>2019-12-15T08:13:43.000Z</time>
      </trkpt>
      <trkpt lat="47.25872" lon="-2.34165">
        <ele>47.799999237061</ele>
        <time>2019-12-15T08:13:48.000Z</time>
      </trkpt>
      <trkpt lat="47.25874" lon="-2.34164">
        <ele>47.799999237061</ele>
        <time>2019-12-15T08:13:49.000Z</time>
      </trkpt>
      <trkpt lat="47.25884" lon="-2.34159">
        <ele>47.799999237061</ele>
        <time>2019-12-15T08:13:53.000Z</time>
      </trkpt>
      <trkpt lat="47.25889" lon="-2.34152">
        <ele>47.799999237061</ele>
        <time>2019-12-15T08:13:55.000Z</time>
      </trkpt>
      <trkpt lat="47.25899" lon="-2.34146">
        <ele>47.799999237061</ele>
        <time>2019-12-15T08:13:58.000Z</time>
      </trkpt>
      <trkpt lat="47.25924" lon="-2.34132">
        <ele>47.799999237061</ele>
        <time>2019-12-15T08:14:04.000Z</time>
      </trkpt>
      <trkpt lat="47.25951" lon="-2.34111">
        <ele>47.799999237061</ele>
        <time>2019-12-15T08:14:11.000Z</time>
      </trkpt>
      <trkpt lat="47.25955" lon="-2.3411">
        <ele>47.799999237061</ele>
        <time>2019-12-15T08:14:12.000Z</time>
      </trkpt>
      <trkpt lat="47.25972" lon="-2.34111">
        <ele>47.799999237061</ele>
        <time>2019-12-15T08:14:16.000Z</time>
      </trkpt>
      <trkpt lat="47.25982" lon="-2.34114">
        <ele>47.799999237061</ele>
        <time>2019-12-15T08:14:18.000Z</time>
      </trkpt>
      <trkpt lat="47.26011" lon="-2.34122">
        <ele>47.799999237061</ele>
        <time>2019-12-15T08:14:24.000Z</time>
      </trkpt>
      <trkpt lat="47.2605" lon="-2.3414">
        <ele>47.799999237061</ele>
        <time>2019-12-15T08:14:32.000Z</time>
      </trkpt>
      <trkpt lat="47.2609" lon="-2.3416">
        <ele>47.799999237061</ele>
        <time>2019-12-15T08:14:40.000Z</time>
      </trkpt>
      <trkpt lat="47.26114" lon="-2.34173">
        <ele>47.799999237061</ele>
        <time>2019-12-15T08:14:46.000Z</time>
      </trkpt>
      <trkpt lat="47.26117" lon="-2.34177">
        <ele>47.799999237061</ele>
        <time>2019-12-15T08:14:47.000Z</time>
      </trkpt>
      <trkpt lat="47.26125" lon="-2.34184">
        <ele>47.799999237061</ele>
        <time>2019-12-15T08:14:49.000Z</time>
      </trkpt>
      <trkpt lat="47.26134" lon="-2.34184">
        <ele>47.799999237061</ele>
        <time>2019-12-15T08:14:51.000Z</time>
      </trkpt>
      <trkpt lat="47.26151" lon="-2.34175">
        <ele>47.799999237061</ele>
        <time>2019-12-15T08:14:55.000Z</time>
      </trkpt>
      <trkpt lat="47.26166" lon="-2.3418">
        <ele>47.799999237061</ele>
        <time>2019-12-15T08:14:58.000Z</time>
      </trkpt>
      <trkpt lat="47.26179" lon="-2.34194">
        <ele>47.799999237061</ele>
        <time>2019-12-15T08:15:01.000Z</time>
      </trkpt>
      <trkpt lat="47.26183" lon="-2.34198">
        <ele>47.799999237061</ele>
        <time>2019-12-15T08:15:02.000Z</time>
      </trkpt>
      <trkpt lat="47.26218" lon="-2.34234">
        <ele>47.799999237061</ele>
        <time>2019-12-15T08:15:10.000Z</time>
      </trkpt>
      <trkpt lat="47.26248" lon="-2.34266">
        <ele>47.799999237061</ele>
        <time>2019-12-15T08:15:17.000Z</time>
      </trkpt>
      <trkpt lat="47.26278" lon="-2.34299">
        <ele>47.799999237061</ele>
        <time>2019-12-15T08:15:24.000Z</time>
      </trkpt>
      <trkpt lat="47.26314" lon="-2.34336">
        <ele>47.799999237061</ele>
        <time>2019-12-15T08:15:32.000Z</time>
      </trkpt>
      <trkpt lat="47.26329" lon="-2.34347">
        <ele>47.799999237061</ele>
        <time>2019-12-15T08:15:35.000Z</time>
      </trkpt>
      <trkpt lat="47.26338" lon="-2.34353">
        <ele>47.799999237061</ele>
        <time>2019-12-15T08:15:37.000Z</time>
      </trkpt>
      <trkpt lat="47.26355" lon="-2.34374">
        <ele>47.799999237061</ele>
        <time>2019-12-15T08:15:41.000Z</time>
      </trkpt>
      <trkpt lat="47.26394" lon="-2.34406">
        <ele>47.799999237061</ele>
        <time>2019-12-15T08:15:49.000Z</time>
      </trkpt>
      <trkpt lat="47.26439" lon="-2.34443">
        <ele>47.799999237061</ele>
        <time>2019-12-15T08:15:58.000Z</time>
      </trkpt>
      <trkpt lat="47.26474" lon="-2.34468">
        <ele>47.799999237061</ele>
        <time>2019-12-15T08:16:05.000Z</time>
      </trkpt>
      <trkpt lat="47.26518" lon="-2.345">
        <ele>47.799999237061</ele>
        <time>2019-12-15T08:16:14.000Z</time>
      </trkpt>
      <trkpt lat="47.26544" lon="-2.34521">
        <ele>47.799999237061</ele>
        <time>2019-12-15T08:16:19.000Z</time>
      </trkpt>
      <trkpt lat="47.26552" lon="-2.34532">
        <ele>47.799999237061</ele>
        <time>2019-12-15T08:16:21.000Z</time>
      </trkpt>
      <trkpt lat="47.26556" lon="-2.34537">
        <ele>48.599998474121</ele>
        <time>2019-12-15T08:16:22.000Z</time>
      </trkpt>
      <trkpt lat="47.26561" lon="-2.34542">
        <ele>49</ele>
        <time>2019-12-15T08:16:23.000Z</time>
      </trkpt>
      <trkpt lat="47.26565" lon="-2.34547">
        <ele>49.400001525879</ele>
        <time>2019-12-15T08:16:24.000Z</time>
      </trkpt>
      <trkpt lat="47.2657" lon="-2.34552">
        <ele>49.799999237061</ele>
        <time>2019-12-15T08:16:25.000Z</time>
      </trkpt>
      <trkpt lat="47.26584" lon="-2.34567">
        <ele>49.799999237061</ele>
        <time>2019-12-15T08:16:28.000Z</time>
      </trkpt>
      <trkpt lat="47.26612" lon="-2.34598">
        <ele>49.799999237061</ele>
        <time>2019-12-15T08:16:34.000Z</time>
      </trkpt>
      <trkpt lat="47.26637" lon="-2.34629">
        <ele>49.799999237061</ele>
        <time>2019-12-15T08:16:40.000Z</time>
      </trkpt>
      <trkpt lat="47.26641" lon="-2.34634">
        <ele>49.799999237061</ele>
        <time>2019-12-15T08:16:41.000Z</time>
      </trkpt>
      <trkpt lat="47.26649" lon="-2.34644">
        <ele>49.400001525879</ele>
        <time>2019-12-15T08:16:43.000Z</time>
      </trkpt>
      <trkpt lat="47.26653" lon="-2.34649">
        <ele>49</ele>
        <time>2019-12-15T08:16:44.000Z</time>
      </trkpt>
      <trkpt lat="47.26658" lon="-2.34654">
        <ele>48.599998474121</ele>
        <time>2019-12-15T08:16:45.000Z</time>
      </trkpt>
      <trkpt lat="47.26663" lon="-2.34659">
        <ele>48.200000762939</ele>
        <time>2019-12-15T08:16:46.000Z</time>
      </trkpt>
      <trkpt lat="47.26667" lon="-2.34665">
        <ele>47.799999237061</ele>
        <time>2019-12-15T08:16:47.000Z</time>
      </trkpt>
      <trkpt lat="47.26672" lon="-2.3467">
        <ele>47.799999237061</ele>
        <time>2019-12-15T08:16:48.000Z</time>
      </trkpt>
      <trkpt lat="47.26712" lon="-2.34719">
        <ele>47.799999237061</ele>
        <time>2019-12-15T08:16:57.000Z</time>
      </trkpt>
      <trkpt lat="47.26752" lon="-2.34769">
        <ele>47.799999237061</ele>
        <time>2019-12-15T08:17:06.000Z</time>
      </trkpt>
      <trkpt lat="47.26782" lon="-2.34806">
        <ele>47.799999237061</ele>
        <time>2019-12-15T08:17:13.000Z</time>
      </trkpt>
      <trkpt lat="47.26786" lon="-2.34812">
        <ele>47.799999237061</ele>
        <time>2019-12-15T08:17:14.000Z</time>
      </trkpt>
      <trkpt lat="47.26818" lon="-2.3486">
        <ele>47.799999237061</ele>
        <time>2019-12-15T08:17:22.000Z</time>
      </trkpt>
      <trkpt lat="47.26848" lon="-2.34903">
        <ele>47.799999237061</ele>
        <time>2019-12-15T08:17:29.000Z</time>
      </trkpt>
      <trkpt lat="47.26852" lon="-2.34909">
        <ele>48.200000762939</ele>
        <time>2019-12-15T08:17:30.000Z</time>
      </trkpt>
      <trkpt lat="47.26856" lon="-2.34915">
        <ele>48.599998474121</ele>
        <time>2019-12-15T08:17:31.000Z</time>
      </trkpt>
      <trkpt lat="47.2686" lon="-2.34921">
        <ele>49</ele>
        <time>2019-12-15T08:17:32.000Z</time>
      </trkpt>
      <trkpt lat="47.26864" lon="-2.34927">
        <ele>49.400001525879</ele>
        <time>2019-12-15T08:17:33.000Z</time>
      </trkpt>
      <trkpt lat="47.26869" lon="-2.34934">
        <ele>49.799999237061</ele>
        <time>2019-12-15T08:17:34.000Z</time>
      </trkpt>
      <trkpt lat="47.2689" lon="-2.34965">
        <ele>49.799999237061</ele>
        <time>2019-12-15T08:17:39.000Z</time>
      </trkpt>
      <trkpt lat="47.26917" lon="-2.35007">
        <ele>49.799999237061</ele>
        <time>2019-12-15T08:17:46.000Z</time>
      </trkpt>
      <trkpt lat="47.26951" lon="-2.35063">
        <ele>49.799999237061</ele>
        <time>2019-12-15T08:17:55.000Z</time>
      </trkpt>
      <trkpt lat="47.2699" lon="-2.35123">
        <ele>49.799999237061</ele>
        <time>2019-12-15T08:18:05.000Z</time>
      </trkpt>
      <trkpt lat="47.2702" lon="-2.35167">
        <ele>49.799999237061</ele>
        <time>2019-12-15T08:18:12.000Z</time>
      </trkpt>
      <trkpt lat="47.27053" lon="-2.35218">
        <ele>49.799999237061</ele>
        <time>2019-12-15T08:18:20.000Z</time>
      </trkpt>
      <trkpt lat="47.2709" lon="-2.35274">
        <ele>49.799999237061</ele>
        <time>2019-12-15T08:18:29.000Z</time>
      </trkpt>
      <trkpt lat="47.27119" lon="-2.3532">
        <ele>49.799999237061</ele>
        <time>2019-12-15T08:18:36.000Z</time>
      </trkpt>
      <trkpt lat="47.27148" lon="-2.3537">
        <ele>49.799999237061</ele>
        <time>2019-12-15T08:18:44.000Z</time>
      </trkpt>
      <trkpt lat="47.27179" lon="-2.35426">
        <ele>49.799999237061</ele>
        <time>2019-12-15T08:18:53.000Z</time>
      </trkpt>
      <trkpt lat="47.27203" lon="-2.35471">
        <ele>49.799999237061</ele>
        <time>2019-12-15T08:19:00.000Z</time>
      </trkpt>
      <trkpt lat="47.27235" lon="-2.35536">
        <ele>49.799999237061</ele>
        <time>2019-12-15T08:19:10.000Z</time>
      </trkpt>
      <trkpt lat="47.27263" lon="-2.356">
        <ele>49.799999237061</ele>
        <time>2019-12-15T08:19:19.000Z</time>
      </trkpt>
      <trkpt lat="47.27282" lon="-2.35642">
        <ele>49.799999237061</ele>
        <time>2019-12-15T08:19:25.000Z</time>
      </trkpt>
      <trkpt lat="47.27301" lon="-2.35682">
        <ele>49.799999237061</ele>
        <time>2019-12-15T08:19:31.000Z</time>
      </trkpt>
      <trkpt lat="47.27304" lon="-2.35688">
        <ele>49.799999237061</ele>
        <time>2019-12-15T08:19:32.000Z</time>
      </trkpt>
      <trkpt lat="47.2731" lon="-2.35702">
        <ele>49.799999237061</ele>
        <time>2019-12-15T08:19:34.000Z</time>
      </trkpt>
      <trkpt lat="47.27313" lon="-2.35708">
        <ele>49.400001525879</ele>
        <time>2019-12-15T08:19:35.000Z</time>
      </trkpt>
      <trkpt lat="47.27315" lon="-2.35714">
        <ele>49</ele>
        <time>2019-12-15T08:19:36.000Z</time>
      </trkpt>
      <trkpt lat="47.27318" lon="-2.35719">
        <ele>48.599998474121</ele>
        <time>2019-12-15T08:19:37.000Z</time>
      </trkpt>
      <trkpt lat="47.27322" lon="-2.35721">
        <ele>48.200000762939</ele>
        <time>2019-12-15T08:19:38.000Z</time>
      </trkpt>
      <trkpt lat="47.27327" lon="-2.3572">
        <ele>47.799999237061</ele>
        <time>2019-12-15T08:19:39.000Z</time>
      </trkpt>
      <trkpt lat="47.27332" lon="-2.35715">
        <ele>47.799999237061</ele>
        <time>2019-12-15T08:19:40.000Z</time>
      </trkpt>
      <trkpt lat="47.27344" lon="-2.35705">
        <ele>47.799999237061</ele>
        <time>2019-12-15T08:19:42.000Z</time>
      </trkpt>
      <trkpt lat="47.27354" lon="-2.35695">
        <ele>47.799999237061</ele>
        <time>2019-12-15T08:19:44.000Z</time>
      </trkpt>
      <trkpt lat="47.2739" lon="-2.35671">
        <ele>47.799999237061</ele>
        <time>2019-12-15T08:19:50.000Z</time>
      </trkpt>
      <trkpt lat="47.27412" lon="-2.3566">
        <ele>47.799999237061</ele>
        <time>2019-12-15T08:19:54.000Z</time>
      </trkpt>
      <trkpt lat="47.27418" lon="-2.3566">
        <ele>47.799999237061</ele>
        <time>2019-12-15T08:19:55.000Z</time>
      </trkpt>
      <trkpt lat="47.27436" lon="-2.35663">
        <ele>48.200000762939</ele>
        <time>2019-12-15T08:19:58.000Z</time>
      </trkpt>
      <trkpt lat="47.27441" lon="-2.35664">
        <ele>48.599998474121</ele>
        <time>2019-12-15T08:19:59.000Z</time>
      </trkpt>
      <trkpt lat="47.27447" lon="-2.35665">
        <ele>49</ele>
        <time>2019-12-15T08:20:00.000Z</time>
      </trkpt>
      <trkpt lat="47.27452" lon="-2.35666">
        <ele>49.400001525879</ele>
        <time>2019-12-15T08:20:01.000Z</time>
      </trkpt>
      <trkpt lat="47.27458" lon="-2.35667">
        <ele>49.799999237061</ele>
        <time>2019-12-15T08:20:02.000Z</time>
      </trkpt>
      <trkpt lat="47.27474" lon="-2.35673">
        <ele>49.799999237061</ele>
        <time>2019-12-15T08:20:05.000Z</time>
      </trkpt>
      <trkpt lat="47.2753" lon="-2.35685">
        <ele>49.799999237061</ele>
        <time>2019-12-15T08:20:15.000Z</time>
      </trkpt>
      <trkpt lat="47.27546" lon="-2.35688">
        <ele>49.799999237061</ele>
        <time>2019-12-15T08:20:18.000Z</time>
      </trkpt>
      <trkpt lat="47.27567" lon="-2.35694">
        <ele>49.799999237061</ele>
        <time>2019-12-15T08:20:22.000Z</time>
      </trkpt>
      <trkpt lat="47.27602" lon="-2.35703">
        <ele>49.799999237061</ele>
        <time>2019-12-15T08:20:28.000Z</time>
      </trkpt>
      <trkpt lat="47.27642" lon="-2.35714">
        <ele>49.799999237061</ele>
        <time>2019-12-15T08:20:35.000Z</time>
      </trkpt>
      <trkpt lat="47.27652" lon="-2.35717">
        <ele>50.200000762939</ele>
        <time>2019-12-15T08:20:37.000Z</time>
      </trkpt>
      <trkpt lat="47.27657" lon="-2.35718">
        <ele>50.599998474121</ele>
        <time>2019-12-15T08:20:38.000Z</time>
      </trkpt>
      <trkpt lat="47.27662" lon="-2.3572">
        <ele>51</ele>
        <time>2019-12-15T08:20:39.000Z</time>
      </trkpt>
      <trkpt lat="47.27667" lon="-2.35721">
        <ele>51.400001525879</ele>
        <time>2019-12-15T08:20:40.000Z</time>
      </trkpt>
      <trkpt lat="47.27671" lon="-2.35722">
        <ele>51.799999237061</ele>
        <time>2019-12-15T08:20:41.000Z</time>
      </trkpt>
      <trkpt lat="47.27676" lon="-2.35722">
        <ele>51.799999237061</ele>
        <time>2019-12-15T08:20:42.000Z</time>
      </trkpt>
      <trkpt lat="47.27685" lon="-2.35718">
        <ele>51.799999237061</ele>
        <time>2019-12-15T08:20:44.000Z</time>
      </trkpt>
      <trkpt lat="47.27702" lon="-2.35709">
        <ele>51.799999237061</ele>
        <time>2019-12-15T08:20:48.000Z</time>
      </trkpt>
      <trkpt lat="47.27706" lon="-2.35705">
        <ele>51.799999237061</ele>
        <time>2019-12-15T08:20:49.000Z</time>
      </trkpt>
      <trkpt lat="47.2772" lon="-2.35689">
        <ele>51.799999237061</ele>
        <time>2019-12-15T08:20:53.000Z</time>
      </trkpt>
      <trkpt lat="47.27723" lon="-2.35684">
        <ele>52.400001525879</ele>
        <time>2019-12-15T08:20:54.000Z</time>
      </trkpt>
      <trkpt lat="47.27726" lon="-2.3568">
        <ele>52.799999237061</ele>
        <time>2019-12-15T08:20:55.000Z</time>
      </trkpt>
      <trkpt lat="47.27729" lon="-2.35675">
        <ele>53.200000762939</ele>
        <time>2019-12-15T08:20:56.000Z</time>
      </trkpt>
      <trkpt lat="47.27732" lon="-2.3567">
        <ele>53.599998474121</ele>
        <time>2019-12-15T08:20:57.000Z</time>
      </trkpt>
      <trkpt lat="47.27735" lon="-2.35664">
        <ele>54</ele>
        <time>2019-12-15T08:20:58.000Z</time>
      </trkpt>
      <trkpt lat="47.2774" lon="-2.35655">
        <ele>54</ele>
        <time>2019-12-15T08:21:00.000Z</time>
      </trkpt>
      <trkpt lat="47.27743" lon="-2.3565">
        <ele>54</ele>
        <time>2019-12-15T08:21:01.000Z</time>
      </trkpt>
      <trkpt lat="47.27758" lon="-2.35633">
        <ele>54</ele>
        <time>2019-12-15T08:21:05.000Z</time>
      </trkpt>
      <trkpt lat="47.27763" lon="-2.35629">
        <ele>54</ele>
        <time>2019-12-15T08:21:06.000Z</time>
      </trkpt>
      <trkpt lat="47.27786" lon="-2.35614">
        <ele>54.400001525879</ele>
        <time>2019-12-15T08:21:11.000Z</time>
      </trkpt>
      <trkpt lat="47.27791" lon="-2.35612">
        <ele>54.799999237061</ele>
        <time>2019-12-15T08:21:12.000Z</time>
      </trkpt>
      <trkpt lat="47.27796" lon="-2.3561">
        <ele>55.200000762939</ele>
        <time>2019-12-15T08:21:13.000Z</time>
      </trkpt>
      <trkpt lat="47.278" lon="-2.35609">
        <ele>55.599998474121</ele>
        <time>2019-12-15T08:21:14.000Z</time>
      </trkpt>
      <trkpt lat="47.27805" lon="-2.35607">
        <ele>56</ele>
        <time>2019-12-15T08:21:15.000Z</time>
      </trkpt>
      <trkpt lat="47.2781" lon="-2.35605">
        <ele>56</ele>
        <time>2019-12-15T08:21:16.000Z</time>
      </trkpt>
      <trkpt lat="47.2782" lon="-2.35601">
        <ele>56</ele>
        <time>2019-12-15T08:21:18.000Z</time>
      </trkpt>
      <trkpt lat="47.2783" lon="-2.35597">
        <ele>56</ele>
        <time>2019-12-15T08:21:20.000Z</time>
      </trkpt>
      <trkpt lat="47.27845" lon="-2.35595">
        <ele>56.400001525879</ele>
        <time>2019-12-15T08:21:23.000Z</time>
      </trkpt>
      <trkpt lat="47.27849" lon="-2.35594">
        <ele>56.799999237061</ele>
        <time>2019-12-15T08:21:24.000Z</time>
      </trkpt>
      <trkpt lat="47.27854" lon="-2.35593">
        <ele>57.200000762939</ele>
        <time>2019-12-15T08:21:25.000Z</time>
      </trkpt>
      <trkpt lat="47.27858" lon="-2.35592">
        <ele>57.599998474121</ele>
        <time>2019-12-15T08:21:26.000Z</time>
      </trkpt>
      <trkpt lat="47.27863" lon="-2.3559">
        <ele>58</ele>
        <time>2019-12-15T08:21:27.000Z</time>
      </trkpt>
      <trkpt lat="47.27867" lon="-2.35589">
        <ele>58</ele>
        <time>2019-12-15T08:21:28.000Z</time>
      </trkpt>
      <trkpt lat="47.27876" lon="-2.3559">
        <ele>58</ele>
        <time>2019-12-15T08:21:30.000Z</time>
      </trkpt>
      <trkpt lat="47.27893" lon="-2.35589">
        <ele>58</ele>
        <time>2019-12-15T08:21:35.000Z</time>
      </trkpt>
      <trkpt lat="47.27912" lon="-2.35583">
        <ele>58</ele>
        <time>2019-12-15T08:21:40.000Z</time>
      </trkpt>
      <trkpt lat="47.27916" lon="-2.35581">
        <ele>58.599998474121</ele>
        <time>2019-12-15T08:21:41.000Z</time>
      </trkpt>
      <trkpt lat="47.27921" lon="-2.3558">
        <ele>59</ele>
        <time>2019-12-15T08:21:42.000Z</time>
      </trkpt>
      <trkpt lat="47.27925" lon="-2.35578">
        <ele>59.799999237061</ele>
        <time>2019-12-15T08:21:43.000Z</time>
      </trkpt>
      <trkpt lat="47.27929" lon="-2.35577">
        <ele>60.200000762939</ele>
        <time>2019-12-15T08:21:44.000Z</time>
      </trkpt>
      <trkpt lat="47.27936" lon="-2.35575">
        <ele>60.200000762939</ele>
        <time>2019-12-15T08:21:46.000Z</time>
      </trkpt>
      <trkpt lat="47.2794" lon="-2.35574">
        <ele>60.200000762939</ele>
        <time>2019-12-15T08:21:47.000Z</time>
      </trkpt>
      <trkpt lat="47.27958" lon="-2.35569">
        <ele>60.200000762939</ele>
        <time>2019-12-15T08:21:51.000Z</time>
      </trkpt>
      <trkpt lat="47.27995" lon="-2.3556">
        <ele>60.200000762939</ele>
        <time>2019-12-15T08:21:59.000Z</time>
      </trkpt>
      <trkpt lat="47.28017" lon="-2.35557">
        <ele>60.599998474121</ele>
        <time>2019-12-15T08:22:04.000Z</time>
      </trkpt>
      <trkpt lat="47.28021" lon="-2.35558">
        <ele>61</ele>
        <time>2019-12-15T08:22:05.000Z</time>
      </trkpt>
      <trkpt lat="47.28026" lon="-2.3556">
        <ele>61.400001525879</ele>
        <time>2019-12-15T08:22:06.000Z</time>
      </trkpt>
      <trkpt lat="47.2803" lon="-2.35562">
        <ele>61.799999237061</ele>
        <time>2019-12-15T08:22:07.000Z</time>
      </trkpt>
      <trkpt lat="47.28033" lon="-2.35566">
        <ele>62.200000762939</ele>
        <time>2019-12-15T08:22:08.000Z</time>
      </trkpt>
      <trkpt lat="47.28036" lon="-2.3557">
        <ele>62.200000762939</ele>
        <time>2019-12-15T08:22:09.000Z</time>
      </trkpt>
      <trkpt lat="47.28039" lon="-2.35572">
        <ele>62.200000762939</ele>
        <time>2019-12-15T08:22:10.000Z</time>
      </trkpt>
      <trkpt lat="47.28059" lon="-2.35579">
        <ele>62.200000762939</ele>
        <time>2019-12-15T08:22:16.000Z</time>
      </trkpt>
      <trkpt lat="47.28066" lon="-2.35585">
        <ele>62.200000762939</ele>
        <time>2019-12-15T08:22:21.000Z</time>
      </trkpt>
      <trkpt lat="47.28075" lon="-2.35593">
        <ele>62.200000762939</ele>
        <time>2019-12-15T08:22:27.000Z</time>
      </trkpt>
      <trkpt lat="47.28077" lon="-2.35608">
        <ele>62.200000762939</ele>
        <time>2019-12-15T08:22:32.000Z</time>
      </trkpt>
      <trkpt lat="47.28077" lon="-2.35611">
        <ele>63</ele>
        <time>2019-12-15T08:22:33.000Z</time>
      </trkpt>
      <trkpt lat="47.28077" lon="-2.35615">
        <ele>63.400001525879</ele>
        <time>2019-12-15T08:22:34.000Z</time>
      </trkpt>
      <trkpt lat="47.28077" lon="-2.35619">
        <ele>63.799999237061</ele>
        <time>2019-12-15T08:22:35.000Z</time>
      </trkpt>
      <trkpt lat="47.28077" lon="-2.35624">
        <ele>64.199996948242</ele>
        <time>2019-12-15T08:22:36.000Z</time>
      </trkpt>
      <trkpt lat="47.28078" lon="-2.35627">
        <ele>64.199996948242</ele>
        <time>2019-12-15T08:22:37.000Z</time>
      </trkpt>
      <trkpt lat="47.28082" lon="-2.35639">
        <ele>64.599998474121</ele>
        <time>2019-12-15T08:22:41.000Z</time>
      </trkpt>
      <trkpt lat="47.28082" lon="-2.35642">
        <ele>65</ele>
        <time>2019-12-15T08:22:42.000Z</time>
      </trkpt>
      <trkpt lat="47.28083" lon="-2.35646">
        <ele>65.400001525879</ele>
        <time>2019-12-15T08:22:43.000Z</time>
      </trkpt>
      <trkpt lat="47.28083" lon="-2.35649">
        <ele>66</ele>
        <time>2019-12-15T08:22:44.000Z</time>
      </trkpt>
      <trkpt lat="47.28084" lon="-2.35652">
        <ele>66.400001525879</ele>
        <time>2019-12-15T08:22:45.000Z</time>
      </trkpt>
      <trkpt lat="47.28086" lon="-2.35658">
        <ele>66.800003051758</ele>
        <time>2019-12-15T08:22:47.000Z</time>
      </trkpt>
      <trkpt lat="47.28086" lon="-2.35662">
        <ele>67.199996948242</ele>
        <time>2019-12-15T08:22:48.000Z</time>
      </trkpt>
      <trkpt lat="47.28087" lon="-2.35665">
        <ele>67.599998474121</ele>
        <time>2019-12-15T08:22:49.000Z</time>
      </trkpt>
      <trkpt lat="47.28087" lon="-2.35668">
        <ele>68</ele>
        <time>2019-12-15T08:22:50.000Z</time>
      </trkpt>
      <trkpt lat="47.28087" lon="-2.35669">
        <ele>68.400001525879</ele>
        <time>2019-12-15T08:22:51.000Z</time>
      </trkpt>
      <trkpt lat="47.28088" lon="-2.35674">
        <ele>68.400001525879</ele>
        <time>2019-12-15T08:22:53.000Z</time>
      </trkpt>
      <trkpt lat="47.28089" lon="-2.35685">
        <ele>68.400001525879</ele>
        <time>2019-12-15T08:22:59.000Z</time>
      </trkpt>
      <trkpt lat="47.28089" lon="-2.35686">
        <ele>68.400001525879</ele>
        <time>2019-12-15T08:23:00.000Z</time>
      </trkpt>
      <trkpt lat="47.28095" lon="-2.35689">
        <ele>70.599998474121</ele>
        <time>2019-12-15T08:23:44.000Z</time>
      </trkpt>
      <trkpt lat="47.28097" lon="-2.35687">
        <ele>70.599998474121</ele>
        <time>2019-12-15T08:23:46.000Z</time>
      </trkpt>
      <trkpt lat="47.28099" lon="-2.35686">
        <ele>70.599998474121</ele>
        <time>2019-12-15T08:23:48.000Z</time>
      </trkpt>
      <trkpt lat="47.28105" lon="-2.35683">
        <ele>71</ele>
        <time>2019-12-15T08:23:51.000Z</time>
      </trkpt>
      <trkpt lat="47.28106" lon="-2.35683">
        <ele>71.400001525879</ele>
        <time>2019-12-15T08:23:52.000Z</time>
      </trkpt>
      <trkpt lat="47.28108" lon="-2.35682">
        <ele>71.800003051758</ele>
        <time>2019-12-15T08:23:53.000Z</time>
      </trkpt>
      <trkpt lat="47.2811" lon="-2.35682">
        <ele>72.199996948242</ele>
        <time>2019-12-15T08:23:54.000Z</time>
      </trkpt>
      <trkpt lat="47.28112" lon="-2.35681">
        <ele>72.599998474121</ele>
        <time>2019-12-15T08:23:55.000Z</time>
      </trkpt>
      <trkpt lat="47.28115" lon="-2.35681">
        <ele>73</ele>
        <time>2019-12-15T08:23:57.000Z</time>
      </trkpt>
      <trkpt lat="47.28116" lon="-2.3568">
        <ele>73.599998474121</ele>
        <time>2019-12-15T08:23:58.000Z</time>
      </trkpt>
      <trkpt lat="47.28117" lon="-2.35679">
        <ele>74</ele>
        <time>2019-12-15T08:23:59.000Z</time>
      </trkpt>
      <trkpt lat="47.28119" lon="-2.35678">
        <ele>74.400001525879</ele>
        <time>2019-12-15T08:24:00.000Z</time>
      </trkpt>
      <trkpt lat="47.2812" lon="-2.35677">
        <ele>75</ele>
        <time>2019-12-15T08:24:01.000Z</time>
      </trkpt>
      <trkpt lat="47.28122" lon="-2.35675">
        <ele>75</ele>
        <time>2019-12-15T08:24:03.000Z</time>
      </trkpt>
      <trkpt lat="47.28128" lon="-2.35673">
        <ele>75.400001525879</ele>
        <time>2019-12-15T08:24:06.000Z</time>
      </trkpt>
      <trkpt lat="47.2813" lon="-2.35671">
        <ele>75.800003051758</ele>
        <time>2019-12-15T08:24:07.000Z</time>
      </trkpt>
      <trkpt lat="47.28132" lon="-2.3567">
        <ele>76.199996948242</ele>
        <time>2019-12-15T08:24:08.000Z</time>
      </trkpt>
      <trkpt lat="47.28133" lon="-2.35669">
        <ele>76.599998474121</ele>
        <time>2019-12-15T08:24:09.000Z</time>
      </trkpt>
      <trkpt lat="47.28136" lon="-2.35668">
        <ele>77</ele>
        <time>2019-12-15T08:24:10.000Z</time>
      </trkpt>
      <trkpt lat="47.28146" lon="-2.3567">
        <ele>77</ele>
        <time>2019-12-15T08:24:14.000Z</time>
      </trkpt>
      <trkpt lat="47.28157" lon="-2.35678">
        <ele>77</ele>
        <time>2019-12-15T08:24:19.000Z</time>
      </trkpt>
      <trkpt lat="47.28158" lon="-2.35679">
        <ele>77</ele>
        <time>2019-12-15T08:24:20.000Z</time>
      </trkpt>
      <trkpt lat="47.28163" lon="-2.35678">
        <ele>77</ele>
        <time>2019-12-15T08:24:23.000Z</time>
      </trkpt>
      <trkpt lat="47.28164" lon="-2.35678">
        <ele>76.599998474121</ele>
        <time>2019-12-15T08:24:24.000Z</time>
      </trkpt>
      <trkpt lat="47.28164" lon="-2.35678">
        <ele>76.199996948242</ele>
        <time>2019-12-15T08:24:25.000Z</time>
      </trkpt>
      <trkpt lat="47.28166" lon="-2.3568">
        <ele>75.800003051758</ele>
        <time>2019-12-15T08:24:26.000Z</time>
      </trkpt>
      <trkpt lat="47.28166" lon="-2.35682">
        <ele>75.400001525879</ele>
        <time>2019-12-15T08:24:27.000Z</time>
      </trkpt>
      <trkpt lat="47.28167" lon="-2.35685">
        <ele>75</ele>
        <time>2019-12-15T08:24:28.000Z</time>
      </trkpt>
      <trkpt lat="47.28174" lon="-2.35695">
        <ele>74.400001525879</ele>
        <time>2019-12-15T08:24:31.000Z</time>
      </trkpt>
      <trkpt lat="47.28176" lon="-2.35698">
        <ele>74</ele>
        <time>2019-12-15T08:24:32.000Z</time>
      </trkpt>
      <trkpt lat="47.28178" lon="-2.35702">
        <ele>73.599998474121</ele>
        <time>2019-12-15T08:24:33.000Z</time>
      </trkpt>
      <trkpt lat="47.2818" lon="-2.35705">
        <ele>73</ele>
        <time>2019-12-15T08:24:34.000Z</time>
      </trkpt>
      <trkpt lat="47.28183" lon="-2.35707">
        <ele>72.199996948242</ele>
        <time>2019-12-15T08:24:35.000Z</time>
      </trkpt>
      <trkpt lat="47.28186" lon="-2.35707">
        <ele>71.800003051758</ele>
        <time>2019-12-15T08:24:36.000Z</time>
      </trkpt>
      <trkpt lat="47.28189" lon="-2.35707">
        <ele>71.199996948242</ele>
        <time>2019-12-15T08:24:37.000Z</time>
      </trkpt>
      <trkpt lat="47.28192" lon="-2.35705">
        <ele>70.800003051758</ele>
        <time>2019-12-15T08:24:38.000Z</time>
      </trkpt>
      <trkpt lat="47.28194" lon="-2.35704">
        <ele>70.199996948242</ele>
        <time>2019-12-15T08:24:39.000Z</time>
      </trkpt>
      <trkpt lat="47.28196" lon="-2.35704">
        <ele>69.800003051758</ele>
        <time>2019-12-15T08:24:40.000Z</time>
      </trkpt>
      <trkpt lat="47.28198" lon="-2.35703">
        <ele>69.199996948242</ele>
        <time>2019-12-15T08:24:41.000Z</time>
      </trkpt>
      <trkpt lat="47.282" lon="-2.35702">
        <ele>68.800003051758</ele>
        <time>2019-12-15T08:24:42.000Z</time>
      </trkpt>
      <trkpt lat="47.28201" lon="-2.35701">
        <ele>68.199996948242</ele>
        <time>2019-12-15T08:24:43.000Z</time>
      </trkpt>
      <trkpt lat="47.28215" lon="-2.35696">
        <ele>68.199996948242</ele>
        <time>2019-12-15T08:24:48.000Z</time>
      </trkpt>
      <trkpt lat="47.28218" lon="-2.35697">
        <ele>68.199996948242</ele>
        <time>2019-12-15T08:24:49.000Z</time>
      </trkpt>
      <trkpt lat="47.2823" lon="-2.35706">
        <ele>68.199996948242</ele>
        <time>2019-12-15T08:24:54.000Z</time>
      </trkpt>
      <trkpt lat="47.28233" lon="-2.35711">
        <ele>68.199996948242</ele>
        <time>2019-12-15T08:24:57.000Z</time>
      </trkpt>
      <trkpt lat="47.28235" lon="-2.35715">
        <ele>68.199996948242</ele>
        <time>2019-12-15T08:25:00.000Z</time>
      </trkpt>
      <trkpt lat="47.28231" lon="-2.35717">
        <ele>68.199996948242</ele>
        <time>2019-12-15T08:25:41.000Z</time>
      </trkpt>
      <trkpt lat="47.28227" lon="-2.35717">
        <ele>68.199996948242</ele>
        <time>2019-12-15T08:25:43.000Z</time>
      </trkpt>
      <trkpt lat="47.28224" lon="-2.35725">
        <ele>68.199996948242</ele>
        <time>2019-12-15T08:25:47.000Z</time>
      </trkpt>
      <trkpt lat="47.28227" lon="-2.35743">
        <ele>68.199996948242</ele>
        <time>2019-12-15T08:25:54.000Z</time>
      </trkpt>
      <trkpt lat="47.28227" lon="-2.35747">
        <ele>68.599998474121</ele>
        <time>2019-12-15T08:25:56.000Z</time>
      </trkpt>
      <trkpt lat="47.28228" lon="-2.35748">
        <ele>69</ele>
        <time>2019-12-15T08:25:57.000Z</time>
      </trkpt>
      <trkpt lat="47.28229" lon="-2.35751">
        <ele>69.400001525879</ele>
        <time>2019-12-15T08:25:58.000Z</time>
      </trkpt>
      <trkpt lat="47.2823" lon="-2.35753">
        <ele>69.800003051758</ele>
        <time>2019-12-15T08:25:59.000Z</time>
      </trkpt>
      <trkpt lat="47.28231" lon="-2.35755">
        <ele>70.199996948242</ele>
        <time>2019-12-15T08:26:00.000Z</time>
      </trkpt>
      <trkpt lat="47.28236" lon="-2.35766">
        <ele>70.199996948242</ele>
        <time>2019-12-15T08:26:04.000Z</time>
      </trkpt>
      <trkpt lat="47.28245" lon="-2.35776">
        <ele>70.199996948242</ele>
        <time>2019-12-15T08:26:07.000Z</time>
      </trkpt>
      <trkpt lat="47.28248" lon="-2.35778">
        <ele>70.199996948242</ele>
        <time>2019-12-15T08:26:08.000Z</time>
      </trkpt>
      <trkpt lat="47.2826" lon="-2.35795">
        <ele>70.199996948242</ele>
        <time>2019-12-15T08:26:13.000Z</time>
      </trkpt>
      <trkpt lat="47.28265" lon="-2.3582">
        <ele>70.199996948242</ele>
        <time>2019-12-15T08:26:18.000Z</time>
      </trkpt>
      <trkpt lat="47.28269" lon="-2.35839">
        <ele>70.199996948242</ele>
        <time>2019-12-15T08:26:22.000Z</time>
      </trkpt>
      <trkpt lat="47.28271" lon="-2.35847">
        <ele>70.199996948242</ele>
        <time>2019-12-15T08:26:24.000Z</time>
      </trkpt>
      <trkpt lat="47.28275" lon="-2.35852">
        <ele>70.199996948242</ele>
        <time>2019-12-15T08:26:26.000Z</time>
      </trkpt>
      <trkpt lat="47.28281" lon="-2.35858">
        <ele>70.199996948242</ele>
        <time>2019-12-15T08:26:28.000Z</time>
      </trkpt>
      <trkpt lat="47.28283" lon="-2.35865">
        <ele>70.199996948242</ele>
        <time>2019-12-15T08:26:30.000Z</time>
      </trkpt>
      <trkpt lat="47.28288" lon="-2.35883">
        <ele>70.199996948242</ele>
        <time>2019-12-15T08:26:34.000Z</time>
      </trkpt>
      <trkpt lat="47.28289" lon="-2.35893">
        <ele>70.199996948242</ele>
        <time>2019-12-15T08:26:36.000Z</time>
      </trkpt>
      <trkpt lat="47.28289" lon="-2.35902">
        <ele>70.199996948242</ele>
        <time>2019-12-15T08:26:38.000Z</time>
      </trkpt>
      <trkpt lat="47.28287" lon="-2.35904">
        <ele>70.199996948242</ele>
        <time>2019-12-15T08:26:39.000Z</time>
      </trkpt>
      <trkpt lat="47.28283" lon="-2.3591">
        <ele>70.199996948242</ele>
        <time>2019-12-15T08:26:42.000Z</time>
      </trkpt>
      <trkpt lat="47.28282" lon="-2.35913">
        <ele>70.199996948242</ele>
        <time>2019-12-15T08:26:43.000Z</time>
      </trkpt>
      <trkpt lat="47.28281" lon="-2.35917">
        <ele>70.199996948242</ele>
        <time>2019-12-15T08:26:45.000Z</time>
      </trkpt>
      <trkpt lat="47.28274" lon="-2.35928">
        <ele>70.199996948242</ele>
        <time>2019-12-15T08:26:53.000Z</time>
      </trkpt>
      <trkpt lat="47.28273" lon="-2.35931">
        <ele>70.199996948242</ele>
        <time>2019-12-15T08:26:54.000Z</time>
      </trkpt>
      <trkpt lat="47.28272" lon="-2.35936">
        <ele>70.199996948242</ele>
        <time>2019-12-15T08:26:56.000Z</time>
      </trkpt>
      <trkpt lat="47.28272" lon="-2.3594">
        <ele>69.800003051758</ele>
        <time>2019-12-15T08:26:57.000Z</time>
      </trkpt>
      <trkpt lat="47.28273" lon="-2.35943">
        <ele>69.400001525879</ele>
        <time>2019-12-15T08:26:58.000Z</time>
      </trkpt>
      <trkpt lat="47.28273" lon="-2.35947">
        <ele>69</ele>
        <time>2019-12-15T08:26:59.000Z</time>
      </trkpt>
      <trkpt lat="47.28274" lon="-2.3595">
        <ele>68.400001525879</ele>
        <time>2019-12-15T08:27:00.000Z</time>
      </trkpt>
      <trkpt lat="47.28275" lon="-2.35953">
        <ele>68</ele>
        <time>2019-12-15T08:27:01.000Z</time>
      </trkpt>
      <trkpt lat="47.2828" lon="-2.35967">
        <ele>68</ele>
        <time>2019-12-15T08:27:04.000Z</time>
      </trkpt>
      <trkpt lat="47.2829" lon="-2.35973">
        <ele>68</ele>
        <time>2019-12-15T08:27:08.000Z</time>
      </trkpt>
      <trkpt lat="47.28296" lon="-2.3597">
        <ele>68</ele>
        <time>2019-12-15T08:27:12.000Z</time>
      </trkpt>
      <trkpt lat="47.28297" lon="-2.3597">
        <ele>68</ele>
        <time>2019-12-15T08:27:13.000Z</time>
      </trkpt>
      <trkpt lat="47.28304" lon="-2.35963">
        <ele>68</ele>
        <time>2019-12-15T08:27:19.000Z</time>
      </trkpt>
      <trkpt lat="47.28305" lon="-2.35959">
        <ele>68</ele>
        <time>2019-12-15T08:27:22.000Z</time>
      </trkpt>
      <trkpt lat="47.28312" lon="-2.35947">
        <ele>68</ele>
        <time>2019-12-15T08:27:43.000Z</time>
      </trkpt>
      <trkpt lat="47.28313" lon="-2.35945">
        <ele>68</ele>
        <time>2019-12-15T08:27:44.000Z</time>
      </trkpt>
      <trkpt lat="47.28316" lon="-2.35939">
        <ele>68</ele>
        <time>2019-12-15T08:27:47.000Z</time>
      </trkpt>
      <trkpt lat="47.28317" lon="-2.35938">
        <ele>68</ele>
        <time>2019-12-15T08:27:48.000Z</time>
      </trkpt>
      <trkpt lat="47.28319" lon="-2.35934">
        <ele>68</ele>
        <time>2019-12-15T08:27:50.000Z</time>
      </trkpt>
      <trkpt lat="47.28323" lon="-2.35929">
        <ele>68</ele>
        <time>2019-12-15T08:27:52.000Z</time>
      </trkpt>
      <trkpt lat="47.28324" lon="-2.35927">
        <ele>68.400001525879</ele>
        <time>2019-12-15T08:27:53.000Z</time>
      </trkpt>
      <trkpt lat="47.28326" lon="-2.35925">
        <ele>69.199996948242</ele>
        <time>2019-12-15T08:27:54.000Z</time>
      </trkpt>
      <trkpt lat="47.28328" lon="-2.35924">
        <ele>69.800003051758</ele>
        <time>2019-12-15T08:27:55.000Z</time>
      </trkpt>
      <trkpt lat="47.2833" lon="-2.35922">
        <ele>70.199996948242</ele>
        <time>2019-12-15T08:27:56.000Z</time>
      </trkpt>
      <trkpt lat="47.28345" lon="-2.35911">
        <ele>70.199996948242</ele>
        <time>2019-12-15T08:28:02.000Z</time>
      </trkpt>
      <trkpt lat="47.28355" lon="-2.35912">
        <ele>70.199996948242</ele>
        <time>2019-12-15T08:28:06.000Z</time>
      </trkpt>
      <trkpt lat="47.28356" lon="-2.35914">
        <ele>70.199996948242</ele>
        <time>2019-12-15T08:28:07.000Z</time>
      </trkpt>
      <trkpt lat="47.28363" lon="-2.35929">
        <ele>70.199996948242</ele>
        <time>2019-12-15T08:28:13.000Z</time>
      </trkpt>
      <trkpt lat="47.28369" lon="-2.35943">
        <ele>70.199996948242</ele>
        <time>2019-12-15T08:28:17.000Z</time>
      </trkpt>
      <trkpt lat="47.28368" lon="-2.35947">
        <ele>70.199996948242</ele>
        <time>2019-12-15T08:28:18.000Z</time>
      </trkpt>
      <trkpt lat="47.28368" lon="-2.3595">
        <ele>71</ele>
        <time>2019-12-15T08:28:19.000Z</time>
      </trkpt>
      <trkpt lat="47.28367" lon="-2.35955">
        <ele>71.400001525879</ele>
        <time>2019-12-15T08:28:20.000Z</time>
      </trkpt>
      <trkpt lat="47.28367" lon="-2.35959">
        <ele>71.800003051758</ele>
        <time>2019-12-15T08:28:21.000Z</time>
      </trkpt>
      <trkpt lat="47.28367" lon="-2.35963">
        <ele>72.199996948242</ele>
        <time>2019-12-15T08:28:22.000Z</time>
      </trkpt>
      <trkpt lat="47.28368" lon="-2.35969">
        <ele>72.199996948242</ele>
        <time>2019-12-15T08:28:24.000Z</time>
      </trkpt>
      <trkpt lat="47.28371" lon="-2.3598">
        <ele>72.599998474121</ele>
        <time>2019-12-15T08:28:28.000Z</time>
      </trkpt>
      <trkpt lat="47.2837" lon="-2.35982">
        <ele>73</ele>
        <time>2019-12-15T08:28:29.000Z</time>
      </trkpt>
      <trkpt lat="47.28369" lon="-2.35983">
        <ele>73.400001525879</ele>
        <time>2019-12-15T08:28:30.000Z</time>
      </trkpt>
      <trkpt lat="47.28368" lon="-2.35984">
        <ele>73.800003051758</ele>
        <time>2019-12-15T08:28:31.000Z</time>
      </trkpt>
      <trkpt lat="47.28367" lon="-2.35986">
        <ele>74.400001525879</ele>
        <time>2019-12-15T08:28:32.000Z</time>
      </trkpt>
      <trkpt lat="47.28366" lon="-2.35993">
        <ele>74.800003051758</ele>
        <time>2019-12-15T08:28:35.000Z</time>
      </trkpt>
      <trkpt lat="47.28366" lon="-2.35994">
        <ele>75.199996948242</ele>
        <time>2019-12-15T08:28:36.000Z</time>
      </trkpt>
      <trkpt lat="47.28366" lon="-2.35996">
        <ele>75.599998474121</ele>
        <time>2019-12-15T08:28:37.000Z</time>
      </trkpt>
      <trkpt lat="47.28366" lon="-2.35997">
        <ele>76</ele>
        <time>2019-12-15T08:28:38.000Z</time>
      </trkpt>
      <trkpt lat="47.28367" lon="-2.35998">
        <ele>76.400001525879</ele>
        <time>2019-12-15T08:28:39.000Z</time>
      </trkpt>
      <trkpt lat="47.28368" lon="-2.36">
        <ele>76.400001525879</ele>
        <time>2019-12-15T08:28:40.000Z</time>
      </trkpt>
      <trkpt lat="47.2837" lon="-2.36003">
        <ele>76.800003051758</ele>
        <time>2019-12-15T08:28:42.000Z</time>
      </trkpt>
      <trkpt lat="47.2838" lon="-2.36018">
        <ele>78.599998474121</ele>
        <time>2019-12-15T08:29:04.000Z</time>
      </trkpt>
      <trkpt lat="47.28384" lon="-2.36019">
        <ele>78.599998474121</ele>
        <time>2019-12-15T08:29:07.000Z</time>
      </trkpt>
      <trkpt lat="47.28385" lon="-2.36018">
        <ele>79.400001525879</ele>
        <time>2019-12-15T08:29:08.000Z</time>
      </trkpt>
      <trkpt lat="47.28386" lon="-2.36017">
        <ele>79.800003051758</ele>
        <time>2019-12-15T08:29:09.000Z</time>
      </trkpt>
      <trkpt lat="47.28387" lon="-2.36017">
        <ele>80.400001525879</ele>
        <time>2019-12-15T08:29:10.000Z</time>
      </trkpt>
      <trkpt lat="47.28388" lon="-2.36016">
        <ele>80.800003051758</ele>
        <time>2019-12-15T08:29:11.000Z</time>
      </trkpt>
      <trkpt lat="47.28389" lon="-2.36016">
        <ele>80.800003051758</ele>
        <time>2019-12-15T08:29:12.000Z</time>
      </trkpt>
      <trkpt lat="47.28395" lon="-2.36017">
        <ele>81.199996948242</ele>
        <time>2019-12-15T08:29:15.000Z</time>
      </trkpt>
      <trkpt lat="47.28396" lon="-2.36017">
        <ele>81.599998474121</ele>
        <time>2019-12-15T08:29:16.000Z</time>
      </trkpt>
      <trkpt lat="47.28397" lon="-2.36017">
        <ele>82</ele>
        <time>2019-12-15T08:29:17.000Z</time>
      </trkpt>
      <trkpt lat="47.28398" lon="-2.36016">
        <ele>82.400001525879</ele>
        <time>2019-12-15T08:29:18.000Z</time>
      </trkpt>
      <trkpt lat="47.284" lon="-2.36015">
        <ele>82.800003051758</ele>
        <time>2019-12-15T08:29:19.000Z</time>
      </trkpt>
      <trkpt lat="47.28406" lon="-2.36011">
        <ele>82.800003051758</ele>
        <time>2019-12-15T08:29:22.000Z</time>
      </trkpt>
      <trkpt lat="47.2842" lon="-2.35998">
        <ele>82.800003051758</ele>
        <time>2019-12-15T08:29:27.000Z</time>
      </trkpt>
      <trkpt lat="47.28435" lon="-2.3599">
        <ele>82.800003051758</ele>
        <time>2019-12-15T08:29:32.000Z</time>
      </trkpt>
      <trkpt lat="47.28448" lon="-2.35993">
        <ele>82.800003051758</ele>
        <time>2019-12-15T08:29:36.000Z</time>
      </trkpt>
      <trkpt lat="47.28457" lon="-2.36008">
        <ele>82.800003051758</ele>
        <time>2019-12-15T08:29:42.000Z</time>
      </trkpt>
      <trkpt lat="47.28459" lon="-2.36011">
        <ele>83.199996948242</ele>
        <time>2019-12-15T08:29:43.000Z</time>
      </trkpt>
      <trkpt lat="47.2846" lon="-2.36014">
        <ele>83.599998474121</ele>
        <time>2019-12-15T08:29:44.000Z</time>
      </trkpt>
      <trkpt lat="47.28463" lon="-2.36017">
        <ele>84</ele>
        <time>2019-12-15T08:29:45.000Z</time>
      </trkpt>
      <trkpt lat="47.28465" lon="-2.36021">
        <ele>84.400001525879</ele>
        <time>2019-12-15T08:29:46.000Z</time>
      </trkpt>
      <trkpt lat="47.28467" lon="-2.36024">
        <ele>84.800003051758</ele>
        <time>2019-12-15T08:29:47.000Z</time>
      </trkpt>
      <trkpt lat="47.28469" lon="-2.36026">
        <ele>84.800003051758</ele>
        <time>2019-12-15T08:29:48.000Z</time>
      </trkpt>
      <trkpt lat="47.28472" lon="-2.36027">
        <ele>84.800003051758</ele>
        <time>2019-12-15T08:29:49.000Z</time>
      </trkpt>
      <trkpt lat="47.28478" lon="-2.36029">
        <ele>84.800003051758</ele>
        <time>2019-12-15T08:29:52.000Z</time>
      </trkpt>
      <trkpt lat="47.28484" lon="-2.36033">
        <ele>84.800003051758</ele>
        <time>2019-12-15T08:29:55.000Z</time>
      </trkpt>
      <trkpt lat="47.28489" lon="-2.36035">
        <ele>84.800003051758</ele>
        <time>2019-12-15T08:29:57.000Z</time>
      </trkpt>
      <trkpt lat="47.285" lon="-2.36046">
        <ele>84.800003051758</ele>
        <time>2019-12-15T08:30:02.000Z</time>
      </trkpt>
      <trkpt lat="47.28514" lon="-2.36064">
        <ele>84.800003051758</ele>
        <time>2019-12-15T08:30:10.000Z</time>
      </trkpt>
      <trkpt lat="47.2852" lon="-2.36086">
        <ele>84.800003051758</ele>
        <time>2019-12-15T08:30:15.000Z</time>
      </trkpt>
      <trkpt lat="47.28522" lon="-2.36092">
        <ele>84.800003051758</ele>
        <time>2019-12-15T08:30:16.000Z</time>
      </trkpt>
      <trkpt lat="47.28529" lon="-2.36113">
        <ele>84.800003051758</ele>
        <time>2019-12-15T08:30:19.000Z</time>
      </trkpt>
      <trkpt lat="47.28538" lon="-2.36136">
        <ele>84.800003051758</ele>
        <time>2019-12-15T08:30:24.000Z</time>
      </trkpt>
      <trkpt lat="47.28542" lon="-2.36142">
        <ele>84.800003051758</ele>
        <time>2019-12-15T08:30:27.000Z</time>
      </trkpt>
      <trkpt lat="47.28543" lon="-2.36144">
        <ele>84.800003051758</ele>
        <time>2019-12-15T08:30:28.000Z</time>
      </trkpt>
      <trkpt lat="47.28552" lon="-2.3615">
        <ele>84.800003051758</ele>
        <time>2019-12-15T08:30:32.000Z</time>
      </trkpt>
      <trkpt lat="47.28553" lon="-2.3615">
        <ele>84.800003051758</ele>
        <time>2019-12-15T08:30:33.000Z</time>
      </trkpt>
      <trkpt lat="47.28559" lon="-2.36149">
        <ele>84.800003051758</ele>
        <time>2019-12-15T08:30:37.000Z</time>
      </trkpt>
      <trkpt lat="47.28561" lon="-2.36149">
        <ele>84.800003051758</ele>
        <time>2019-12-15T08:30:38.000Z</time>
      </trkpt>
      <trkpt lat="47.28566" lon="-2.36148">
        <ele>84.800003051758</ele>
        <time>2019-12-15T08:30:41.000Z</time>
      </trkpt>
      <trkpt lat="47.28567" lon="-2.36147">
        <ele>85.199996948242</ele>
        <time>2019-12-15T08:30:42.000Z</time>
      </trkpt>
      <trkpt lat="47.28569" lon="-2.36146">
        <ele>85.599998474121</ele>
        <time>2019-12-15T08:30:43.000Z</time>
      </trkpt>
      <trkpt lat="47.28571" lon="-2.36146">
        <ele>86</ele>
        <time>2019-12-15T08:30:44.000Z</time>
      </trkpt>
      <trkpt lat="47.28572" lon="-2.36146">
        <ele>86.400001525879</ele>
        <time>2019-12-15T08:30:45.000Z</time>
      </trkpt>
      <trkpt lat="47.28573" lon="-2.36147">
        <ele>87</ele>
        <time>2019-12-15T08:30:46.000Z</time>
      </trkpt>
      <trkpt lat="47.28574" lon="-2.36147">
        <ele>87</ele>
        <time>2019-12-15T08:30:47.000Z</time>
      </trkpt>
      <trkpt lat="47.28578" lon="-2.36148">
        <ele>87</ele>
        <time>2019-12-15T08:30:49.000Z</time>
      </trkpt>
      <trkpt lat="47.28589" lon="-2.36151">
        <ele>87</ele>
        <time>2019-12-15T08:30:53.000Z</time>
      </trkpt>
      <trkpt lat="47.28593" lon="-2.36152">
        <ele>87</ele>
        <time>2019-12-15T08:30:54.000Z</time>
      </trkpt>
      <trkpt lat="47.28604" lon="-2.3615">
        <ele>87</ele>
        <time>2019-12-15T08:30:58.000Z</time>
      </trkpt>
      <trkpt lat="47.28614" lon="-2.3614">
        <ele>87</ele>
        <time>2019-12-15T08:31:03.000Z</time>
      </trkpt>
      <trkpt lat="47.28616" lon="-2.36138">
        <ele>87</ele>
        <time>2019-12-15T08:31:04.000Z</time>
      </trkpt>
      <trkpt lat="47.28625" lon="-2.36143">
        <ele>87</ele>
        <time>2019-12-15T08:31:07.000Z</time>
      </trkpt>
      <trkpt lat="47.28634" lon="-2.36156">
        <ele>87</ele>
        <time>2019-12-15T08:31:11.000Z</time>
      </trkpt>
      <trkpt lat="47.28637" lon="-2.36159">
        <ele>87</ele>
        <time>2019-12-15T08:31:12.000Z</time>
      </trkpt>
      <trkpt lat="47.28643" lon="-2.36167">
        <ele>87</ele>
        <time>2019-12-15T08:31:14.000Z</time>
      </trkpt>
      <trkpt lat="47.28649" lon="-2.36177">
        <ele>87</ele>
        <time>2019-12-15T08:31:16.000Z</time>
      </trkpt>
      <trkpt lat="47.28659" lon="-2.36206">
        <ele>87</ele>
        <time>2019-12-15T08:31:21.000Z</time>
      </trkpt>
      <trkpt lat="47.28661" lon="-2.3622">
        <ele>86.400001525879</ele>
        <time>2019-12-15T08:31:23.000Z</time>
      </trkpt>
      <trkpt lat="47.28661" lon="-2.36227">
        <ele>86</ele>
        <time>2019-12-15T08:31:24.000Z</time>
      </trkpt>
      <trkpt lat="47.28661" lon="-2.36234">
        <ele>85.599998474121</ele>
        <time>2019-12-15T08:31:25.000Z</time>
      </trkpt>
      <trkpt lat="47.28661" lon="-2.36241">
        <ele>85.199996948242</ele>
        <time>2019-12-15T08:31:26.000Z</time>
      </trkpt>
      <trkpt lat="47.28661" lon="-2.36248">
        <ele>84.800003051758</ele>
        <time>2019-12-15T08:31:27.000Z</time>
      </trkpt>
      <trkpt lat="47.28663" lon="-2.36269">
        <ele>84.800003051758</ele>
        <time>2019-12-15T08:31:30.000Z</time>
      </trkpt>
      <trkpt lat="47.2867" lon="-2.36278">
        <ele>84.400001525879</ele>
        <time>2019-12-15T08:31:33.000Z</time>
      </trkpt>
      <trkpt lat="47.28674" lon="-2.36277">
        <ele>84</ele>
        <time>2019-12-15T08:31:34.000Z</time>
      </trkpt>
      <trkpt lat="47.28677" lon="-2.36277">
        <ele>83.599998474121</ele>
        <time>2019-12-15T08:31:35.000Z</time>
      </trkpt>
      <trkpt lat="47.2868" lon="-2.36276">
        <ele>83</ele>
        <time>2019-12-15T08:31:36.000Z</time>
      </trkpt>
      <trkpt lat="47.28683" lon="-2.36275">
        <ele>82.599998474121</ele>
        <time>2019-12-15T08:31:37.000Z</time>
      </trkpt>
      <trkpt lat="47.28686" lon="-2.36274">
        <ele>82.599998474121</ele>
        <time>2019-12-15T08:31:38.000Z</time>
      </trkpt>
      <trkpt lat="47.28702" lon="-2.36264">
        <ele>82.599998474121</ele>
        <time>2019-12-15T08:31:42.000Z</time>
      </trkpt>
      <trkpt lat="47.28706" lon="-2.3626">
        <ele>82.199996948242</ele>
        <time>2019-12-15T08:31:43.000Z</time>
      </trkpt>
      <trkpt lat="47.2871" lon="-2.36257">
        <ele>81.800003051758</ele>
        <time>2019-12-15T08:31:44.000Z</time>
      </trkpt>
      <trkpt lat="47.28712" lon="-2.36253">
        <ele>81.400001525879</ele>
        <time>2019-12-15T08:31:45.000Z</time>
      </trkpt>
      <trkpt lat="47.28715" lon="-2.3625">
        <ele>80.800003051758</ele>
        <time>2019-12-15T08:31:46.000Z</time>
      </trkpt>
      <trkpt lat="47.28717" lon="-2.36248">
        <ele>80.400001525879</ele>
        <time>2019-12-15T08:31:47.000Z</time>
      </trkpt>
      <trkpt lat="47.28736" lon="-2.36234">
        <ele>80.400001525879</ele>
        <time>2019-12-15T08:31:52.000Z</time>
      </trkpt>
      <trkpt lat="47.28759" lon="-2.36213">
        <ele>80</ele>
        <time>2019-12-15T08:31:58.000Z</time>
      </trkpt>
      <trkpt lat="47.28764" lon="-2.3621">
        <ele>79.599998474121</ele>
        <time>2019-12-15T08:31:59.000Z</time>
      </trkpt>
      <trkpt lat="47.28769" lon="-2.36207">
        <ele>79.199996948242</ele>
        <time>2019-12-15T08:32:00.000Z</time>
      </trkpt>
      <trkpt lat="47.28773" lon="-2.36204">
        <ele>78.400001525879</ele>
        <time>2019-12-15T08:32:01.000Z</time>
      </trkpt>
      <trkpt lat="47.28789" lon="-2.36196">
        <ele>78.400001525879</ele>
        <time>2019-12-15T08:32:04.000Z</time>
      </trkpt>
      <trkpt lat="47.28823" lon="-2.36172">
        <ele>78.400001525879</ele>
        <time>2019-12-15T08:32:11.000Z</time>
      </trkpt>
      <trkpt lat="47.28831" lon="-2.36162">
        <ele>78.400001525879</ele>
        <time>2019-12-15T08:32:13.000Z</time>
      </trkpt>
      <trkpt lat="47.28847" lon="-2.3614">
        <ele>78.400001525879</ele>
        <time>2019-12-15T08:32:17.000Z</time>
      </trkpt>
      <trkpt lat="47.28864" lon="-2.36118">
        <ele>78.400001525879</ele>
        <time>2019-12-15T08:32:22.000Z</time>
      </trkpt>
      <trkpt lat="47.28894" lon="-2.36091">
        <ele>78.400001525879</ele>
        <time>2019-12-15T08:32:29.000Z</time>
      </trkpt>
      <trkpt lat="47.28926" lon="-2.3606">
        <ele>78.400001525879</ele>
        <time>2019-12-15T08:32:36.000Z</time>
      </trkpt>
      <trkpt lat="47.28956" lon="-2.3604">
        <ele>78.400001525879</ele>
        <time>2019-12-15T08:32:42.000Z</time>
      </trkpt>
      <trkpt lat="47.28989" lon="-2.36011">
        <ele>78.400001525879</ele>
        <time>2019-12-15T08:32:49.000Z</time>
      </trkpt>
      <trkpt lat="47.29028" lon="-2.35971">
        <ele>78.400001525879</ele>
        <time>2019-12-15T08:32:57.000Z</time>
      </trkpt>
      <trkpt lat="47.29061" lon="-2.35932">
        <ele>78.400001525879</ele>
        <time>2019-12-15T08:33:04.000Z</time>
      </trkpt>
      <trkpt lat="47.29089" lon="-2.359">
        <ele>78.400001525879</ele>
        <time>2019-12-15T08:33:10.000Z</time>
      </trkpt>
      <trkpt lat="47.29118" lon="-2.35865">
        <ele>78.400001525879</ele>
        <time>2019-12-15T08:33:16.000Z</time>
      </trkpt>
      <trkpt lat="47.29159" lon="-2.35825">
        <ele>78.400001525879</ele>
        <time>2019-12-15T08:33:24.000Z</time>
      </trkpt>
      <trkpt lat="47.29191" lon="-2.35805">
        <ele>78.400001525879</ele>
        <time>2019-12-15T08:33:30.000Z</time>
      </trkpt>
      <trkpt lat="47.29219" lon="-2.35782">
        <ele>78.400001525879</ele>
        <time>2019-12-15T08:33:36.000Z</time>
      </trkpt>
      <trkpt lat="47.29241" lon="-2.35759">
        <ele>78.400001525879</ele>
        <time>2019-12-15T08:33:42.000Z</time>
      </trkpt>
      <trkpt lat="47.29256" lon="-2.35736">
        <ele>78.400001525879</ele>
        <time>2019-12-15T08:33:48.000Z</time>
      </trkpt>
      <trkpt lat="47.29267" lon="-2.35734">
        <ele>78.400001525879</ele>
        <time>2019-12-15T08:33:51.000Z</time>
      </trkpt>
      <trkpt lat="47.29283" lon="-2.35746">
        <ele>78.400001525879</ele>
        <time>2019-12-15T08:33:55.000Z</time>
      </trkpt>
      <trkpt lat="47.29315" lon="-2.35774">
        <ele>78.400001525879</ele>
        <time>2019-12-15T08:34:02.000Z</time>
      </trkpt>
      <trkpt lat="47.29345" lon="-2.35804">
        <ele>78.400001525879</ele>
        <time>2019-12-15T08:34:09.000Z</time>
      </trkpt>
      <trkpt lat="47.29368" lon="-2.35825">
        <ele>78.400001525879</ele>
        <time>2019-12-15T08:34:15.000Z</time>
      </trkpt>
      <trkpt lat="47.29377" lon="-2.35832">
        <ele>78.400001525879</ele>
        <time>2019-12-15T08:34:17.000Z</time>
      </trkpt>
      <trkpt lat="47.29406" lon="-2.35864">
        <ele>78.400001525879</ele>
        <time>2019-12-15T08:34:25.000Z</time>
      </trkpt>
      <trkpt lat="47.29432" lon="-2.35898">
        <ele>78.400001525879</ele>
        <time>2019-12-15T08:34:33.000Z</time>
      </trkpt>
      <trkpt lat="47.29435" lon="-2.35902">
        <ele>78.400001525879</ele>
        <time>2019-12-15T08:34:34.000Z</time>
      </trkpt>
      <trkpt lat="47.29445" lon="-2.35911">
        <ele>78.400001525879</ele>
        <time>2019-12-15T08:34:37.000Z</time>
      </trkpt>
      <trkpt lat="47.29449" lon="-2.35921">
        <ele>78.400001525879</ele>
        <time>2019-12-15T08:34:39.000Z</time>
      </trkpt>
      <trkpt lat="47.29456" lon="-2.35937">
        <ele>78.400001525879</ele>
        <time>2019-12-15T08:34:42.000Z</time>
      </trkpt>
      <trkpt lat="47.2947" lon="-2.35972">
        <ele>78.400001525879</ele>
        <time>2019-12-15T08:34:49.000Z</time>
      </trkpt>
      <trkpt lat="47.29474" lon="-2.35973">
        <ele>78.400001525879</ele>
        <time>2019-12-15T08:34:50.000Z</time>
      </trkpt>
      <trkpt lat="47.29483" lon="-2.35968">
        <ele>78.400001525879</ele>
        <time>2019-12-15T08:34:52.000Z</time>
      </trkpt>
      <trkpt lat="47.29511" lon="-2.35947">
        <ele>78.400001525879</ele>
        <time>2019-12-15T08:34:58.000Z</time>
      </trkpt>
      <trkpt lat="47.29522" lon="-2.3594">
        <ele>78.400001525879</ele>
        <time>2019-12-15T08:35:00.000Z</time>
      </trkpt>
      <trkpt lat="47.29539" lon="-2.35931">
        <ele>78.400001525879</ele>
        <time>2019-12-15T08:35:03.000Z</time>
      </trkpt>
      <trkpt lat="47.29545" lon="-2.35928">
        <ele>78.400001525879</ele>
        <time>2019-12-15T08:35:04.000Z</time>
      </trkpt>
      <trkpt lat="47.29562" lon="-2.35919">
        <ele>78.400001525879</ele>
        <time>2019-12-15T08:35:07.000Z</time>
      </trkpt>
      <trkpt lat="47.29602" lon="-2.35895">
        <ele>78.400001525879</ele>
        <time>2019-12-15T08:35:14.000Z</time>
      </trkpt>
      <trkpt lat="47.29635" lon="-2.35875">
        <ele>78.400001525879</ele>
        <time>2019-12-15T08:35:20.000Z</time>
      </trkpt>
      <trkpt lat="47.29646" lon="-2.35867">
        <ele>78.400001525879</ele>
        <time>2019-12-15T08:35:22.000Z</time>
      </trkpt>
      <trkpt lat="47.29654" lon="-2.35854">
        <ele>78.400001525879</ele>
        <time>2019-12-15T08:35:24.000Z</time>
      </trkpt>
      <trkpt lat="47.29663" lon="-2.35839">
        <ele>78.400001525879</ele>
        <time>2019-12-15T08:35:27.000Z</time>
      </trkpt>
      <trkpt lat="47.29676" lon="-2.35839">
        <ele>78.400001525879</ele>
        <time>2019-12-15T08:35:30.000Z</time>
      </trkpt>
      <trkpt lat="47.29697" lon="-2.35837">
        <ele>78.400001525879</ele>
        <time>2019-12-15T08:35:34.000Z</time>
      </trkpt>
      <trkpt lat="47.29707" lon="-2.35833">
        <ele>78.400001525879</ele>
        <time>2019-12-15T08:35:36.000Z</time>
      </trkpt>
      <trkpt lat="47.29735" lon="-2.35817">
        <ele>78.400001525879</ele>
        <time>2019-12-15T08:35:42.000Z</time>
      </trkpt>
      <trkpt lat="47.29764" lon="-2.35804">
        <ele>78.800003051758</ele>
        <time>2019-12-15T08:35:49.000Z</time>
      </trkpt>
      <trkpt lat="47.29769" lon="-2.35803">
        <ele>79.199996948242</ele>
        <time>2019-12-15T08:35:50.000Z</time>
      </trkpt>
      <trkpt lat="47.29773" lon="-2.35801">
        <ele>79.599998474121</ele>
        <time>2019-12-15T08:35:51.000Z</time>
      </trkpt>
      <trkpt lat="47.29777" lon="-2.35799">
        <ele>80</ele>
        <time>2019-12-15T08:35:52.000Z</time>
      </trkpt>
      <trkpt lat="47.29782" lon="-2.35797">
        <ele>80.400001525879</ele>
        <time>2019-12-15T08:35:53.000Z</time>
      </trkpt>
      <trkpt lat="47.29795" lon="-2.35793">
        <ele>80.400001525879</ele>
        <time>2019-12-15T08:35:56.000Z</time>
      </trkpt>
      <trkpt lat="47.2983" lon="-2.35782">
        <ele>80.400001525879</ele>
        <time>2019-12-15T08:36:03.000Z</time>
      </trkpt>
      <trkpt lat="47.29867" lon="-2.35768">
        <ele>80.400001525879</ele>
        <time>2019-12-15T08:36:09.000Z</time>
      </trkpt>
      <trkpt lat="47.29909" lon="-2.35747">
        <ele>80.400001525879</ele>
        <time>2019-12-15T08:36:16.000Z</time>
      </trkpt>
      <trkpt lat="47.29941" lon="-2.3572">
        <ele>80.400001525879</ele>
        <time>2019-12-15T08:36:22.000Z</time>
      </trkpt>
      <trkpt lat="47.29979" lon="-2.35696">
        <ele>80.400001525879</ele>
        <time>2019-12-15T08:36:29.000Z</time>
      </trkpt>
      <trkpt lat="47.30017" lon="-2.35674">
        <ele>80.400001525879</ele>
        <time>2019-12-15T08:36:36.000Z</time>
      </trkpt>
      <trkpt lat="47.30053" lon="-2.35652">
        <ele>80.400001525879</ele>
        <time>2019-12-15T08:36:43.000Z</time>
      </trkpt>
      <trkpt lat="47.30089" lon="-2.35629">
        <ele>80.400001525879</ele>
        <time>2019-12-15T08:36:50.000Z</time>
      </trkpt>
      <trkpt lat="47.30116" lon="-2.35611">
        <ele>80.400001525879</ele>
        <time>2019-12-15T08:36:56.000Z</time>
      </trkpt>
      <trkpt lat="47.3012" lon="-2.35607">
        <ele>80.400001525879</ele>
        <time>2019-12-15T08:36:57.000Z</time>
      </trkpt>
      <trkpt lat="47.30131" lon="-2.35598">
        <ele>80.400001525879</ele>
        <time>2019-12-15T08:37:00.000Z</time>
      </trkpt>
      <trkpt lat="47.30138" lon="-2.35608">
        <ele>80.400001525879</ele>
        <time>2019-12-15T08:37:03.000Z</time>
      </trkpt>
      <trkpt lat="47.30135" lon="-2.35626">
        <ele>80.400001525879</ele>
        <time>2019-12-15T08:37:06.000Z</time>
      </trkpt>
      <trkpt lat="47.30134" lon="-2.35633">
        <ele>80.400001525879</ele>
        <time>2019-12-15T08:37:07.000Z</time>
      </trkpt>
      <trkpt lat="47.30134" lon="-2.35649">
        <ele>80.800003051758</ele>
        <time>2019-12-15T08:37:09.000Z</time>
      </trkpt>
      <trkpt lat="47.30134" lon="-2.35657">
        <ele>81.199996948242</ele>
        <time>2019-12-15T08:37:10.000Z</time>
      </trkpt>
      <trkpt lat="47.30135" lon="-2.35665">
        <ele>81.599998474121</ele>
        <time>2019-12-15T08:37:11.000Z</time>
      </trkpt>
      <trkpt lat="47.30135" lon="-2.35673">
        <ele>82</ele>
        <time>2019-12-15T08:37:12.000Z</time>
      </trkpt>
      <trkpt lat="47.30135" lon="-2.3568">
        <ele>82.599998474121</ele>
        <time>2019-12-15T08:37:13.000Z</time>
      </trkpt>
      <trkpt lat="47.30135" lon="-2.35687">
        <ele>82.599998474121</ele>
        <time>2019-12-15T08:37:14.000Z</time>
      </trkpt>
      <trkpt lat="47.30139" lon="-2.35746">
        <ele>82.599998474121</ele>
        <time>2019-12-15T08:37:21.000Z</time>
      </trkpt>
      <trkpt lat="47.30141" lon="-2.35808">
        <ele>82.599998474121</ele>
        <time>2019-12-15T08:37:27.000Z</time>
      </trkpt>
      <trkpt lat="47.30133" lon="-2.35873">
        <ele>82</ele>
        <time>2019-12-15T08:37:33.000Z</time>
      </trkpt>
      <trkpt lat="47.30132" lon="-2.35884">
        <ele>81.599998474121</ele>
        <time>2019-12-15T08:37:34.000Z</time>
      </trkpt>
      <trkpt lat="47.3013" lon="-2.35895">
        <ele>81</ele>
        <time>2019-12-15T08:37:35.000Z</time>
      </trkpt>
      <trkpt lat="47.30128" lon="-2.35905">
        <ele>80.400001525879</ele>
        <time>2019-12-15T08:37:36.000Z</time>
      </trkpt>
      <trkpt lat="47.30126" lon="-2.35916">
        <ele>80</ele>
        <time>2019-12-15T08:37:37.000Z</time>
      </trkpt>
      <trkpt lat="47.30115" lon="-2.35967">
        <ele>79.599998474121</ele>
        <time>2019-12-15T08:37:42.000Z</time>
      </trkpt>
      <trkpt lat="47.30113" lon="-2.35977">
        <ele>79.199996948242</ele>
        <time>2019-12-15T08:37:43.000Z</time>
      </trkpt>
      <trkpt lat="47.30111" lon="-2.35987">
        <ele>78.800003051758</ele>
        <time>2019-12-15T08:37:44.000Z</time>
      </trkpt>
      <trkpt lat="47.3011" lon="-2.35997">
        <ele>78.199996948242</ele>
        <time>2019-12-15T08:37:45.000Z</time>
      </trkpt>
      <trkpt lat="47.30108" lon="-2.36008">
        <ele>77.800003051758</ele>
        <time>2019-12-15T08:37:46.000Z</time>
      </trkpt>
      <trkpt lat="47.30105" lon="-2.36039">
        <ele>77.800003051758</ele>
        <time>2019-12-15T08:37:49.000Z</time>
      </trkpt>
      <trkpt lat="47.30101" lon="-2.36078">
        <ele>77.400001525879</ele>
        <time>2019-12-15T08:37:53.000Z</time>
      </trkpt>
      <trkpt lat="47.301" lon="-2.36087">
        <ele>77</ele>
        <time>2019-12-15T08:37:54.000Z</time>
      </trkpt>
      <trkpt lat="47.30099" lon="-2.36096">
        <ele>76.599998474121</ele>
        <time>2019-12-15T08:37:55.000Z</time>
      </trkpt>
      <trkpt lat="47.30099" lon="-2.36104">
        <ele>76.199996948242</ele>
        <time>2019-12-15T08:37:56.000Z</time>
      </trkpt>
      <trkpt lat="47.30098" lon="-2.36111">
        <ele>75.800003051758</ele>
        <time>2019-12-15T08:37:57.000Z</time>
      </trkpt>
      <trkpt lat="47.30092" lon="-2.36168">
        <ele>75.800003051758</ele>
        <time>2019-12-15T08:38:04.000Z</time>
      </trkpt>
      <trkpt lat="47.3009" lon="-2.36224">
        <ele>75.800003051758</ele>
        <time>2019-12-15T08:38:11.000Z</time>
      </trkpt>
      <trkpt lat="47.30095" lon="-2.36283">
        <ele>75.800003051758</ele>
        <time>2019-12-15T08:38:19.000Z</time>
      </trkpt>
      <trkpt lat="47.30096" lon="-2.36297">
        <ele>76.199996948242</ele>
        <time>2019-12-15T08:38:21.000Z</time>
      </trkpt>
      <trkpt lat="47.30097" lon="-2.36303">
        <ele>76.599998474121</ele>
        <time>2019-12-15T08:38:22.000Z</time>
      </trkpt>
      <trkpt lat="47.30097" lon="-2.3631">
        <ele>77</ele>
        <time>2019-12-15T08:38:23.000Z</time>
      </trkpt>
      <trkpt lat="47.30098" lon="-2.36317">
        <ele>77.400001525879</ele>
        <time>2019-12-15T08:38:24.000Z</time>
      </trkpt>
      <trkpt lat="47.30098" lon="-2.36324">
        <ele>78</ele>
        <time>2019-12-15T08:38:25.000Z</time>
      </trkpt>
      <trkpt lat="47.30099" lon="-2.36331">
        <ele>78</ele>
        <time>2019-12-15T08:38:26.000Z</time>
      </trkpt>
      <trkpt lat="47.30103" lon="-2.36378">
        <ele>78</ele>
        <time>2019-12-15T08:38:33.000Z</time>
      </trkpt>
      <trkpt lat="47.30105" lon="-2.36399">
        <ele>78.400001525879</ele>
        <time>2019-12-15T08:38:36.000Z</time>
      </trkpt>
      <trkpt lat="47.30105" lon="-2.36405">
        <ele>79.199996948242</ele>
        <time>2019-12-15T08:38:37.000Z</time>
      </trkpt>
      <trkpt lat="47.30106" lon="-2.36412">
        <ele>79.599998474121</ele>
        <time>2019-12-15T08:38:38.000Z</time>
      </trkpt>
      <trkpt lat="47.30106" lon="-2.36419">
        <ele>80</ele>
        <time>2019-12-15T08:38:39.000Z</time>
      </trkpt>
      <trkpt lat="47.30107" lon="-2.36426">
        <ele>80</ele>
        <time>2019-12-15T08:38:40.000Z</time>
      </trkpt>
      <trkpt lat="47.30114" lon="-2.36475">
        <ele>80</ele>
        <time>2019-12-15T08:38:47.000Z</time>
      </trkpt>
      <trkpt lat="47.30123" lon="-2.36531">
        <ele>80</ele>
        <time>2019-12-15T08:38:55.000Z</time>
      </trkpt>
      <trkpt lat="47.30127" lon="-2.36567">
        <ele>80.400001525879</ele>
        <time>2019-12-15T08:39:00.000Z</time>
      </trkpt>
      <trkpt lat="47.30128" lon="-2.36573">
        <ele>80.800003051758</ele>
        <time>2019-12-15T08:39:01.000Z</time>
      </trkpt>
      <trkpt lat="47.30129" lon="-2.3658">
        <ele>81.599998474121</ele>
        <time>2019-12-15T08:39:02.000Z</time>
      </trkpt>
      <trkpt lat="47.3013" lon="-2.36587">
        <ele>82</ele>
        <time>2019-12-15T08:39:03.000Z</time>
      </trkpt>
      <trkpt lat="47.30136" lon="-2.36614">
        <ele>82</ele>
        <time>2019-12-15T08:39:07.000Z</time>
      </trkpt>
      <trkpt lat="47.30142" lon="-2.36632">
        <ele>82</ele>
        <time>2019-12-15T08:39:10.000Z</time>
      </trkpt>
      <trkpt lat="47.30161" lon="-2.36672">
        <ele>82</ele>
        <time>2019-12-15T08:39:17.000Z</time>
      </trkpt>
      <trkpt lat="47.30166" lon="-2.36681">
        <ele>82.599998474121</ele>
        <time>2019-12-15T08:39:19.000Z</time>
      </trkpt>
      <trkpt lat="47.30169" lon="-2.36684">
        <ele>83</ele>
        <time>2019-12-15T08:39:20.000Z</time>
      </trkpt>
      <trkpt lat="47.30173" lon="-2.36684">
        <ele>83.400001525879</ele>
        <time>2019-12-15T08:39:21.000Z</time>
      </trkpt>
      <trkpt lat="47.30177" lon="-2.36683">
        <ele>84</ele>
        <time>2019-12-15T08:39:22.000Z</time>
      </trkpt>
      <trkpt lat="47.3018" lon="-2.36682">
        <ele>84.400001525879</ele>
        <time>2019-12-15T08:39:23.000Z</time>
      </trkpt>
      <trkpt lat="47.30186" lon="-2.36679">
        <ele>84.400001525879</ele>
        <time>2019-12-15T08:39:25.000Z</time>
      </trkpt>
      <trkpt lat="47.30203" lon="-2.36673">
        <ele>84.400001525879</ele>
        <time>2019-12-15T08:39:31.000Z</time>
      </trkpt>
      <trkpt lat="47.30223" lon="-2.3667">
        <ele>84.400001525879</ele>
        <time>2019-12-15T08:39:36.000Z</time>
      </trkpt>
      <trkpt lat="47.30253" lon="-2.36666">
        <ele>84.400001525879</ele>
        <time>2019-12-15T08:39:43.000Z</time>
      </trkpt>
      <trkpt lat="47.30279" lon="-2.36657">
        <ele>84.400001525879</ele>
        <time>2019-12-15T08:39:50.000Z</time>
      </trkpt>
      <trkpt lat="47.30295" lon="-2.36649">
        <ele>84.400001525879</ele>
        <time>2019-12-15T08:39:55.000Z</time>
      </trkpt>
      <trkpt lat="47.30316" lon="-2.36646">
        <ele>84.400001525879</ele>
        <time>2019-12-15T08:40:01.000Z</time>
      </trkpt>
      <trkpt lat="47.30335" lon="-2.36652">
        <ele>84.400001525879</ele>
        <time>2019-12-15T08:40:06.000Z</time>
      </trkpt>
      <trkpt lat="47.30349" lon="-2.36653">
        <ele>84.400001525879</ele>
        <time>2019-12-15T08:40:10.000Z</time>
      </trkpt>
      <trkpt lat="47.3037" lon="-2.36655">
        <ele>84.800003051758</ele>
        <time>2019-12-15T08:40:16.000Z</time>
      </trkpt>
      <trkpt lat="47.30374" lon="-2.36655">
        <ele>85.199996948242</ele>
        <time>2019-12-15T08:40:17.000Z</time>
      </trkpt>
      <trkpt lat="47.30377" lon="-2.36656">
        <ele>85.599998474121</ele>
        <time>2019-12-15T08:40:18.000Z</time>
      </trkpt>
      <trkpt lat="47.3038" lon="-2.36656">
        <ele>86</ele>
        <time>2019-12-15T08:40:19.000Z</time>
      </trkpt>
      <trkpt lat="47.30384" lon="-2.36656">
        <ele>86.400001525879</ele>
        <time>2019-12-15T08:40:20.000Z</time>
      </trkpt>
      <trkpt lat="47.30398" lon="-2.36657">
        <ele>86.400001525879</ele>
        <time>2019-12-15T08:40:24.000Z</time>
      </trkpt>
      <trkpt lat="47.30416" lon="-2.36653">
        <ele>86.400001525879</ele>
        <time>2019-12-15T08:40:29.000Z</time>
      </trkpt>
      <trkpt lat="47.30436" lon="-2.3664">
        <ele>86.400001525879</ele>
        <time>2019-12-15T08:40:35.000Z</time>
      </trkpt>
      <trkpt lat="47.30455" lon="-2.36624">
        <ele>86.400001525879</ele>
        <time>2019-12-15T08:40:41.000Z</time>
      </trkpt>
      <trkpt lat="47.30474" lon="-2.3661">
        <ele>86.400001525879</ele>
        <time>2019-12-15T08:40:47.000Z</time>
      </trkpt>
      <trkpt lat="47.30491" lon="-2.36604">
        <ele>86.400001525879</ele>
        <time>2019-12-15T08:40:53.000Z</time>
      </trkpt>
      <trkpt lat="47.30506" lon="-2.36599">
        <ele>86.400001525879</ele>
        <time>2019-12-15T08:40:59.000Z</time>
      </trkpt>
      <trkpt lat="47.30512" lon="-2.36597">
        <ele>86.400001525879</ele>
        <time>2019-12-15T08:41:02.000Z</time>
      </trkpt>
      <trkpt lat="47.30518" lon="-2.36594">
        <ele>86.400001525879</ele>
        <time>2019-12-15T08:41:04.000Z</time>
      </trkpt>
      <trkpt lat="47.30534" lon="-2.36587">
        <ele>86.400001525879</ele>
        <time>2019-12-15T08:41:10.000Z</time>
      </trkpt>
      <trkpt lat="47.30547" lon="-2.36576">
        <ele>86.400001525879</ele>
        <time>2019-12-15T08:41:16.000Z</time>
      </trkpt>
      <trkpt lat="47.30567" lon="-2.36559">
        <ele>86.400001525879</ele>
        <time>2019-12-15T08:41:23.000Z</time>
      </trkpt>
      <trkpt lat="47.30582" lon="-2.36551">
        <ele>86.400001525879</ele>
        <time>2019-12-15T08:41:29.000Z</time>
      </trkpt>
      <trkpt lat="47.30595" lon="-2.36546">
        <ele>86.400001525879</ele>
        <time>2019-12-15T08:41:33.000Z</time>
      </trkpt>
      <trkpt lat="47.30609" lon="-2.36545">
        <ele>86.400001525879</ele>
        <time>2019-12-15T08:41:37.000Z</time>
      </trkpt>
      <trkpt lat="47.30632" lon="-2.36539">
        <ele>86.400001525879</ele>
        <time>2019-12-15T08:41:43.000Z</time>
      </trkpt>
      <trkpt lat="47.30654" lon="-2.36528">
        <ele>86.400001525879</ele>
        <time>2019-12-15T08:41:49.000Z</time>
      </trkpt>
      <trkpt lat="47.30674" lon="-2.36519">
        <ele>86.400001525879</ele>
        <time>2019-12-15T08:41:54.000Z</time>
      </trkpt>
      <trkpt lat="47.30695" lon="-2.36513">
        <ele>86.400001525879</ele>
        <time>2019-12-15T08:42:00.000Z</time>
      </trkpt>
      <trkpt lat="47.30703" lon="-2.36521">
        <ele>86.400001525879</ele>
        <time>2019-12-15T08:42:04.000Z</time>
      </trkpt>
      <trkpt lat="47.30713" lon="-2.36512">
        <ele>86.400001525879</ele>
        <time>2019-12-15T08:42:07.000Z</time>
      </trkpt>
      <trkpt lat="47.30717" lon="-2.36507">
        <ele>86.400001525879</ele>
        <time>2019-12-15T08:42:08.000Z</time>
      </trkpt>
      <trkpt lat="47.30722" lon="-2.36503">
        <ele>86.400001525879</ele>
        <time>2019-12-15T08:42:09.000Z</time>
      </trkpt>
      <trkpt lat="47.30732" lon="-2.36498">
        <ele>86.400001525879</ele>
        <time>2019-12-15T08:42:11.000Z</time>
      </trkpt>
      <trkpt lat="47.30745" lon="-2.36493">
        <ele>86.400001525879</ele>
        <time>2019-12-15T08:42:13.000Z</time>
      </trkpt>
      <trkpt lat="47.30779" lon="-2.36482">
        <ele>86.400001525879</ele>
        <time>2019-12-15T08:42:19.000Z</time>
      </trkpt>
      <trkpt lat="47.30802" lon="-2.36472">
        <ele>86</ele>
        <time>2019-12-15T08:42:23.000Z</time>
      </trkpt>
      <trkpt lat="47.30807" lon="-2.36471">
        <ele>85.599998474121</ele>
        <time>2019-12-15T08:42:24.000Z</time>
      </trkpt>
      <trkpt lat="47.30812" lon="-2.3647">
        <ele>85.199996948242</ele>
        <time>2019-12-15T08:42:25.000Z</time>
      </trkpt>
      <trkpt lat="47.30816" lon="-2.36472">
        <ele>84.599998474121</ele>
        <time>2019-12-15T08:42:26.000Z</time>
      </trkpt>
      <trkpt lat="47.30819" lon="-2.36476">
        <ele>84.199996948242</ele>
        <time>2019-12-15T08:42:27.000Z</time>
      </trkpt>
      <trkpt lat="47.30823" lon="-2.36481">
        <ele>84.199996948242</ele>
        <time>2019-12-15T08:42:28.000Z</time>
      </trkpt>
      <trkpt lat="47.30839" lon="-2.36488">
        <ele>84.199996948242</ele>
        <time>2019-12-15T08:42:32.000Z</time>
      </trkpt>
      <trkpt lat="47.30851" lon="-2.36485">
        <ele>84.199996948242</ele>
        <time>2019-12-15T08:42:35.000Z</time>
      </trkpt>
      <trkpt lat="47.30856" lon="-2.36485">
        <ele>84.199996948242</ele>
        <time>2019-12-15T08:42:36.000Z</time>
      </trkpt>
      <trkpt lat="47.3086" lon="-2.36484">
        <ele>84.199996948242</ele>
        <time>2019-12-15T08:42:37.000Z</time>
      </trkpt>
      <trkpt lat="47.30886" lon="-2.36478">
        <ele>84.199996948242</ele>
        <time>2019-12-15T08:42:43.000Z</time>
      </trkpt>
      <trkpt lat="47.30908" lon="-2.36471">
        <ele>84.199996948242</ele>
        <time>2019-12-15T08:42:48.000Z</time>
      </trkpt>
      <trkpt lat="47.30935" lon="-2.36462">
        <ele>84.199996948242</ele>
        <time>2019-12-15T08:42:54.000Z</time>
      </trkpt>
      <trkpt lat="47.3095" lon="-2.36456">
        <ele>84.199996948242</ele>
        <time>2019-12-15T08:42:57.000Z</time>
      </trkpt>
      <trkpt lat="47.30958" lon="-2.36453">
        <ele>84.199996948242</ele>
        <time>2019-12-15T08:42:59.000Z</time>
      </trkpt>
      <trkpt lat="47.30977" lon="-2.36446">
        <ele>84.199996948242</ele>
        <time>2019-12-15T08:43:04.000Z</time>
      </trkpt>
      <trkpt lat="47.30981" lon="-2.36444">
        <ele>84.199996948242</ele>
        <time>2019-12-15T08:43:05.000Z</time>
      </trkpt>
      <trkpt lat="47.30985" lon="-2.36442">
        <ele>84.199996948242</ele>
        <time>2019-12-15T08:43:06.000Z</time>
      </trkpt>
      <trkpt lat="47.31002" lon="-2.36435">
        <ele>84.199996948242</ele>
        <time>2019-12-15T08:43:10.000Z</time>
      </trkpt>
      <trkpt lat="47.31015" lon="-2.3643">
        <ele>83.800003051758</ele>
        <time>2019-12-15T08:43:13.000Z</time>
      </trkpt>
      <trkpt lat="47.31019" lon="-2.36429">
        <ele>83.400001525879</ele>
        <time>2019-12-15T08:43:14.000Z</time>
      </trkpt>
      <trkpt lat="47.31024" lon="-2.36427">
        <ele>83</ele>
        <time>2019-12-15T08:43:15.000Z</time>
      </trkpt>
      <trkpt lat="47.31028" lon="-2.36426">
        <ele>82.599998474121</ele>
        <time>2019-12-15T08:43:16.000Z</time>
      </trkpt>
      <trkpt lat="47.31033" lon="-2.36424">
        <ele>82.199996948242</ele>
        <time>2019-12-15T08:43:17.000Z</time>
      </trkpt>
      <trkpt lat="47.31043" lon="-2.36422">
        <ele>82.199996948242</ele>
        <time>2019-12-15T08:43:19.000Z</time>
      </trkpt>
      <trkpt lat="47.31052" lon="-2.36422">
        <ele>82.199996948242</ele>
        <time>2019-12-15T08:43:21.000Z</time>
      </trkpt>
      <trkpt lat="47.31071" lon="-2.3642">
        <ele>82.199996948242</ele>
        <time>2019-12-15T08:43:25.000Z</time>
      </trkpt>
      <trkpt lat="47.31075" lon="-2.3642">
        <ele>82.199996948242</ele>
        <time>2019-12-15T08:43:26.000Z</time>
      </trkpt>
      <trkpt lat="47.31086" lon="-2.36419">
        <ele>82.199996948242</ele>
        <time>2019-12-15T08:43:30.000Z</time>
      </trkpt>
      <trkpt lat="47.31095" lon="-2.36417">
        <ele>82.199996948242</ele>
        <time>2019-12-15T08:43:32.000Z</time>
      </trkpt>
      <trkpt lat="47.31104" lon="-2.36413">
        <ele>82.199996948242</ele>
        <time>2019-12-15T08:43:34.000Z</time>
      </trkpt>
      <trkpt lat="47.31135" lon="-2.36396">
        <ele>82.199996948242</ele>
        <time>2019-12-15T08:43:40.000Z</time>
      </trkpt>
      <trkpt lat="47.31149" lon="-2.36387">
        <ele>82.199996948242</ele>
        <time>2019-12-15T08:43:43.000Z</time>
      </trkpt>
      <trkpt lat="47.31157" lon="-2.36381">
        <ele>82.199996948242</ele>
        <time>2019-12-15T08:43:45.000Z</time>
      </trkpt>
      <trkpt lat="47.31193" lon="-2.36356">
        <ele>82.199996948242</ele>
        <time>2019-12-15T08:43:53.000Z</time>
      </trkpt>
      <trkpt lat="47.31206" lon="-2.36349">
        <ele>82.199996948242</ele>
        <time>2019-12-15T08:43:56.000Z</time>
      </trkpt>
      <trkpt lat="47.31214" lon="-2.36345">
        <ele>82.199996948242</ele>
        <time>2019-12-15T08:43:58.000Z</time>
      </trkpt>
      <trkpt lat="47.31218" lon="-2.36343">
        <ele>82.199996948242</ele>
        <time>2019-12-15T08:43:59.000Z</time>
      </trkpt>
      <trkpt lat="47.31222" lon="-2.36341">
        <ele>82.199996948242</ele>
        <time>2019-12-15T08:44:00.000Z</time>
      </trkpt>
      <trkpt lat="47.31237" lon="-2.36331">
        <ele>82.199996948242</ele>
        <time>2019-12-15T08:44:04.000Z</time>
      </trkpt>
      <trkpt lat="47.31259" lon="-2.36316">
        <ele>82.199996948242</ele>
        <time>2019-12-15T08:44:09.000Z</time>
      </trkpt>
      <trkpt lat="47.31273" lon="-2.36309">
        <ele>82.199996948242</ele>
        <time>2019-12-15T08:44:12.000Z</time>
      </trkpt>
      <trkpt lat="47.31282" lon="-2.36305">
        <ele>82.199996948242</ele>
        <time>2019-12-15T08:44:14.000Z</time>
      </trkpt>
      <trkpt lat="47.31287" lon="-2.36302">
        <ele>82.199996948242</ele>
        <time>2019-12-15T08:44:15.000Z</time>
      </trkpt>
      <trkpt lat="47.31291" lon="-2.36301">
        <ele>82.199996948242</ele>
        <time>2019-12-15T08:44:16.000Z</time>
      </trkpt>
      <trkpt lat="47.31308" lon="-2.36292">
        <ele>82.199996948242</ele>
        <time>2019-12-15T08:44:20.000Z</time>
      </trkpt>
      <trkpt lat="47.31312" lon="-2.3629">
        <ele>82.199996948242</ele>
        <time>2019-12-15T08:44:21.000Z</time>
      </trkpt>
      <trkpt lat="47.31328" lon="-2.36278">
        <ele>82.199996948242</ele>
        <time>2019-12-15T08:44:25.000Z</time>
      </trkpt>
      <trkpt lat="47.31336" lon="-2.3627">
        <ele>82.199996948242</ele>
        <time>2019-12-15T08:44:28.000Z</time>
      </trkpt>
      <trkpt lat="47.31346" lon="-2.36258">
        <ele>82.199996948242</ele>
        <time>2019-12-15T08:44:33.000Z</time>
      </trkpt>
      <trkpt lat="47.31358" lon="-2.36237">
        <ele>82.199996948242</ele>
        <time>2019-12-15T08:44:40.000Z</time>
      </trkpt>
      <trkpt lat="47.31373" lon="-2.36223">
        <ele>82.199996948242</ele>
        <time>2019-12-15T08:44:45.000Z</time>
      </trkpt>
      <trkpt lat="47.31385" lon="-2.36215">
        <ele>82.199996948242</ele>
        <time>2019-12-15T08:44:50.000Z</time>
      </trkpt>
      <trkpt lat="47.31395" lon="-2.36213">
        <ele>82.199996948242</ele>
        <time>2019-12-15T08:44:55.000Z</time>
      </trkpt>
      <trkpt lat="47.31401" lon="-2.3621">
        <ele>82.199996948242</ele>
        <time>2019-12-15T08:45:01.000Z</time>
      </trkpt>
      <trkpt lat="47.31402" lon="-2.36209">
        <ele>82.199996948242</ele>
        <time>2019-12-15T08:45:04.000Z</time>
      </trkpt>
      <trkpt lat="47.31407" lon="-2.36206">
        <ele>84.199996948242</ele>
        <time>2019-12-15T08:45:12.000Z</time>
      </trkpt>
      <trkpt lat="47.31411" lon="-2.36203">
        <ele>84.199996948242</ele>
        <time>2019-12-15T08:45:14.000Z</time>
      </trkpt>
      <trkpt lat="47.31426" lon="-2.36195">
        <ele>84.199996948242</ele>
        <time>2019-12-15T08:45:18.000Z</time>
      </trkpt>
      <trkpt lat="47.3143" lon="-2.36193">
        <ele>84.199996948242</ele>
        <time>2019-12-15T08:45:19.000Z</time>
      </trkpt>
      <trkpt lat="47.31442" lon="-2.36184">
        <ele>84.199996948242</ele>
        <time>2019-12-15T08:45:23.000Z</time>
      </trkpt>
      <trkpt lat="47.31453" lon="-2.3618">
        <ele>84.199996948242</ele>
        <time>2019-12-15T08:45:27.000Z</time>
      </trkpt>
      <trkpt lat="47.31456" lon="-2.36184">
        <ele>84.199996948242</ele>
        <time>2019-12-15T08:45:29.000Z</time>
      </trkpt>
      <trkpt lat="47.31463" lon="-2.36201">
        <ele>84.199996948242</ele>
        <time>2019-12-15T08:45:33.000Z</time>
      </trkpt>
      <trkpt lat="47.31471" lon="-2.36235">
        <ele>84.199996948242</ele>
        <time>2019-12-15T08:45:39.000Z</time>
      </trkpt>
      <trkpt lat="47.31472" lon="-2.3624">
        <ele>83.800003051758</ele>
        <time>2019-12-15T08:45:40.000Z</time>
      </trkpt>
      <trkpt lat="47.31474" lon="-2.36245">
        <ele>83.199996948242</ele>
        <time>2019-12-15T08:45:41.000Z</time>
      </trkpt>
      <trkpt lat="47.31475" lon="-2.3625">
        <ele>82.800003051758</ele>
        <time>2019-12-15T08:45:42.000Z</time>
      </trkpt>
      <trkpt lat="47.31476" lon="-2.36254">
        <ele>82.400001525879</ele>
        <time>2019-12-15T08:45:43.000Z</time>
      </trkpt>
      <trkpt lat="47.31477" lon="-2.36258">
        <ele>82</ele>
        <time>2019-12-15T08:45:44.000Z</time>
      </trkpt>
      <trkpt lat="47.31478" lon="-2.36262">
        <ele>82</ele>
        <time>2019-12-15T08:45:45.000Z</time>
      </trkpt>
      <trkpt lat="47.31483" lon="-2.36286">
        <ele>82</ele>
        <time>2019-12-15T08:45:51.000Z</time>
      </trkpt>
      <trkpt lat="47.3149" lon="-2.36321">
        <ele>82</ele>
        <time>2019-12-15T08:45:58.000Z</time>
      </trkpt>
      <trkpt lat="47.31491" lon="-2.36332">
        <ele>81.599998474121</ele>
        <time>2019-12-15T08:46:00.000Z</time>
      </trkpt>
      <trkpt lat="47.31491" lon="-2.36337">
        <ele>81.199996948242</ele>
        <time>2019-12-15T08:46:01.000Z</time>
      </trkpt>
      <trkpt lat="47.31492" lon="-2.36342">
        <ele>80.400001525879</ele>
        <time>2019-12-15T08:46:02.000Z</time>
      </trkpt>
      <trkpt lat="47.31492" lon="-2.36347">
        <ele>80</ele>
        <time>2019-12-15T08:46:03.000Z</time>
      </trkpt>
      <trkpt lat="47.31492" lon="-2.36351">
        <ele>80</ele>
        <time>2019-12-15T08:46:04.000Z</time>
      </trkpt>
      <trkpt lat="47.31493" lon="-2.36386">
        <ele>80</ele>
        <time>2019-12-15T08:46:12.000Z</time>
      </trkpt>
      <trkpt lat="47.31492" lon="-2.36394">
        <ele>79.599998474121</ele>
        <time>2019-12-15T08:46:14.000Z</time>
      </trkpt>
      <trkpt lat="47.31492" lon="-2.36399">
        <ele>79.199996948242</ele>
        <time>2019-12-15T08:46:15.000Z</time>
      </trkpt>
      <trkpt lat="47.31492" lon="-2.36404">
        <ele>78.599998474121</ele>
        <time>2019-12-15T08:46:16.000Z</time>
      </trkpt>
      <trkpt lat="47.31493" lon="-2.36409">
        <ele>78.199996948242</ele>
        <time>2019-12-15T08:46:17.000Z</time>
      </trkpt>
      <trkpt lat="47.31493" lon="-2.36413">
        <ele>77.800003051758</ele>
        <time>2019-12-15T08:46:18.000Z</time>
      </trkpt>
      <trkpt lat="47.31493" lon="-2.36433">
        <ele>77.800003051758</ele>
        <time>2019-12-15T08:46:24.000Z</time>
      </trkpt>
      <trkpt lat="47.31494" lon="-2.36437">
        <ele>77</ele>
        <time>2019-12-15T08:46:26.000Z</time>
      </trkpt>
      <trkpt lat="47.31495" lon="-2.3644">
        <ele>76.599998474121</ele>
        <time>2019-12-15T08:46:27.000Z</time>
      </trkpt>
      <trkpt lat="47.31495" lon="-2.36442">
        <ele>76.199996948242</ele>
        <time>2019-12-15T08:46:28.000Z</time>
      </trkpt>
      <trkpt lat="47.31496" lon="-2.36444">
        <ele>75.800003051758</ele>
        <time>2019-12-15T08:46:29.000Z</time>
      </trkpt>
      <trkpt lat="47.31496" lon="-2.36447">
        <ele>75.800003051758</ele>
        <time>2019-12-15T08:46:30.000Z</time>
      </trkpt>
      <trkpt lat="47.31497" lon="-2.36463">
        <ele>75.800003051758</ele>
        <time>2019-12-15T08:46:36.000Z</time>
      </trkpt>
      <trkpt lat="47.31499" lon="-2.36483">
        <ele>75.800003051758</ele>
        <time>2019-12-15T08:46:41.000Z</time>
      </trkpt>
      <trkpt lat="47.31499" lon="-2.36501">
        <ele>75.800003051758</ele>
        <time>2019-12-15T08:46:45.000Z</time>
      </trkpt>
      <trkpt lat="47.31502" lon="-2.36517">
        <ele>75.800003051758</ele>
        <time>2019-12-15T08:46:49.000Z</time>
      </trkpt>
      <trkpt lat="47.31501" lon="-2.36533">
        <ele>75.800003051758</ele>
        <time>2019-12-15T08:46:54.000Z</time>
      </trkpt>
      <trkpt lat="47.31502" lon="-2.36543">
        <ele>75.800003051758</ele>
        <time>2019-12-15T08:46:58.000Z</time>
      </trkpt>
      <trkpt lat="47.31502" lon="-2.36547">
        <ele>75.800003051758</ele>
        <time>2019-12-15T08:46:59.000Z</time>
      </trkpt>
      <trkpt lat="47.31502" lon="-2.3655">
        <ele>75.400001525879</ele>
        <time>2019-12-15T08:47:00.000Z</time>
      </trkpt>
      <trkpt lat="47.31502" lon="-2.36554">
        <ele>75</ele>
        <time>2019-12-15T08:47:01.000Z</time>
      </trkpt>
      <trkpt lat="47.31502" lon="-2.36558">
        <ele>74.599998474121</ele>
        <time>2019-12-15T08:47:02.000Z</time>
      </trkpt>
      <trkpt lat="47.31503" lon="-2.36561">
        <ele>74.199996948242</ele>
        <time>2019-12-15T08:47:03.000Z</time>
      </trkpt>
      <trkpt lat="47.31504" lon="-2.36564">
        <ele>73.800003051758</ele>
        <time>2019-12-15T08:47:04.000Z</time>
      </trkpt>
      <trkpt lat="47.31504" lon="-2.36567">
        <ele>73.800003051758</ele>
        <time>2019-12-15T08:47:05.000Z</time>
      </trkpt>
      <trkpt lat="47.31504" lon="-2.36569">
        <ele>73.800003051758</ele>
        <time>2019-12-15T08:47:06.000Z</time>
      </trkpt>
      <trkpt lat="47.315" lon="-2.3658">
        <ele>73.800003051758</ele>
        <time>2019-12-15T08:47:09.000Z</time>
      </trkpt>
      <trkpt lat="47.315" lon="-2.36603">
        <ele>73.800003051758</ele>
        <time>2019-12-15T08:47:15.000Z</time>
      </trkpt>
      <trkpt lat="47.31502" lon="-2.36614">
        <ele>73.800003051758</ele>
        <time>2019-12-15T08:47:20.000Z</time>
      </trkpt>
      <trkpt lat="47.31506" lon="-2.36624">
        <ele>73.800003051758</ele>
        <time>2019-12-15T08:47:26.000Z</time>
      </trkpt>
      <trkpt lat="47.31511" lon="-2.36638">
        <ele>73.800003051758</ele>
        <time>2019-12-15T08:47:32.000Z</time>
      </trkpt>
      <trkpt lat="47.31513" lon="-2.36653">
        <ele>73.800003051758</ele>
        <time>2019-12-15T08:47:39.000Z</time>
      </trkpt>
      <trkpt lat="47.31514" lon="-2.36655">
        <ele>73.800003051758</ele>
        <time>2019-12-15T08:47:40.000Z</time>
      </trkpt>
      <trkpt lat="47.31514" lon="-2.36655">
        <ele>73.800003051758</ele>
        <time>2019-12-15T08:47:41.000Z</time>
      </trkpt>
      <trkpt lat="47.31516" lon="-2.36666">
        <ele>73.800003051758</ele>
        <time>2019-12-15T08:47:56.000Z</time>
      </trkpt>
      <trkpt lat="47.31517" lon="-2.36669">
        <ele>73.800003051758</ele>
        <time>2019-12-15T08:47:57.000Z</time>
      </trkpt>
      <trkpt lat="47.31518" lon="-2.36675">
        <ele>73.800003051758</ele>
        <time>2019-12-15T08:48:00.000Z</time>
      </trkpt>
      <trkpt lat="47.31519" lon="-2.36686">
        <ele>73.800003051758</ele>
        <time>2019-12-15T08:48:04.000Z</time>
      </trkpt>
      <trkpt lat="47.31525" lon="-2.36711">
        <ele>73.800003051758</ele>
        <time>2019-12-15T08:48:11.000Z</time>
      </trkpt>
      <trkpt lat="47.31529" lon="-2.36722">
        <ele>74.199996948242</ele>
        <time>2019-12-15T08:48:14.000Z</time>
      </trkpt>
      <trkpt lat="47.3153" lon="-2.36726">
        <ele>74.599998474121</ele>
        <time>2019-12-15T08:48:15.000Z</time>
      </trkpt>
      <trkpt lat="47.31531" lon="-2.3673">
        <ele>75</ele>
        <time>2019-12-15T08:48:16.000Z</time>
      </trkpt>
      <trkpt lat="47.31532" lon="-2.36734">
        <ele>75.400001525879</ele>
        <time>2019-12-15T08:48:17.000Z</time>
      </trkpt>
      <trkpt lat="47.31533" lon="-2.36739">
        <ele>75.800003051758</ele>
        <time>2019-12-15T08:48:18.000Z</time>
      </trkpt>
      <trkpt lat="47.31538" lon="-2.36758">
        <ele>75.800003051758</ele>
        <time>2019-12-15T08:48:23.000Z</time>
      </trkpt>
      <trkpt lat="47.31544" lon="-2.36785">
        <ele>75.800003051758</ele>
        <time>2019-12-15T08:48:31.000Z</time>
      </trkpt>
      <trkpt lat="47.31546" lon="-2.36794">
        <ele>76.199996948242</ele>
        <time>2019-12-15T08:48:34.000Z</time>
      </trkpt>
      <trkpt lat="47.31547" lon="-2.36797">
        <ele>76.599998474121</ele>
        <time>2019-12-15T08:48:35.000Z</time>
      </trkpt>
      <trkpt lat="47.31547" lon="-2.368">
        <ele>77</ele>
        <time>2019-12-15T08:48:36.000Z</time>
      </trkpt>
      <trkpt lat="47.31548" lon="-2.36803">
        <ele>77.400001525879</ele>
        <time>2019-12-15T08:48:37.000Z</time>
      </trkpt>
      <trkpt lat="47.31549" lon="-2.36805">
        <ele>77.800003051758</ele>
        <time>2019-12-15T08:48:38.000Z</time>
      </trkpt>
      <trkpt lat="47.31553" lon="-2.36816">
        <ele>77.800003051758</ele>
        <time>2019-12-15T08:48:42.000Z</time>
      </trkpt>
      <trkpt lat="47.31554" lon="-2.36819">
        <ele>77.800003051758</ele>
        <time>2019-12-15T08:48:44.000Z</time>
      </trkpt>
      <trkpt lat="47.31554" lon="-2.36823">
        <ele>77.800003051758</ele>
        <time>2019-12-15T08:48:46.000Z</time>
      </trkpt>
      <trkpt lat="47.3156" lon="-2.36844">
        <ele>77.800003051758</ele>
        <time>2019-12-15T08:48:51.000Z</time>
      </trkpt>
      <trkpt lat="47.31562" lon="-2.36852">
        <ele>78.199996948242</ele>
        <time>2019-12-15T08:48:53.000Z</time>
      </trkpt>
      <trkpt lat="47.31564" lon="-2.36857">
        <ele>79</ele>
        <time>2019-12-15T08:48:54.000Z</time>
      </trkpt>
      <trkpt lat="47.31566" lon="-2.36861">
        <ele>79.400001525879</ele>
        <time>2019-12-15T08:48:55.000Z</time>
      </trkpt>
      <trkpt lat="47.31566" lon="-2.36866">
        <ele>80</ele>
        <time>2019-12-15T08:48:56.000Z</time>
      </trkpt>
      <trkpt lat="47.31569" lon="-2.36875">
        <ele>80</ele>
        <time>2019-12-15T08:48:58.000Z</time>
      </trkpt>
      <trkpt lat="47.31575" lon="-2.36897">
        <ele>80</ele>
        <time>2019-12-15T08:49:03.000Z</time>
      </trkpt>
      <trkpt lat="47.31576" lon="-2.36901">
        <ele>80.400001525879</ele>
        <time>2019-12-15T08:49:04.000Z</time>
      </trkpt>
      <trkpt lat="47.31577" lon="-2.36905">
        <ele>80.800003051758</ele>
        <time>2019-12-15T08:49:05.000Z</time>
      </trkpt>
      <trkpt lat="47.31578" lon="-2.36909">
        <ele>81.199996948242</ele>
        <time>2019-12-15T08:49:06.000Z</time>
      </trkpt>
      <trkpt lat="47.3158" lon="-2.36913">
        <ele>81.599998474121</ele>
        <time>2019-12-15T08:49:07.000Z</time>
      </trkpt>
      <trkpt lat="47.31581" lon="-2.36918">
        <ele>82</ele>
        <time>2019-12-15T08:49:08.000Z</time>
      </trkpt>
      <trkpt lat="47.31585" lon="-2.36928">
        <ele>82</ele>
        <time>2019-12-15T08:49:10.000Z</time>
      </trkpt>
      <trkpt lat="47.31592" lon="-2.36955">
        <ele>82</ele>
        <time>2019-12-15T08:49:16.000Z</time>
      </trkpt>
      <trkpt lat="47.31595" lon="-2.36965">
        <ele>82.400001525879</ele>
        <time>2019-12-15T08:49:18.000Z</time>
      </trkpt>
      <trkpt lat="47.31597" lon="-2.36969">
        <ele>83.199996948242</ele>
        <time>2019-12-15T08:49:19.000Z</time>
      </trkpt>
      <trkpt lat="47.31598" lon="-2.36973">
        <ele>83.599998474121</ele>
        <time>2019-12-15T08:49:20.000Z</time>
      </trkpt>
      <trkpt lat="47.31599" lon="-2.36978">
        <ele>84</ele>
        <time>2019-12-15T08:49:21.000Z</time>
      </trkpt>
      <trkpt lat="47.316" lon="-2.36983">
        <ele>84</ele>
        <time>2019-12-15T08:49:22.000Z</time>
      </trkpt>
      <trkpt lat="47.31608" lon="-2.37006">
        <ele>84</ele>
        <time>2019-12-15T08:49:27.000Z</time>
      </trkpt>
      <trkpt lat="47.31619" lon="-2.37037">
        <ele>84</ele>
        <time>2019-12-15T08:49:33.000Z</time>
      </trkpt>
      <trkpt lat="47.31621" lon="-2.37041">
        <ele>84.400001525879</ele>
        <time>2019-12-15T08:49:34.000Z</time>
      </trkpt>
      <trkpt lat="47.31624" lon="-2.37046">
        <ele>84.800003051758</ele>
        <time>2019-12-15T08:49:35.000Z</time>
      </trkpt>
      <trkpt lat="47.31626" lon="-2.37051">
        <ele>85.199996948242</ele>
        <time>2019-12-15T08:49:36.000Z</time>
      </trkpt>
      <trkpt lat="47.31629" lon="-2.37055">
        <ele>85.599998474121</ele>
        <time>2019-12-15T08:49:37.000Z</time>
      </trkpt>
      <trkpt lat="47.31631" lon="-2.3706">
        <ele>86</ele>
        <time>2019-12-15T08:49:38.000Z</time>
      </trkpt>
      <trkpt lat="47.31634" lon="-2.37065">
        <ele>86</ele>
        <time>2019-12-15T08:49:39.000Z</time>
      </trkpt>
      <trkpt lat="47.31641" lon="-2.37081">
        <ele>86</ele>
        <time>2019-12-15T08:49:42.000Z</time>
      </trkpt>
      <trkpt lat="47.31647" lon="-2.37091">
        <ele>86</ele>
        <time>2019-12-15T08:49:44.000Z</time>
      </trkpt>
      <trkpt lat="47.31663" lon="-2.37122">
        <ele>86</ele>
        <time>2019-12-15T08:49:50.000Z</time>
      </trkpt>
      <trkpt lat="47.31672" lon="-2.37143">
        <ele>86</ele>
        <time>2019-12-15T08:49:54.000Z</time>
      </trkpt>
      <trkpt lat="47.31675" lon="-2.37148">
        <ele>86</ele>
        <time>2019-12-15T08:49:55.000Z</time>
      </trkpt>
      <trkpt lat="47.31685" lon="-2.37174">
        <ele>86</ele>
        <time>2019-12-15T08:49:59.000Z</time>
      </trkpt>
      <trkpt lat="47.31688" lon="-2.3718">
        <ele>86</ele>
        <time>2019-12-15T08:50:00.000Z</time>
      </trkpt>
      <trkpt lat="47.31691" lon="-2.37193">
        <ele>86</ele>
        <time>2019-12-15T08:50:02.000Z</time>
      </trkpt>
      <trkpt lat="47.3169" lon="-2.37209">
        <ele>86.400001525879</ele>
        <time>2019-12-15T08:50:04.000Z</time>
      </trkpt>
      <trkpt lat="47.31689" lon="-2.37216">
        <ele>87</ele>
        <time>2019-12-15T08:50:05.000Z</time>
      </trkpt>
      <trkpt lat="47.31687" lon="-2.37222">
        <ele>87.400001525879</ele>
        <time>2019-12-15T08:50:06.000Z</time>
      </trkpt>
      <trkpt lat="47.31685" lon="-2.37229">
        <ele>87.800003051758</ele>
        <time>2019-12-15T08:50:07.000Z</time>
      </trkpt>
      <trkpt lat="47.31682" lon="-2.37234">
        <ele>88.199996948242</ele>
        <time>2019-12-15T08:50:08.000Z</time>
      </trkpt>
      <trkpt lat="47.31666" lon="-2.37252">
        <ele>88.199996948242</ele>
        <time>2019-12-15T08:50:12.000Z</time>
      </trkpt>
      <trkpt lat="47.31662" lon="-2.37256">
        <ele>88.199996948242</ele>
        <time>2019-12-15T08:50:13.000Z</time>
      </trkpt>
      <trkpt lat="47.31655" lon="-2.37263">
        <ele>88.199996948242</ele>
        <time>2019-12-15T08:50:15.000Z</time>
      </trkpt>
      <trkpt lat="47.31641" lon="-2.37275">
        <ele>88.199996948242</ele>
        <time>2019-12-15T08:50:19.000Z</time>
      </trkpt>
      <trkpt lat="47.31628" lon="-2.37289">
        <ele>88.199996948242</ele>
        <time>2019-12-15T08:50:23.000Z</time>
      </trkpt>
      <trkpt lat="47.31623" lon="-2.37301">
        <ele>88.199996948242</ele>
        <time>2019-12-15T08:50:25.000Z</time>
      </trkpt>
      <trkpt lat="47.31621" lon="-2.37328">
        <ele>88.199996948242</ele>
        <time>2019-12-15T08:50:29.000Z</time>
      </trkpt>
      <trkpt lat="47.31626" lon="-2.37352">
        <ele>88.199996948242</ele>
        <time>2019-12-15T08:50:33.000Z</time>
      </trkpt>
      <trkpt lat="47.31627" lon="-2.37358">
        <ele>88.199996948242</ele>
        <time>2019-12-15T08:50:34.000Z</time>
      </trkpt>
      <trkpt lat="47.31634" lon="-2.37404">
        <ele>88.199996948242</ele>
        <time>2019-12-15T08:50:43.000Z</time>
      </trkpt>
      <trkpt lat="47.31636" lon="-2.37444">
        <ele>87.800003051758</ele>
        <time>2019-12-15T08:50:50.000Z</time>
      </trkpt>
      <trkpt lat="47.31637" lon="-2.3745">
        <ele>87.199996948242</ele>
        <time>2019-12-15T08:50:51.000Z</time>
      </trkpt>
      <trkpt lat="47.31637" lon="-2.37456">
        <ele>86.800003051758</ele>
        <time>2019-12-15T08:50:52.000Z</time>
      </trkpt>
      <trkpt lat="47.31638" lon="-2.37462">
        <ele>86.400001525879</ele>
        <time>2019-12-15T08:50:53.000Z</time>
      </trkpt>
      <trkpt lat="47.31638" lon="-2.37468">
        <ele>86</ele>
        <time>2019-12-15T08:50:54.000Z</time>
      </trkpt>
      <trkpt lat="47.31639" lon="-2.37485">
        <ele>86</ele>
        <time>2019-12-15T08:50:57.000Z</time>
      </trkpt>
      <trkpt lat="47.31634" lon="-2.37512">
        <ele>86</ele>
        <time>2019-12-15T08:51:02.000Z</time>
      </trkpt>
      <trkpt lat="47.31624" lon="-2.37544">
        <ele>86</ele>
        <time>2019-12-15T08:51:08.000Z</time>
      </trkpt>
      <trkpt lat="47.31617" lon="-2.37571">
        <ele>86</ele>
        <time>2019-12-15T08:51:12.000Z</time>
      </trkpt>
      <trkpt lat="47.31615" lon="-2.37584">
        <ele>86</ele>
        <time>2019-12-15T08:51:14.000Z</time>
      </trkpt>
      <trkpt lat="47.31614" lon="-2.37604">
        <ele>86</ele>
        <time>2019-12-15T08:51:17.000Z</time>
      </trkpt>
      <trkpt lat="47.31615" lon="-2.37622">
        <ele>86</ele>
        <time>2019-12-15T08:51:20.000Z</time>
      </trkpt>
      <trkpt lat="47.31621" lon="-2.37644">
        <ele>86</ele>
        <time>2019-12-15T08:51:24.000Z</time>
      </trkpt>
      <trkpt lat="47.31627" lon="-2.37651">
        <ele>86</ele>
        <time>2019-12-15T08:51:26.000Z</time>
      </trkpt>
      <trkpt lat="47.31643" lon="-2.37662">
        <ele>86</ele>
        <time>2019-12-15T08:51:30.000Z</time>
      </trkpt>
      <trkpt lat="47.31648" lon="-2.37664">
        <ele>86</ele>
        <time>2019-12-15T08:51:31.000Z</time>
      </trkpt>
      <trkpt lat="47.31664" lon="-2.37678">
        <ele>86</ele>
        <time>2019-12-15T08:51:35.000Z</time>
      </trkpt>
      <trkpt lat="47.31671" lon="-2.37687">
        <ele>86</ele>
        <time>2019-12-15T08:51:37.000Z</time>
      </trkpt>
      <trkpt lat="47.3169" lon="-2.37707">
        <ele>86</ele>
        <time>2019-12-15T08:51:42.000Z</time>
      </trkpt>
      <trkpt lat="47.317" lon="-2.37712">
        <ele>86</ele>
        <time>2019-12-15T08:51:44.000Z</time>
      </trkpt>
      <trkpt lat="47.31724" lon="-2.37712">
        <ele>86</ele>
        <time>2019-12-15T08:51:49.000Z</time>
      </trkpt>
      <trkpt lat="47.31729" lon="-2.37711">
        <ele>86</ele>
        <time>2019-12-15T08:51:50.000Z</time>
      </trkpt>
      <trkpt lat="47.31753" lon="-2.37699">
        <ele>86</ele>
        <time>2019-12-15T08:51:55.000Z</time>
      </trkpt>
      <trkpt lat="47.31775" lon="-2.37679">
        <ele>85.599998474121</ele>
        <time>2019-12-15T08:52:00.000Z</time>
      </trkpt>
      <trkpt lat="47.31779" lon="-2.37675">
        <ele>85.199996948242</ele>
        <time>2019-12-15T08:52:01.000Z</time>
      </trkpt>
      <trkpt lat="47.31783" lon="-2.3767">
        <ele>84.800003051758</ele>
        <time>2019-12-15T08:52:02.000Z</time>
      </trkpt>
      <trkpt lat="47.31787" lon="-2.37666">
        <ele>84.400001525879</ele>
        <time>2019-12-15T08:52:03.000Z</time>
      </trkpt>
      <trkpt lat="47.31792" lon="-2.37663">
        <ele>84</ele>
        <time>2019-12-15T08:52:04.000Z</time>
      </trkpt>
      <trkpt lat="47.31805" lon="-2.37655">
        <ele>84</ele>
        <time>2019-12-15T08:52:07.000Z</time>
      </trkpt>
      <trkpt lat="47.31819" lon="-2.37651">
        <ele>84</ele>
        <time>2019-12-15T08:52:10.000Z</time>
      </trkpt>
      <trkpt lat="47.31826" lon="-2.37658">
        <ele>84</ele>
        <time>2019-12-15T08:52:12.000Z</time>
      </trkpt>
      <trkpt lat="47.31825" lon="-2.37676">
        <ele>84</ele>
        <time>2019-12-15T08:52:15.000Z</time>
      </trkpt>
      <trkpt lat="47.31824" lon="-2.37682">
        <ele>84</ele>
        <time>2019-12-15T08:52:16.000Z</time>
      </trkpt>
      <trkpt lat="47.31819" lon="-2.37715">
        <ele>84</ele>
        <time>2019-12-15T08:52:22.000Z</time>
      </trkpt>
      <trkpt lat="47.31815" lon="-2.37752">
        <ele>84</ele>
        <time>2019-12-15T08:52:28.000Z</time>
      </trkpt>
      <trkpt lat="47.31813" lon="-2.37778">
        <ele>84</ele>
        <time>2019-12-15T08:52:32.000Z</time>
      </trkpt>
      <trkpt lat="47.31811" lon="-2.37802">
        <ele>84</ele>
        <time>2019-12-15T08:52:36.000Z</time>
      </trkpt>
      <trkpt lat="47.31809" lon="-2.37814">
        <ele>84</ele>
        <time>2019-12-15T08:52:38.000Z</time>
      </trkpt>
      <trkpt lat="47.31807" lon="-2.37836">
        <ele>84</ele>
        <time>2019-12-15T08:52:42.000Z</time>
      </trkpt>
      <trkpt lat="47.31803" lon="-2.37871">
        <ele>84</ele>
        <time>2019-12-15T08:52:49.000Z</time>
      </trkpt>
      <trkpt lat="47.318" lon="-2.37896">
        <ele>83.400001525879</ele>
        <time>2019-12-15T08:52:53.000Z</time>
      </trkpt>
      <trkpt lat="47.318" lon="-2.37903">
        <ele>83</ele>
        <time>2019-12-15T08:52:54.000Z</time>
      </trkpt>
      <trkpt lat="47.31799" lon="-2.3791">
        <ele>82.599998474121</ele>
        <time>2019-12-15T08:52:55.000Z</time>
      </trkpt>
      <trkpt lat="47.31798" lon="-2.37918">
        <ele>82.199996948242</ele>
        <time>2019-12-15T08:52:56.000Z</time>
      </trkpt>
      <trkpt lat="47.31798" lon="-2.37925">
        <ele>81.800003051758</ele>
        <time>2019-12-15T08:52:57.000Z</time>
      </trkpt>
      <trkpt lat="47.31796" lon="-2.37968">
        <ele>81.800003051758</ele>
        <time>2019-12-15T08:53:02.000Z</time>
      </trkpt>
      <trkpt lat="47.31796" lon="-2.37995">
        <ele>81.400001525879</ele>
        <time>2019-12-15T08:53:05.000Z</time>
      </trkpt>
      <trkpt lat="47.31796" lon="-2.38005">
        <ele>81</ele>
        <time>2019-12-15T08:53:06.000Z</time>
      </trkpt>
      <trkpt lat="47.31797" lon="-2.38014">
        <ele>80.599998474121</ele>
        <time>2019-12-15T08:53:07.000Z</time>
      </trkpt>
      <trkpt lat="47.31797" lon="-2.38023">
        <ele>80.199996948242</ele>
        <time>2019-12-15T08:53:08.000Z</time>
      </trkpt>
      <trkpt lat="47.31798" lon="-2.38031">
        <ele>79.599998474121</ele>
        <time>2019-12-15T08:53:09.000Z</time>
      </trkpt>
      <trkpt lat="47.31802" lon="-2.38085">
        <ele>79.599998474121</ele>
        <time>2019-12-15T08:53:15.000Z</time>
      </trkpt>
      <trkpt lat="47.31806" lon="-2.38142">
        <ele>79.599998474121</ele>
        <time>2019-12-15T08:53:22.000Z</time>
      </trkpt>
      <trkpt lat="47.31807" lon="-2.38192">
        <ele>79.599998474121</ele>
        <time>2019-12-15T08:53:28.000Z</time>
      </trkpt>
      <trkpt lat="47.31809" lon="-2.38258">
        <ele>79.599998474121</ele>
        <time>2019-12-15T08:53:36.000Z</time>
      </trkpt>
      <trkpt lat="47.31809" lon="-2.38266">
        <ele>80.199996948242</ele>
        <time>2019-12-15T08:53:37.000Z</time>
      </trkpt>
      <trkpt lat="47.31809" lon="-2.38273">
        <ele>80.599998474121</ele>
        <time>2019-12-15T08:53:38.000Z</time>
      </trkpt>
      <trkpt lat="47.3181" lon="-2.38281">
        <ele>81</ele>
        <time>2019-12-15T08:53:39.000Z</time>
      </trkpt>
      <trkpt lat="47.3181" lon="-2.38288">
        <ele>81.599998474121</ele>
        <time>2019-12-15T08:53:40.000Z</time>
      </trkpt>
      <trkpt lat="47.3181" lon="-2.38296">
        <ele>82</ele>
        <time>2019-12-15T08:53:41.000Z</time>
      </trkpt>
      <trkpt lat="47.31811" lon="-2.38319">
        <ele>82</ele>
        <time>2019-12-15T08:53:44.000Z</time>
      </trkpt>
      <trkpt lat="47.31811" lon="-2.38349">
        <ele>82.400001525879</ele>
        <time>2019-12-15T08:53:48.000Z</time>
      </trkpt>
      <trkpt lat="47.31811" lon="-2.38356">
        <ele>82.800003051758</ele>
        <time>2019-12-15T08:53:49.000Z</time>
      </trkpt>
      <trkpt lat="47.31811" lon="-2.38363">
        <ele>83.199996948242</ele>
        <time>2019-12-15T08:53:50.000Z</time>
      </trkpt>
      <trkpt lat="47.3181" lon="-2.3837">
        <ele>84</ele>
        <time>2019-12-15T08:53:51.000Z</time>
      </trkpt>
      <trkpt lat="47.31811" lon="-2.38377">
        <ele>84</ele>
        <time>2019-12-15T08:53:52.000Z</time>
      </trkpt>
      <trkpt lat="47.31811" lon="-2.38434">
        <ele>84</ele>
        <time>2019-12-15T08:54:00.000Z</time>
      </trkpt>
      <trkpt lat="47.31811" lon="-2.38461">
        <ele>84.400001525879</ele>
        <time>2019-12-15T08:54:04.000Z</time>
      </trkpt>
      <trkpt lat="47.31811" lon="-2.38467">
        <ele>84.800003051758</ele>
        <time>2019-12-15T08:54:05.000Z</time>
      </trkpt>
      <trkpt lat="47.31811" lon="-2.38474">
        <ele>85.199996948242</ele>
        <time>2019-12-15T08:54:06.000Z</time>
      </trkpt>
      <trkpt lat="47.31811" lon="-2.3848">
        <ele>85.599998474121</ele>
        <time>2019-12-15T08:54:07.000Z</time>
      </trkpt>
      <trkpt lat="47.31811" lon="-2.38487">
        <ele>86</ele>
        <time>2019-12-15T08:54:08.000Z</time>
      </trkpt>
      <trkpt lat="47.3181" lon="-2.3853">
        <ele>86</ele>
        <time>2019-12-15T08:54:15.000Z</time>
      </trkpt>
      <trkpt lat="47.31815" lon="-2.38537">
        <ele>86</ele>
        <time>2019-12-15T08:54:17.000Z</time>
      </trkpt>
      <trkpt lat="47.31819" lon="-2.38538">
        <ele>86</ele>
        <time>2019-12-15T08:54:18.000Z</time>
      </trkpt>
      <trkpt lat="47.31835" lon="-2.38534">
        <ele>86</ele>
        <time>2019-12-15T08:54:22.000Z</time>
      </trkpt>
      <trkpt lat="47.31839" lon="-2.38532">
        <ele>86</ele>
        <time>2019-12-15T08:54:23.000Z</time>
      </trkpt>
      <trkpt lat="47.31859" lon="-2.38525">
        <ele>86</ele>
        <time>2019-12-15T08:54:28.000Z</time>
      </trkpt>
      <trkpt lat="47.31863" lon="-2.38524">
        <ele>85.599998474121</ele>
        <time>2019-12-15T08:54:29.000Z</time>
      </trkpt>
      <trkpt lat="47.31868" lon="-2.38522">
        <ele>85.199996948242</ele>
        <time>2019-12-15T08:54:30.000Z</time>
      </trkpt>
      <trkpt lat="47.31872" lon="-2.3852">
        <ele>84.800003051758</ele>
        <time>2019-12-15T08:54:31.000Z</time>
      </trkpt>
      <trkpt lat="47.31876" lon="-2.38518">
        <ele>84.199996948242</ele>
        <time>2019-12-15T08:54:32.000Z</time>
      </trkpt>
      <trkpt lat="47.3188" lon="-2.38517">
        <ele>83.800003051758</ele>
        <time>2019-12-15T08:54:33.000Z</time>
      </trkpt>
      <trkpt lat="47.31889" lon="-2.38512">
        <ele>83.800003051758</ele>
        <time>2019-12-15T08:54:35.000Z</time>
      </trkpt>
      <trkpt lat="47.31908" lon="-2.38503">
        <ele>83.400001525879</ele>
        <time>2019-12-15T08:54:39.000Z</time>
      </trkpt>
      <trkpt lat="47.31913" lon="-2.38501">
        <ele>82.599998474121</ele>
        <time>2019-12-15T08:54:40.000Z</time>
      </trkpt>
      <trkpt lat="47.31918" lon="-2.38498">
        <ele>82.199996948242</ele>
        <time>2019-12-15T08:54:41.000Z</time>
      </trkpt>
      <trkpt lat="47.31922" lon="-2.38496">
        <ele>81.800003051758</ele>
        <time>2019-12-15T08:54:42.000Z</time>
      </trkpt>
      <trkpt lat="47.31926" lon="-2.38494">
        <ele>81.800003051758</ele>
        <time>2019-12-15T08:54:43.000Z</time>
      </trkpt>
      <trkpt lat="47.31941" lon="-2.38489">
        <ele>81.800003051758</ele>
        <time>2019-12-15T08:54:46.000Z</time>
      </trkpt>
      <trkpt lat="47.31969" lon="-2.38481">
        <ele>81.400001525879</ele>
        <time>2019-12-15T08:54:52.000Z</time>
      </trkpt>
      <trkpt lat="47.31974" lon="-2.38481">
        <ele>81</ele>
        <time>2019-12-15T08:54:53.000Z</time>
      </trkpt>
      <trkpt lat="47.31978" lon="-2.38479">
        <ele>80.599998474121</ele>
        <time>2019-12-15T08:54:54.000Z</time>
      </trkpt>
      <trkpt lat="47.31982" lon="-2.38478">
        <ele>80.199996948242</ele>
        <time>2019-12-15T08:54:55.000Z</time>
      </trkpt>
      <trkpt lat="47.31985" lon="-2.38476">
        <ele>79.800003051758</ele>
        <time>2019-12-15T08:54:56.000Z</time>
      </trkpt>
      <trkpt lat="47.3199" lon="-2.38474">
        <ele>79.800003051758</ele>
        <time>2019-12-15T08:54:57.000Z</time>
      </trkpt>
      <trkpt lat="47.32005" lon="-2.38468">
        <ele>79.800003051758</ele>
        <time>2019-12-15T08:55:01.000Z</time>
      </trkpt>
      <trkpt lat="47.3201" lon="-2.38466">
        <ele>79.800003051758</ele>
        <time>2019-12-15T08:55:02.000Z</time>
      </trkpt>
      <trkpt lat="47.32042" lon="-2.38454">
        <ele>79.800003051758</ele>
        <time>2019-12-15T08:55:09.000Z</time>
      </trkpt>
      <trkpt lat="47.32057" lon="-2.3845">
        <ele>79.400001525879</ele>
        <time>2019-12-15T08:55:12.000Z</time>
      </trkpt>
      <trkpt lat="47.32061" lon="-2.38448">
        <ele>79</ele>
        <time>2019-12-15T08:55:13.000Z</time>
      </trkpt>
      <trkpt lat="47.32066" lon="-2.38446">
        <ele>78.400001525879</ele>
        <time>2019-12-15T08:55:14.000Z</time>
      </trkpt>
      <trkpt lat="47.32071" lon="-2.38443">
        <ele>78</ele>
        <time>2019-12-15T08:55:15.000Z</time>
      </trkpt>
      <trkpt lat="47.32076" lon="-2.38441">
        <ele>77.599998474121</ele>
        <time>2019-12-15T08:55:16.000Z</time>
      </trkpt>
      <trkpt lat="47.321" lon="-2.38429">
        <ele>77.199996948242</ele>
        <time>2019-12-15T08:55:22.000Z</time>
      </trkpt>
      <trkpt lat="47.32104" lon="-2.38428">
        <ele>76.800003051758</ele>
        <time>2019-12-15T08:55:23.000Z</time>
      </trkpt>
      <trkpt lat="47.32107" lon="-2.38427">
        <ele>76.400001525879</ele>
        <time>2019-12-15T08:55:24.000Z</time>
      </trkpt>
      <trkpt lat="47.3211" lon="-2.38426">
        <ele>76</ele>
        <time>2019-12-15T08:55:25.000Z</time>
      </trkpt>
      <trkpt lat="47.32113" lon="-2.38424">
        <ele>75.599998474121</ele>
        <time>2019-12-15T08:55:26.000Z</time>
      </trkpt>
      <trkpt lat="47.32115" lon="-2.38423">
        <ele>75.599998474121</ele>
        <time>2019-12-15T08:55:27.000Z</time>
      </trkpt>
      <trkpt lat="47.32125" lon="-2.38416">
        <ele>75.599998474121</ele>
        <time>2019-12-15T08:55:32.000Z</time>
      </trkpt>
      <trkpt lat="47.32132" lon="-2.3841">
        <ele>75.599998474121</ele>
        <time>2019-12-15T08:55:38.000Z</time>
      </trkpt>
      <trkpt lat="47.32139" lon="-2.38401">
        <ele>75.599998474121</ele>
        <time>2019-12-15T08:55:44.000Z</time>
      </trkpt>
      <trkpt lat="47.32146" lon="-2.38392">
        <ele>75.599998474121</ele>
        <time>2019-12-15T08:55:48.000Z</time>
      </trkpt>
      <trkpt lat="47.32158" lon="-2.38373">
        <ele>75.599998474121</ele>
        <time>2019-12-15T08:55:54.000Z</time>
      </trkpt>
      <trkpt lat="47.32164" lon="-2.38363">
        <ele>75.199996948242</ele>
        <time>2019-12-15T08:55:59.000Z</time>
      </trkpt>
      <trkpt lat="47.32166" lon="-2.38362">
        <ele>74.800003051758</ele>
        <time>2019-12-15T08:56:00.000Z</time>
      </trkpt>
      <trkpt lat="47.32167" lon="-2.38361">
        <ele>74.400001525879</ele>
        <time>2019-12-15T08:56:01.000Z</time>
      </trkpt>
      <trkpt lat="47.32169" lon="-2.38359">
        <ele>74</ele>
        <time>2019-12-15T08:56:02.000Z</time>
      </trkpt>
      <trkpt lat="47.3217" lon="-2.38357">
        <ele>73.599998474121</ele>
        <time>2019-12-15T08:56:03.000Z</time>
      </trkpt>
      <trkpt lat="47.32173" lon="-2.38351">
        <ele>73.599998474121</ele>
        <time>2019-12-15T08:56:06.000Z</time>
      </trkpt>
      <trkpt lat="47.32182" lon="-2.3834">
        <ele>73.599998474121</ele>
        <time>2019-12-15T08:56:12.000Z</time>
      </trkpt>
      <trkpt lat="47.32183" lon="-2.38337">
        <ele>73.599998474121</ele>
        <time>2019-12-15T08:56:13.000Z</time>
      </trkpt>
      <trkpt lat="47.32195" lon="-2.38319">
        <ele>73.599998474121</ele>
        <time>2019-12-15T08:56:18.000Z</time>
      </trkpt>
      <trkpt lat="47.3221" lon="-2.38302">
        <ele>73.599998474121</ele>
        <time>2019-12-15T08:56:24.000Z</time>
      </trkpt>
      <trkpt lat="47.32216" lon="-2.38296">
        <ele>73.599998474121</ele>
        <time>2019-12-15T08:56:27.000Z</time>
      </trkpt>
      <trkpt lat="47.32219" lon="-2.38296">
        <ele>73.599998474121</ele>
        <time>2019-12-15T08:56:28.000Z</time>
      </trkpt>
      <trkpt lat="47.32242" lon="-2.38293">
        <ele>73.599998474121</ele>
        <time>2019-12-15T08:56:35.000Z</time>
      </trkpt>
      <trkpt lat="47.32263" lon="-2.38287">
        <ele>73.599998474121</ele>
        <time>2019-12-15T08:56:41.000Z</time>
      </trkpt>
      <trkpt lat="47.32283" lon="-2.38286">
        <ele>73.599998474121</ele>
        <time>2019-12-15T08:56:46.000Z</time>
      </trkpt>
      <trkpt lat="47.32286" lon="-2.38286">
        <ele>73.599998474121</ele>
        <time>2019-12-15T08:56:47.000Z</time>
      </trkpt>
      <trkpt lat="47.32301" lon="-2.38293">
        <ele>73.599998474121</ele>
        <time>2019-12-15T08:56:51.000Z</time>
      </trkpt>
      <trkpt lat="47.32321" lon="-2.383">
        <ele>73.599998474121</ele>
        <time>2019-12-15T08:56:56.000Z</time>
      </trkpt>
      <trkpt lat="47.32333" lon="-2.38304">
        <ele>74</ele>
        <time>2019-12-15T08:56:59.000Z</time>
      </trkpt>
      <trkpt lat="47.32336" lon="-2.38306">
        <ele>74.400001525879</ele>
        <time>2019-12-15T08:57:00.000Z</time>
      </trkpt>
      <trkpt lat="47.3234" lon="-2.38307">
        <ele>74.800003051758</ele>
        <time>2019-12-15T08:57:01.000Z</time>
      </trkpt>
      <trkpt lat="47.32343" lon="-2.38309">
        <ele>75.199996948242</ele>
        <time>2019-12-15T08:57:02.000Z</time>
      </trkpt>
      <trkpt lat="47.32347" lon="-2.38311">
        <ele>75.599998474121</ele>
        <time>2019-12-15T08:57:03.000Z</time>
      </trkpt>
      <trkpt lat="47.32357" lon="-2.38317">
        <ele>75.599998474121</ele>
        <time>2019-12-15T08:57:06.000Z</time>
      </trkpt>
      <trkpt lat="47.32373" lon="-2.38326">
        <ele>75.599998474121</ele>
        <time>2019-12-15T08:57:10.000Z</time>
      </trkpt>
      <trkpt lat="47.32377" lon="-2.38328">
        <ele>76</ele>
        <time>2019-12-15T08:57:11.000Z</time>
      </trkpt>
      <trkpt lat="47.32382" lon="-2.3833">
        <ele>76.599998474121</ele>
        <time>2019-12-15T08:57:12.000Z</time>
      </trkpt>
      <trkpt lat="47.32386" lon="-2.38333">
        <ele>77</ele>
        <time>2019-12-15T08:57:13.000Z</time>
      </trkpt>
      <trkpt lat="47.3239" lon="-2.38334">
        <ele>77.400001525879</ele>
        <time>2019-12-15T08:57:14.000Z</time>
      </trkpt>
      <trkpt lat="47.32394" lon="-2.38336">
        <ele>77.800003051758</ele>
        <time>2019-12-15T08:57:15.000Z</time>
      </trkpt>
      <trkpt lat="47.32411" lon="-2.38346">
        <ele>77.800003051758</ele>
        <time>2019-12-15T08:57:19.000Z</time>
      </trkpt>
      <trkpt lat="47.32424" lon="-2.38353">
        <ele>77.800003051758</ele>
        <time>2019-12-15T08:57:22.000Z</time>
      </trkpt>
      <trkpt lat="47.32438" lon="-2.38359">
        <ele>77.800003051758</ele>
        <time>2019-12-15T08:57:25.000Z</time>
      </trkpt>
      <trkpt lat="47.32456" lon="-2.38368">
        <ele>77.800003051758</ele>
        <time>2019-12-15T08:57:29.000Z</time>
      </trkpt>
      <trkpt lat="47.32479" lon="-2.38377">
        <ele>77.800003051758</ele>
        <time>2019-12-15T08:57:34.000Z</time>
      </trkpt>
      <trkpt lat="47.32505" lon="-2.38388">
        <ele>77.800003051758</ele>
        <time>2019-12-15T08:57:40.000Z</time>
      </trkpt>
      <trkpt lat="47.3252" lon="-2.38387">
        <ele>77.800003051758</ele>
        <time>2019-12-15T08:57:44.000Z</time>
      </trkpt>
      <trkpt lat="47.32522" lon="-2.38371">
        <ele>77.800003051758</ele>
        <time>2019-12-15T08:57:47.000Z</time>
      </trkpt>
      <trkpt lat="47.32524" lon="-2.38335">
        <ele>77.800003051758</ele>
        <time>2019-12-15T08:57:53.000Z</time>
      </trkpt>
      <trkpt lat="47.32525" lon="-2.38321">
        <ele>77.800003051758</ele>
        <time>2019-12-15T08:57:57.000Z</time>
      </trkpt>
      <trkpt lat="47.32526" lon="-2.38315">
        <ele>77.800003051758</ele>
        <time>2019-12-15T08:57:59.000Z</time>
      </trkpt>
      <trkpt lat="47.32532" lon="-2.38312">
        <ele>77.800003051758</ele>
        <time>2019-12-15T08:58:02.000Z</time>
      </trkpt>
      <trkpt lat="47.32537" lon="-2.38312">
        <ele>77.800003051758</ele>
        <time>2019-12-15T08:58:03.000Z</time>
      </trkpt>
      <trkpt lat="47.32543" lon="-2.38311">
        <ele>77.400001525879</ele>
        <time>2019-12-15T08:58:04.000Z</time>
      </trkpt>
      <trkpt lat="47.32548" lon="-2.3831">
        <ele>77</ele>
        <time>2019-12-15T08:58:05.000Z</time>
      </trkpt>
      <trkpt lat="47.32554" lon="-2.38308">
        <ele>76.599998474121</ele>
        <time>2019-12-15T08:58:06.000Z</time>
      </trkpt>
      <trkpt lat="47.3256" lon="-2.38307">
        <ele>76.199996948242</ele>
        <time>2019-12-15T08:58:07.000Z</time>
      </trkpt>
      <trkpt lat="47.32566" lon="-2.38305">
        <ele>75.800003051758</ele>
        <time>2019-12-15T08:58:08.000Z</time>
      </trkpt>
      <trkpt lat="47.32584" lon="-2.38299">
        <ele>75.800003051758</ele>
        <time>2019-12-15T08:58:11.000Z</time>
      </trkpt>
      <trkpt lat="47.32589" lon="-2.38297">
        <ele>75.800003051758</ele>
        <time>2019-12-15T08:58:12.000Z</time>
      </trkpt>
      <trkpt lat="47.32606" lon="-2.383">
        <ele>75.800003051758</ele>
        <time>2019-12-15T08:58:15.000Z</time>
      </trkpt>
      <trkpt lat="47.32624" lon="-2.38316">
        <ele>75.800003051758</ele>
        <time>2019-12-15T08:58:19.000Z</time>
      </trkpt>
      <trkpt lat="47.32628" lon="-2.38321">
        <ele>75.800003051758</ele>
        <time>2019-12-15T08:58:20.000Z</time>
      </trkpt>
      <trkpt lat="47.32644" lon="-2.38343">
        <ele>75.800003051758</ele>
        <time>2019-12-15T08:58:25.000Z</time>
      </trkpt>
      <trkpt lat="47.3265" lon="-2.38351">
        <ele>76.199996948242</ele>
        <time>2019-12-15T08:58:27.000Z</time>
      </trkpt>
      <trkpt lat="47.32653" lon="-2.38355">
        <ele>76.599998474121</ele>
        <time>2019-12-15T08:58:28.000Z</time>
      </trkpt>
      <trkpt lat="47.32656" lon="-2.38359">
        <ele>77</ele>
        <time>2019-12-15T08:58:29.000Z</time>
      </trkpt>
      <trkpt lat="47.3266" lon="-2.38362">
        <ele>77.400001525879</ele>
        <time>2019-12-15T08:58:30.000Z</time>
      </trkpt>
      <trkpt lat="47.32663" lon="-2.38366">
        <ele>77.800003051758</ele>
        <time>2019-12-15T08:58:31.000Z</time>
      </trkpt>
      <trkpt lat="47.32666" lon="-2.38369">
        <ele>77.800003051758</ele>
        <time>2019-12-15T08:58:32.000Z</time>
      </trkpt>
      <trkpt lat="47.32679" lon="-2.38384">
        <ele>77.800003051758</ele>
        <time>2019-12-15T08:58:36.000Z</time>
      </trkpt>
      <trkpt lat="47.32681" lon="-2.38387">
        <ele>78.199996948242</ele>
        <time>2019-12-15T08:58:37.000Z</time>
      </trkpt>
      <trkpt lat="47.32684" lon="-2.3839">
        <ele>78.599998474121</ele>
        <time>2019-12-15T08:58:38.000Z</time>
      </trkpt>
      <trkpt lat="47.32687" lon="-2.38393">
        <ele>79</ele>
        <time>2019-12-15T08:58:39.000Z</time>
      </trkpt>
      <trkpt lat="47.3269" lon="-2.38396">
        <ele>79.400001525879</ele>
        <time>2019-12-15T08:58:40.000Z</time>
      </trkpt>
      <trkpt lat="47.32693" lon="-2.38399">
        <ele>79.800003051758</ele>
        <time>2019-12-15T08:58:41.000Z</time>
      </trkpt>
      <trkpt lat="47.32698" lon="-2.38402">
        <ele>79.800003051758</ele>
        <time>2019-12-15T08:58:43.000Z</time>
      </trkpt>
      <trkpt lat="47.32712" lon="-2.38406">
        <ele>80.599998474121</ele>
        <time>2019-12-15T08:58:48.000Z</time>
      </trkpt>
      <trkpt lat="47.32716" lon="-2.38407">
        <ele>81</ele>
        <time>2019-12-15T08:58:49.000Z</time>
      </trkpt>
      <trkpt lat="47.32719" lon="-2.38408">
        <ele>81.599998474121</ele>
        <time>2019-12-15T08:58:50.000Z</time>
      </trkpt>
      <trkpt lat="47.32722" lon="-2.38407">
        <ele>82</ele>
        <time>2019-12-15T08:58:51.000Z</time>
      </trkpt>
      <trkpt lat="47.32732" lon="-2.38404">
        <ele>82</ele>
        <time>2019-12-15T08:58:54.000Z</time>
      </trkpt>
      <trkpt lat="47.32747" lon="-2.38402">
        <ele>82</ele>
        <time>2019-12-15T08:58:59.000Z</time>
      </trkpt>
      <trkpt lat="47.32766" lon="-2.38398">
        <ele>82</ele>
        <time>2019-12-15T08:59:05.000Z</time>
      </trkpt>
      <trkpt lat="47.32769" lon="-2.38397">
        <ele>82.400001525879</ele>
        <time>2019-12-15T08:59:06.000Z</time>
      </trkpt>
      <trkpt lat="47.32771" lon="-2.38397">
        <ele>82.800003051758</ele>
        <time>2019-12-15T08:59:07.000Z</time>
      </trkpt>
      <trkpt lat="47.32774" lon="-2.38396">
        <ele>83.199996948242</ele>
        <time>2019-12-15T08:59:08.000Z</time>
      </trkpt>
      <trkpt lat="47.32775" lon="-2.38395">
        <ele>83.599998474121</ele>
        <time>2019-12-15T08:59:09.000Z</time>
      </trkpt>
      <trkpt lat="47.32776" lon="-2.38395">
        <ele>84</ele>
        <time>2019-12-15T08:59:10.000Z</time>
      </trkpt>
      <trkpt lat="47.32776" lon="-2.38395">
        <ele>84</ele>
        <time>2019-12-15T08:59:11.000Z</time>
      </trkpt>
      <trkpt lat="47.32778" lon="-2.38393">
        <ele>84</ele>
        <time>2019-12-15T09:01:59.000Z</time>
      </trkpt>
      <trkpt lat="47.3278" lon="-2.38389">
        <ele>84</ele>
        <time>2019-12-15T09:02:01.000Z</time>
      </trkpt>
      <trkpt lat="47.32781" lon="-2.38383">
        <ele>84</ele>
        <time>2019-12-15T09:02:03.000Z</time>
      </trkpt>
      <trkpt lat="47.32782" lon="-2.38374">
        <ele>84</ele>
        <time>2019-12-15T09:02:05.000Z</time>
      </trkpt>
      <trkpt lat="47.32782" lon="-2.38369">
        <ele>84</ele>
        <time>2019-12-15T09:02:06.000Z</time>
      </trkpt>
      <trkpt lat="47.32784" lon="-2.38348">
        <ele>84</ele>
        <time>2019-12-15T09:02:09.000Z</time>
      </trkpt>
      <trkpt lat="47.32787" lon="-2.38332">
        <ele>84</ele>
        <time>2019-12-15T09:02:11.000Z</time>
      </trkpt>
      <trkpt lat="47.32794" lon="-2.38307">
        <ele>84</ele>
        <time>2019-12-15T09:02:14.000Z</time>
      </trkpt>
      <trkpt lat="47.32796" lon="-2.38298">
        <ele>83.599998474121</ele>
        <time>2019-12-15T09:02:15.000Z</time>
      </trkpt>
      <trkpt lat="47.32798" lon="-2.38288">
        <ele>83.199996948242</ele>
        <time>2019-12-15T09:02:16.000Z</time>
      </trkpt>
      <trkpt lat="47.328" lon="-2.38277">
        <ele>82.800003051758</ele>
        <time>2019-12-15T09:02:17.000Z</time>
      </trkpt>
      <trkpt lat="47.32803" lon="-2.38267">
        <ele>82.199996948242</ele>
        <time>2019-12-15T09:02:18.000Z</time>
      </trkpt>
      <trkpt lat="47.32806" lon="-2.38257">
        <ele>81.800003051758</ele>
        <time>2019-12-15T09:02:19.000Z</time>
      </trkpt>
      <trkpt lat="47.32816" lon="-2.38223">
        <ele>81.400001525879</ele>
        <time>2019-12-15T09:02:22.000Z</time>
      </trkpt>
      <trkpt lat="47.3282" lon="-2.38212">
        <ele>81</ele>
        <time>2019-12-15T09:02:23.000Z</time>
      </trkpt>
      <trkpt lat="47.32823" lon="-2.382">
        <ele>80.400001525879</ele>
        <time>2019-12-15T09:02:24.000Z</time>
      </trkpt>
      <trkpt lat="47.32827" lon="-2.38188">
        <ele>80</ele>
        <time>2019-12-15T09:02:25.000Z</time>
      </trkpt>
      <trkpt lat="47.32831" lon="-2.38178">
        <ele>79.599998474121</ele>
        <time>2019-12-15T09:02:26.000Z</time>
      </trkpt>
      <trkpt lat="47.32836" lon="-2.38167">
        <ele>79.199996948242</ele>
        <time>2019-12-15T09:02:27.000Z</time>
      </trkpt>
      <trkpt lat="47.32841" lon="-2.38158">
        <ele>78.800003051758</ele>
        <time>2019-12-15T09:02:28.000Z</time>
      </trkpt>
      <trkpt lat="47.32846" lon="-2.38149">
        <ele>78.400001525879</ele>
        <time>2019-12-15T09:02:29.000Z</time>
      </trkpt>
      <trkpt lat="47.32851" lon="-2.3814">
        <ele>77.599998474121</ele>
        <time>2019-12-15T09:02:30.000Z</time>
      </trkpt>
      <trkpt lat="47.32872" lon="-2.38107">
        <ele>77</ele>
        <time>2019-12-15T09:02:34.000Z</time>
      </trkpt>
      <trkpt lat="47.32877" lon="-2.38099">
        <ele>76.599998474121</ele>
        <time>2019-12-15T09:02:35.000Z</time>
      </trkpt>
      <trkpt lat="47.32882" lon="-2.3809">
        <ele>76.199996948242</ele>
        <time>2019-12-15T09:02:36.000Z</time>
      </trkpt>
      <trkpt lat="47.32887" lon="-2.38082">
        <ele>75.800003051758</ele>
        <time>2019-12-15T09:02:37.000Z</time>
      </trkpt>
      <trkpt lat="47.32891" lon="-2.38074">
        <ele>75.400001525879</ele>
        <time>2019-12-15T09:02:38.000Z</time>
      </trkpt>
      <trkpt lat="47.3291" lon="-2.38042">
        <ele>75.400001525879</ele>
        <time>2019-12-15T09:02:42.000Z</time>
      </trkpt>
      <trkpt lat="47.32919" lon="-2.38025">
        <ele>75.400001525879</ele>
        <time>2019-12-15T09:02:44.000Z</time>
      </trkpt>
      <trkpt lat="47.32935" lon="-2.38005">
        <ele>75.400001525879</ele>
        <time>2019-12-15T09:02:47.000Z</time>
      </trkpt>
      <trkpt lat="47.32957" lon="-2.37979">
        <ele>75.400001525879</ele>
        <time>2019-12-15T09:02:51.000Z</time>
      </trkpt>
      <trkpt lat="47.32961" lon="-2.37972">
        <ele>75.400001525879</ele>
        <time>2019-12-15T09:02:52.000Z</time>
      </trkpt>
      <trkpt lat="47.32975" lon="-2.3795">
        <ele>75.400001525879</ele>
        <time>2019-12-15T09:02:55.000Z</time>
      </trkpt>
      <trkpt lat="47.32984" lon="-2.37936">
        <ele>75.400001525879</ele>
        <time>2019-12-15T09:02:57.000Z</time>
      </trkpt>
      <trkpt lat="47.32988" lon="-2.37929">
        <ele>75</ele>
        <time>2019-12-15T09:02:58.000Z</time>
      </trkpt>
      <trkpt lat="47.32993" lon="-2.37921">
        <ele>74.599998474121</ele>
        <time>2019-12-15T09:02:59.000Z</time>
      </trkpt>
      <trkpt lat="47.32997" lon="-2.37914">
        <ele>74.199996948242</ele>
        <time>2019-12-15T09:03:00.000Z</time>
      </trkpt>
      <trkpt lat="47.33001" lon="-2.37906">
        <ele>73.800003051758</ele>
        <time>2019-12-15T09:03:01.000Z</time>
      </trkpt>
      <trkpt lat="47.33006" lon="-2.37898">
        <ele>73.400001525879</ele>
        <time>2019-12-15T09:03:02.000Z</time>
      </trkpt>
      <trkpt lat="47.33019" lon="-2.37868">
        <ele>73.400001525879</ele>
        <time>2019-12-15T09:03:06.000Z</time>
      </trkpt>
      <trkpt lat="47.33021" lon="-2.37861">
        <ele>73.400001525879</ele>
        <time>2019-12-15T09:03:07.000Z</time>
      </trkpt>
      <trkpt lat="47.33032" lon="-2.37844">
        <ele>73</ele>
        <time>2019-12-15T09:03:10.000Z</time>
      </trkpt>
      <trkpt lat="47.33036" lon="-2.37838">
        <ele>72.599998474121</ele>
        <time>2019-12-15T09:03:11.000Z</time>
      </trkpt>
      <trkpt lat="47.3304" lon="-2.37834">
        <ele>72.199996948242</ele>
        <time>2019-12-15T09:03:12.000Z</time>
      </trkpt>
      <trkpt lat="47.33044" lon="-2.37829">
        <ele>71.800003051758</ele>
        <time>2019-12-15T09:03:13.000Z</time>
      </trkpt>
      <trkpt lat="47.33049" lon="-2.37824">
        <ele>71.400001525879</ele>
        <time>2019-12-15T09:03:14.000Z</time>
      </trkpt>
      <trkpt lat="47.33053" lon="-2.3782">
        <ele>71.400001525879</ele>
        <time>2019-12-15T09:03:15.000Z</time>
      </trkpt>
      <trkpt lat="47.33074" lon="-2.37798">
        <ele>71.400001525879</ele>
        <time>2019-12-15T09:03:20.000Z</time>
      </trkpt>
      <trkpt lat="47.33078" lon="-2.37794">
        <ele>71</ele>
        <time>2019-12-15T09:03:21.000Z</time>
      </trkpt>
      <trkpt lat="47.33082" lon="-2.3779">
        <ele>70.599998474121</ele>
        <time>2019-12-15T09:03:22.000Z</time>
      </trkpt>
      <trkpt lat="47.33086" lon="-2.37785">
        <ele>70.199996948242</ele>
        <time>2019-12-15T09:03:23.000Z</time>
      </trkpt>
      <trkpt lat="47.3309" lon="-2.37781">
        <ele>69.800003051758</ele>
        <time>2019-12-15T09:03:24.000Z</time>
      </trkpt>
      <trkpt lat="47.33093" lon="-2.37776">
        <ele>69.400001525879</ele>
        <time>2019-12-15T09:03:25.000Z</time>
      </trkpt>
      <trkpt lat="47.33109" lon="-2.37758">
        <ele>69.400001525879</ele>
        <time>2019-12-15T09:03:29.000Z</time>
      </trkpt>
      <trkpt lat="47.33117" lon="-2.3775">
        <ele>69.400001525879</ele>
        <time>2019-12-15T09:03:31.000Z</time>
      </trkpt>
      <trkpt lat="47.33121" lon="-2.37746">
        <ele>69.400001525879</ele>
        <time>2019-12-15T09:03:32.000Z</time>
      </trkpt>
      <trkpt lat="47.33138" lon="-2.3774">
        <ele>69.400001525879</ele>
        <time>2019-12-15T09:03:35.000Z</time>
      </trkpt>
      <trkpt lat="47.33155" lon="-2.37747">
        <ele>69.400001525879</ele>
        <time>2019-12-15T09:03:38.000Z</time>
      </trkpt>
      <trkpt lat="47.33162" lon="-2.37756">
        <ele>68.800003051758</ele>
        <time>2019-12-15T09:03:40.000Z</time>
      </trkpt>
      <trkpt lat="47.33165" lon="-2.37762">
        <ele>68.400001525879</ele>
        <time>2019-12-15T09:03:41.000Z</time>
      </trkpt>
      <trkpt lat="47.33168" lon="-2.37766">
        <ele>68</ele>
        <time>2019-12-15T09:03:42.000Z</time>
      </trkpt>
      <trkpt lat="47.3317" lon="-2.3777">
        <ele>67.599998474121</ele>
        <time>2019-12-15T09:03:43.000Z</time>
      </trkpt>
      <trkpt lat="47.33172" lon="-2.37774">
        <ele>67.199996948242</ele>
        <time>2019-12-15T09:03:44.000Z</time>
      </trkpt>
      <trkpt lat="47.33182" lon="-2.37789">
        <ele>67.199996948242</ele>
        <time>2019-12-15T09:03:48.000Z</time>
      </trkpt>
      <trkpt lat="47.33184" lon="-2.37793">
        <ele>67.199996948242</ele>
        <time>2019-12-15T09:03:49.000Z</time>
      </trkpt>
      <trkpt lat="47.33192" lon="-2.37805">
        <ele>67.599998474121</ele>
        <time>2019-12-15T09:03:52.000Z</time>
      </trkpt>
      <trkpt lat="47.33195" lon="-2.37809">
        <ele>68</ele>
        <time>2019-12-15T09:03:53.000Z</time>
      </trkpt>
      <trkpt lat="47.33198" lon="-2.37815">
        <ele>68.599998474121</ele>
        <time>2019-12-15T09:03:54.000Z</time>
      </trkpt>
      <trkpt lat="47.33201" lon="-2.3782">
        <ele>69</ele>
        <time>2019-12-15T09:03:55.000Z</time>
      </trkpt>
      <trkpt lat="47.33204" lon="-2.37825">
        <ele>69.400001525879</ele>
        <time>2019-12-15T09:03:56.000Z</time>
      </trkpt>
      <trkpt lat="47.33207" lon="-2.37831">
        <ele>69.400001525879</ele>
        <time>2019-12-15T09:03:57.000Z</time>
      </trkpt>
      <trkpt lat="47.33221" lon="-2.3785">
        <ele>69.400001525879</ele>
        <time>2019-12-15T09:04:01.000Z</time>
      </trkpt>
      <trkpt lat="47.33232" lon="-2.37863">
        <ele>69.400001525879</ele>
        <time>2019-12-15T09:04:04.000Z</time>
      </trkpt>
      <trkpt lat="47.33241" lon="-2.3787">
        <ele>69.800003051758</ele>
        <time>2019-12-15T09:04:06.000Z</time>
      </trkpt>
      <trkpt lat="47.33245" lon="-2.37872">
        <ele>70.199996948242</ele>
        <time>2019-12-15T09:04:07.000Z</time>
      </trkpt>
      <trkpt lat="47.33249" lon="-2.37875">
        <ele>70.599998474121</ele>
        <time>2019-12-15T09:04:08.000Z</time>
      </trkpt>
      <trkpt lat="47.33253" lon="-2.37878">
        <ele>71.400001525879</ele>
        <time>2019-12-15T09:04:09.000Z</time>
      </trkpt>
      <trkpt lat="47.33264" lon="-2.3788">
        <ele>71.400001525879</ele>
        <time>2019-12-15T09:04:12.000Z</time>
      </trkpt>
      <trkpt lat="47.33278" lon="-2.37874">
        <ele>71.800003051758</ele>
        <time>2019-12-15T09:04:16.000Z</time>
      </trkpt>
      <trkpt lat="47.33281" lon="-2.37873">
        <ele>72.199996948242</ele>
        <time>2019-12-15T09:04:17.000Z</time>
      </trkpt>
      <trkpt lat="47.33285" lon="-2.37872">
        <ele>72.800003051758</ele>
        <time>2019-12-15T09:04:18.000Z</time>
      </trkpt>
      <trkpt lat="47.33288" lon="-2.37872">
        <ele>73.199996948242</ele>
        <time>2019-12-15T09:04:19.000Z</time>
      </trkpt>
      <trkpt lat="47.33292" lon="-2.37871">
        <ele>73.599998474121</ele>
        <time>2019-12-15T09:04:20.000Z</time>
      </trkpt>
      <trkpt lat="47.33305" lon="-2.37867">
        <ele>74</ele>
        <time>2019-12-15T09:04:24.000Z</time>
      </trkpt>
      <trkpt lat="47.33309" lon="-2.37866">
        <ele>74.400001525879</ele>
        <time>2019-12-15T09:04:25.000Z</time>
      </trkpt>
      <trkpt lat="47.33313" lon="-2.37865">
        <ele>74.800003051758</ele>
        <time>2019-12-15T09:04:26.000Z</time>
      </trkpt>
      <trkpt lat="47.33316" lon="-2.37864">
        <ele>75.400001525879</ele>
        <time>2019-12-15T09:04:27.000Z</time>
      </trkpt>
      <trkpt lat="47.3332" lon="-2.37863">
        <ele>75.800003051758</ele>
        <time>2019-12-15T09:04:28.000Z</time>
      </trkpt>
      <trkpt lat="47.33332" lon="-2.37859">
        <ele>75.800003051758</ele>
        <time>2019-12-15T09:04:31.000Z</time>
      </trkpt>
      <trkpt lat="47.33346" lon="-2.37855">
        <ele>75.800003051758</ele>
        <time>2019-12-15T09:04:35.000Z</time>
      </trkpt>
      <trkpt lat="47.33349" lon="-2.37856">
        <ele>76.199996948242</ele>
        <time>2019-12-15T09:04:36.000Z</time>
      </trkpt>
      <trkpt lat="47.33353" lon="-2.37857">
        <ele>76.599998474121</ele>
        <time>2019-12-15T09:04:37.000Z</time>
      </trkpt>
      <trkpt lat="47.33356" lon="-2.37857">
        <ele>77</ele>
        <time>2019-12-15T09:04:38.000Z</time>
      </trkpt>
      <trkpt lat="47.33359" lon="-2.37855">
        <ele>77.599998474121</ele>
        <time>2019-12-15T09:04:39.000Z</time>
      </trkpt>
      <trkpt lat="47.33362" lon="-2.37851">
        <ele>78</ele>
        <time>2019-12-15T09:04:40.000Z</time>
      </trkpt>
      <trkpt lat="47.3337" lon="-2.3783">
        <ele>78</ele>
        <time>2019-12-15T09:04:44.000Z</time>
      </trkpt>
      <trkpt lat="47.33372" lon="-2.37825">
        <ele>78</ele>
        <time>2019-12-15T09:04:45.000Z</time>
      </trkpt>
      <trkpt lat="47.3338" lon="-2.37798">
        <ele>78</ele>
        <time>2019-12-15T09:04:50.000Z</time>
      </trkpt>
      <trkpt lat="47.33382" lon="-2.37786">
        <ele>78.400001525879</ele>
        <time>2019-12-15T09:04:52.000Z</time>
      </trkpt>
      <trkpt lat="47.33382" lon="-2.3778">
        <ele>78.800003051758</ele>
        <time>2019-12-15T09:04:53.000Z</time>
      </trkpt>
      <trkpt lat="47.33382" lon="-2.37775">
        <ele>79.199996948242</ele>
        <time>2019-12-15T09:04:54.000Z</time>
      </trkpt>
      <trkpt lat="47.33382" lon="-2.37769">
        <ele>79.599998474121</ele>
        <time>2019-12-15T09:04:55.000Z</time>
      </trkpt>
      <trkpt lat="47.33382" lon="-2.37763">
        <ele>80.199996948242</ele>
        <time>2019-12-15T09:04:56.000Z</time>
      </trkpt>
      <trkpt lat="47.33384" lon="-2.37725">
        <ele>80.199996948242</ele>
        <time>2019-12-15T09:05:02.000Z</time>
      </trkpt>
      <trkpt lat="47.33384" lon="-2.37697">
        <ele>80.199996948242</ele>
        <time>2019-12-15T09:05:06.000Z</time>
      </trkpt>
      <trkpt lat="47.33385" lon="-2.37681">
        <ele>80.199996948242</ele>
        <time>2019-12-15T09:05:08.000Z</time>
      </trkpt>
      <trkpt lat="47.33387" lon="-2.37664">
        <ele>80.199996948242</ele>
        <time>2019-12-15T09:05:10.000Z</time>
      </trkpt>
      <trkpt lat="47.33395" lon="-2.37641">
        <ele>80.199996948242</ele>
        <time>2019-12-15T09:05:13.000Z</time>
      </trkpt>
      <trkpt lat="47.33414" lon="-2.3762">
        <ele>80.199996948242</ele>
        <time>2019-12-15T09:05:17.000Z</time>
      </trkpt>
      <trkpt lat="47.33419" lon="-2.37616">
        <ele>80.199996948242</ele>
        <time>2019-12-15T09:05:18.000Z</time>
      </trkpt>
      <trkpt lat="47.3345" lon="-2.37591">
        <ele>80.199996948242</ele>
        <time>2019-12-15T09:05:24.000Z</time>
      </trkpt>
      <trkpt lat="47.33455" lon="-2.37587">
        <ele>80.199996948242</ele>
        <time>2019-12-15T09:05:25.000Z</time>
      </trkpt>
      <trkpt lat="47.33474" lon="-2.37566">
        <ele>80.199996948242</ele>
        <time>2019-12-15T09:05:29.000Z</time>
      </trkpt>
      <trkpt lat="47.33502" lon="-2.37524">
        <ele>80.199996948242</ele>
        <time>2019-12-15T09:05:36.000Z</time>
      </trkpt>
      <trkpt lat="47.33525" lon="-2.37481">
        <ele>80.199996948242</ele>
        <time>2019-12-15T09:05:42.000Z</time>
      </trkpt>
      <trkpt lat="47.33528" lon="-2.37473">
        <ele>79.800003051758</ele>
        <time>2019-12-15T09:05:43.000Z</time>
      </trkpt>
      <trkpt lat="47.33531" lon="-2.37464">
        <ele>79.199996948242</ele>
        <time>2019-12-15T09:05:44.000Z</time>
      </trkpt>
      <trkpt lat="47.33532" lon="-2.37456">
        <ele>78.800003051758</ele>
        <time>2019-12-15T09:05:45.000Z</time>
      </trkpt>
      <trkpt lat="47.33533" lon="-2.37446">
        <ele>78.400001525879</ele>
        <time>2019-12-15T09:05:46.000Z</time>
      </trkpt>
      <trkpt lat="47.33534" lon="-2.37437">
        <ele>78</ele>
        <time>2019-12-15T09:05:47.000Z</time>
      </trkpt>
      <trkpt lat="47.33536" lon="-2.37389">
        <ele>78</ele>
        <time>2019-12-15T09:05:52.000Z</time>
      </trkpt>
      <trkpt lat="47.33538" lon="-2.3737">
        <ele>77.599998474121</ele>
        <time>2019-12-15T09:05:54.000Z</time>
      </trkpt>
      <trkpt lat="47.3354" lon="-2.37361">
        <ele>77.199996948242</ele>
        <time>2019-12-15T09:05:55.000Z</time>
      </trkpt>
      <trkpt lat="47.33543" lon="-2.37352">
        <ele>76.800003051758</ele>
        <time>2019-12-15T09:05:56.000Z</time>
      </trkpt>
      <trkpt lat="47.33547" lon="-2.37344">
        <ele>76.400001525879</ele>
        <time>2019-12-15T09:05:57.000Z</time>
      </trkpt>
      <trkpt lat="47.33552" lon="-2.37339">
        <ele>76</ele>
        <time>2019-12-15T09:05:58.000Z</time>
      </trkpt>
      <trkpt lat="47.33558" lon="-2.37336">
        <ele>76</ele>
        <time>2019-12-15T09:05:59.000Z</time>
      </trkpt>
      <trkpt lat="47.3359" lon="-2.37327">
        <ele>76</ele>
        <time>2019-12-15T09:06:04.000Z</time>
      </trkpt>
      <trkpt lat="47.33603" lon="-2.37323">
        <ele>76</ele>
        <time>2019-12-15T09:06:06.000Z</time>
      </trkpt>
      <trkpt lat="47.33609" lon="-2.37319">
        <ele>75.400001525879</ele>
        <time>2019-12-15T09:06:07.000Z</time>
      </trkpt>
      <trkpt lat="47.33614" lon="-2.37313">
        <ele>75</ele>
        <time>2019-12-15T09:06:08.000Z</time>
      </trkpt>
      <trkpt lat="47.33618" lon="-2.37305">
        <ele>74.599998474121</ele>
        <time>2019-12-15T09:06:09.000Z</time>
      </trkpt>
      <trkpt lat="47.3362" lon="-2.37297">
        <ele>74.199996948242</ele>
        <time>2019-12-15T09:06:10.000Z</time>
      </trkpt>
      <trkpt lat="47.33623" lon="-2.37289">
        <ele>73.800003051758</ele>
        <time>2019-12-15T09:06:11.000Z</time>
      </trkpt>
      <trkpt lat="47.33623" lon="-2.37266">
        <ele>73.800003051758</ele>
        <time>2019-12-15T09:06:14.000Z</time>
      </trkpt>
      <trkpt lat="47.33617" lon="-2.3725">
        <ele>73.800003051758</ele>
        <time>2019-12-15T09:06:16.000Z</time>
      </trkpt>
      <trkpt lat="47.33613" lon="-2.37239">
        <ele>73.800003051758</ele>
        <time>2019-12-15T09:06:18.000Z</time>
      </trkpt>
      <trkpt lat="47.33601" lon="-2.37203">
        <ele>73.800003051758</ele>
        <time>2019-12-15T09:06:25.000Z</time>
      </trkpt>
      <trkpt lat="47.33601" lon="-2.37197">
        <ele>73.800003051758</ele>
        <time>2019-12-15T09:06:27.000Z</time>
      </trkpt>
      <trkpt lat="47.33601" lon="-2.37196">
        <ele>73.800003051758</ele>
        <time>2019-12-15T09:06:28.000Z</time>
      </trkpt>
      <trkpt lat="47.33601" lon="-2.372">
        <ele>73.800003051758</ele>
        <time>2019-12-15T09:06:32.000Z</time>
      </trkpt>
      <trkpt lat="47.33601" lon="-2.37202">
        <ele>73.800003051758</ele>
        <time>2019-12-15T09:06:33.000Z</time>
      </trkpt>
      <trkpt lat="47.33601" lon="-2.37205">
        <ele>73.400001525879</ele>
        <time>2019-12-15T09:06:34.000Z</time>
      </trkpt>
      <trkpt lat="47.336" lon="-2.37207">
        <ele>73</ele>
        <time>2019-12-15T09:06:35.000Z</time>
      </trkpt>
      <trkpt lat="47.336" lon="-2.37209">
        <ele>72.599998474121</ele>
        <time>2019-12-15T09:06:36.000Z</time>
      </trkpt>
      <trkpt lat="47.336" lon="-2.37212">
        <ele>72.199996948242</ele>
        <time>2019-12-15T09:06:37.000Z</time>
      </trkpt>
      <trkpt lat="47.33599" lon="-2.37214">
        <ele>71.800003051758</ele>
        <time>2019-12-15T09:06:38.000Z</time>
      </trkpt>
      <trkpt lat="47.33599" lon="-2.37221">
        <ele>71.800003051758</ele>
        <time>2019-12-15T09:06:40.000Z</time>
      </trkpt>
      <trkpt lat="47.33598" lon="-2.37232">
        <ele>71.800003051758</ele>
        <time>2019-12-15T09:06:43.000Z</time>
      </trkpt>
      <trkpt lat="47.33596" lon="-2.37234">
        <ele>71.800003051758</ele>
        <time>2019-12-15T09:06:44.000Z</time>
      </trkpt>
      <trkpt lat="47.33578" lon="-2.37235">
        <ele>71.800003051758</ele>
        <time>2019-12-15T09:06:51.000Z</time>
      </trkpt>
      <trkpt lat="47.33564" lon="-2.37233">
        <ele>71.800003051758</ele>
        <time>2019-12-15T09:06:56.000Z</time>
      </trkpt>
      <trkpt lat="47.3355" lon="-2.37233">
        <ele>71.800003051758</ele>
        <time>2019-12-15T09:07:00.000Z</time>
      </trkpt>
      <trkpt lat="47.33532" lon="-2.37234">
        <ele>71.800003051758</ele>
        <time>2019-12-15T09:07:04.000Z</time>
      </trkpt>
      <trkpt lat="47.33523" lon="-2.37234">
        <ele>71.800003051758</ele>
        <time>2019-12-15T09:07:06.000Z</time>
      </trkpt>
      <trkpt lat="47.33501" lon="-2.3723">
        <ele>71.800003051758</ele>
        <time>2019-12-15T09:07:12.000Z</time>
      </trkpt>
      <trkpt lat="47.33497" lon="-2.37229">
        <ele>71.400001525879</ele>
        <time>2019-12-15T09:07:13.000Z</time>
      </trkpt>
      <trkpt lat="47.33495" lon="-2.37226">
        <ele>71</ele>
        <time>2019-12-15T09:07:14.000Z</time>
      </trkpt>
      <trkpt lat="47.33492" lon="-2.37222">
        <ele>70.599998474121</ele>
        <time>2019-12-15T09:07:15.000Z</time>
      </trkpt>
      <trkpt lat="47.3349" lon="-2.37216">
        <ele>70.199996948242</ele>
        <time>2019-12-15T09:07:16.000Z</time>
      </trkpt>
      <trkpt lat="47.33488" lon="-2.37209">
        <ele>69.599998474121</ele>
        <time>2019-12-15T09:07:17.000Z</time>
      </trkpt>
      <trkpt lat="47.33486" lon="-2.37194">
        <ele>69.599998474121</ele>
        <time>2019-12-15T09:07:19.000Z</time>
      </trkpt>
      <trkpt lat="47.33484" lon="-2.3718">
        <ele>69.599998474121</ele>
        <time>2019-12-15T09:07:21.000Z</time>
      </trkpt>
      <trkpt lat="47.33475" lon="-2.3713">
        <ele>69.599998474121</ele>
        <time>2019-12-15T09:07:27.000Z</time>
      </trkpt>
      <trkpt lat="47.33473" lon="-2.37101">
        <ele>69.199996948242</ele>
        <time>2019-12-15T09:07:30.000Z</time>
      </trkpt>
      <trkpt lat="47.33472" lon="-2.3709">
        <ele>68.800003051758</ele>
        <time>2019-12-15T09:07:31.000Z</time>
      </trkpt>
      <trkpt lat="47.33472" lon="-2.37079">
        <ele>68.400001525879</ele>
        <time>2019-12-15T09:07:32.000Z</time>
      </trkpt>
      <trkpt lat="47.33472" lon="-2.37069">
        <ele>68</ele>
        <time>2019-12-15T09:07:33.000Z</time>
      </trkpt>
      <trkpt lat="47.33472" lon="-2.37058">
        <ele>67.400001525879</ele>
        <time>2019-12-15T09:07:34.000Z</time>
      </trkpt>
      <trkpt lat="47.33472" lon="-2.37027">
        <ele>67.400001525879</ele>
        <time>2019-12-15T09:07:37.000Z</time>
      </trkpt>
      <trkpt lat="47.33475" lon="-2.37002">
        <ele>67</ele>
        <time>2019-12-15T09:07:40.000Z</time>
      </trkpt>
      <trkpt lat="47.33475" lon="-2.36997">
        <ele>66.599998474121</ele>
        <time>2019-12-15T09:07:41.000Z</time>
      </trkpt>
      <trkpt lat="47.33475" lon="-2.36993">
        <ele>66.199996948242</ele>
        <time>2019-12-15T09:07:42.000Z</time>
      </trkpt>
      <trkpt lat="47.33476" lon="-2.36992">
        <ele>65.800003051758</ele>
        <time>2019-12-15T09:07:43.000Z</time>
      </trkpt>
      <trkpt lat="47.33477" lon="-2.3699">
        <ele>65.400001525879</ele>
        <time>2019-12-15T09:07:44.000Z</time>
      </trkpt>
      <trkpt lat="47.33479" lon="-2.36987">
        <ele>65</ele>
        <time>2019-12-15T09:07:49.000Z</time>
      </trkpt>
      <trkpt lat="47.33479" lon="-2.36986">
        <ele>64.599998474121</ele>
        <time>2019-12-15T09:07:50.000Z</time>
      </trkpt>
      <trkpt lat="47.3347" lon="-2.36995">
        <ele>63.400001525879</ele>
        <time>2019-12-15T09:10:40.000Z</time>
      </trkpt>
      <trkpt lat="47.33466" lon="-2.36992">
        <ele>63.400001525879</ele>
        <time>2019-12-15T09:10:42.000Z</time>
      </trkpt>
      <trkpt lat="47.33463" lon="-2.36988">
        <ele>63.400001525879</ele>
        <time>2019-12-15T09:10:44.000Z</time>
      </trkpt>
      <trkpt lat="47.33462" lon="-2.36981">
        <ele>63.400001525879</ele>
        <time>2019-12-15T09:10:46.000Z</time>
      </trkpt>
      <trkpt lat="47.33455" lon="-2.36971">
        <ele>63.400001525879</ele>
        <time>2019-12-15T09:10:51.000Z</time>
      </trkpt>
      <trkpt lat="47.33455" lon="-2.3697">
        <ele>63.400001525879</ele>
        <time>2019-12-15T09:10:52.000Z</time>
      </trkpt>
      <trkpt lat="47.33454" lon="-2.36965">
        <ele>63.400001525879</ele>
        <time>2019-12-15T09:10:54.000Z</time>
      </trkpt>
      <trkpt lat="47.33454" lon="-2.3696">
        <ele>63.400001525879</ele>
        <time>2019-12-15T09:10:56.000Z</time>
      </trkpt>
      <trkpt lat="47.33452" lon="-2.36947">
        <ele>63.400001525879</ele>
        <time>2019-12-15T09:11:00.000Z</time>
      </trkpt>
      <trkpt lat="47.3345" lon="-2.36926">
        <ele>63.400001525879</ele>
        <time>2019-12-15T09:11:05.000Z</time>
      </trkpt>
      <trkpt lat="47.33447" lon="-2.36903">
        <ele>63.400001525879</ele>
        <time>2019-12-15T09:11:11.000Z</time>
      </trkpt>
      <trkpt lat="47.33444" lon="-2.36894">
        <ele>63.400001525879</ele>
        <time>2019-12-15T09:11:14.000Z</time>
      </trkpt>
      <trkpt lat="47.33444" lon="-2.36891">
        <ele>63.400001525879</ele>
        <time>2019-12-15T09:11:15.000Z</time>
      </trkpt>
      <trkpt lat="47.33449" lon="-2.36871">
        <ele>63.400001525879</ele>
        <time>2019-12-15T09:11:21.000Z</time>
      </trkpt>
      <trkpt lat="47.33454" lon="-2.36858">
        <ele>63.400001525879</ele>
        <time>2019-12-15T09:11:25.000Z</time>
      </trkpt>
      <trkpt lat="47.33456" lon="-2.36856">
        <ele>63.400001525879</ele>
        <time>2019-12-15T09:11:26.000Z</time>
      </trkpt>
      <trkpt lat="47.33461" lon="-2.36844">
        <ele>63.400001525879</ele>
        <time>2019-12-15T09:11:29.000Z</time>
      </trkpt>
      <trkpt lat="47.33463" lon="-2.36828">
        <ele>63.400001525879</ele>
        <time>2019-12-15T09:11:32.000Z</time>
      </trkpt>
      <trkpt lat="47.33464" lon="-2.36811">
        <ele>63.400001525879</ele>
        <time>2019-12-15T09:11:36.000Z</time>
      </trkpt>
      <trkpt lat="47.33466" lon="-2.3679">
        <ele>63.400001525879</ele>
        <time>2019-12-15T09:11:41.000Z</time>
      </trkpt>
      <trkpt lat="47.33471" lon="-2.36769">
        <ele>63.400001525879</ele>
        <time>2019-12-15T09:11:47.000Z</time>
      </trkpt>
      <trkpt lat="47.33477" lon="-2.3675">
        <ele>63.400001525879</ele>
        <time>2019-12-15T09:11:53.000Z</time>
      </trkpt>
      <trkpt lat="47.33483" lon="-2.36739">
        <ele>63.400001525879</ele>
        <time>2019-12-15T09:11:58.000Z</time>
      </trkpt>
      <trkpt lat="47.33489" lon="-2.36723">
        <ele>63.400001525879</ele>
        <time>2019-12-15T09:12:04.000Z</time>
      </trkpt>
      <trkpt lat="47.33491" lon="-2.36717">
        <ele>63.400001525879</ele>
        <time>2019-12-15T09:12:06.000Z</time>
      </trkpt>
      <trkpt lat="47.33495" lon="-2.36708">
        <ele>63.400001525879</ele>
        <time>2019-12-15T09:12:09.000Z</time>
      </trkpt>
      <trkpt lat="47.33499" lon="-2.36703">
        <ele>63</ele>
        <time>2019-12-15T09:12:11.000Z</time>
      </trkpt>
      <trkpt lat="47.33501" lon="-2.367">
        <ele>62.599998474121</ele>
        <time>2019-12-15T09:12:12.000Z</time>
      </trkpt>
      <trkpt lat="47.33503" lon="-2.36698">
        <ele>62.200000762939</ele>
        <time>2019-12-15T09:12:13.000Z</time>
      </trkpt>
      <trkpt lat="47.33504" lon="-2.36696">
        <ele>61.799999237061</ele>
        <time>2019-12-15T09:12:14.000Z</time>
      </trkpt>
      <trkpt lat="47.33505" lon="-2.36694">
        <ele>61.400001525879</ele>
        <time>2019-12-15T09:12:15.000Z</time>
      </trkpt>
      <trkpt lat="47.33508" lon="-2.36688">
        <ele>61.400001525879</ele>
        <time>2019-12-15T09:12:19.000Z</time>
      </trkpt>
      <trkpt lat="47.33509" lon="-2.36687">
        <ele>61.400001525879</ele>
        <time>2019-12-15T09:12:20.000Z</time>
      </trkpt>
      <trkpt lat="47.33514" lon="-2.36678">
        <ele>61.400001525879</ele>
        <time>2019-12-15T09:12:26.000Z</time>
      </trkpt>
      <trkpt lat="47.3352" lon="-2.36669">
        <ele>61.400001525879</ele>
        <time>2019-12-15T09:12:31.000Z</time>
      </trkpt>
      <trkpt lat="47.33526" lon="-2.3666">
        <ele>61.400001525879</ele>
        <time>2019-12-15T09:12:39.000Z</time>
      </trkpt>
      <trkpt lat="47.33529" lon="-2.36654">
        <ele>61.400001525879</ele>
        <time>2019-12-15T09:13:05.000Z</time>
      </trkpt>
      <trkpt lat="47.33531" lon="-2.36652">
        <ele>61.400001525879</ele>
        <time>2019-12-15T09:13:06.000Z</time>
      </trkpt>
      <trkpt lat="47.33532" lon="-2.3665">
        <ele>61.400001525879</ele>
        <time>2019-12-15T09:13:07.000Z</time>
      </trkpt>
      <trkpt lat="47.33539" lon="-2.36641">
        <ele>61.400001525879</ele>
        <time>2019-12-15T09:13:11.000Z</time>
      </trkpt>
      <trkpt lat="47.33536" lon="-2.36632">
        <ele>61.400001525879</ele>
        <time>2019-12-15T09:13:15.000Z</time>
      </trkpt>
      <trkpt lat="47.33536" lon="-2.36629">
        <ele>61.400001525879</ele>
        <time>2019-12-15T09:13:18.000Z</time>
      </trkpt>
      <trkpt lat="47.33533" lon="-2.36621">
        <ele>63.400001525879</ele>
        <time>2019-12-15T09:13:28.000Z</time>
      </trkpt>
      <trkpt lat="47.33528" lon="-2.36616">
        <ele>64</ele>
        <time>2019-12-15T09:13:31.000Z</time>
      </trkpt>
      <trkpt lat="47.33528" lon="-2.36615">
        <ele>64.400001525879</ele>
        <time>2019-12-15T09:13:32.000Z</time>
      </trkpt>
      <trkpt lat="47.33525" lon="-2.36613">
        <ele>65.800003051758</ele>
        <time>2019-12-15T09:13:37.000Z</time>
      </trkpt>
      <trkpt lat="47.33512" lon="-2.36605">
        <ele>65.800003051758</ele>
        <time>2019-12-15T09:13:42.000Z</time>
      </trkpt>
      <trkpt lat="47.33507" lon="-2.36601">
        <ele>66.199996948242</ele>
        <time>2019-12-15T09:13:44.000Z</time>
      </trkpt>
      <trkpt lat="47.33505" lon="-2.366">
        <ele>66.599998474121</ele>
        <time>2019-12-15T09:13:45.000Z</time>
      </trkpt>
      <trkpt lat="47.33502" lon="-2.36598">
        <ele>67</ele>
        <time>2019-12-15T09:13:46.000Z</time>
      </trkpt>
      <trkpt lat="47.33499" lon="-2.36597">
        <ele>67.400001525879</ele>
        <time>2019-12-15T09:13:47.000Z</time>
      </trkpt>
      <trkpt lat="47.33496" lon="-2.36597">
        <ele>67.800003051758</ele>
        <time>2019-12-15T09:13:48.000Z</time>
      </trkpt>
      <trkpt lat="47.3348" lon="-2.36596">
        <ele>67.800003051758</ele>
        <time>2019-12-15T09:13:54.000Z</time>
      </trkpt>
      <trkpt lat="47.33474" lon="-2.36593">
        <ele>67.800003051758</ele>
        <time>2019-12-15T09:14:00.000Z</time>
      </trkpt>
      <trkpt lat="47.33474" lon="-2.36587">
        <ele>67.800003051758</ele>
        <time>2019-12-15T09:14:05.000Z</time>
      </trkpt>
      <trkpt lat="47.33474" lon="-2.36579">
        <ele>67.800003051758</ele>
        <time>2019-12-15T09:14:08.000Z</time>
      </trkpt>
      <trkpt lat="47.33474" lon="-2.36576">
        <ele>67.800003051758</ele>
        <time>2019-12-15T09:14:09.000Z</time>
      </trkpt>
      <trkpt lat="47.33474" lon="-2.36566">
        <ele>67.800003051758</ele>
        <time>2019-12-15T09:14:14.000Z</time>
      </trkpt>
      <trkpt lat="47.33474" lon="-2.36561">
        <ele>67.800003051758</ele>
        <time>2019-12-15T09:14:17.000Z</time>
      </trkpt>
      <trkpt lat="47.33475" lon="-2.36558">
        <ele>67.800003051758</ele>
        <time>2019-12-15T09:14:19.000Z</time>
      </trkpt>
      <trkpt lat="47.33475" lon="-2.36556">
        <ele>67.800003051758</ele>
        <time>2019-12-15T09:14:20.000Z</time>
      </trkpt>
      <trkpt lat="47.33475" lon="-2.36542">
        <ele>67.800003051758</ele>
        <time>2019-12-15T09:14:26.000Z</time>
      </trkpt>
      <trkpt lat="47.33475" lon="-2.36526">
        <ele>67.800003051758</ele>
        <time>2019-12-15T09:14:34.000Z</time>
      </trkpt>
      <trkpt lat="47.33476" lon="-2.36512">
        <ele>67.800003051758</ele>
        <time>2019-12-15T09:14:40.000Z</time>
      </trkpt>
      <trkpt lat="47.33475" lon="-2.36502">
        <ele>67.800003051758</ele>
        <time>2019-12-15T09:14:46.000Z</time>
      </trkpt>
      <trkpt lat="47.33476" lon="-2.36487">
        <ele>67.800003051758</ele>
        <time>2019-12-15T09:14:52.000Z</time>
      </trkpt>
      <trkpt lat="47.33477" lon="-2.36472">
        <ele>67.800003051758</ele>
        <time>2019-12-15T09:14:58.000Z</time>
      </trkpt>
      <trkpt lat="47.33477" lon="-2.36457">
        <ele>68.199996948242</ele>
        <time>2019-12-15T09:15:04.000Z</time>
      </trkpt>
      <trkpt lat="47.33478" lon="-2.36454">
        <ele>68.599998474121</ele>
        <time>2019-12-15T09:15:05.000Z</time>
      </trkpt>
      <trkpt lat="47.33478" lon="-2.36451">
        <ele>69.199996948242</ele>
        <time>2019-12-15T09:15:06.000Z</time>
      </trkpt>
      <trkpt lat="47.33478" lon="-2.36449">
        <ele>69.599998474121</ele>
        <time>2019-12-15T09:15:07.000Z</time>
      </trkpt>
      <trkpt lat="47.33478" lon="-2.36446">
        <ele>70</ele>
        <time>2019-12-15T09:15:08.000Z</time>
      </trkpt>
      <trkpt lat="47.33479" lon="-2.36437">
        <ele>70</ele>
        <time>2019-12-15T09:15:11.000Z</time>
      </trkpt>
      <trkpt lat="47.33478" lon="-2.36431">
        <ele>70</ele>
        <time>2019-12-15T09:15:14.000Z</time>
      </trkpt>
      <trkpt lat="47.33477" lon="-2.36427">
        <ele>70</ele>
        <time>2019-12-15T09:15:16.000Z</time>
      </trkpt>
      <trkpt lat="47.33471" lon="-2.36423">
        <ele>70</ele>
        <time>2019-12-15T09:15:20.000Z</time>
      </trkpt>
      <trkpt lat="47.33467" lon="-2.36422">
        <ele>70</ele>
        <time>2019-12-15T09:15:22.000Z</time>
      </trkpt>
      <trkpt lat="47.3346" lon="-2.36417">
        <ele>70</ele>
        <time>2019-12-15T09:15:26.000Z</time>
      </trkpt>
      <trkpt lat="47.33457" lon="-2.36414">
        <ele>70</ele>
        <time>2019-12-15T09:15:28.000Z</time>
      </trkpt>
      <trkpt lat="47.33454" lon="-2.36408">
        <ele>70</ele>
        <time>2019-12-15T09:15:33.000Z</time>
      </trkpt>
      <trkpt lat="47.33452" lon="-2.36401">
        <ele>70</ele>
        <time>2019-12-15T09:15:37.000Z</time>
      </trkpt>
      <trkpt lat="47.3345" lon="-2.36394">
        <ele>70</ele>
        <time>2019-12-15T09:15:40.000Z</time>
      </trkpt>
      <trkpt lat="47.33444" lon="-2.36376">
        <ele>70.400001525879</ele>
        <time>2019-12-15T09:15:46.000Z</time>
      </trkpt>
      <trkpt lat="47.33443" lon="-2.36373">
        <ele>70.800003051758</ele>
        <time>2019-12-15T09:15:47.000Z</time>
      </trkpt>
      <trkpt lat="47.33442" lon="-2.3637">
        <ele>71.199996948242</ele>
        <time>2019-12-15T09:15:48.000Z</time>
      </trkpt>
      <trkpt lat="47.33441" lon="-2.36368">
        <ele>71.599998474121</ele>
        <time>2019-12-15T09:15:49.000Z</time>
      </trkpt>
      <trkpt lat="47.33439" lon="-2.36365">
        <ele>72</ele>
        <time>2019-12-15T09:15:50.000Z</time>
      </trkpt>
      <trkpt lat="47.33435" lon="-2.36357">
        <ele>72</ele>
        <time>2019-12-15T09:15:53.000Z</time>
      </trkpt>
      <trkpt lat="47.33429" lon="-2.36335">
        <ele>72</ele>
        <time>2019-12-15T09:15:59.000Z</time>
      </trkpt>
      <trkpt lat="47.33422" lon="-2.36312">
        <ele>72</ele>
        <time>2019-12-15T09:16:06.000Z</time>
      </trkpt>
      <trkpt lat="47.33416" lon="-2.36289">
        <ele>72</ele>
        <time>2019-12-15T09:16:11.000Z</time>
      </trkpt>
      <trkpt lat="47.33414" lon="-2.36284">
        <ele>72.400001525879</ele>
        <time>2019-12-15T09:16:12.000Z</time>
      </trkpt>
      <trkpt lat="47.33414" lon="-2.36278">
        <ele>72.800003051758</ele>
        <time>2019-12-15T09:16:13.000Z</time>
      </trkpt>
      <trkpt lat="47.33413" lon="-2.36273">
        <ele>73.199996948242</ele>
        <time>2019-12-15T09:16:14.000Z</time>
      </trkpt>
      <trkpt lat="47.33412" lon="-2.36267">
        <ele>73.800003051758</ele>
        <time>2019-12-15T09:16:15.000Z</time>
      </trkpt>
      <trkpt lat="47.33412" lon="-2.36261">
        <ele>74.199996948242</ele>
        <time>2019-12-15T09:16:16.000Z</time>
      </trkpt>
      <trkpt lat="47.33412" lon="-2.36256">
        <ele>74.199996948242</ele>
        <time>2019-12-15T09:16:17.000Z</time>
      </trkpt>
      <trkpt lat="47.33414" lon="-2.36215">
        <ele>74.199996948242</ele>
        <time>2019-12-15T09:16:24.000Z</time>
      </trkpt>
      <trkpt lat="47.33415" lon="-2.36197">
        <ele>74.199996948242</ele>
        <time>2019-12-15T09:16:29.000Z</time>
      </trkpt>
      <trkpt lat="47.33415" lon="-2.36183">
        <ele>74.199996948242</ele>
        <time>2019-12-15T09:16:35.000Z</time>
      </trkpt>
      <trkpt lat="47.33412" lon="-2.36169">
        <ele>74.599998474121</ele>
        <time>2019-12-15T09:16:41.000Z</time>
      </trkpt>
      <trkpt lat="47.33412" lon="-2.36167">
        <ele>75</ele>
        <time>2019-12-15T09:16:42.000Z</time>
      </trkpt>
      <trkpt lat="47.33412" lon="-2.36167">
        <ele>75.400001525879</ele>
        <time>2019-12-15T09:16:43.000Z</time>
      </trkpt>
      <trkpt lat="47.33407" lon="-2.36163">
        <ele>76.199996948242</ele>
        <time>2019-12-15T09:17:36.000Z</time>
      </trkpt>
      <trkpt lat="47.33404" lon="-2.36163">
        <ele>76.199996948242</ele>
        <time>2019-12-15T09:17:37.000Z</time>
      </trkpt>
      <trkpt lat="47.33391" lon="-2.3617">
        <ele>76.199996948242</ele>
        <time>2019-12-15T09:17:41.000Z</time>
      </trkpt>
      <trkpt lat="47.33388" lon="-2.36172">
        <ele>76.199996948242</ele>
        <time>2019-12-15T09:17:42.000Z</time>
      </trkpt>
      <trkpt lat="47.3336" lon="-2.36191">
        <ele>76.199996948242</ele>
        <time>2019-12-15T09:17:50.000Z</time>
      </trkpt>
      <trkpt lat="47.33356" lon="-2.36194">
        <ele>76.199996948242</ele>
        <time>2019-12-15T09:17:51.000Z</time>
      </trkpt>
      <trkpt lat="47.33327" lon="-2.36215">
        <ele>76.199996948242</ele>
        <time>2019-12-15T09:17:59.000Z</time>
      </trkpt>
      <trkpt lat="47.33311" lon="-2.36216">
        <ele>76.199996948242</ele>
        <time>2019-12-15T09:18:03.000Z</time>
      </trkpt>
      <trkpt lat="47.33309" lon="-2.36197">
        <ele>76.199996948242</ele>
        <time>2019-12-15T09:18:06.000Z</time>
      </trkpt>
      <trkpt lat="47.33309" lon="-2.36175">
        <ele>76.199996948242</ele>
        <time>2019-12-15T09:18:09.000Z</time>
      </trkpt>
      <trkpt lat="47.33309" lon="-2.36159">
        <ele>76.199996948242</ele>
        <time>2019-12-15T09:18:11.000Z</time>
      </trkpt>
      <trkpt lat="47.33309" lon="-2.36104">
        <ele>76.199996948242</ele>
        <time>2019-12-15T09:18:18.000Z</time>
      </trkpt>
      <trkpt lat="47.33309" lon="-2.3609">
        <ele>76.199996948242</ele>
        <time>2019-12-15T09:18:20.000Z</time>
      </trkpt>
      <trkpt lat="47.33308" lon="-2.36065">
        <ele>76.199996948242</ele>
        <time>2019-12-15T09:18:24.000Z</time>
      </trkpt>
      <trkpt lat="47.33311" lon="-2.36032">
        <ele>76.199996948242</ele>
        <time>2019-12-15T09:18:31.000Z</time>
      </trkpt>
      <trkpt lat="47.33314" lon="-2.35998">
        <ele>76.199996948242</ele>
        <time>2019-12-15T09:18:37.000Z</time>
      </trkpt>
      <trkpt lat="47.33322" lon="-2.35954">
        <ele>76.199996948242</ele>
        <time>2019-12-15T09:18:43.000Z</time>
      </trkpt>
      <trkpt lat="47.33322" lon="-2.35947">
        <ele>76.199996948242</ele>
        <time>2019-12-15T09:18:44.000Z</time>
      </trkpt>
      <trkpt lat="47.33318" lon="-2.35923">
        <ele>76.199996948242</ele>
        <time>2019-12-15T09:18:47.000Z</time>
      </trkpt>
      <trkpt lat="47.33315" lon="-2.35916">
        <ele>76.199996948242</ele>
        <time>2019-12-15T09:18:48.000Z</time>
      </trkpt>
      <trkpt lat="47.33306" lon="-2.35893">
        <ele>76.199996948242</ele>
        <time>2019-12-15T09:18:51.000Z</time>
      </trkpt>
      <trkpt lat="47.33301" lon="-2.35887">
        <ele>76.199996948242</ele>
        <time>2019-12-15T09:18:52.000Z</time>
      </trkpt>
      <trkpt lat="47.33283" lon="-2.35876">
        <ele>76.199996948242</ele>
        <time>2019-12-15T09:18:55.000Z</time>
      </trkpt>
      <trkpt lat="47.33278" lon="-2.35872">
        <ele>76.199996948242</ele>
        <time>2019-12-15T09:18:56.000Z</time>
      </trkpt>
      <trkpt lat="47.33249" lon="-2.35841">
        <ele>75.800003051758</ele>
        <time>2019-12-15T09:19:01.000Z</time>
      </trkpt>
      <trkpt lat="47.33242" lon="-2.35834">
        <ele>75.400001525879</ele>
        <time>2019-12-15T09:19:02.000Z</time>
      </trkpt>
      <trkpt lat="47.33234" lon="-2.35829">
        <ele>75</ele>
        <time>2019-12-15T09:19:03.000Z</time>
      </trkpt>
      <trkpt lat="47.33226" lon="-2.35826">
        <ele>74.400001525879</ele>
        <time>2019-12-15T09:19:04.000Z</time>
      </trkpt>
      <trkpt lat="47.33217" lon="-2.35823">
        <ele>74</ele>
        <time>2019-12-15T09:19:05.000Z</time>
      </trkpt>
      <trkpt lat="47.33184" lon="-2.35815">
        <ele>73.599998474121</ele>
        <time>2019-12-15T09:19:09.000Z</time>
      </trkpt>
      <trkpt lat="47.33175" lon="-2.35814">
        <ele>73</ele>
        <time>2019-12-15T09:19:10.000Z</time>
      </trkpt>
      <trkpt lat="47.33167" lon="-2.35814">
        <ele>72.599998474121</ele>
        <time>2019-12-15T09:19:11.000Z</time>
      </trkpt>
      <trkpt lat="47.3316" lon="-2.35812">
        <ele>72</ele>
        <time>2019-12-15T09:19:12.000Z</time>
      </trkpt>
      <trkpt lat="47.33153" lon="-2.35811">
        <ele>71.599998474121</ele>
        <time>2019-12-15T09:19:13.000Z</time>
      </trkpt>
      <trkpt lat="47.33125" lon="-2.35809">
        <ele>71.599998474121</ele>
        <time>2019-12-15T09:19:17.000Z</time>
      </trkpt>
      <trkpt lat="47.33101" lon="-2.35809">
        <ele>71.199996948242</ele>
        <time>2019-12-15T09:19:21.000Z</time>
      </trkpt>
      <trkpt lat="47.33096" lon="-2.35809">
        <ele>70.800003051758</ele>
        <time>2019-12-15T09:19:22.000Z</time>
      </trkpt>
      <trkpt lat="47.33091" lon="-2.3581">
        <ele>70.199996948242</ele>
        <time>2019-12-15T09:19:23.000Z</time>
      </trkpt>
      <trkpt lat="47.33086" lon="-2.3581">
        <ele>69.800003051758</ele>
        <time>2019-12-15T09:19:24.000Z</time>
      </trkpt>
      <trkpt lat="47.33081" lon="-2.35811">
        <ele>69.400001525879</ele>
        <time>2019-12-15T09:19:25.000Z</time>
      </trkpt>
      <trkpt lat="47.33069" lon="-2.35811">
        <ele>69.400001525879</ele>
        <time>2019-12-15T09:19:27.000Z</time>
      </trkpt>
      <trkpt lat="47.33057" lon="-2.3581">
        <ele>69.400001525879</ele>
        <time>2019-12-15T09:19:29.000Z</time>
      </trkpt>
      <trkpt lat="47.33044" lon="-2.35809">
        <ele>69</ele>
        <time>2019-12-15T09:19:31.000Z</time>
      </trkpt>
      <trkpt lat="47.33038" lon="-2.35806">
        <ele>68.599998474121</ele>
        <time>2019-12-15T09:19:32.000Z</time>
      </trkpt>
      <trkpt lat="47.33032" lon="-2.35803">
        <ele>68.199996948242</ele>
        <time>2019-12-15T09:19:33.000Z</time>
      </trkpt>
      <trkpt lat="47.33027" lon="-2.35798">
        <ele>67.800003051758</ele>
        <time>2019-12-15T09:19:34.000Z</time>
      </trkpt>
      <trkpt lat="47.33023" lon="-2.35793">
        <ele>67.400001525879</ele>
        <time>2019-12-15T09:19:35.000Z</time>
      </trkpt>
      <trkpt lat="47.33012" lon="-2.35771">
        <ele>67.400001525879</ele>
        <time>2019-12-15T09:19:38.000Z</time>
      </trkpt>
      <trkpt lat="47.33009" lon="-2.35763">
        <ele>67</ele>
        <time>2019-12-15T09:19:39.000Z</time>
      </trkpt>
      <trkpt lat="47.33008" lon="-2.35755">
        <ele>66.599998474121</ele>
        <time>2019-12-15T09:19:40.000Z</time>
      </trkpt>
      <trkpt lat="47.33007" lon="-2.35746">
        <ele>66</ele>
        <time>2019-12-15T09:19:41.000Z</time>
      </trkpt>
      <trkpt lat="47.33007" lon="-2.35738">
        <ele>65.599998474121</ele>
        <time>2019-12-15T09:19:42.000Z</time>
      </trkpt>
      <trkpt lat="47.33008" lon="-2.35728">
        <ele>65.199996948242</ele>
        <time>2019-12-15T09:19:43.000Z</time>
      </trkpt>
      <trkpt lat="47.33009" lon="-2.35719">
        <ele>65.199996948242</ele>
        <time>2019-12-15T09:19:44.000Z</time>
      </trkpt>
      <trkpt lat="47.33014" lon="-2.35681">
        <ele>65.199996948242</ele>
        <time>2019-12-15T09:19:49.000Z</time>
      </trkpt>
      <trkpt lat="47.33017" lon="-2.35668">
        <ele>65.199996948242</ele>
        <time>2019-12-15T09:19:53.000Z</time>
      </trkpt>
      <trkpt lat="47.33016" lon="-2.35655">
        <ele>65.199996948242</ele>
        <time>2019-12-15T09:19:58.000Z</time>
      </trkpt>
      <trkpt lat="47.33016" lon="-2.3565">
        <ele>65.199996948242</ele>
        <time>2019-12-15T09:20:00.000Z</time>
      </trkpt>
      <trkpt lat="47.33017" lon="-2.35638">
        <ele>65.199996948242</ele>
        <time>2019-12-15T09:20:05.000Z</time>
      </trkpt>
      <trkpt lat="47.33018" lon="-2.35617">
        <ele>65.199996948242</ele>
        <time>2019-12-15T09:20:12.000Z</time>
      </trkpt>
      <trkpt lat="47.3302" lon="-2.35598">
        <ele>65.199996948242</ele>
        <time>2019-12-15T09:20:18.000Z</time>
      </trkpt>
      <trkpt lat="47.33021" lon="-2.35592">
        <ele>65.199996948242</ele>
        <time>2019-12-15T09:20:21.000Z</time>
      </trkpt>
      <trkpt lat="47.33022" lon="-2.3559">
        <ele>65.199996948242</ele>
        <time>2019-12-15T09:20:23.000Z</time>
      </trkpt>
      <trkpt lat="47.33024" lon="-2.35583">
        <ele>65.199996948242</ele>
        <time>2019-12-15T09:20:29.000Z</time>
      </trkpt>
      <trkpt lat="47.33024" lon="-2.3557">
        <ele>65.199996948242</ele>
        <time>2019-12-15T09:20:36.000Z</time>
      </trkpt>
      <trkpt lat="47.33025" lon="-2.35567">
        <ele>65.599998474121</ele>
        <time>2019-12-15T09:20:37.000Z</time>
      </trkpt>
      <trkpt lat="47.33025" lon="-2.35564">
        <ele>66</ele>
        <time>2019-12-15T09:20:38.000Z</time>
      </trkpt>
      <trkpt lat="47.33024" lon="-2.3556">
        <ele>66.800003051758</ele>
        <time>2019-12-15T09:20:39.000Z</time>
      </trkpt>
      <trkpt lat="47.33024" lon="-2.35557">
        <ele>67.199996948242</ele>
        <time>2019-12-15T09:20:40.000Z</time>
      </trkpt>
      <trkpt lat="47.33023" lon="-2.35554">
        <ele>67.199996948242</ele>
        <time>2019-12-15T09:20:41.000Z</time>
      </trkpt>
      <trkpt lat="47.33023" lon="-2.35546">
        <ele>67.199996948242</ele>
        <time>2019-12-15T09:20:44.000Z</time>
      </trkpt>
      <trkpt lat="47.33026" lon="-2.35525">
        <ele>67.199996948242</ele>
        <time>2019-12-15T09:20:51.000Z</time>
      </trkpt>
      <trkpt lat="47.33027" lon="-2.35519">
        <ele>67.199996948242</ele>
        <time>2019-12-15T09:20:54.000Z</time>
      </trkpt>
      <trkpt lat="47.33027" lon="-2.35513">
        <ele>67.199996948242</ele>
        <time>2019-12-15T09:20:56.000Z</time>
      </trkpt>
      <trkpt lat="47.33029" lon="-2.35496">
        <ele>67.199996948242</ele>
        <time>2019-12-15T09:21:02.000Z</time>
      </trkpt>
      <trkpt lat="47.33029" lon="-2.35494">
        <ele>67.199996948242</ele>
        <time>2019-12-15T09:21:03.000Z</time>
      </trkpt>
      <trkpt lat="47.3303" lon="-2.35479">
        <ele>67.199996948242</ele>
        <time>2019-12-15T09:21:10.000Z</time>
      </trkpt>
      <trkpt lat="47.3303" lon="-2.35477">
        <ele>67.199996948242</ele>
        <time>2019-12-15T09:21:11.000Z</time>
      </trkpt>
      <trkpt lat="47.33031" lon="-2.3547">
        <ele>67.199996948242</ele>
        <time>2019-12-15T09:21:15.000Z</time>
      </trkpt>
      <trkpt lat="47.33032" lon="-2.35458">
        <ele>67.599998474121</ele>
        <time>2019-12-15T09:21:20.000Z</time>
      </trkpt>
      <trkpt lat="47.33032" lon="-2.35456">
        <ele>68</ele>
        <time>2019-12-15T09:21:21.000Z</time>
      </trkpt>
      <trkpt lat="47.33031" lon="-2.35453">
        <ele>68.400001525879</ele>
        <time>2019-12-15T09:21:22.000Z</time>
      </trkpt>
      <trkpt lat="47.3303" lon="-2.35452">
        <ele>69</ele>
        <time>2019-12-15T09:21:23.000Z</time>
      </trkpt>
      <trkpt lat="47.3303" lon="-2.3545">
        <ele>69.400001525879</ele>
        <time>2019-12-15T09:21:24.000Z</time>
      </trkpt>
      <trkpt lat="47.3303" lon="-2.35446">
        <ele>69.400001525879</ele>
        <time>2019-12-15T09:21:25.000Z</time>
      </trkpt>
      <trkpt lat="47.33031" lon="-2.35431">
        <ele>69.400001525879</ele>
        <time>2019-12-15T09:21:29.000Z</time>
      </trkpt>
      <trkpt lat="47.3303" lon="-2.35425">
        <ele>69.400001525879</ele>
        <time>2019-12-15T09:21:31.000Z</time>
      </trkpt>
      <trkpt lat="47.3303" lon="-2.35403">
        <ele>69.400001525879</ele>
        <time>2019-12-15T09:21:37.000Z</time>
      </trkpt>
      <trkpt lat="47.33027" lon="-2.35381">
        <ele>69.400001525879</ele>
        <time>2019-12-15T09:21:42.000Z</time>
      </trkpt>
      <trkpt lat="47.33025" lon="-2.35359">
        <ele>69.400001525879</ele>
        <time>2019-12-15T09:21:47.000Z</time>
      </trkpt>
      <trkpt lat="47.33025" lon="-2.35346">
        <ele>69.800003051758</ele>
        <time>2019-12-15T09:21:50.000Z</time>
      </trkpt>
      <trkpt lat="47.33026" lon="-2.35342">
        <ele>70.199996948242</ele>
        <time>2019-12-15T09:21:51.000Z</time>
      </trkpt>
      <trkpt lat="47.33026" lon="-2.35338">
        <ele>70.599998474121</ele>
        <time>2019-12-15T09:21:52.000Z</time>
      </trkpt>
      <trkpt lat="47.33026" lon="-2.35334">
        <ele>71</ele>
        <time>2019-12-15T09:21:53.000Z</time>
      </trkpt>
      <trkpt lat="47.33026" lon="-2.3533">
        <ele>71.400001525879</ele>
        <time>2019-12-15T09:21:54.000Z</time>
      </trkpt>
      <trkpt lat="47.33026" lon="-2.35321">
        <ele>71.400001525879</ele>
        <time>2019-12-15T09:21:56.000Z</time>
      </trkpt>
      <trkpt lat="47.33027" lon="-2.35316">
        <ele>71.400001525879</ele>
        <time>2019-12-15T09:21:57.000Z</time>
      </trkpt>
      <trkpt lat="47.33028" lon="-2.35291">
        <ele>71.400001525879</ele>
        <time>2019-12-15T09:22:02.000Z</time>
      </trkpt>
      <trkpt lat="47.33031" lon="-2.35264">
        <ele>71.400001525879</ele>
        <time>2019-12-15T09:22:08.000Z</time>
      </trkpt>
      <trkpt lat="47.3303" lon="-2.35242">
        <ele>71.400001525879</ele>
        <time>2019-12-15T09:22:13.000Z</time>
      </trkpt>
      <trkpt lat="47.33028" lon="-2.35223">
        <ele>71.400001525879</ele>
        <time>2019-12-15T09:22:18.000Z</time>
      </trkpt>
      <trkpt lat="47.33033" lon="-2.35203">
        <ele>71.400001525879</ele>
        <time>2019-12-15T09:22:23.000Z</time>
      </trkpt>
      <trkpt lat="47.33042" lon="-2.35181">
        <ele>71.400001525879</ele>
        <time>2019-12-15T09:22:29.000Z</time>
      </trkpt>
      <trkpt lat="47.33049" lon="-2.35161">
        <ele>71.400001525879</ele>
        <time>2019-12-15T09:22:35.000Z</time>
      </trkpt>
      <trkpt lat="47.33059" lon="-2.35142">
        <ele>71.400001525879</ele>
        <time>2019-12-15T09:22:40.000Z</time>
      </trkpt>
      <trkpt lat="47.3307" lon="-2.35128">
        <ele>71.400001525879</ele>
        <time>2019-12-15T09:22:45.000Z</time>
      </trkpt>
      <trkpt lat="47.33081" lon="-2.3511">
        <ele>71.400001525879</ele>
        <time>2019-12-15T09:22:51.000Z</time>
      </trkpt>
      <trkpt lat="47.33084" lon="-2.35104">
        <ele>71.400001525879</ele>
        <time>2019-12-15T09:22:53.000Z</time>
      </trkpt>
      <trkpt lat="47.33089" lon="-2.35101">
        <ele>71.400001525879</ele>
        <time>2019-12-15T09:22:55.000Z</time>
      </trkpt>
      <trkpt lat="47.33096" lon="-2.35092">
        <ele>71.400001525879</ele>
        <time>2019-12-15T09:22:59.000Z</time>
      </trkpt>
      <trkpt lat="47.33105" lon="-2.35077">
        <ele>71.400001525879</ele>
        <time>2019-12-15T09:23:03.000Z</time>
      </trkpt>
      <trkpt lat="47.33114" lon="-2.35064">
        <ele>71.400001525879</ele>
        <time>2019-12-15T09:23:07.000Z</time>
      </trkpt>
      <trkpt lat="47.33123" lon="-2.35045">
        <ele>71.400001525879</ele>
        <time>2019-12-15T09:23:13.000Z</time>
      </trkpt>
      <trkpt lat="47.33134" lon="-2.35029">
        <ele>71</ele>
        <time>2019-12-15T09:23:18.000Z</time>
      </trkpt>
      <trkpt lat="47.33135" lon="-2.35027">
        <ele>70.599998474121</ele>
        <time>2019-12-15T09:23:19.000Z</time>
      </trkpt>
      <trkpt lat="47.33136" lon="-2.35025">
        <ele>70.199996948242</ele>
        <time>2019-12-15T09:23:20.000Z</time>
      </trkpt>
      <trkpt lat="47.33137" lon="-2.35025">
        <ele>69.599998474121</ele>
        <time>2019-12-15T09:23:21.000Z</time>
      </trkpt>
      <trkpt lat="47.33138" lon="-2.35025">
        <ele>69.199996948242</ele>
        <time>2019-12-15T09:23:22.000Z</time>
      </trkpt>
      <trkpt lat="47.3314" lon="-2.35024">
        <ele>69.199996948242</ele>
        <time>2019-12-15T09:23:23.000Z</time>
      </trkpt>
      <trkpt lat="47.33143" lon="-2.35022">
        <ele>69.199996948242</ele>
        <time>2019-12-15T09:23:25.000Z</time>
      </trkpt>
      <trkpt lat="47.33144" lon="-2.35016">
        <ele>69.199996948242</ele>
        <time>2019-12-15T09:23:50.000Z</time>
      </trkpt>
      <trkpt lat="47.33145" lon="-2.35013">
        <ele>69.199996948242</ele>
        <time>2019-12-15T09:23:51.000Z</time>
      </trkpt>
      <trkpt lat="47.33153" lon="-2.34994">
        <ele>69.199996948242</ele>
        <time>2019-12-15T09:23:57.000Z</time>
      </trkpt>
      <trkpt lat="47.33156" lon="-2.34991">
        <ele>69.199996948242</ele>
        <time>2019-12-15T09:23:58.000Z</time>
      </trkpt>
      <trkpt lat="47.3316" lon="-2.34981">
        <ele>69.199996948242</ele>
        <time>2019-12-15T09:24:01.000Z</time>
      </trkpt>
      <trkpt lat="47.33165" lon="-2.34968">
        <ele>69.199996948242</ele>
        <time>2019-12-15T09:24:04.000Z</time>
      </trkpt>
      <trkpt lat="47.3317" lon="-2.3496">
        <ele>69.199996948242</ele>
        <time>2019-12-15T09:24:06.000Z</time>
      </trkpt>
      <trkpt lat="47.33175" lon="-2.34949">
        <ele>69.199996948242</ele>
        <time>2019-12-15T09:24:09.000Z</time>
      </trkpt>
      <trkpt lat="47.33188" lon="-2.34926">
        <ele>69.199996948242</ele>
        <time>2019-12-15T09:24:14.000Z</time>
      </trkpt>
      <trkpt lat="47.33192" lon="-2.34912">
        <ele>69.199996948242</ele>
        <time>2019-12-15T09:24:17.000Z</time>
      </trkpt>
      <trkpt lat="47.33194" lon="-2.34907">
        <ele>69.199996948242</ele>
        <time>2019-12-15T09:24:18.000Z</time>
      </trkpt>
      <trkpt lat="47.33196" lon="-2.34903">
        <ele>68.800003051758</ele>
        <time>2019-12-15T09:24:19.000Z</time>
      </trkpt>
      <trkpt lat="47.33199" lon="-2.34898">
        <ele>68.400001525879</ele>
        <time>2019-12-15T09:24:20.000Z</time>
      </trkpt>
      <trkpt lat="47.33201" lon="-2.34893">
        <ele>67.599998474121</ele>
        <time>2019-12-15T09:24:21.000Z</time>
      </trkpt>
      <trkpt lat="47.33203" lon="-2.3489">
        <ele>67.199996948242</ele>
        <time>2019-12-15T09:24:22.000Z</time>
      </trkpt>
      <trkpt lat="47.33215" lon="-2.34862">
        <ele>67.199996948242</ele>
        <time>2019-12-15T09:24:28.000Z</time>
      </trkpt>
      <trkpt lat="47.33225" lon="-2.34846">
        <ele>67.199996948242</ele>
        <time>2019-12-15T09:24:33.000Z</time>
      </trkpt>
      <trkpt lat="47.33232" lon="-2.34831">
        <ele>67.199996948242</ele>
        <time>2019-12-15T09:24:38.000Z</time>
      </trkpt>
      <trkpt lat="47.3324" lon="-2.3481">
        <ele>67.199996948242</ele>
        <time>2019-12-15T09:24:44.000Z</time>
      </trkpt>
      <trkpt lat="47.3324" lon="-2.34807">
        <ele>67.199996948242</ele>
        <time>2019-12-15T09:24:45.000Z</time>
      </trkpt>
      <trkpt lat="47.33244" lon="-2.34801">
        <ele>67.199996948242</ele>
        <time>2019-12-15T09:24:48.000Z</time>
      </trkpt>
      <trkpt lat="47.33244" lon="-2.34793">
        <ele>67.199996948242</ele>
        <time>2019-12-15T09:24:51.000Z</time>
      </trkpt>
      <trkpt lat="47.33245" lon="-2.34789">
        <ele>67.199996948242</ele>
        <time>2019-12-15T09:24:53.000Z</time>
      </trkpt>
      <trkpt lat="47.33248" lon="-2.34783">
        <ele>67.199996948242</ele>
        <time>2019-12-15T09:24:55.000Z</time>
      </trkpt>
      <trkpt lat="47.3325" lon="-2.34779">
        <ele>66.800003051758</ele>
        <time>2019-12-15T09:24:56.000Z</time>
      </trkpt>
      <trkpt lat="47.33252" lon="-2.34776">
        <ele>66.400001525879</ele>
        <time>2019-12-15T09:24:57.000Z</time>
      </trkpt>
      <trkpt lat="47.33253" lon="-2.34771">
        <ele>66</ele>
        <time>2019-12-15T09:24:58.000Z</time>
      </trkpt>
      <trkpt lat="47.33254" lon="-2.34768">
        <ele>65.599998474121</ele>
        <time>2019-12-15T09:24:59.000Z</time>
      </trkpt>
      <trkpt lat="47.33256" lon="-2.34765">
        <ele>65.199996948242</ele>
        <time>2019-12-15T09:25:00.000Z</time>
      </trkpt>
      <trkpt lat="47.33259" lon="-2.34754">
        <ele>65.199996948242</ele>
        <time>2019-12-15T09:25:03.000Z</time>
      </trkpt>
      <trkpt lat="47.33269" lon="-2.34731">
        <ele>65.199996948242</ele>
        <time>2019-12-15T09:25:08.000Z</time>
      </trkpt>
      <trkpt lat="47.33276" lon="-2.3471">
        <ele>65.199996948242</ele>
        <time>2019-12-15T09:25:13.000Z</time>
      </trkpt>
      <trkpt lat="47.3328" lon="-2.34696">
        <ele>65.199996948242</ele>
        <time>2019-12-15T09:25:19.000Z</time>
      </trkpt>
      <trkpt lat="47.3328" lon="-2.34691">
        <ele>65.199996948242</ele>
        <time>2019-12-15T09:25:21.000Z</time>
      </trkpt>
      <trkpt lat="47.33282" lon="-2.34686">
        <ele>65.199996948242</ele>
        <time>2019-12-15T09:25:23.000Z</time>
      </trkpt>
      <trkpt lat="47.33286" lon="-2.34675">
        <ele>65.199996948242</ele>
        <time>2019-12-15T09:25:29.000Z</time>
      </trkpt>
      <trkpt lat="47.33288" lon="-2.34672">
        <ele>65.199996948242</ele>
        <time>2019-12-15T09:25:31.000Z</time>
      </trkpt>
      <trkpt lat="47.33293" lon="-2.34663">
        <ele>65.199996948242</ele>
        <time>2019-12-15T09:25:36.000Z</time>
      </trkpt>
      <trkpt lat="47.33297" lon="-2.34656">
        <ele>65.199996948242</ele>
        <time>2019-12-15T09:25:38.000Z</time>
      </trkpt>
      <trkpt lat="47.33302" lon="-2.34639">
        <ele>65.199996948242</ele>
        <time>2019-12-15T09:25:42.000Z</time>
      </trkpt>
      <trkpt lat="47.33306" lon="-2.34629">
        <ele>65.199996948242</ele>
        <time>2019-12-15T09:25:44.000Z</time>
      </trkpt>
      <trkpt lat="47.3331" lon="-2.34619">
        <ele>65.199996948242</ele>
        <time>2019-12-15T09:25:47.000Z</time>
      </trkpt>
      <trkpt lat="47.33309" lon="-2.34614">
        <ele>65.199996948242</ele>
        <time>2019-12-15T09:25:50.000Z</time>
      </trkpt>
      <trkpt lat="47.33311" lon="-2.34607">
        <ele>65.199996948242</ele>
        <time>2019-12-15T09:25:52.000Z</time>
      </trkpt>
      <trkpt lat="47.33313" lon="-2.34601">
        <ele>65.199996948242</ele>
        <time>2019-12-15T09:25:54.000Z</time>
      </trkpt>
      <trkpt lat="47.33315" lon="-2.34597">
        <ele>65.199996948242</ele>
        <time>2019-12-15T09:25:56.000Z</time>
      </trkpt>
      <trkpt lat="47.33316" lon="-2.34596">
        <ele>65.199996948242</ele>
        <time>2019-12-15T09:25:57.000Z</time>
      </trkpt>
      <trkpt lat="47.33331" lon="-2.34553">
        <ele>65.199996948242</ele>
        <time>2019-12-15T09:26:38.000Z</time>
      </trkpt>
      <trkpt lat="47.33331" lon="-2.3455">
        <ele>65.199996948242</ele>
        <time>2019-12-15T09:26:39.000Z</time>
      </trkpt>
      <trkpt lat="47.33335" lon="-2.34534">
        <ele>65.199996948242</ele>
        <time>2019-12-15T09:26:44.000Z</time>
      </trkpt>
      <trkpt lat="47.33345" lon="-2.34512">
        <ele>65.199996948242</ele>
        <time>2019-12-15T09:26:50.000Z</time>
      </trkpt>
      <trkpt lat="47.33351" lon="-2.345">
        <ele>65.199996948242</ele>
        <time>2019-12-15T09:26:54.000Z</time>
      </trkpt>
      <trkpt lat="47.33352" lon="-2.34495">
        <ele>65.199996948242</ele>
        <time>2019-12-15T09:26:56.000Z</time>
      </trkpt>
      <trkpt lat="47.33358" lon="-2.34489">
        <ele>65.199996948242</ele>
        <time>2019-12-15T09:26:59.000Z</time>
      </trkpt>
      <trkpt lat="47.33362" lon="-2.34492">
        <ele>65.199996948242</ele>
        <time>2019-12-15T09:27:01.000Z</time>
      </trkpt>
      <trkpt lat="47.33373" lon="-2.34507">
        <ele>65.199996948242</ele>
        <time>2019-12-15T09:27:06.000Z</time>
      </trkpt>
      <trkpt lat="47.33377" lon="-2.34515">
        <ele>65.599998474121</ele>
        <time>2019-12-15T09:27:08.000Z</time>
      </trkpt>
      <trkpt lat="47.33379" lon="-2.34519">
        <ele>66</ele>
        <time>2019-12-15T09:27:09.000Z</time>
      </trkpt>
      <trkpt lat="47.33381" lon="-2.34523">
        <ele>66.400001525879</ele>
        <time>2019-12-15T09:27:10.000Z</time>
      </trkpt>
      <trkpt lat="47.33383" lon="-2.34527">
        <ele>66.800003051758</ele>
        <time>2019-12-15T09:27:11.000Z</time>
      </trkpt>
      <trkpt lat="47.33386" lon="-2.34532">
        <ele>67.199996948242</ele>
        <time>2019-12-15T09:27:12.000Z</time>
      </trkpt>
      <trkpt lat="47.33401" lon="-2.34559">
        <ele>67.199996948242</ele>
        <time>2019-12-15T09:27:18.000Z</time>
      </trkpt>
      <trkpt lat="47.33404" lon="-2.34564">
        <ele>67.199996948242</ele>
        <time>2019-12-15T09:27:19.000Z</time>
      </trkpt>
      <trkpt lat="47.33416" lon="-2.34586">
        <ele>67.199996948242</ele>
        <time>2019-12-15T09:27:24.000Z</time>
      </trkpt>
      <trkpt lat="47.33433" lon="-2.34615">
        <ele>67.599998474121</ele>
        <time>2019-12-15T09:27:30.000Z</time>
      </trkpt>
      <trkpt lat="47.33436" lon="-2.3462">
        <ele>68</ele>
        <time>2019-12-15T09:27:31.000Z</time>
      </trkpt>
      <trkpt lat="47.33438" lon="-2.34625">
        <ele>68.599998474121</ele>
        <time>2019-12-15T09:27:32.000Z</time>
      </trkpt>
      <trkpt lat="47.33441" lon="-2.3463">
        <ele>69</ele>
        <time>2019-12-15T09:27:33.000Z</time>
      </trkpt>
      <trkpt lat="47.33444" lon="-2.34635">
        <ele>69.400001525879</ele>
        <time>2019-12-15T09:27:34.000Z</time>
      </trkpt>
      <trkpt lat="47.33447" lon="-2.3464">
        <ele>69.400001525879</ele>
        <time>2019-12-15T09:27:35.000Z</time>
      </trkpt>
      <trkpt lat="47.33456" lon="-2.34655">
        <ele>69.400001525879</ele>
        <time>2019-12-15T09:27:38.000Z</time>
      </trkpt>
      <trkpt lat="47.33472" lon="-2.34681">
        <ele>69.400001525879</ele>
        <time>2019-12-15T09:27:44.000Z</time>
      </trkpt>
      <trkpt lat="47.33477" lon="-2.34688">
        <ele>69.800003051758</ele>
        <time>2019-12-15T09:27:46.000Z</time>
      </trkpt>
      <trkpt lat="47.3348" lon="-2.34692">
        <ele>70.199996948242</ele>
        <time>2019-12-15T09:27:47.000Z</time>
      </trkpt>
      <trkpt lat="47.33483" lon="-2.34697">
        <ele>70.599998474121</ele>
        <time>2019-12-15T09:27:48.000Z</time>
      </trkpt>
      <trkpt lat="47.33485" lon="-2.34702">
        <ele>71</ele>
        <time>2019-12-15T09:27:49.000Z</time>
      </trkpt>
      <trkpt lat="47.33488" lon="-2.34707">
        <ele>71.400001525879</ele>
        <time>2019-12-15T09:27:50.000Z</time>
      </trkpt>
      <trkpt lat="47.33503" lon="-2.34726">
        <ele>71.400001525879</ele>
        <time>2019-12-15T09:27:55.000Z</time>
      </trkpt>
      <trkpt lat="47.33509" lon="-2.34735">
        <ele>71.400001525879</ele>
        <time>2019-12-15T09:27:57.000Z</time>
      </trkpt>
      <trkpt lat="47.33517" lon="-2.34748">
        <ele>71.400001525879</ele>
        <time>2019-12-15T09:28:00.000Z</time>
      </trkpt>
      <trkpt lat="47.3352" lon="-2.34752">
        <ele>71.400001525879</ele>
        <time>2019-12-15T09:28:01.000Z</time>
      </trkpt>
      <trkpt lat="47.33524" lon="-2.34756">
        <ele>71.800003051758</ele>
        <time>2019-12-15T09:28:02.000Z</time>
      </trkpt>
      <trkpt lat="47.33527" lon="-2.34761">
        <ele>72.199996948242</ele>
        <time>2019-12-15T09:28:03.000Z</time>
      </trkpt>
      <trkpt lat="47.3353" lon="-2.34765">
        <ele>73</ele>
        <time>2019-12-15T09:28:04.000Z</time>
      </trkpt>
      <trkpt lat="47.33533" lon="-2.34769">
        <ele>73.599998474121</ele>
        <time>2019-12-15T09:28:05.000Z</time>
      </trkpt>
      <trkpt lat="47.33536" lon="-2.34773">
        <ele>73.599998474121</ele>
        <time>2019-12-15T09:28:06.000Z</time>
      </trkpt>
      <trkpt lat="47.33562" lon="-2.34805">
        <ele>73.599998474121</ele>
        <time>2019-12-15T09:28:13.000Z</time>
      </trkpt>
      <trkpt lat="47.33574" lon="-2.34821">
        <ele>73.599998474121</ele>
        <time>2019-12-15T09:28:16.000Z</time>
      </trkpt>
      <trkpt lat="47.33586" lon="-2.34835">
        <ele>73.599998474121</ele>
        <time>2019-12-15T09:28:19.000Z</time>
      </trkpt>
      <trkpt lat="47.33611" lon="-2.34868">
        <ele>73.599998474121</ele>
        <time>2019-12-15T09:28:26.000Z</time>
      </trkpt>
      <trkpt lat="47.33631" lon="-2.34897">
        <ele>73.599998474121</ele>
        <time>2019-12-15T09:28:32.000Z</time>
      </trkpt>
      <trkpt lat="47.33644" lon="-2.34913">
        <ele>73.599998474121</ele>
        <time>2019-12-15T09:28:36.000Z</time>
      </trkpt>
      <trkpt lat="47.33651" lon="-2.34923">
        <ele>73.199996948242</ele>
        <time>2019-12-15T09:28:38.000Z</time>
      </trkpt>
      <trkpt lat="47.33655" lon="-2.34928">
        <ele>72.800003051758</ele>
        <time>2019-12-15T09:28:39.000Z</time>
      </trkpt>
      <trkpt lat="47.33658" lon="-2.34933">
        <ele>72.400001525879</ele>
        <time>2019-12-15T09:28:40.000Z</time>
      </trkpt>
      <trkpt lat="47.33661" lon="-2.34936">
        <ele>72</ele>
        <time>2019-12-15T09:28:41.000Z</time>
      </trkpt>
      <trkpt lat="47.33663" lon="-2.34938">
        <ele>71.599998474121</ele>
        <time>2019-12-15T09:28:42.000Z</time>
      </trkpt>
      <trkpt lat="47.33667" lon="-2.34941">
        <ele>71.599998474121</ele>
        <time>2019-12-15T09:28:45.000Z</time>
      </trkpt>
      <trkpt lat="47.33667" lon="-2.34943">
        <ele>71.599998474121</ele>
        <time>2019-12-15T09:28:47.000Z</time>
      </trkpt>
      <trkpt lat="47.33663" lon="-2.34939">
        <ele>69.400001525879</ele>
        <time>2019-12-15T09:29:40.000Z</time>
      </trkpt>
      <trkpt lat="47.33661" lon="-2.34938">
        <ele>69.400001525879</ele>
        <time>2019-12-15T09:29:41.000Z</time>
      </trkpt>
      <trkpt lat="47.33656" lon="-2.3493">
        <ele>69.400001525879</ele>
        <time>2019-12-15T09:29:46.000Z</time>
      </trkpt>
      <trkpt lat="47.33654" lon="-2.34927">
        <ele>69.400001525879</ele>
        <time>2019-12-15T09:29:47.000Z</time>
      </trkpt>
      <trkpt lat="47.33649" lon="-2.34916">
        <ele>69.400001525879</ele>
        <time>2019-12-15T09:29:51.000Z</time>
      </trkpt>
      <trkpt lat="47.3364" lon="-2.34905">
        <ele>69.400001525879</ele>
        <time>2019-12-15T09:29:56.000Z</time>
      </trkpt>
      <trkpt lat="47.33631" lon="-2.34897">
        <ele>69.400001525879</ele>
        <time>2019-12-15T09:30:00.000Z</time>
      </trkpt>
      <trkpt lat="47.33628" lon="-2.34895">
        <ele>70</ele>
        <time>2019-12-15T09:30:01.000Z</time>
      </trkpt>
      <trkpt lat="47.33627" lon="-2.34891">
        <ele>70.400001525879</ele>
        <time>2019-12-15T09:30:02.000Z</time>
      </trkpt>
      <trkpt lat="47.33625" lon="-2.34887">
        <ele>70.800003051758</ele>
        <time>2019-12-15T09:30:03.000Z</time>
      </trkpt>
      <trkpt lat="47.33623" lon="-2.34885">
        <ele>71.199996948242</ele>
        <time>2019-12-15T09:30:04.000Z</time>
      </trkpt>
      <trkpt lat="47.3362" lon="-2.3488">
        <ele>71.599998474121</ele>
        <time>2019-12-15T09:30:05.000Z</time>
      </trkpt>
      <trkpt lat="47.33606" lon="-2.34864">
        <ele>71.599998474121</ele>
        <time>2019-12-15T09:30:10.000Z</time>
      </trkpt>
      <trkpt lat="47.33587" lon="-2.3484">
        <ele>71.599998474121</ele>
        <time>2019-12-15T09:30:16.000Z</time>
      </trkpt>
      <trkpt lat="47.33569" lon="-2.34817">
        <ele>71.599998474121</ele>
        <time>2019-12-15T09:30:22.000Z</time>
      </trkpt>
      <trkpt lat="47.33552" lon="-2.34793">
        <ele>71.599998474121</ele>
        <time>2019-12-15T09:30:28.000Z</time>
      </trkpt>
      <trkpt lat="47.3355" lon="-2.3479">
        <ele>72</ele>
        <time>2019-12-15T09:30:29.000Z</time>
      </trkpt>
      <trkpt lat="47.33548" lon="-2.34786">
        <ele>72.400001525879</ele>
        <time>2019-12-15T09:30:30.000Z</time>
      </trkpt>
      <trkpt lat="47.33544" lon="-2.34783">
        <ele>72.800003051758</ele>
        <time>2019-12-15T09:30:31.000Z</time>
      </trkpt>
      <trkpt lat="47.33542" lon="-2.34779">
        <ele>73.599998474121</ele>
        <time>2019-12-15T09:30:32.000Z</time>
      </trkpt>
      <trkpt lat="47.3352" lon="-2.34749">
        <ele>73.599998474121</ele>
        <time>2019-12-15T09:30:38.000Z</time>
      </trkpt>
      <trkpt lat="47.33491" lon="-2.34711">
        <ele>73.599998474121</ele>
        <time>2019-12-15T09:30:45.000Z</time>
      </trkpt>
      <trkpt lat="47.33474" lon="-2.34685">
        <ele>73.599998474121</ele>
        <time>2019-12-15T09:30:49.000Z</time>
      </trkpt>
      <trkpt lat="47.3347" lon="-2.34679">
        <ele>73.599998474121</ele>
        <time>2019-12-15T09:30:50.000Z</time>
      </trkpt>
      <trkpt lat="47.33457" lon="-2.34659">
        <ele>73.599998474121</ele>
        <time>2019-12-15T09:30:53.000Z</time>
      </trkpt>
      <trkpt lat="47.33453" lon="-2.34652">
        <ele>73.199996948242</ele>
        <time>2019-12-15T09:30:54.000Z</time>
      </trkpt>
      <trkpt lat="47.33449" lon="-2.34646">
        <ele>72.800003051758</ele>
        <time>2019-12-15T09:30:55.000Z</time>
      </trkpt>
      <trkpt lat="47.33446" lon="-2.34639">
        <ele>72.199996948242</ele>
        <time>2019-12-15T09:30:56.000Z</time>
      </trkpt>
      <trkpt lat="47.33442" lon="-2.34632">
        <ele>71.400001525879</ele>
        <time>2019-12-15T09:30:57.000Z</time>
      </trkpt>
      <trkpt lat="47.33422" lon="-2.34593">
        <ele>71.400001525879</ele>
        <time>2019-12-15T09:31:02.000Z</time>
      </trkpt>
      <trkpt lat="47.3341" lon="-2.34572">
        <ele>70.800003051758</ele>
        <time>2019-12-15T09:31:05.000Z</time>
      </trkpt>
      <trkpt lat="47.33406" lon="-2.34564">
        <ele>70.400001525879</ele>
        <time>2019-12-15T09:31:06.000Z</time>
      </trkpt>
      <trkpt lat="47.33402" lon="-2.34556">
        <ele>69.800003051758</ele>
        <time>2019-12-15T09:31:07.000Z</time>
      </trkpt>
      <trkpt lat="47.33398" lon="-2.34549">
        <ele>69.400001525879</ele>
        <time>2019-12-15T09:31:08.000Z</time>
      </trkpt>
      <trkpt lat="47.33394" lon="-2.34542">
        <ele>68.800003051758</ele>
        <time>2019-12-15T09:31:09.000Z</time>
      </trkpt>
      <trkpt lat="47.33387" lon="-2.34528">
        <ele>68.800003051758</ele>
        <time>2019-12-15T09:31:11.000Z</time>
      </trkpt>
      <trkpt lat="47.33376" lon="-2.34508">
        <ele>68.800003051758</ele>
        <time>2019-12-15T09:31:14.000Z</time>
      </trkpt>
      <trkpt lat="47.33371" lon="-2.34497">
        <ele>68.800003051758</ele>
        <time>2019-12-15T09:31:16.000Z</time>
      </trkpt>
      <trkpt lat="47.33365" lon="-2.34488">
        <ele>68.400001525879</ele>
        <time>2019-12-15T09:31:18.000Z</time>
      </trkpt>
      <trkpt lat="47.33363" lon="-2.34488">
        <ele>68</ele>
        <time>2019-12-15T09:31:19.000Z</time>
      </trkpt>
      <trkpt lat="47.3336" lon="-2.34488">
        <ele>67.599998474121</ele>
        <time>2019-12-15T09:31:20.000Z</time>
      </trkpt>
      <trkpt lat="47.33357" lon="-2.3449">
        <ele>66.800003051758</ele>
        <time>2019-12-15T09:31:21.000Z</time>
      </trkpt>
      <trkpt lat="47.33348" lon="-2.34511">
        <ele>66.800003051758</ele>
        <time>2019-12-15T09:31:26.000Z</time>
      </trkpt>
      <trkpt lat="47.33341" lon="-2.34534">
        <ele>66.800003051758</ele>
        <time>2019-12-15T09:31:31.000Z</time>
      </trkpt>
      <trkpt lat="47.33338" lon="-2.34547">
        <ele>66.800003051758</ele>
        <time>2019-12-15T09:31:35.000Z</time>
      </trkpt>
      <trkpt lat="47.33336" lon="-2.34555">
        <ele>66.800003051758</ele>
        <time>2019-12-15T09:31:40.000Z</time>
      </trkpt>
      <trkpt lat="47.33336" lon="-2.34556">
        <ele>66.800003051758</ele>
        <time>2019-12-15T09:31:42.000Z</time>
      </trkpt>
      <trkpt lat="47.33322" lon="-2.34592">
        <ele>65</ele>
        <time>2019-12-15T09:32:26.000Z</time>
      </trkpt>
      <trkpt lat="47.33319" lon="-2.34596">
        <ele>65</ele>
        <time>2019-12-15T09:32:28.000Z</time>
      </trkpt>
      <trkpt lat="47.33319" lon="-2.34598">
        <ele>65</ele>
        <time>2019-12-15T09:32:29.000Z</time>
      </trkpt>
      <trkpt lat="47.33318" lon="-2.34607">
        <ele>65</ele>
        <time>2019-12-15T09:32:34.000Z</time>
      </trkpt>
      <trkpt lat="47.33316" lon="-2.34611">
        <ele>65</ele>
        <time>2019-12-15T09:32:35.000Z</time>
      </trkpt>
      <trkpt lat="47.33312" lon="-2.34617">
        <ele>65</ele>
        <time>2019-12-15T09:32:37.000Z</time>
      </trkpt>
      <trkpt lat="47.33309" lon="-2.34629">
        <ele>65</ele>
        <time>2019-12-15T09:32:41.000Z</time>
      </trkpt>
      <trkpt lat="47.33306" lon="-2.34647">
        <ele>65</ele>
        <time>2019-12-15T09:32:46.000Z</time>
      </trkpt>
      <trkpt lat="47.33302" lon="-2.34656">
        <ele>65</ele>
        <time>2019-12-15T09:32:49.000Z</time>
      </trkpt>
      <trkpt lat="47.33297" lon="-2.34663">
        <ele>65</ele>
        <time>2019-12-15T09:32:51.000Z</time>
      </trkpt>
      <trkpt lat="47.33295" lon="-2.34664">
        <ele>65</ele>
        <time>2019-12-15T09:32:52.000Z</time>
      </trkpt>
      <trkpt lat="47.3329" lon="-2.3467">
        <ele>65</ele>
        <time>2019-12-15T09:32:55.000Z</time>
      </trkpt>
      <trkpt lat="47.33283" lon="-2.34682">
        <ele>65</ele>
        <time>2019-12-15T09:33:01.000Z</time>
      </trkpt>
      <trkpt lat="47.33278" lon="-2.34696">
        <ele>65</ele>
        <time>2019-12-15T09:33:08.000Z</time>
      </trkpt>
      <trkpt lat="47.33274" lon="-2.34715">
        <ele>65</ele>
        <time>2019-12-15T09:33:14.000Z</time>
      </trkpt>
      <trkpt lat="47.33267" lon="-2.34737">
        <ele>65</ele>
        <time>2019-12-15T09:33:20.000Z</time>
      </trkpt>
      <trkpt lat="47.33263" lon="-2.34751">
        <ele>65</ele>
        <time>2019-12-15T09:33:25.000Z</time>
      </trkpt>
      <trkpt lat="47.33257" lon="-2.34766">
        <ele>65</ele>
        <time>2019-12-15T09:33:31.000Z</time>
      </trkpt>
      <trkpt lat="47.33254" lon="-2.34777">
        <ele>65</ele>
        <time>2019-12-15T09:33:35.000Z</time>
      </trkpt>
      <trkpt lat="47.33247" lon="-2.34786">
        <ele>65</ele>
        <time>2019-12-15T09:33:39.000Z</time>
      </trkpt>
      <trkpt lat="47.33246" lon="-2.34789">
        <ele>65</ele>
        <time>2019-12-15T09:33:40.000Z</time>
      </trkpt>
      <trkpt lat="47.33242" lon="-2.34799">
        <ele>65</ele>
        <time>2019-12-15T09:33:43.000Z</time>
      </trkpt>
      <trkpt lat="47.33241" lon="-2.34804">
        <ele>65</ele>
        <time>2019-12-15T09:33:45.000Z</time>
      </trkpt>
      <trkpt lat="47.33237" lon="-2.3482">
        <ele>65</ele>
        <time>2019-12-15T09:33:50.000Z</time>
      </trkpt>
      <trkpt lat="47.33231" lon="-2.34832">
        <ele>65.400001525879</ele>
        <time>2019-12-15T09:33:54.000Z</time>
      </trkpt>
      <trkpt lat="47.33229" lon="-2.34835">
        <ele>65.800003051758</ele>
        <time>2019-12-15T09:33:55.000Z</time>
      </trkpt>
      <trkpt lat="47.33228" lon="-2.34837">
        <ele>66.199996948242</ele>
        <time>2019-12-15T09:33:56.000Z</time>
      </trkpt>
      <trkpt lat="47.33226" lon="-2.34839">
        <ele>66.800003051758</ele>
        <time>2019-12-15T09:33:57.000Z</time>
      </trkpt>
      <trkpt lat="47.33224" lon="-2.34842">
        <ele>67.199996948242</ele>
        <time>2019-12-15T09:33:58.000Z</time>
      </trkpt>
      <trkpt lat="47.3322" lon="-2.3485">
        <ele>67.199996948242</ele>
        <time>2019-12-15T09:34:01.000Z</time>
      </trkpt>
      <trkpt lat="47.33214" lon="-2.34874">
        <ele>67.199996948242</ele>
        <time>2019-12-15T09:34:09.000Z</time>
      </trkpt>
      <trkpt lat="47.33207" lon="-2.34891">
        <ele>67.199996948242</ele>
        <time>2019-12-15T09:34:14.000Z</time>
      </trkpt>
      <trkpt lat="47.33198" lon="-2.34916">
        <ele>67.599998474121</ele>
        <time>2019-12-15T09:34:21.000Z</time>
      </trkpt>
      <trkpt lat="47.33196" lon="-2.3492">
        <ele>68</ele>
        <time>2019-12-15T09:34:22.000Z</time>
      </trkpt>
      <trkpt lat="47.33194" lon="-2.34924">
        <ele>68.400001525879</ele>
        <time>2019-12-15T09:34:23.000Z</time>
      </trkpt>
      <trkpt lat="47.33192" lon="-2.34929">
        <ele>68.800003051758</ele>
        <time>2019-12-15T09:34:24.000Z</time>
      </trkpt>
      <trkpt lat="47.3319" lon="-2.34932">
        <ele>69.199996948242</ele>
        <time>2019-12-15T09:34:25.000Z</time>
      </trkpt>
      <trkpt lat="47.33186" lon="-2.34937">
        <ele>69.199996948242</ele>
        <time>2019-12-15T09:34:26.000Z</time>
      </trkpt>
      <trkpt lat="47.33178" lon="-2.34959">
        <ele>69.199996948242</ele>
        <time>2019-12-15T09:34:32.000Z</time>
      </trkpt>
      <trkpt lat="47.33175" lon="-2.34978">
        <ele>69.199996948242</ele>
        <time>2019-12-15T09:34:37.000Z</time>
      </trkpt>
      <trkpt lat="47.33174" lon="-2.34981">
        <ele>69.199996948242</ele>
        <time>2019-12-15T09:34:38.000Z</time>
      </trkpt>
      <trkpt lat="47.33169" lon="-2.34986">
        <ele>69.199996948242</ele>
        <time>2019-12-15T09:34:40.000Z</time>
      </trkpt>
      <trkpt lat="47.33161" lon="-2.35004">
        <ele>69.199996948242</ele>
        <time>2019-12-15T09:34:47.000Z</time>
      </trkpt>
      <trkpt lat="47.33149" lon="-2.3502">
        <ele>69.199996948242</ele>
        <time>2019-12-15T09:34:52.000Z</time>
      </trkpt>
      <trkpt lat="47.33133" lon="-2.35038">
        <ele>69.199996948242</ele>
        <time>2019-12-15T09:34:58.000Z</time>
      </trkpt>
      <trkpt lat="47.33125" lon="-2.35049">
        <ele>69.599998474121</ele>
        <time>2019-12-15T09:35:01.000Z</time>
      </trkpt>
      <trkpt lat="47.33123" lon="-2.35052">
        <ele>70</ele>
        <time>2019-12-15T09:35:02.000Z</time>
      </trkpt>
      <trkpt lat="47.3312" lon="-2.35055">
        <ele>70.800003051758</ele>
        <time>2019-12-15T09:35:03.000Z</time>
      </trkpt>
      <trkpt lat="47.33118" lon="-2.35059">
        <ele>71.199996948242</ele>
        <time>2019-12-15T09:35:04.000Z</time>
      </trkpt>
      <trkpt lat="47.33116" lon="-2.35063">
        <ele>71.199996948242</ele>
        <time>2019-12-15T09:35:05.000Z</time>
      </trkpt>
      <trkpt lat="47.33108" lon="-2.3508">
        <ele>71.199996948242</ele>
        <time>2019-12-15T09:35:10.000Z</time>
      </trkpt>
      <trkpt lat="47.33094" lon="-2.35098">
        <ele>71.199996948242</ele>
        <time>2019-12-15T09:35:16.000Z</time>
      </trkpt>
      <trkpt lat="47.33091" lon="-2.35099">
        <ele>71.199996948242</ele>
        <time>2019-12-15T09:35:17.000Z</time>
      </trkpt>
      <trkpt lat="47.33084" lon="-2.35105">
        <ele>71.199996948242</ele>
        <time>2019-12-15T09:35:20.000Z</time>
      </trkpt>
      <trkpt lat="47.33082" lon="-2.35107">
        <ele>71.199996948242</ele>
        <time>2019-12-15T09:35:21.000Z</time>
      </trkpt>
      <trkpt lat="47.33077" lon="-2.3512">
        <ele>71.199996948242</ele>
        <time>2019-12-15T09:35:25.000Z</time>
      </trkpt>
      <trkpt lat="47.33066" lon="-2.35138">
        <ele>71.199996948242</ele>
        <time>2019-12-15T09:35:31.000Z</time>
      </trkpt>
      <trkpt lat="47.33052" lon="-2.35152">
        <ele>71.199996948242</ele>
        <time>2019-12-15T09:35:37.000Z</time>
      </trkpt>
      <trkpt lat="47.33046" lon="-2.35159">
        <ele>71.199996948242</ele>
        <time>2019-12-15T09:35:41.000Z</time>
      </trkpt>
      <trkpt lat="47.33044" lon="-2.3516">
        <ele>71.199996948242</ele>
        <time>2019-12-15T09:35:42.000Z</time>
      </trkpt>
      <trkpt lat="47.33035" lon="-2.35161">
        <ele>71.199996948242</ele>
        <time>2019-12-15T09:35:46.000Z</time>
      </trkpt>
      <trkpt lat="47.33033" lon="-2.35159">
        <ele>71.199996948242</ele>
        <time>2019-12-15T09:35:47.000Z</time>
      </trkpt>
      <trkpt lat="47.3303" lon="-2.35158">
        <ele>71.199996948242</ele>
        <time>2019-12-15T09:35:48.000Z</time>
      </trkpt>
      <trkpt lat="47.33024" lon="-2.35144">
        <ele>71.199996948242</ele>
        <time>2019-12-15T09:35:53.000Z</time>
      </trkpt>
      <trkpt lat="47.33024" lon="-2.35132">
        <ele>71.199996948242</ele>
        <time>2019-12-15T09:35:57.000Z</time>
      </trkpt>
      <trkpt lat="47.33022" lon="-2.35129">
        <ele>71.199996948242</ele>
        <time>2019-12-15T09:35:58.000Z</time>
      </trkpt>
      <trkpt lat="47.33016" lon="-2.35113">
        <ele>71.199996948242</ele>
        <time>2019-12-15T09:36:03.000Z</time>
      </trkpt>
      <trkpt lat="47.33016" lon="-2.35108">
        <ele>71.199996948242</ele>
        <time>2019-12-15T09:36:05.000Z</time>
      </trkpt>
      <trkpt lat="47.33016" lon="-2.35087">
        <ele>71.199996948242</ele>
        <time>2019-12-15T09:36:12.000Z</time>
      </trkpt>
      <trkpt lat="47.33011" lon="-2.35069">
        <ele>71.199996948242</ele>
        <time>2019-12-15T09:36:18.000Z</time>
      </trkpt>
      <trkpt lat="47.33009" lon="-2.35062">
        <ele>71.199996948242</ele>
        <time>2019-12-15T09:36:20.000Z</time>
      </trkpt>
      <trkpt lat="47.33008" lon="-2.35056">
        <ele>71.199996948242</ele>
        <time>2019-12-15T09:36:22.000Z</time>
      </trkpt>
      <trkpt lat="47.33007" lon="-2.35048">
        <ele>71.199996948242</ele>
        <time>2019-12-15T09:36:26.000Z</time>
      </trkpt>
      <trkpt lat="47.33005" lon="-2.35042">
        <ele>71.199996948242</ele>
        <time>2019-12-15T09:36:28.000Z</time>
      </trkpt>
      <trkpt lat="47.33002" lon="-2.35033">
        <ele>71.199996948242</ele>
        <time>2019-12-15T09:36:32.000Z</time>
      </trkpt>
      <trkpt lat="47.32998" lon="-2.35026">
        <ele>71.199996948242</ele>
        <time>2019-12-15T09:36:37.000Z</time>
      </trkpt>
      <trkpt lat="47.32992" lon="-2.35015">
        <ele>71.199996948242</ele>
        <time>2019-12-15T09:36:40.000Z</time>
      </trkpt>
      <trkpt lat="47.32991" lon="-2.35009">
        <ele>71.199996948242</ele>
        <time>2019-12-15T09:36:42.000Z</time>
      </trkpt>
      <trkpt lat="47.32991" lon="-2.35003">
        <ele>71.199996948242</ele>
        <time>2019-12-15T09:36:44.000Z</time>
      </trkpt>
      <trkpt lat="47.32991" lon="-2.35">
        <ele>71.199996948242</ele>
        <time>2019-12-15T09:36:45.000Z</time>
      </trkpt>
      <trkpt lat="47.3299" lon="-2.34997">
        <ele>71.199996948242</ele>
        <time>2019-12-15T09:36:46.000Z</time>
      </trkpt>
      <trkpt lat="47.32989" lon="-2.34995">
        <ele>71.199996948242</ele>
        <time>2019-12-15T09:36:47.000Z</time>
      </trkpt>
      <trkpt lat="47.32985" lon="-2.34985">
        <ele>71.199996948242</ele>
        <time>2019-12-15T09:36:50.000Z</time>
      </trkpt>
      <trkpt lat="47.32983" lon="-2.34982">
        <ele>71.199996948242</ele>
        <time>2019-12-15T09:36:51.000Z</time>
      </trkpt>
      <trkpt lat="47.32979" lon="-2.34975">
        <ele>71.199996948242</ele>
        <time>2019-12-15T09:36:55.000Z</time>
      </trkpt>
      <trkpt lat="47.32975" lon="-2.3496">
        <ele>71.199996948242</ele>
        <time>2019-12-15T09:37:00.000Z</time>
      </trkpt>
      <trkpt lat="47.32971" lon="-2.3495">
        <ele>70.800003051758</ele>
        <time>2019-12-15T09:37:03.000Z</time>
      </trkpt>
      <trkpt lat="47.3297" lon="-2.34947">
        <ele>70.400001525879</ele>
        <time>2019-12-15T09:37:04.000Z</time>
      </trkpt>
      <trkpt lat="47.3297" lon="-2.34945">
        <ele>70</ele>
        <time>2019-12-15T09:37:05.000Z</time>
      </trkpt>
      <trkpt lat="47.32969" lon="-2.34944">
        <ele>69.599998474121</ele>
        <time>2019-12-15T09:37:06.000Z</time>
      </trkpt>
      <trkpt lat="47.32968" lon="-2.3494">
        <ele>69.199996948242</ele>
        <time>2019-12-15T09:37:07.000Z</time>
      </trkpt>
      <trkpt lat="47.32964" lon="-2.34928">
        <ele>69.199996948242</ele>
        <time>2019-12-15T09:37:11.000Z</time>
      </trkpt>
      <trkpt lat="47.32961" lon="-2.34918">
        <ele>69.199996948242</ele>
        <time>2019-12-15T09:37:15.000Z</time>
      </trkpt>
      <trkpt lat="47.32961" lon="-2.34916">
        <ele>69.199996948242</ele>
        <time>2019-12-15T09:37:16.000Z</time>
      </trkpt>
      <trkpt lat="47.32957" lon="-2.349">
        <ele>69.199996948242</ele>
        <time>2019-12-15T09:37:21.000Z</time>
      </trkpt>
      <trkpt lat="47.32955" lon="-2.34895">
        <ele>69.199996948242</ele>
        <time>2019-12-15T09:37:22.000Z</time>
      </trkpt>
      <trkpt lat="47.32948" lon="-2.34879">
        <ele>69.199996948242</ele>
        <time>2019-12-15T09:37:27.000Z</time>
      </trkpt>
      <trkpt lat="47.32941" lon="-2.34864">
        <ele>69.199996948242</ele>
        <time>2019-12-15T09:37:34.000Z</time>
      </trkpt>
      <trkpt lat="47.32938" lon="-2.34857">
        <ele>69.199996948242</ele>
        <time>2019-12-15T09:37:37.000Z</time>
      </trkpt>
      <trkpt lat="47.32936" lon="-2.34851">
        <ele>69.199996948242</ele>
        <time>2019-12-15T09:37:40.000Z</time>
      </trkpt>
      <trkpt lat="47.32934" lon="-2.34844">
        <ele>69.199996948242</ele>
        <time>2019-12-15T09:37:44.000Z</time>
      </trkpt>
      <trkpt lat="47.32933" lon="-2.3484">
        <ele>69.199996948242</ele>
        <time>2019-12-15T09:37:46.000Z</time>
      </trkpt>
      <trkpt lat="47.32928" lon="-2.34829">
        <ele>69.199996948242</ele>
        <time>2019-12-15T09:37:52.000Z</time>
      </trkpt>
      <trkpt lat="47.32925" lon="-2.34821">
        <ele>69.199996948242</ele>
        <time>2019-12-15T09:37:58.000Z</time>
      </trkpt>
      <trkpt lat="47.32922" lon="-2.3481">
        <ele>69.199996948242</ele>
        <time>2019-12-15T09:38:03.000Z</time>
      </trkpt>
      <trkpt lat="47.32919" lon="-2.34803">
        <ele>69.199996948242</ele>
        <time>2019-12-15T09:38:06.000Z</time>
      </trkpt>
      <trkpt lat="47.32918" lon="-2.34794">
        <ele>69.199996948242</ele>
        <time>2019-12-15T09:38:10.000Z</time>
      </trkpt>
      <trkpt lat="47.32914" lon="-2.34783">
        <ele>69.199996948242</ele>
        <time>2019-12-15T09:38:16.000Z</time>
      </trkpt>
      <trkpt lat="47.32909" lon="-2.34785">
        <ele>69.199996948242</ele>
        <time>2019-12-15T09:38:22.000Z</time>
      </trkpt>
      <trkpt lat="47.32908" lon="-2.34786">
        <ele>69.199996948242</ele>
        <time>2019-12-15T09:38:23.000Z</time>
      </trkpt>
      <trkpt lat="47.32903" lon="-2.34788">
        <ele>69.199996948242</ele>
        <time>2019-12-15T09:38:28.000Z</time>
      </trkpt>
      <trkpt lat="47.32898" lon="-2.34788">
        <ele>69.199996948242</ele>
        <time>2019-12-15T09:38:33.000Z</time>
      </trkpt>
      <trkpt lat="47.32897" lon="-2.34788">
        <ele>69.199996948242</ele>
        <time>2019-12-15T09:38:34.000Z</time>
      </trkpt>
      <trkpt lat="47.32889" lon="-2.34793">
        <ele>69.199996948242</ele>
        <time>2019-12-15T09:38:42.000Z</time>
      </trkpt>
      <trkpt lat="47.32888" lon="-2.34794">
        <ele>69.199996948242</ele>
        <time>2019-12-15T09:38:43.000Z</time>
      </trkpt>
      <trkpt lat="47.32878" lon="-2.34795">
        <ele>69.199996948242</ele>
        <time>2019-12-15T09:38:47.000Z</time>
      </trkpt>
      <trkpt lat="47.32869" lon="-2.34803">
        <ele>69.199996948242</ele>
        <time>2019-12-15T09:38:54.000Z</time>
      </trkpt>
      <trkpt lat="47.32858" lon="-2.34811">
        <ele>69.199996948242</ele>
        <time>2019-12-15T09:39:02.000Z</time>
      </trkpt>
      <trkpt lat="47.32851" lon="-2.34815">
        <ele>69.199996948242</ele>
        <time>2019-12-15T09:39:07.000Z</time>
      </trkpt>
      <trkpt lat="47.32842" lon="-2.34823">
        <ele>69.199996948242</ele>
        <time>2019-12-15T09:39:13.000Z</time>
      </trkpt>
      <trkpt lat="47.32831" lon="-2.3483">
        <ele>69.199996948242</ele>
        <time>2019-12-15T09:39:18.000Z</time>
      </trkpt>
      <trkpt lat="47.32819" lon="-2.3484">
        <ele>69.199996948242</ele>
        <time>2019-12-15T09:39:24.000Z</time>
      </trkpt>
      <trkpt lat="47.32807" lon="-2.34849">
        <ele>69.199996948242</ele>
        <time>2019-12-15T09:39:30.000Z</time>
      </trkpt>
      <trkpt lat="47.32795" lon="-2.34857">
        <ele>69.199996948242</ele>
        <time>2019-12-15T09:39:36.000Z</time>
      </trkpt>
      <trkpt lat="47.32783" lon="-2.34867">
        <ele>69.199996948242</ele>
        <time>2019-12-15T09:39:42.000Z</time>
      </trkpt>
      <trkpt lat="47.32771" lon="-2.34877">
        <ele>69.199996948242</ele>
        <time>2019-12-15T09:39:48.000Z</time>
      </trkpt>
      <trkpt lat="47.32759" lon="-2.34886">
        <ele>69.199996948242</ele>
        <time>2019-12-15T09:39:54.000Z</time>
      </trkpt>
      <trkpt lat="47.32749" lon="-2.34895">
        <ele>69.199996948242</ele>
        <time>2019-12-15T09:39:59.000Z</time>
      </trkpt>
      <trkpt lat="47.32737" lon="-2.34903">
        <ele>69.199996948242</ele>
        <time>2019-12-15T09:40:04.000Z</time>
      </trkpt>
      <trkpt lat="47.32731" lon="-2.34908">
        <ele>69.199996948242</ele>
        <time>2019-12-15T09:40:07.000Z</time>
      </trkpt>
      <trkpt lat="47.32718" lon="-2.34917">
        <ele>69.199996948242</ele>
        <time>2019-12-15T09:40:13.000Z</time>
      </trkpt>
      <trkpt lat="47.32705" lon="-2.34926">
        <ele>69.199996948242</ele>
        <time>2019-12-15T09:40:18.000Z</time>
      </trkpt>
      <trkpt lat="47.32703" lon="-2.34928">
        <ele>69.599998474121</ele>
        <time>2019-12-15T09:40:19.000Z</time>
      </trkpt>
      <trkpt lat="47.32701" lon="-2.3493">
        <ele>70</ele>
        <time>2019-12-15T09:40:20.000Z</time>
      </trkpt>
      <trkpt lat="47.32699" lon="-2.34931">
        <ele>70.400001525879</ele>
        <time>2019-12-15T09:40:21.000Z</time>
      </trkpt>
      <trkpt lat="47.32697" lon="-2.34932">
        <ele>70.800003051758</ele>
        <time>2019-12-15T09:40:22.000Z</time>
      </trkpt>
      <trkpt lat="47.32695" lon="-2.34934">
        <ele>71.199996948242</ele>
        <time>2019-12-15T09:40:23.000Z</time>
      </trkpt>
      <trkpt lat="47.32689" lon="-2.34937">
        <ele>71.199996948242</ele>
        <time>2019-12-15T09:40:25.000Z</time>
      </trkpt>
      <trkpt lat="47.3268" lon="-2.34944">
        <ele>71.199996948242</ele>
        <time>2019-12-15T09:40:30.000Z</time>
      </trkpt>
      <trkpt lat="47.32669" lon="-2.34951">
        <ele>71.199996948242</ele>
        <time>2019-12-15T09:40:35.000Z</time>
      </trkpt>
      <trkpt lat="47.32661" lon="-2.34955">
        <ele>71.199996948242</ele>
        <time>2019-12-15T09:40:41.000Z</time>
      </trkpt>
      <trkpt lat="47.32658" lon="-2.34955">
        <ele>71.199996948242</ele>
        <time>2019-12-15T09:40:48.000Z</time>
      </trkpt>
      <trkpt lat="47.32656" lon="-2.34954">
        <ele>71.199996948242</ele>
        <time>2019-12-15T09:40:49.000Z</time>
      </trkpt>
      <trkpt lat="47.32654" lon="-2.34953">
        <ele>71.199996948242</ele>
        <time>2019-12-15T09:40:50.000Z</time>
      </trkpt>
      <trkpt lat="47.32653" lon="-2.34953">
        <ele>71.199996948242</ele>
        <time>2019-12-15T09:40:51.000Z</time>
      </trkpt>
      <trkpt lat="47.3265" lon="-2.34953">
        <ele>71.199996948242</ele>
        <time>2019-12-15T09:40:55.000Z</time>
      </trkpt>
      <trkpt lat="47.32648" lon="-2.34953">
        <ele>71.199996948242</ele>
        <time>2019-12-15T09:40:57.000Z</time>
      </trkpt>
      <trkpt lat="47.32651" lon="-2.34951">
        <ele>71.199996948242</ele>
        <time>2019-12-15T09:45:27.000Z</time>
      </trkpt>
      <trkpt lat="47.32656" lon="-2.34952">
        <ele>71.199996948242</ele>
        <time>2019-12-15T09:45:29.000Z</time>
      </trkpt>
      <trkpt lat="47.32668" lon="-2.34948">
        <ele>71.199996948242</ele>
        <time>2019-12-15T09:45:33.000Z</time>
      </trkpt>
      <trkpt lat="47.32685" lon="-2.34933">
        <ele>71.199996948242</ele>
        <time>2019-12-15T09:45:38.000Z</time>
      </trkpt>
      <trkpt lat="47.32716" lon="-2.34913">
        <ele>71.199996948242</ele>
        <time>2019-12-15T09:45:45.000Z</time>
      </trkpt>
      <trkpt lat="47.32743" lon="-2.34893">
        <ele>71.199996948242</ele>
        <time>2019-12-15T09:45:51.000Z</time>
      </trkpt>
      <trkpt lat="47.32747" lon="-2.3489">
        <ele>71.199996948242</ele>
        <time>2019-12-15T09:45:52.000Z</time>
      </trkpt>
      <trkpt lat="47.32763" lon="-2.3488">
        <ele>71.199996948242</ele>
        <time>2019-12-15T09:45:56.000Z</time>
      </trkpt>
      <trkpt lat="47.32777" lon="-2.34865">
        <ele>71.199996948242</ele>
        <time>2019-12-15T09:46:01.000Z</time>
      </trkpt>
      <trkpt lat="47.32801" lon="-2.34846">
        <ele>71.199996948242</ele>
        <time>2019-12-15T09:46:08.000Z</time>
      </trkpt>
      <trkpt lat="47.32813" lon="-2.34836">
        <ele>71.199996948242</ele>
        <time>2019-12-15T09:46:11.000Z</time>
      </trkpt>
      <trkpt lat="47.32825" lon="-2.34827">
        <ele>71.199996948242</ele>
        <time>2019-12-15T09:46:14.000Z</time>
      </trkpt>
      <trkpt lat="47.32864" lon="-2.34801">
        <ele>71.199996948242</ele>
        <time>2019-12-15T09:46:23.000Z</time>
      </trkpt>
      <trkpt lat="47.32886" lon="-2.34785">
        <ele>70.800003051758</ele>
        <time>2019-12-15T09:46:28.000Z</time>
      </trkpt>
      <trkpt lat="47.3289" lon="-2.34782">
        <ele>70</ele>
        <time>2019-12-15T09:46:29.000Z</time>
      </trkpt>
      <trkpt lat="47.32892" lon="-2.3478">
        <ele>69.599998474121</ele>
        <time>2019-12-15T09:46:30.000Z</time>
      </trkpt>
      <trkpt lat="47.32893" lon="-2.34779">
        <ele>69</ele>
        <time>2019-12-15T09:46:31.000Z</time>
      </trkpt>
      <trkpt lat="47.32895" lon="-2.34779">
        <ele>69</ele>
        <time>2019-12-15T09:46:34.000Z</time>
      </trkpt>
      <trkpt lat="47.32896" lon="-2.34782">
        <ele>69</ele>
        <time>2019-12-15T09:54:27.000Z</time>
      </trkpt>
      <trkpt lat="47.32893" lon="-2.34784">
        <ele>69</ele>
        <time>2019-12-15T09:54:29.000Z</time>
      </trkpt>
      <trkpt lat="47.32878" lon="-2.34793">
        <ele>69</ele>
        <time>2019-12-15T09:54:35.000Z</time>
      </trkpt>
      <trkpt lat="47.3286" lon="-2.34807">
        <ele>69</ele>
        <time>2019-12-15T09:54:41.000Z</time>
      </trkpt>
      <trkpt lat="47.32845" lon="-2.34818">
        <ele>69</ele>
        <time>2019-12-15T09:54:46.000Z</time>
      </trkpt>
      <trkpt lat="47.32834" lon="-2.34827">
        <ele>69.400001525879</ele>
        <time>2019-12-15T09:54:49.000Z</time>
      </trkpt>
      <trkpt lat="47.32831" lon="-2.34829">
        <ele>69.800003051758</ele>
        <time>2019-12-15T09:54:50.000Z</time>
      </trkpt>
      <trkpt lat="47.32827" lon="-2.34832">
        <ele>70.199996948242</ele>
        <time>2019-12-15T09:54:51.000Z</time>
      </trkpt>
      <trkpt lat="47.32823" lon="-2.34834">
        <ele>70.599998474121</ele>
        <time>2019-12-15T09:54:52.000Z</time>
      </trkpt>
      <trkpt lat="47.32819" lon="-2.34837">
        <ele>71</ele>
        <time>2019-12-15T09:54:53.000Z</time>
      </trkpt>
      <trkpt lat="47.32797" lon="-2.34853">
        <ele>71</ele>
        <time>2019-12-15T09:54:59.000Z</time>
      </trkpt>
      <trkpt lat="47.32773" lon="-2.3487">
        <ele>71</ele>
        <time>2019-12-15T09:55:06.000Z</time>
      </trkpt>
      <trkpt lat="47.3276" lon="-2.34879">
        <ele>71</ele>
        <time>2019-12-15T09:55:10.000Z</time>
      </trkpt>
      <trkpt lat="47.32739" lon="-2.34895">
        <ele>71</ele>
        <time>2019-12-15T09:55:16.000Z</time>
      </trkpt>
      <trkpt lat="47.32722" lon="-2.34907">
        <ele>71</ele>
        <time>2019-12-15T09:55:23.000Z</time>
      </trkpt>
      <trkpt lat="47.32719" lon="-2.34909">
        <ele>71</ele>
        <time>2019-12-15T09:55:27.000Z</time>
      </trkpt>
      <trkpt lat="47.32722" lon="-2.34909">
        <ele>71</ele>
        <time>2019-12-15T09:55:59.000Z</time>
      </trkpt>
      <trkpt lat="47.3273" lon="-2.34901">
        <ele>71</ele>
        <time>2019-12-15T09:56:03.000Z</time>
      </trkpt>
      <trkpt lat="47.32747" lon="-2.3489">
        <ele>71</ele>
        <time>2019-12-15T09:56:09.000Z</time>
      </trkpt>
      <trkpt lat="47.32762" lon="-2.34878">
        <ele>71</ele>
        <time>2019-12-15T09:56:14.000Z</time>
      </trkpt>
      <trkpt lat="47.32783" lon="-2.3486">
        <ele>71</ele>
        <time>2019-12-15T09:56:20.000Z</time>
      </trkpt>
      <trkpt lat="47.32804" lon="-2.34843">
        <ele>71</ele>
        <time>2019-12-15T09:56:26.000Z</time>
      </trkpt>
      <trkpt lat="47.32825" lon="-2.34826">
        <ele>71</ele>
        <time>2019-12-15T09:56:32.000Z</time>
      </trkpt>
      <trkpt lat="47.3284" lon="-2.34817">
        <ele>71</ele>
        <time>2019-12-15T09:56:37.000Z</time>
      </trkpt>
      <trkpt lat="47.32842" lon="-2.34817">
        <ele>71</ele>
        <time>2019-12-15T09:56:39.000Z</time>
      </trkpt>
      <trkpt lat="47.32841" lon="-2.34819">
        <ele>71</ele>
        <time>2019-12-15T10:00:38.000Z</time>
      </trkpt>
      <trkpt lat="47.3284" lon="-2.3482">
        <ele>71</ele>
        <time>2019-12-15T10:00:39.000Z</time>
      </trkpt>
      <trkpt lat="47.32828" lon="-2.3483">
        <ele>71</ele>
        <time>2019-12-15T10:00:43.000Z</time>
      </trkpt>
      <trkpt lat="47.3282" lon="-2.34835">
        <ele>71</ele>
        <time>2019-12-15T10:00:45.000Z</time>
      </trkpt>
      <trkpt lat="47.32811" lon="-2.34842">
        <ele>71</ele>
        <time>2019-12-15T10:00:47.000Z</time>
      </trkpt>
      <trkpt lat="47.32797" lon="-2.34853">
        <ele>71</ele>
        <time>2019-12-15T10:00:50.000Z</time>
      </trkpt>
      <trkpt lat="47.32787" lon="-2.3486">
        <ele>71</ele>
        <time>2019-12-15T10:00:52.000Z</time>
      </trkpt>
      <trkpt lat="47.32759" lon="-2.34881">
        <ele>71</ele>
        <time>2019-12-15T10:00:58.000Z</time>
      </trkpt>
      <trkpt lat="47.32751" lon="-2.34887">
        <ele>71</ele>
        <time>2019-12-15T10:01:00.000Z</time>
      </trkpt>
      <trkpt lat="47.32742" lon="-2.34894">
        <ele>71</ele>
        <time>2019-12-15T10:01:02.000Z</time>
      </trkpt>
      <trkpt lat="47.32737" lon="-2.34897">
        <ele>71</ele>
        <time>2019-12-15T10:01:03.000Z</time>
      </trkpt>
      <trkpt lat="47.32713" lon="-2.34914">
        <ele>71</ele>
        <time>2019-12-15T10:01:08.000Z</time>
      </trkpt>
      <trkpt lat="47.32709" lon="-2.34917">
        <ele>71</ele>
        <time>2019-12-15T10:01:09.000Z</time>
      </trkpt>
      <trkpt lat="47.32699" lon="-2.34924">
        <ele>71.599998474121</ele>
        <time>2019-12-15T10:01:11.000Z</time>
      </trkpt>
      <trkpt lat="47.32694" lon="-2.34926">
        <ele>72</ele>
        <time>2019-12-15T10:01:12.000Z</time>
      </trkpt>
      <trkpt lat="47.3269" lon="-2.3493">
        <ele>72.400001525879</ele>
        <time>2019-12-15T10:01:13.000Z</time>
      </trkpt>
      <trkpt lat="47.32686" lon="-2.34933">
        <ele>72.800003051758</ele>
        <time>2019-12-15T10:01:14.000Z</time>
      </trkpt>
      <trkpt lat="47.32682" lon="-2.34935">
        <ele>73.199996948242</ele>
        <time>2019-12-15T10:01:15.000Z</time>
      </trkpt>
      <trkpt lat="47.32665" lon="-2.3495">
        <ele>73.199996948242</ele>
        <time>2019-12-15T10:01:20.000Z</time>
      </trkpt>
      <trkpt lat="47.32657" lon="-2.34956">
        <ele>73.199996948242</ele>
        <time>2019-12-15T10:01:24.000Z</time>
      </trkpt>
      <trkpt lat="47.32654" lon="-2.34956">
        <ele>73.199996948242</ele>
        <time>2019-12-15T10:01:25.000Z</time>
      </trkpt>
      <trkpt lat="47.32638" lon="-2.34963">
        <ele>73.199996948242</ele>
        <time>2019-12-15T10:01:29.000Z</time>
      </trkpt>
      <trkpt lat="47.32621" lon="-2.34972">
        <ele>73.199996948242</ele>
        <time>2019-12-15T10:01:33.000Z</time>
      </trkpt>
      <trkpt lat="47.32615" lon="-2.34977">
        <ele>73.199996948242</ele>
        <time>2019-12-15T10:01:35.000Z</time>
      </trkpt>
      <trkpt lat="47.32604" lon="-2.34984">
        <ele>73.199996948242</ele>
        <time>2019-12-15T10:01:38.000Z</time>
      </trkpt>
      <trkpt lat="47.32595" lon="-2.34989">
        <ele>73.199996948242</ele>
        <time>2019-12-15T10:01:40.000Z</time>
      </trkpt>
      <trkpt lat="47.32591" lon="-2.34992">
        <ele>73.199996948242</ele>
        <time>2019-12-15T10:01:41.000Z</time>
      </trkpt>
      <trkpt lat="47.32578" lon="-2.34999">
        <ele>73.199996948242</ele>
        <time>2019-12-15T10:01:44.000Z</time>
      </trkpt>
      <trkpt lat="47.32567" lon="-2.35005">
        <ele>73.599998474121</ele>
        <time>2019-12-15T10:01:47.000Z</time>
      </trkpt>
      <trkpt lat="47.3256" lon="-2.35007">
        <ele>74.400001525879</ele>
        <time>2019-12-15T10:01:48.000Z</time>
      </trkpt>
      <trkpt lat="47.3256" lon="-2.35007">
        <ele>74.400001525879</ele>
        <time>2019-12-15T10:01:49.000Z</time>
      </trkpt>
      <trkpt lat="47.32556" lon="-2.35009">
        <ele>74.800003051758</ele>
        <time>2019-12-15T10:01:50.000Z</time>
      </trkpt>
      <trkpt lat="47.32553" lon="-2.35012">
        <ele>75.199996948242</ele>
        <time>2019-12-15T10:01:51.000Z</time>
      </trkpt>
      <trkpt lat="47.32546" lon="-2.35016">
        <ele>75.199996948242</ele>
        <time>2019-12-15T10:01:53.000Z</time>
      </trkpt>
      <trkpt lat="47.32523" lon="-2.35023">
        <ele>75.199996948242</ele>
        <time>2019-12-15T10:01:58.000Z</time>
      </trkpt>
      <trkpt lat="47.32497" lon="-2.35029">
        <ele>75.199996948242</ele>
        <time>2019-12-15T10:02:04.000Z</time>
      </trkpt>
      <trkpt lat="47.32474" lon="-2.35034">
        <ele>75.199996948242</ele>
        <time>2019-12-15T10:02:09.000Z</time>
      </trkpt>
      <trkpt lat="47.32451" lon="-2.35039">
        <ele>75.599998474121</ele>
        <time>2019-12-15T10:02:14.000Z</time>
      </trkpt>
      <trkpt lat="47.32447" lon="-2.35041">
        <ele>76.199996948242</ele>
        <time>2019-12-15T10:02:15.000Z</time>
      </trkpt>
      <trkpt lat="47.32442" lon="-2.35042">
        <ele>76.599998474121</ele>
        <time>2019-12-15T10:02:16.000Z</time>
      </trkpt>
      <trkpt lat="47.32438" lon="-2.35043">
        <ele>77</ele>
        <time>2019-12-15T10:02:17.000Z</time>
      </trkpt>
      <trkpt lat="47.32434" lon="-2.35044">
        <ele>77.400001525879</ele>
        <time>2019-12-15T10:02:18.000Z</time>
      </trkpt>
      <trkpt lat="47.32411" lon="-2.35045">
        <ele>77.400001525879</ele>
        <time>2019-12-15T10:02:22.000Z</time>
      </trkpt>
      <trkpt lat="47.32405" lon="-2.35045">
        <ele>77.400001525879</ele>
        <time>2019-12-15T10:02:23.000Z</time>
      </trkpt>
      <trkpt lat="47.32369" lon="-2.35046">
        <ele>77.400001525879</ele>
        <time>2019-12-15T10:02:30.000Z</time>
      </trkpt>
      <trkpt lat="47.32336" lon="-2.35049">
        <ele>77.400001525879</ele>
        <time>2019-12-15T10:02:37.000Z</time>
      </trkpt>
      <trkpt lat="47.32325" lon="-2.35049">
        <ele>77.400001525879</ele>
        <time>2019-12-15T10:02:39.000Z</time>
      </trkpt>
      <trkpt lat="47.3231" lon="-2.35047">
        <ele>77.400001525879</ele>
        <time>2019-12-15T10:02:42.000Z</time>
      </trkpt>
      <trkpt lat="47.32294" lon="-2.35046">
        <ele>77.400001525879</ele>
        <time>2019-12-15T10:02:45.000Z</time>
      </trkpt>
      <trkpt lat="47.32283" lon="-2.35045">
        <ele>77.400001525879</ele>
        <time>2019-12-15T10:02:47.000Z</time>
      </trkpt>
      <trkpt lat="47.32267" lon="-2.35046">
        <ele>77.400001525879</ele>
        <time>2019-12-15T10:02:50.000Z</time>
      </trkpt>
      <trkpt lat="47.32257" lon="-2.35046">
        <ele>77.400001525879</ele>
        <time>2019-12-15T10:02:52.000Z</time>
      </trkpt>
      <trkpt lat="47.32249" lon="-2.35048">
        <ele>77.400001525879</ele>
        <time>2019-12-15T10:02:54.000Z</time>
      </trkpt>
      <trkpt lat="47.32239" lon="-2.35051">
        <ele>77.400001525879</ele>
        <time>2019-12-15T10:02:56.000Z</time>
      </trkpt>
      <trkpt lat="47.32209" lon="-2.35057">
        <ele>77.400001525879</ele>
        <time>2019-12-15T10:03:02.000Z</time>
      </trkpt>
      <trkpt lat="47.32204" lon="-2.35057">
        <ele>77.400001525879</ele>
        <time>2019-12-15T10:03:03.000Z</time>
      </trkpt>
      <trkpt lat="47.32182" lon="-2.35059">
        <ele>77.400001525879</ele>
        <time>2019-12-15T10:03:07.000Z</time>
      </trkpt>
      <trkpt lat="47.32153" lon="-2.35062">
        <ele>77.400001525879</ele>
        <time>2019-12-15T10:03:12.000Z</time>
      </trkpt>
      <trkpt lat="47.32126" lon="-2.35062">
        <ele>77.400001525879</ele>
        <time>2019-12-15T10:03:17.000Z</time>
      </trkpt>
      <trkpt lat="47.32095" lon="-2.35064">
        <ele>77.400001525879</ele>
        <time>2019-12-15T10:03:23.000Z</time>
      </trkpt>
      <trkpt lat="47.32071" lon="-2.35064">
        <ele>77.400001525879</ele>
        <time>2019-12-15T10:03:28.000Z</time>
      </trkpt>
      <trkpt lat="47.32062" lon="-2.35064">
        <ele>77.400001525879</ele>
        <time>2019-12-15T10:03:30.000Z</time>
      </trkpt>
      <trkpt lat="47.32041" lon="-2.35062">
        <ele>77.400001525879</ele>
        <time>2019-12-15T10:03:34.000Z</time>
      </trkpt>
      <trkpt lat="47.32024" lon="-2.35059">
        <ele>77.400001525879</ele>
        <time>2019-12-15T10:03:39.000Z</time>
      </trkpt>
      <trkpt lat="47.32023" lon="-2.35059">
        <ele>77.400001525879</ele>
        <time>2019-12-15T10:03:40.000Z</time>
      </trkpt>
      <trkpt lat="47.32026" lon="-2.35059">
        <ele>77.400001525879</ele>
        <time>2019-12-15T10:03:47.000Z</time>
      </trkpt>
      <trkpt lat="47.32028" lon="-2.35059">
        <ele>77.400001525879</ele>
        <time>2019-12-15T10:03:48.000Z</time>
      </trkpt>
      <trkpt lat="47.32033" lon="-2.35059">
        <ele>77.400001525879</ele>
        <time>2019-12-15T10:03:51.000Z</time>
      </trkpt>
      <trkpt lat="47.32034" lon="-2.35065">
        <ele>77.400001525879</ele>
        <time>2019-12-15T10:03:53.000Z</time>
      </trkpt>
      <trkpt lat="47.32039" lon="-2.35078">
        <ele>77.400001525879</ele>
        <time>2019-12-15T10:03:57.000Z</time>
      </trkpt>
      <trkpt lat="47.32042" lon="-2.35091">
        <ele>77.400001525879</ele>
        <time>2019-12-15T10:04:00.000Z</time>
      </trkpt>
      <trkpt lat="47.32042" lon="-2.35096">
        <ele>77.400001525879</ele>
        <time>2019-12-15T10:04:01.000Z</time>
      </trkpt>
      <trkpt lat="47.32038" lon="-2.35116">
        <ele>77.800003051758</ele>
        <time>2019-12-15T10:04:05.000Z</time>
      </trkpt>
      <trkpt lat="47.32035" lon="-2.35121">
        <ele>78.199996948242</ele>
        <time>2019-12-15T10:04:06.000Z</time>
      </trkpt>
      <trkpt lat="47.32031" lon="-2.35125">
        <ele>78.599998474121</ele>
        <time>2019-12-15T10:04:07.000Z</time>
      </trkpt>
      <trkpt lat="47.32028" lon="-2.35129">
        <ele>79</ele>
        <time>2019-12-15T10:04:08.000Z</time>
      </trkpt>
      <trkpt lat="47.32024" lon="-2.35132">
        <ele>79.400001525879</ele>
        <time>2019-12-15T10:04:09.000Z</time>
      </trkpt>
      <trkpt lat="47.32003" lon="-2.35154">
        <ele>79.400001525879</ele>
        <time>2019-12-15T10:04:15.000Z</time>
      </trkpt>
      <trkpt lat="47.31987" lon="-2.35172">
        <ele>79.400001525879</ele>
        <time>2019-12-15T10:04:20.000Z</time>
      </trkpt>
      <trkpt lat="47.31965" lon="-2.35193">
        <ele>79.400001525879</ele>
        <time>2019-12-15T10:04:26.000Z</time>
      </trkpt>
      <trkpt lat="47.3194" lon="-2.3522">
        <ele>79.400001525879</ele>
        <time>2019-12-15T10:04:33.000Z</time>
      </trkpt>
      <trkpt lat="47.31931" lon="-2.35227">
        <ele>79.400001525879</ele>
        <time>2019-12-15T10:04:35.000Z</time>
      </trkpt>
      <trkpt lat="47.31924" lon="-2.35234">
        <ele>79.800003051758</ele>
        <time>2019-12-15T10:04:37.000Z</time>
      </trkpt>
      <trkpt lat="47.31921" lon="-2.35237">
        <ele>80.199996948242</ele>
        <time>2019-12-15T10:04:38.000Z</time>
      </trkpt>
      <trkpt lat="47.31917" lon="-2.35242">
        <ele>80.599998474121</ele>
        <time>2019-12-15T10:04:39.000Z</time>
      </trkpt>
      <trkpt lat="47.31914" lon="-2.35246">
        <ele>81</ele>
        <time>2019-12-15T10:04:40.000Z</time>
      </trkpt>
      <trkpt lat="47.31912" lon="-2.3525">
        <ele>81.400001525879</ele>
        <time>2019-12-15T10:04:41.000Z</time>
      </trkpt>
      <trkpt lat="47.3191" lon="-2.35253">
        <ele>81.400001525879</ele>
        <time>2019-12-15T10:04:42.000Z</time>
      </trkpt>
      <trkpt lat="47.31907" lon="-2.35257">
        <ele>81.400001525879</ele>
        <time>2019-12-15T10:04:43.000Z</time>
      </trkpt>
      <trkpt lat="47.31891" lon="-2.35271">
        <ele>81.400001525879</ele>
        <time>2019-12-15T10:04:47.000Z</time>
      </trkpt>
      <trkpt lat="47.3188" lon="-2.35278">
        <ele>81.400001525879</ele>
        <time>2019-12-15T10:04:50.000Z</time>
      </trkpt>
      <trkpt lat="47.31873" lon="-2.35285">
        <ele>81.400001525879</ele>
        <time>2019-12-15T10:04:54.000Z</time>
      </trkpt>
      <trkpt lat="47.31868" lon="-2.35286">
        <ele>81.400001525879</ele>
        <time>2019-12-15T10:04:56.000Z</time>
      </trkpt>
      <trkpt lat="47.31856" lon="-2.35288">
        <ele>81.400001525879</ele>
        <time>2019-12-15T10:05:00.000Z</time>
      </trkpt>
      <trkpt lat="47.31839" lon="-2.35301">
        <ele>81.400001525879</ele>
        <time>2019-12-15T10:05:05.000Z</time>
      </trkpt>
      <trkpt lat="47.31818" lon="-2.35313">
        <ele>81.400001525879</ele>
        <time>2019-12-15T10:05:11.000Z</time>
      </trkpt>
      <trkpt lat="47.31803" lon="-2.35321">
        <ele>81.400001525879</ele>
        <time>2019-12-15T10:05:15.000Z</time>
      </trkpt>
      <trkpt lat="47.31802" lon="-2.35323">
        <ele>81.400001525879</ele>
        <time>2019-12-15T10:05:16.000Z</time>
      </trkpt>
      <trkpt lat="47.31798" lon="-2.35327">
        <ele>81.800003051758</ele>
        <time>2019-12-15T10:05:18.000Z</time>
      </trkpt>
      <trkpt lat="47.31795" lon="-2.35329">
        <ele>82.199996948242</ele>
        <time>2019-12-15T10:05:19.000Z</time>
      </trkpt>
      <trkpt lat="47.31793" lon="-2.35329">
        <ele>82.599998474121</ele>
        <time>2019-12-15T10:05:20.000Z</time>
      </trkpt>
      <trkpt lat="47.31791" lon="-2.35332">
        <ele>83</ele>
        <time>2019-12-15T10:05:21.000Z</time>
      </trkpt>
      <trkpt lat="47.31788" lon="-2.35334">
        <ele>83.400001525879</ele>
        <time>2019-12-15T10:05:22.000Z</time>
      </trkpt>
      <trkpt lat="47.31785" lon="-2.35336">
        <ele>83.400001525879</ele>
        <time>2019-12-15T10:05:23.000Z</time>
      </trkpt>
      <trkpt lat="47.31773" lon="-2.35345">
        <ele>83.400001525879</ele>
        <time>2019-12-15T10:05:28.000Z</time>
      </trkpt>
      <trkpt lat="47.3176" lon="-2.35356">
        <ele>83.400001525879</ele>
        <time>2019-12-15T10:05:33.000Z</time>
      </trkpt>
      <trkpt lat="47.31748" lon="-2.35361">
        <ele>83.400001525879</ele>
        <time>2019-12-15T10:05:38.000Z</time>
      </trkpt>
      <trkpt lat="47.31735" lon="-2.35364">
        <ele>83.400001525879</ele>
        <time>2019-12-15T10:05:43.000Z</time>
      </trkpt>
      <trkpt lat="47.31718" lon="-2.35368">
        <ele>83.400001525879</ele>
        <time>2019-12-15T10:05:49.000Z</time>
      </trkpt>
      <trkpt lat="47.31717" lon="-2.35367">
        <ele>83.400001525879</ele>
        <time>2019-12-15T10:05:50.000Z</time>
      </trkpt>
      <trkpt lat="47.31713" lon="-2.35367">
        <ele>83.400001525879</ele>
        <time>2019-12-15T10:05:52.000Z</time>
      </trkpt>
      <trkpt lat="47.31709" lon="-2.3537">
        <ele>83.400001525879</ele>
        <time>2019-12-15T10:05:54.000Z</time>
      </trkpt>
      <trkpt lat="47.31699" lon="-2.35374">
        <ele>83.400001525879</ele>
        <time>2019-12-15T10:05:58.000Z</time>
      </trkpt>
      <trkpt lat="47.31696" lon="-2.35375">
        <ele>83.800003051758</ele>
        <time>2019-12-15T10:05:59.000Z</time>
      </trkpt>
      <trkpt lat="47.31693" lon="-2.35375">
        <ele>84.400001525879</ele>
        <time>2019-12-15T10:06:00.000Z</time>
      </trkpt>
      <trkpt lat="47.3169" lon="-2.35375">
        <ele>85.199996948242</ele>
        <time>2019-12-15T10:06:01.000Z</time>
      </trkpt>
      <trkpt lat="47.31687" lon="-2.35375">
        <ele>85.599998474121</ele>
        <time>2019-12-15T10:06:02.000Z</time>
      </trkpt>
      <trkpt lat="47.31666" lon="-2.35374">
        <ele>85.599998474121</ele>
        <time>2019-12-15T10:06:09.000Z</time>
      </trkpt>
      <trkpt lat="47.31647" lon="-2.35369">
        <ele>85.599998474121</ele>
        <time>2019-12-15T10:06:15.000Z</time>
      </trkpt>
      <trkpt lat="47.3163" lon="-2.35365">
        <ele>85.599998474121</ele>
        <time>2019-12-15T10:06:20.000Z</time>
      </trkpt>
      <trkpt lat="47.31611" lon="-2.35371">
        <ele>85.599998474121</ele>
        <time>2019-12-15T10:06:25.000Z</time>
      </trkpt>
      <trkpt lat="47.3159" lon="-2.35382">
        <ele>85.599998474121</ele>
        <time>2019-12-15T10:06:31.000Z</time>
      </trkpt>
      <trkpt lat="47.31572" lon="-2.35392">
        <ele>85.599998474121</ele>
        <time>2019-12-15T10:06:36.000Z</time>
      </trkpt>
      <trkpt lat="47.31555" lon="-2.35401">
        <ele>85.599998474121</ele>
        <time>2019-12-15T10:06:41.000Z</time>
      </trkpt>
      <trkpt lat="47.31539" lon="-2.3541">
        <ele>86</ele>
        <time>2019-12-15T10:06:46.000Z</time>
      </trkpt>
      <trkpt lat="47.31536" lon="-2.35412">
        <ele>86.400001525879</ele>
        <time>2019-12-15T10:06:47.000Z</time>
      </trkpt>
      <trkpt lat="47.31533" lon="-2.35415">
        <ele>86.800003051758</ele>
        <time>2019-12-15T10:06:48.000Z</time>
      </trkpt>
      <trkpt lat="47.3153" lon="-2.35417">
        <ele>87.199996948242</ele>
        <time>2019-12-15T10:06:49.000Z</time>
      </trkpt>
      <trkpt lat="47.31527" lon="-2.35418">
        <ele>87.599998474121</ele>
        <time>2019-12-15T10:06:50.000Z</time>
      </trkpt>
      <trkpt lat="47.31516" lon="-2.35426">
        <ele>87.599998474121</ele>
        <time>2019-12-15T10:06:54.000Z</time>
      </trkpt>
      <trkpt lat="47.31499" lon="-2.35448">
        <ele>87.599998474121</ele>
        <time>2019-12-15T10:07:00.000Z</time>
      </trkpt>
      <trkpt lat="47.31492" lon="-2.35474">
        <ele>87.599998474121</ele>
        <time>2019-12-15T10:07:05.000Z</time>
      </trkpt>
      <trkpt lat="47.31483" lon="-2.35504">
        <ele>87.599998474121</ele>
        <time>2019-12-15T10:07:11.000Z</time>
      </trkpt>
      <trkpt lat="47.3147" lon="-2.3552">
        <ele>87.599998474121</ele>
        <time>2019-12-15T10:07:16.000Z</time>
      </trkpt>
      <trkpt lat="47.3145" lon="-2.35525">
        <ele>87.599998474121</ele>
        <time>2019-12-15T10:07:23.000Z</time>
      </trkpt>
      <trkpt lat="47.31433" lon="-2.35525">
        <ele>87.599998474121</ele>
        <time>2019-12-15T10:07:29.000Z</time>
      </trkpt>
      <trkpt lat="47.31419" lon="-2.35528">
        <ele>87.599998474121</ele>
        <time>2019-12-15T10:07:34.000Z</time>
      </trkpt>
      <trkpt lat="47.314" lon="-2.35528">
        <ele>88</ele>
        <time>2019-12-15T10:07:40.000Z</time>
      </trkpt>
      <trkpt lat="47.31398" lon="-2.35528">
        <ele>88.400001525879</ele>
        <time>2019-12-15T10:07:41.000Z</time>
      </trkpt>
      <trkpt lat="47.31396" lon="-2.35527">
        <ele>88.800003051758</ele>
        <time>2019-12-15T10:07:42.000Z</time>
      </trkpt>
      <trkpt lat="47.31394" lon="-2.35527">
        <ele>89.199996948242</ele>
        <time>2019-12-15T10:07:43.000Z</time>
      </trkpt>
      <trkpt lat="47.31391" lon="-2.35527">
        <ele>89.599998474121</ele>
        <time>2019-12-15T10:07:44.000Z</time>
      </trkpt>
      <trkpt lat="47.31384" lon="-2.35528">
        <ele>89.599998474121</ele>
        <time>2019-12-15T10:07:47.000Z</time>
      </trkpt>
      <trkpt lat="47.31374" lon="-2.3553">
        <ele>89.599998474121</ele>
        <time>2019-12-15T10:07:52.000Z</time>
      </trkpt>
      <trkpt lat="47.3137" lon="-2.35532">
        <ele>89.599998474121</ele>
        <time>2019-12-15T10:07:54.000Z</time>
      </trkpt>
      <trkpt lat="47.31365" lon="-2.35536">
        <ele>89.599998474121</ele>
        <time>2019-12-15T10:07:57.000Z</time>
      </trkpt>
      <trkpt lat="47.31349" lon="-2.35544">
        <ele>89.599998474121</ele>
        <time>2019-12-15T10:08:03.000Z</time>
      </trkpt>
      <trkpt lat="47.31337" lon="-2.35547">
        <ele>89.599998474121</ele>
        <time>2019-12-15T10:08:08.000Z</time>
      </trkpt>
      <trkpt lat="47.31336" lon="-2.35545">
        <ele>89.599998474121</ele>
        <time>2019-12-15T10:08:09.000Z</time>
      </trkpt>
      <trkpt lat="47.31333" lon="-2.35537">
        <ele>89.599998474121</ele>
        <time>2019-12-15T10:08:12.000Z</time>
      </trkpt>
      <trkpt lat="47.31333" lon="-2.3553">
        <ele>89.599998474121</ele>
        <time>2019-12-15T10:08:14.000Z</time>
      </trkpt>
      <trkpt lat="47.31334" lon="-2.35503">
        <ele>89.599998474121</ele>
        <time>2019-12-15T10:08:20.000Z</time>
      </trkpt>
      <trkpt lat="47.31336" lon="-2.35478">
        <ele>89.599998474121</ele>
        <time>2019-12-15T10:08:26.000Z</time>
      </trkpt>
      <trkpt lat="47.31336" lon="-2.3545">
        <ele>89.599998474121</ele>
        <time>2019-12-15T10:08:33.000Z</time>
      </trkpt>
      <trkpt lat="47.31337" lon="-2.35427">
        <ele>89.599998474121</ele>
        <time>2019-12-15T10:08:39.000Z</time>
      </trkpt>
      <trkpt lat="47.3134" lon="-2.354">
        <ele>89.599998474121</ele>
        <time>2019-12-15T10:08:45.000Z</time>
      </trkpt>
      <trkpt lat="47.31341" lon="-2.35368">
        <ele>89.599998474121</ele>
        <time>2019-12-15T10:08:51.000Z</time>
      </trkpt>
      <trkpt lat="47.3134" lon="-2.35332">
        <ele>89.599998474121</ele>
        <time>2019-12-15T10:08:57.000Z</time>
      </trkpt>
      <trkpt lat="47.3134" lon="-2.35284">
        <ele>89.599998474121</ele>
        <time>2019-12-15T10:09:04.000Z</time>
      </trkpt>
      <trkpt lat="47.31341" lon="-2.35231">
        <ele>89.599998474121</ele>
        <time>2019-12-15T10:09:11.000Z</time>
      </trkpt>
      <trkpt lat="47.31342" lon="-2.35173">
        <ele>89.599998474121</ele>
        <time>2019-12-15T10:09:18.000Z</time>
      </trkpt>
      <trkpt lat="47.31344" lon="-2.35125">
        <ele>89.599998474121</ele>
        <time>2019-12-15T10:09:24.000Z</time>
      </trkpt>
      <trkpt lat="47.31344" lon="-2.3506">
        <ele>89.599998474121</ele>
        <time>2019-12-15T10:09:32.000Z</time>
      </trkpt>
      <trkpt lat="47.31344" lon="-2.35015">
        <ele>89.599998474121</ele>
        <time>2019-12-15T10:09:38.000Z</time>
      </trkpt>
      <trkpt lat="47.31344" lon="-2.35002">
        <ele>89.599998474121</ele>
        <time>2019-12-15T10:09:40.000Z</time>
      </trkpt>
      <trkpt lat="47.3134" lon="-2.34983">
        <ele>89.599998474121</ele>
        <time>2019-12-15T10:09:43.000Z</time>
      </trkpt>
      <trkpt lat="47.31331" lon="-2.34943">
        <ele>89.599998474121</ele>
        <time>2019-12-15T10:09:50.000Z</time>
      </trkpt>
      <trkpt lat="47.3132" lon="-2.34906">
        <ele>89.599998474121</ele>
        <time>2019-12-15T10:09:56.000Z</time>
      </trkpt>
      <trkpt lat="47.31306" lon="-2.34861">
        <ele>89.599998474121</ele>
        <time>2019-12-15T10:10:03.000Z</time>
      </trkpt>
      <trkpt lat="47.31305" lon="-2.34854">
        <ele>89.599998474121</ele>
        <time>2019-12-15T10:10:04.000Z</time>
      </trkpt>
      <trkpt lat="47.31299" lon="-2.34826">
        <ele>89.199996948242</ele>
        <time>2019-12-15T10:10:08.000Z</time>
      </trkpt>
      <trkpt lat="47.31298" lon="-2.34819">
        <ele>88.800003051758</ele>
        <time>2019-12-15T10:10:09.000Z</time>
      </trkpt>
      <trkpt lat="47.31296" lon="-2.34812">
        <ele>88.400001525879</ele>
        <time>2019-12-15T10:10:10.000Z</time>
      </trkpt>
      <trkpt lat="47.31295" lon="-2.34804">
        <ele>88</ele>
        <time>2019-12-15T10:10:11.000Z</time>
      </trkpt>
      <trkpt lat="47.31294" lon="-2.34797">
        <ele>87.599998474121</ele>
        <time>2019-12-15T10:10:12.000Z</time>
      </trkpt>
      <trkpt lat="47.31285" lon="-2.34753">
        <ele>87.599998474121</ele>
        <time>2019-12-15T10:10:18.000Z</time>
      </trkpt>
      <trkpt lat="47.3128" lon="-2.3472">
        <ele>87.599998474121</ele>
        <time>2019-12-15T10:10:23.000Z</time>
      </trkpt>
      <trkpt lat="47.31279" lon="-2.34714">
        <ele>87.599998474121</ele>
        <time>2019-12-15T10:10:24.000Z</time>
      </trkpt>
      <trkpt lat="47.31277" lon="-2.34698">
        <ele>87.599998474121</ele>
        <time>2019-12-15T10:10:28.000Z</time>
      </trkpt>
      <trkpt lat="47.31286" lon="-2.34678">
        <ele>87.599998474121</ele>
        <time>2019-12-15T10:10:32.000Z</time>
      </trkpt>
      <trkpt lat="47.31293" lon="-2.34657">
        <ele>87.599998474121</ele>
        <time>2019-12-15T10:10:35.000Z</time>
      </trkpt>
      <trkpt lat="47.31292" lon="-2.34642">
        <ele>87.599998474121</ele>
        <time>2019-12-15T10:10:37.000Z</time>
      </trkpt>
      <trkpt lat="47.31287" lon="-2.34592">
        <ele>87.599998474121</ele>
        <time>2019-12-15T10:10:42.000Z</time>
      </trkpt>
      <trkpt lat="47.31281" lon="-2.34535">
        <ele>87.599998474121</ele>
        <time>2019-12-15T10:10:47.000Z</time>
      </trkpt>
      <trkpt lat="47.31272" lon="-2.34453">
        <ele>87.599998474121</ele>
        <time>2019-12-15T10:10:54.000Z</time>
      </trkpt>
      <trkpt lat="47.31271" lon="-2.34441">
        <ele>87.599998474121</ele>
        <time>2019-12-15T10:10:55.000Z</time>
      </trkpt>
      <trkpt lat="47.31258" lon="-2.34369">
        <ele>87.599998474121</ele>
        <time>2019-12-15T10:11:01.000Z</time>
      </trkpt>
      <trkpt lat="47.31236" lon="-2.34348">
        <ele>87.599998474121</ele>
        <time>2019-12-15T10:11:04.000Z</time>
      </trkpt>
      <trkpt lat="47.31206" lon="-2.34334">
        <ele>87.599998474121</ele>
        <time>2019-12-15T10:11:08.000Z</time>
      </trkpt>
      <trkpt lat="47.31183" lon="-2.34302">
        <ele>87.199996948242</ele>
        <time>2019-12-15T10:11:12.000Z</time>
      </trkpt>
      <trkpt lat="47.31179" lon="-2.34293">
        <ele>86.800003051758</ele>
        <time>2019-12-15T10:11:13.000Z</time>
      </trkpt>
      <trkpt lat="47.31175" lon="-2.34282">
        <ele>86.400001525879</ele>
        <time>2019-12-15T10:11:14.000Z</time>
      </trkpt>
      <trkpt lat="47.31171" lon="-2.34273">
        <ele>86</ele>
        <time>2019-12-15T10:11:15.000Z</time>
      </trkpt>
      <trkpt lat="47.31167" lon="-2.34264">
        <ele>85.599998474121</ele>
        <time>2019-12-15T10:11:16.000Z</time>
      </trkpt>
      <trkpt lat="47.31162" lon="-2.34255">
        <ele>85.599998474121</ele>
        <time>2019-12-15T10:11:17.000Z</time>
      </trkpt>
      <trkpt lat="47.3113" lon="-2.34192">
        <ele>85.599998474121</ele>
        <time>2019-12-15T10:11:25.000Z</time>
      </trkpt>
      <trkpt lat="47.31106" lon="-2.34148">
        <ele>85.599998474121</ele>
        <time>2019-12-15T10:11:32.000Z</time>
      </trkpt>
      <trkpt lat="47.31089" lon="-2.34113">
        <ele>85.599998474121</ele>
        <time>2019-12-15T10:11:38.000Z</time>
      </trkpt>
      <trkpt lat="47.31072" lon="-2.34075">
        <ele>85.599998474121</ele>
        <time>2019-12-15T10:11:44.000Z</time>
      </trkpt>
      <trkpt lat="47.31067" lon="-2.34047">
        <ele>85.599998474121</ele>
        <time>2019-12-15T10:11:48.000Z</time>
      </trkpt>
      <trkpt lat="47.31066" lon="-2.3404">
        <ele>85.599998474121</ele>
        <time>2019-12-15T10:11:49.000Z</time>
      </trkpt>
      <trkpt lat="47.31062" lon="-2.33987">
        <ele>85.599998474121</ele>
        <time>2019-12-15T10:11:56.000Z</time>
      </trkpt>
      <trkpt lat="47.31062" lon="-2.33964">
        <ele>85.599998474121</ele>
        <time>2019-12-15T10:11:59.000Z</time>
      </trkpt>
      <trkpt lat="47.31059" lon="-2.33951">
        <ele>85.599998474121</ele>
        <time>2019-12-15T10:12:01.000Z</time>
      </trkpt>
      <trkpt lat="47.31045" lon="-2.33947">
        <ele>85.599998474121</ele>
        <time>2019-12-15T10:12:04.000Z</time>
      </trkpt>
      <trkpt lat="47.31036" lon="-2.33951">
        <ele>85.599998474121</ele>
        <time>2019-12-15T10:12:06.000Z</time>
      </trkpt>
      <trkpt lat="47.31023" lon="-2.33955">
        <ele>85.599998474121</ele>
        <time>2019-12-15T10:12:09.000Z</time>
      </trkpt>
      <trkpt lat="47.31018" lon="-2.33955">
        <ele>85.599998474121</ele>
        <time>2019-12-15T10:12:10.000Z</time>
      </trkpt>
      <trkpt lat="47.30982" lon="-2.33959">
        <ele>85.599998474121</ele>
        <time>2019-12-15T10:12:18.000Z</time>
      </trkpt>
      <trkpt lat="47.30944" lon="-2.33954">
        <ele>85.599998474121</ele>
        <time>2019-12-15T10:12:26.000Z</time>
      </trkpt>
      <trkpt lat="47.30924" lon="-2.33951">
        <ele>85.599998474121</ele>
        <time>2019-12-15T10:12:30.000Z</time>
      </trkpt>
      <trkpt lat="47.30919" lon="-2.3395">
        <ele>85.599998474121</ele>
        <time>2019-12-15T10:12:31.000Z</time>
      </trkpt>
      <trkpt lat="47.30884" lon="-2.33951">
        <ele>85.599998474121</ele>
        <time>2019-12-15T10:12:38.000Z</time>
      </trkpt>
      <trkpt lat="47.30849" lon="-2.33957">
        <ele>85.599998474121</ele>
        <time>2019-12-15T10:12:45.000Z</time>
      </trkpt>
      <trkpt lat="47.30815" lon="-2.33965">
        <ele>85.599998474121</ele>
        <time>2019-12-15T10:12:52.000Z</time>
      </trkpt>
      <trkpt lat="47.30788" lon="-2.3397">
        <ele>85.599998474121</ele>
        <time>2019-12-15T10:12:58.000Z</time>
      </trkpt>
      <trkpt lat="47.30782" lon="-2.33976">
        <ele>85.599998474121</ele>
        <time>2019-12-15T10:13:00.000Z</time>
      </trkpt>
      <trkpt lat="47.30781" lon="-2.33981">
        <ele>84.800003051758</ele>
        <time>2019-12-15T10:13:01.000Z</time>
      </trkpt>
      <trkpt lat="47.30781" lon="-2.33984">
        <ele>84.400001525879</ele>
        <time>2019-12-15T10:13:02.000Z</time>
      </trkpt>
      <trkpt lat="47.30781" lon="-2.33987">
        <ele>84</ele>
        <time>2019-12-15T10:13:03.000Z</time>
      </trkpt>
      <trkpt lat="47.30782" lon="-2.33991">
        <ele>83.599998474121</ele>
        <time>2019-12-15T10:13:04.000Z</time>
      </trkpt>
      <trkpt lat="47.30782" lon="-2.33994">
        <ele>83.599998474121</ele>
        <time>2019-12-15T10:13:05.000Z</time>
      </trkpt>
      <trkpt lat="47.30782" lon="-2.33997">
        <ele>83.599998474121</ele>
        <time>2019-12-15T10:13:06.000Z</time>
      </trkpt>
      <trkpt lat="47.3078" lon="-2.34005">
        <ele>83.599998474121</ele>
        <time>2019-12-15T10:13:10.000Z</time>
      </trkpt>
      <trkpt lat="47.3078" lon="-2.34006">
        <ele>83.599998474121</ele>
        <time>2019-12-15T10:13:13.000Z</time>
      </trkpt>
      <trkpt lat="47.30782" lon="-2.33998">
        <ele>83.599998474121</ele>
        <time>2019-12-15T10:13:25.000Z</time>
      </trkpt>
      <trkpt lat="47.30782" lon="-2.33996">
        <ele>83.599998474121</ele>
        <time>2019-12-15T10:13:26.000Z</time>
      </trkpt>
      <trkpt lat="47.30782" lon="-2.33983">
        <ele>83.599998474121</ele>
        <time>2019-12-15T10:13:32.000Z</time>
      </trkpt>
      <trkpt lat="47.30783" lon="-2.33983">
        <ele>83.599998474121</ele>
        <time>2019-12-15T10:13:33.000Z</time>
      </trkpt>
      <trkpt lat="47.30783" lon="-2.33984">
        <ele>74.800003051758</ele>
        <time>2019-12-15T10:16:24.000Z</time>
      </trkpt>
      <trkpt lat="47.30783" lon="-2.33987">
        <ele>74.400001525879</ele>
        <time>2019-12-15T10:16:25.000Z</time>
      </trkpt>
      <trkpt lat="47.30782" lon="-2.33991">
        <ele>74</ele>
        <time>2019-12-15T10:16:26.000Z</time>
      </trkpt>
      <trkpt lat="47.30782" lon="-2.33995">
        <ele>73.599998474121</ele>
        <time>2019-12-15T10:16:27.000Z</time>
      </trkpt>
      <trkpt lat="47.30779" lon="-2.34019">
        <ele>73.599998474121</ele>
        <time>2019-12-15T10:16:33.000Z</time>
      </trkpt>
      <trkpt lat="47.30778" lon="-2.34041">
        <ele>73.599998474121</ele>
        <time>2019-12-15T10:16:39.000Z</time>
      </trkpt>
      <trkpt lat="47.30779" lon="-2.34043">
        <ele>73.599998474121</ele>
        <time>2019-12-15T10:16:40.000Z</time>
      </trkpt>
      <trkpt lat="47.30778" lon="-2.34056">
        <ele>73.599998474121</ele>
        <time>2019-12-15T10:16:43.000Z</time>
      </trkpt>
      <trkpt lat="47.30778" lon="-2.34069">
        <ele>73.599998474121</ele>
        <time>2019-12-15T10:16:46.000Z</time>
      </trkpt>
      <trkpt lat="47.30776" lon="-2.34082">
        <ele>73.599998474121</ele>
        <time>2019-12-15T10:16:49.000Z</time>
      </trkpt>
      <trkpt lat="47.30776" lon="-2.34099">
        <ele>73.599998474121</ele>
        <time>2019-12-15T10:16:53.000Z</time>
      </trkpt>
      <trkpt lat="47.30775" lon="-2.34132">
        <ele>73.599998474121</ele>
        <time>2019-12-15T10:16:59.000Z</time>
      </trkpt>
      <trkpt lat="47.30773" lon="-2.34155">
        <ele>73.599998474121</ele>
        <time>2019-12-15T10:17:04.000Z</time>
      </trkpt>
      <trkpt lat="47.30773" lon="-2.34189">
        <ele>73.599998474121</ele>
        <time>2019-12-15T10:17:10.000Z</time>
      </trkpt>
      <trkpt lat="47.30764" lon="-2.34208">
        <ele>73.599998474121</ele>
        <time>2019-12-15T10:17:14.000Z</time>
      </trkpt>
      <trkpt lat="47.30754" lon="-2.34211">
        <ele>73.599998474121</ele>
        <time>2019-12-15T10:17:17.000Z</time>
      </trkpt>
      <trkpt lat="47.3075" lon="-2.34213">
        <ele>73.599998474121</ele>
        <time>2019-12-15T10:17:18.000Z</time>
      </trkpt>
      <trkpt lat="47.3074" lon="-2.34218">
        <ele>73.599998474121</ele>
        <time>2019-12-15T10:17:22.000Z</time>
      </trkpt>
      <trkpt lat="47.30734" lon="-2.34224">
        <ele>73.599998474121</ele>
        <time>2019-12-15T10:17:26.000Z</time>
      </trkpt>
      <trkpt lat="47.30733" lon="-2.34227">
        <ele>73.599998474121</ele>
        <time>2019-12-15T10:17:27.000Z</time>
      </trkpt>
      <trkpt lat="47.30732" lon="-2.34249">
        <ele>73.599998474121</ele>
        <time>2019-12-15T10:17:33.000Z</time>
      </trkpt>
      <trkpt lat="47.30727" lon="-2.34273">
        <ele>73.599998474121</ele>
        <time>2019-12-15T10:17:38.000Z</time>
      </trkpt>
      <trkpt lat="47.30714" lon="-2.34297">
        <ele>73.599998474121</ele>
        <time>2019-12-15T10:17:43.000Z</time>
      </trkpt>
      <trkpt lat="47.30698" lon="-2.3433">
        <ele>73.599998474121</ele>
        <time>2019-12-15T10:17:51.000Z</time>
      </trkpt>
      <trkpt lat="47.3068" lon="-2.34365">
        <ele>73.599998474121</ele>
        <time>2019-12-15T10:17:58.000Z</time>
      </trkpt>
      <trkpt lat="47.30664" lon="-2.34388">
        <ele>73.599998474121</ele>
        <time>2019-12-15T10:18:04.000Z</time>
      </trkpt>
      <trkpt lat="47.30652" lon="-2.34404">
        <ele>73.599998474121</ele>
        <time>2019-12-15T10:18:08.000Z</time>
      </trkpt>
      <trkpt lat="47.30638" lon="-2.3442">
        <ele>73.599998474121</ele>
        <time>2019-12-15T10:18:13.000Z</time>
      </trkpt>
      <trkpt lat="47.30626" lon="-2.34437">
        <ele>73.599998474121</ele>
        <time>2019-12-15T10:18:18.000Z</time>
      </trkpt>
      <trkpt lat="47.3061" lon="-2.34461">
        <ele>73.599998474121</ele>
        <time>2019-12-15T10:18:24.000Z</time>
      </trkpt>
      <trkpt lat="47.30599" lon="-2.34483">
        <ele>73.599998474121</ele>
        <time>2019-12-15T10:18:29.000Z</time>
      </trkpt>
      <trkpt lat="47.30588" lon="-2.34507">
        <ele>73.599998474121</ele>
        <time>2019-12-15T10:18:34.000Z</time>
      </trkpt>
      <trkpt lat="47.30577" lon="-2.34526">
        <ele>73.599998474121</ele>
        <time>2019-12-15T10:18:38.000Z</time>
      </trkpt>
      <trkpt lat="47.30569" lon="-2.34543">
        <ele>73.599998474121</ele>
        <time>2019-12-15T10:18:42.000Z</time>
      </trkpt>
      <trkpt lat="47.30559" lon="-2.34559">
        <ele>73.599998474121</ele>
        <time>2019-12-15T10:18:46.000Z</time>
      </trkpt>
      <trkpt lat="47.30556" lon="-2.34564">
        <ele>73.599998474121</ele>
        <time>2019-12-15T10:18:47.000Z</time>
      </trkpt>
      <trkpt lat="47.30549" lon="-2.34578">
        <ele>73.599998474121</ele>
        <time>2019-12-15T10:18:50.000Z</time>
      </trkpt>
      <trkpt lat="47.30538" lon="-2.34592">
        <ele>73.599998474121</ele>
        <time>2019-12-15T10:18:55.000Z</time>
      </trkpt>
      <trkpt lat="47.30531" lon="-2.34602">
        <ele>73.599998474121</ele>
        <time>2019-12-15T10:19:00.000Z</time>
      </trkpt>
      <trkpt lat="47.30524" lon="-2.34614">
        <ele>73.599998474121</ele>
        <time>2019-12-15T10:19:05.000Z</time>
      </trkpt>
      <trkpt lat="47.30519" lon="-2.34626">
        <ele>73.599998474121</ele>
        <time>2019-12-15T10:19:10.000Z</time>
      </trkpt>
      <trkpt lat="47.30511" lon="-2.34636">
        <ele>73.599998474121</ele>
        <time>2019-12-15T10:19:15.000Z</time>
      </trkpt>
      <trkpt lat="47.30509" lon="-2.34639">
        <ele>73.599998474121</ele>
        <time>2019-12-15T10:19:16.000Z</time>
      </trkpt>
      <trkpt lat="47.30506" lon="-2.34643">
        <ele>73.599998474121</ele>
        <time>2019-12-15T10:19:18.000Z</time>
      </trkpt>
      <trkpt lat="47.30505" lon="-2.34645">
        <ele>73.599998474121</ele>
        <time>2019-12-15T10:19:19.000Z</time>
      </trkpt>
      <trkpt lat="47.30489" lon="-2.34662">
        <ele>73.599998474121</ele>
        <time>2019-12-15T10:19:50.000Z</time>
      </trkpt>
      <trkpt lat="47.30487" lon="-2.34664">
        <ele>73.599998474121</ele>
        <time>2019-12-15T10:19:51.000Z</time>
      </trkpt>
      <trkpt lat="47.30484" lon="-2.34668">
        <ele>73.599998474121</ele>
        <time>2019-12-15T10:19:53.000Z</time>
      </trkpt>
      <trkpt lat="47.30479" lon="-2.34674">
        <ele>73.599998474121</ele>
        <time>2019-12-15T10:19:56.000Z</time>
      </trkpt>
      <trkpt lat="47.30477" lon="-2.34676">
        <ele>73.599998474121</ele>
        <time>2019-12-15T10:19:58.000Z</time>
      </trkpt>
      <trkpt lat="47.30474" lon="-2.34683">
        <ele>73.599998474121</ele>
        <time>2019-12-15T10:20:04.000Z</time>
      </trkpt>
      <trkpt lat="47.30468" lon="-2.34686">
        <ele>71.400001525879</ele>
        <time>2019-12-15T10:20:15.000Z</time>
      </trkpt>
      <trkpt lat="47.30462" lon="-2.34692">
        <ele>71.400001525879</ele>
        <time>2019-12-15T10:20:20.000Z</time>
      </trkpt>
      <trkpt lat="47.3045" lon="-2.34702">
        <ele>71.400001525879</ele>
        <time>2019-12-15T10:20:25.000Z</time>
      </trkpt>
      <trkpt lat="47.30433" lon="-2.3472">
        <ele>71.400001525879</ele>
        <time>2019-12-15T10:20:31.000Z</time>
      </trkpt>
      <trkpt lat="47.30421" lon="-2.34729">
        <ele>71.400001525879</ele>
        <time>2019-12-15T10:20:35.000Z</time>
      </trkpt>
      <trkpt lat="47.30407" lon="-2.3474">
        <ele>71.400001525879</ele>
        <time>2019-12-15T10:20:40.000Z</time>
      </trkpt>
      <trkpt lat="47.30386" lon="-2.34752">
        <ele>71.400001525879</ele>
        <time>2019-12-15T10:20:46.000Z</time>
      </trkpt>
      <trkpt lat="47.30373" lon="-2.34761">
        <ele>71.400001525879</ele>
        <time>2019-12-15T10:20:50.000Z</time>
      </trkpt>
      <trkpt lat="47.30355" lon="-2.34773">
        <ele>71.400001525879</ele>
        <time>2019-12-15T10:20:55.000Z</time>
      </trkpt>
      <trkpt lat="47.30342" lon="-2.34788">
        <ele>71.400001525879</ele>
        <time>2019-12-15T10:20:59.000Z</time>
      </trkpt>
      <trkpt lat="47.30339" lon="-2.34793">
        <ele>71.400001525879</ele>
        <time>2019-12-15T10:21:00.000Z</time>
      </trkpt>
      <trkpt lat="47.30324" lon="-2.3482">
        <ele>71.400001525879</ele>
        <time>2019-12-15T10:21:06.000Z</time>
      </trkpt>
      <trkpt lat="47.30307" lon="-2.34839">
        <ele>71.400001525879</ele>
        <time>2019-12-15T10:21:12.000Z</time>
      </trkpt>
      <trkpt lat="47.30292" lon="-2.34854">
        <ele>71.400001525879</ele>
        <time>2019-12-15T10:21:17.000Z</time>
      </trkpt>
      <trkpt lat="47.30269" lon="-2.34866">
        <ele>71.400001525879</ele>
        <time>2019-12-15T10:21:23.000Z</time>
      </trkpt>
      <trkpt lat="47.30255" lon="-2.34874">
        <ele>71.400001525879</ele>
        <time>2019-12-15T10:21:27.000Z</time>
      </trkpt>
      <trkpt lat="47.30233" lon="-2.3489">
        <ele>71.400001525879</ele>
        <time>2019-12-15T10:21:33.000Z</time>
      </trkpt>
      <trkpt lat="47.30216" lon="-2.34907">
        <ele>71.400001525879</ele>
        <time>2019-12-15T10:21:39.000Z</time>
      </trkpt>
      <trkpt lat="47.30215" lon="-2.34912">
        <ele>71.400001525879</ele>
        <time>2019-12-15T10:21:40.000Z</time>
      </trkpt>
      <trkpt lat="47.30212" lon="-2.34927">
        <ele>71.400001525879</ele>
        <time>2019-12-15T10:21:43.000Z</time>
      </trkpt>
      <trkpt lat="47.30212" lon="-2.34933">
        <ele>71.400001525879</ele>
        <time>2019-12-15T10:21:44.000Z</time>
      </trkpt>
      <trkpt lat="47.3021" lon="-2.34959">
        <ele>71.400001525879</ele>
        <time>2019-12-15T10:21:48.000Z</time>
      </trkpt>
      <trkpt lat="47.30209" lon="-2.35003">
        <ele>71.400001525879</ele>
        <time>2019-12-15T10:21:55.000Z</time>
      </trkpt>
      <trkpt lat="47.3021" lon="-2.35036">
        <ele>71.400001525879</ele>
        <time>2019-12-15T10:22:01.000Z</time>
      </trkpt>
      <trkpt lat="47.3021" lon="-2.35063">
        <ele>71.400001525879</ele>
        <time>2019-12-15T10:22:06.000Z</time>
      </trkpt>
      <trkpt lat="47.30209" lon="-2.35108">
        <ele>71.400001525879</ele>
        <time>2019-12-15T10:22:13.000Z</time>
      </trkpt>
      <trkpt lat="47.30209" lon="-2.35122">
        <ele>71.400001525879</ele>
        <time>2019-12-15T10:22:15.000Z</time>
      </trkpt>
      <trkpt lat="47.30209" lon="-2.35144">
        <ele>71.400001525879</ele>
        <time>2019-12-15T10:22:18.000Z</time>
      </trkpt>
      <trkpt lat="47.30208" lon="-2.3515">
        <ele>71</ele>
        <time>2019-12-15T10:22:19.000Z</time>
      </trkpt>
      <trkpt lat="47.30208" lon="-2.35156">
        <ele>70.599998474121</ele>
        <time>2019-12-15T10:22:20.000Z</time>
      </trkpt>
      <trkpt lat="47.30206" lon="-2.35161">
        <ele>70.199996948242</ele>
        <time>2019-12-15T10:22:21.000Z</time>
      </trkpt>
      <trkpt lat="47.30203" lon="-2.35164">
        <ele>69.800003051758</ele>
        <time>2019-12-15T10:22:22.000Z</time>
      </trkpt>
      <trkpt lat="47.302" lon="-2.35167">
        <ele>69.400001525879</ele>
        <time>2019-12-15T10:22:23.000Z</time>
      </trkpt>
      <trkpt lat="47.30192" lon="-2.3517">
        <ele>69.400001525879</ele>
        <time>2019-12-15T10:22:26.000Z</time>
      </trkpt>
      <trkpt lat="47.30176" lon="-2.35176">
        <ele>69.400001525879</ele>
        <time>2019-12-15T10:22:32.000Z</time>
      </trkpt>
      <trkpt lat="47.3017" lon="-2.35179">
        <ele>69.400001525879</ele>
        <time>2019-12-15T10:22:35.000Z</time>
      </trkpt>
      <trkpt lat="47.30169" lon="-2.35181">
        <ele>69.400001525879</ele>
        <time>2019-12-15T10:22:36.000Z</time>
      </trkpt>
      <trkpt lat="47.30165" lon="-2.35188">
        <ele>69.400001525879</ele>
        <time>2019-12-15T10:22:42.000Z</time>
      </trkpt>
      <trkpt lat="47.30159" lon="-2.35192">
        <ele>69.400001525879</ele>
        <time>2019-12-15T10:22:49.000Z</time>
      </trkpt>
      <trkpt lat="47.30158" lon="-2.35191">
        <ele>69.400001525879</ele>
        <time>2019-12-15T10:22:51.000Z</time>
      </trkpt>
      <trkpt lat="47.30153" lon="-2.35193">
        <ele>69.400001525879</ele>
        <time>2019-12-15T10:22:57.000Z</time>
      </trkpt>
      <trkpt lat="47.30151" lon="-2.35193">
        <ele>69.400001525879</ele>
        <time>2019-12-15T10:22:59.000Z</time>
      </trkpt>
      <trkpt lat="47.30143" lon="-2.35192">
        <ele>69.400001525879</ele>
        <time>2019-12-15T10:23:04.000Z</time>
      </trkpt>
      <trkpt lat="47.30126" lon="-2.35198">
        <ele>69.400001525879</ele>
        <time>2019-12-15T10:23:09.000Z</time>
      </trkpt>
      <trkpt lat="47.3011" lon="-2.35206">
        <ele>69.400001525879</ele>
        <time>2019-12-15T10:23:14.000Z</time>
      </trkpt>
      <trkpt lat="47.30096" lon="-2.3521">
        <ele>69.400001525879</ele>
        <time>2019-12-15T10:23:18.000Z</time>
      </trkpt>
      <trkpt lat="47.3008" lon="-2.35215">
        <ele>69.400001525879</ele>
        <time>2019-12-15T10:23:23.000Z</time>
      </trkpt>
      <trkpt lat="47.30074" lon="-2.35218">
        <ele>69</ele>
        <time>2019-12-15T10:23:25.000Z</time>
      </trkpt>
      <trkpt lat="47.30071" lon="-2.3522">
        <ele>68.599998474121</ele>
        <time>2019-12-15T10:23:26.000Z</time>
      </trkpt>
      <trkpt lat="47.30068" lon="-2.35223">
        <ele>68.199996948242</ele>
        <time>2019-12-15T10:23:27.000Z</time>
      </trkpt>
      <trkpt lat="47.30065" lon="-2.35225">
        <ele>67.800003051758</ele>
        <time>2019-12-15T10:23:28.000Z</time>
      </trkpt>
      <trkpt lat="47.30062" lon="-2.35226">
        <ele>67.400001525879</ele>
        <time>2019-12-15T10:23:29.000Z</time>
      </trkpt>
      <trkpt lat="47.30051" lon="-2.3523">
        <ele>67.400001525879</ele>
        <time>2019-12-15T10:23:33.000Z</time>
      </trkpt>
      <trkpt lat="47.30035" lon="-2.35241">
        <ele>67.400001525879</ele>
        <time>2019-12-15T10:23:39.000Z</time>
      </trkpt>
      <trkpt lat="47.3003" lon="-2.35244">
        <ele>67.400001525879</ele>
        <time>2019-12-15T10:23:43.000Z</time>
      </trkpt>
      <trkpt lat="47.30025" lon="-2.35244">
        <ele>67.400001525879</ele>
        <time>2019-12-15T10:23:48.000Z</time>
      </trkpt>
      <trkpt lat="47.30015" lon="-2.35253">
        <ele>67.400001525879</ele>
        <time>2019-12-15T10:23:53.000Z</time>
      </trkpt>
      <trkpt lat="47.30002" lon="-2.3526">
        <ele>67.400001525879</ele>
        <time>2019-12-15T10:23:58.000Z</time>
      </trkpt>
      <trkpt lat="47.29988" lon="-2.35275">
        <ele>67.400001525879</ele>
        <time>2019-12-15T10:24:03.000Z</time>
      </trkpt>
      <trkpt lat="47.29971" lon="-2.35293">
        <ele>67.400001525879</ele>
        <time>2019-12-15T10:24:09.000Z</time>
      </trkpt>
      <trkpt lat="47.2995" lon="-2.3532">
        <ele>67.400001525879</ele>
        <time>2019-12-15T10:24:16.000Z</time>
      </trkpt>
      <trkpt lat="47.29944" lon="-2.35328">
        <ele>67</ele>
        <time>2019-12-15T10:24:18.000Z</time>
      </trkpt>
      <trkpt lat="47.29941" lon="-2.35332">
        <ele>66.599998474121</ele>
        <time>2019-12-15T10:24:19.000Z</time>
      </trkpt>
      <trkpt lat="47.29938" lon="-2.35336">
        <ele>66.199996948242</ele>
        <time>2019-12-15T10:24:20.000Z</time>
      </trkpt>
      <trkpt lat="47.29935" lon="-2.3534">
        <ele>65.800003051758</ele>
        <time>2019-12-15T10:24:21.000Z</time>
      </trkpt>
      <trkpt lat="47.29932" lon="-2.35344">
        <ele>65.199996948242</ele>
        <time>2019-12-15T10:24:22.000Z</time>
      </trkpt>
      <trkpt lat="47.29912" lon="-2.35368">
        <ele>65.199996948242</ele>
        <time>2019-12-15T10:24:29.000Z</time>
      </trkpt>
      <trkpt lat="47.29892" lon="-2.35391">
        <ele>65.199996948242</ele>
        <time>2019-12-15T10:24:37.000Z</time>
      </trkpt>
      <trkpt lat="47.29877" lon="-2.35409">
        <ele>65.199996948242</ele>
        <time>2019-12-15T10:24:43.000Z</time>
      </trkpt>
      <trkpt lat="47.29857" lon="-2.35428">
        <ele>65.199996948242</ele>
        <time>2019-12-15T10:24:50.000Z</time>
      </trkpt>
      <trkpt lat="47.29837" lon="-2.3545">
        <ele>65.199996948242</ele>
        <time>2019-12-15T10:24:56.000Z</time>
      </trkpt>
      <trkpt lat="47.29829" lon="-2.35463">
        <ele>65.199996948242</ele>
        <time>2019-12-15T10:24:59.000Z</time>
      </trkpt>
      <trkpt lat="47.29829" lon="-2.35469">
        <ele>65.199996948242</ele>
        <time>2019-12-15T10:25:00.000Z</time>
      </trkpt>
      <trkpt lat="47.29835" lon="-2.35491">
        <ele>65.199996948242</ele>
        <time>2019-12-15T10:25:04.000Z</time>
      </trkpt>
      <trkpt lat="47.29836" lon="-2.35496">
        <ele>65.199996948242</ele>
        <time>2019-12-15T10:25:05.000Z</time>
      </trkpt>
      <trkpt lat="47.29842" lon="-2.35518">
        <ele>65.199996948242</ele>
        <time>2019-12-15T10:25:09.000Z</time>
      </trkpt>
      <trkpt lat="47.29845" lon="-2.35529">
        <ele>65.199996948242</ele>
        <time>2019-12-15T10:25:11.000Z</time>
      </trkpt>
      <trkpt lat="47.29853" lon="-2.35563">
        <ele>65.199996948242</ele>
        <time>2019-12-15T10:25:17.000Z</time>
      </trkpt>
      <trkpt lat="47.29858" lon="-2.3558">
        <ele>65.199996948242</ele>
        <time>2019-12-15T10:25:20.000Z</time>
      </trkpt>
      <trkpt lat="47.29862" lon="-2.35597">
        <ele>65.199996948242</ele>
        <time>2019-12-15T10:25:23.000Z</time>
      </trkpt>
      <trkpt lat="47.29868" lon="-2.35619">
        <ele>65.199996948242</ele>
        <time>2019-12-15T10:25:27.000Z</time>
      </trkpt>
      <trkpt lat="47.29869" lon="-2.35625">
        <ele>65.199996948242</ele>
        <time>2019-12-15T10:25:28.000Z</time>
      </trkpt>
      <trkpt lat="47.29873" lon="-2.35654">
        <ele>65.199996948242</ele>
        <time>2019-12-15T10:25:33.000Z</time>
      </trkpt>
      <trkpt lat="47.29876" lon="-2.35673">
        <ele>65.199996948242</ele>
        <time>2019-12-15T10:25:36.000Z</time>
      </trkpt>
      <trkpt lat="47.2988" lon="-2.35691">
        <ele>65.199996948242</ele>
        <time>2019-12-15T10:25:39.000Z</time>
      </trkpt>
      <trkpt lat="47.2989" lon="-2.35728">
        <ele>65.199996948242</ele>
        <time>2019-12-15T10:25:46.000Z</time>
      </trkpt>
      <trkpt lat="47.29895" lon="-2.35749">
        <ele>65.199996948242</ele>
        <time>2019-12-15T10:25:52.000Z</time>
      </trkpt>
      <trkpt lat="47.29895" lon="-2.3575">
        <ele>65.199996948242</ele>
        <time>2019-12-15T10:25:53.000Z</time>
      </trkpt>
      <trkpt lat="47.29895" lon="-2.35752">
        <ele>65.199996948242</ele>
        <time>2019-12-15T10:26:04.000Z</time>
      </trkpt>
      <trkpt lat="47.29895" lon="-2.35754">
        <ele>65.199996948242</ele>
        <time>2019-12-15T10:26:05.000Z</time>
      </trkpt>
      <trkpt lat="47.29893" lon="-2.35757">
        <ele>65.199996948242</ele>
        <time>2019-12-15T10:26:06.000Z</time>
      </trkpt>
      <trkpt lat="47.29884" lon="-2.35764">
        <ele>65.199996948242</ele>
        <time>2019-12-15T10:26:09.000Z</time>
      </trkpt>
      <trkpt lat="47.2988" lon="-2.35766">
        <ele>65.199996948242</ele>
        <time>2019-12-15T10:26:10.000Z</time>
      </trkpt>
      <trkpt lat="47.29848" lon="-2.3578">
        <ele>65.199996948242</ele>
        <time>2019-12-15T10:26:17.000Z</time>
      </trkpt>
      <trkpt lat="47.29813" lon="-2.35793">
        <ele>65.199996948242</ele>
        <time>2019-12-15T10:26:25.000Z</time>
      </trkpt>
      <trkpt lat="47.29779" lon="-2.35804">
        <ele>65.199996948242</ele>
        <time>2019-12-15T10:26:32.000Z</time>
      </trkpt>
      <trkpt lat="47.29738" lon="-2.35819">
        <ele>65.199996948242</ele>
        <time>2019-12-15T10:26:40.000Z</time>
      </trkpt>
      <trkpt lat="47.29693" lon="-2.35844">
        <ele>65.199996948242</ele>
        <time>2019-12-15T10:26:47.000Z</time>
      </trkpt>
      <trkpt lat="47.29675" lon="-2.35851">
        <ele>65.199996948242</ele>
        <time>2019-12-15T10:26:50.000Z</time>
      </trkpt>
      <trkpt lat="47.29669" lon="-2.35856">
        <ele>65.199996948242</ele>
        <time>2019-12-15T10:26:51.000Z</time>
      </trkpt>
      <trkpt lat="47.29659" lon="-2.35864">
        <ele>65.199996948242</ele>
        <time>2019-12-15T10:26:53.000Z</time>
      </trkpt>
      <trkpt lat="47.29642" lon="-2.35875">
        <ele>65.199996948242</ele>
        <time>2019-12-15T10:26:56.000Z</time>
      </trkpt>
      <trkpt lat="47.2961" lon="-2.35891">
        <ele>65.199996948242</ele>
        <time>2019-12-15T10:27:02.000Z</time>
      </trkpt>
      <trkpt lat="47.296" lon="-2.35897">
        <ele>65.199996948242</ele>
        <time>2019-12-15T10:27:04.000Z</time>
      </trkpt>
      <trkpt lat="47.29584" lon="-2.35908">
        <ele>65.199996948242</ele>
        <time>2019-12-15T10:27:07.000Z</time>
      </trkpt>
      <trkpt lat="47.29551" lon="-2.35925">
        <ele>65.199996948242</ele>
        <time>2019-12-15T10:27:13.000Z</time>
      </trkpt>
      <trkpt lat="47.29545" lon="-2.35928">
        <ele>65.199996948242</ele>
        <time>2019-12-15T10:27:14.000Z</time>
      </trkpt>
      <trkpt lat="47.29518" lon="-2.35944">
        <ele>65.199996948242</ele>
        <time>2019-12-15T10:27:19.000Z</time>
      </trkpt>
      <trkpt lat="47.29483" lon="-2.35969">
        <ele>65.199996948242</ele>
        <time>2019-12-15T10:27:26.000Z</time>
      </trkpt>
      <trkpt lat="47.29476" lon="-2.35977">
        <ele>65.199996948242</ele>
        <time>2019-12-15T10:27:29.000Z</time>
      </trkpt>
      <trkpt lat="47.29469" lon="-2.35993">
        <ele>65.199996948242</ele>
        <time>2019-12-15T10:27:33.000Z</time>
      </trkpt>
      <trkpt lat="47.29462" lon="-2.35992">
        <ele>65.199996948242</ele>
        <time>2019-12-15T10:27:35.000Z</time>
      </trkpt>
      <trkpt lat="47.29458" lon="-2.35974">
        <ele>65.199996948242</ele>
        <time>2019-12-15T10:27:38.000Z</time>
      </trkpt>
      <trkpt lat="47.29451" lon="-2.35946">
        <ele>65.199996948242</ele>
        <time>2019-12-15T10:27:42.000Z</time>
      </trkpt>
      <trkpt lat="47.29435" lon="-2.3591">
        <ele>65.199996948242</ele>
        <time>2019-12-15T10:27:48.000Z</time>
      </trkpt>
      <trkpt lat="47.29427" lon="-2.35896">
        <ele>65.199996948242</ele>
        <time>2019-12-15T10:27:51.000Z</time>
      </trkpt>
      <trkpt lat="47.29417" lon="-2.35884">
        <ele>65.199996948242</ele>
        <time>2019-12-15T10:27:54.000Z</time>
      </trkpt>
      <trkpt lat="47.29404" lon="-2.35867">
        <ele>65.199996948242</ele>
        <time>2019-12-15T10:27:58.000Z</time>
      </trkpt>
      <trkpt lat="47.29394" lon="-2.35857">
        <ele>65.199996948242</ele>
        <time>2019-12-15T10:28:01.000Z</time>
      </trkpt>
      <trkpt lat="47.29371" lon="-2.35833">
        <ele>65.199996948242</ele>
        <time>2019-12-15T10:28:07.000Z</time>
      </trkpt>
      <trkpt lat="47.29339" lon="-2.35807">
        <ele>65.199996948242</ele>
        <time>2019-12-15T10:28:14.000Z</time>
      </trkpt>
      <trkpt lat="47.29312" lon="-2.35784">
        <ele>65.199996948242</ele>
        <time>2019-12-15T10:28:20.000Z</time>
      </trkpt>
      <trkpt lat="47.29303" lon="-2.35776">
        <ele>65.199996948242</ele>
        <time>2019-12-15T10:28:22.000Z</time>
      </trkpt>
      <trkpt lat="47.2929" lon="-2.35763">
        <ele>65.199996948242</ele>
        <time>2019-12-15T10:28:25.000Z</time>
      </trkpt>
      <trkpt lat="47.29271" lon="-2.35745">
        <ele>64.800003051758</ele>
        <time>2019-12-15T10:28:30.000Z</time>
      </trkpt>
      <trkpt lat="47.29267" lon="-2.35742">
        <ele>64.400001525879</ele>
        <time>2019-12-15T10:28:31.000Z</time>
      </trkpt>
      <trkpt lat="47.29264" lon="-2.35739">
        <ele>64</ele>
        <time>2019-12-15T10:28:32.000Z</time>
      </trkpt>
      <trkpt lat="47.2926" lon="-2.35736">
        <ele>63.599998474121</ele>
        <time>2019-12-15T10:28:33.000Z</time>
      </trkpt>
      <trkpt lat="47.29257" lon="-2.35733">
        <ele>63.200000762939</ele>
        <time>2019-12-15T10:28:34.000Z</time>
      </trkpt>
      <trkpt lat="47.2925" lon="-2.35727">
        <ele>63.200000762939</ele>
        <time>2019-12-15T10:28:36.000Z</time>
      </trkpt>
      <trkpt lat="47.29242" lon="-2.3572">
        <ele>63.200000762939</ele>
        <time>2019-12-15T10:28:38.000Z</time>
      </trkpt>
      <trkpt lat="47.29213" lon="-2.35692">
        <ele>63.200000762939</ele>
        <time>2019-12-15T10:28:45.000Z</time>
      </trkpt>
      <trkpt lat="47.29188" lon="-2.35667">
        <ele>63.200000762939</ele>
        <time>2019-12-15T10:28:51.000Z</time>
      </trkpt>
      <trkpt lat="47.29175" lon="-2.35656">
        <ele>63.200000762939</ele>
        <time>2019-12-15T10:28:54.000Z</time>
      </trkpt>
      <trkpt lat="47.29165" lon="-2.35651">
        <ele>63.200000762939</ele>
        <time>2019-12-15T10:28:56.000Z</time>
      </trkpt>
      <trkpt lat="47.29155" lon="-2.35649">
        <ele>63.200000762939</ele>
        <time>2019-12-15T10:28:58.000Z</time>
      </trkpt>
      <trkpt lat="47.29145" lon="-2.35651">
        <ele>63.200000762939</ele>
        <time>2019-12-15T10:29:00.000Z</time>
      </trkpt>
      <trkpt lat="47.29141" lon="-2.35654">
        <ele>63.200000762939</ele>
        <time>2019-12-15T10:29:01.000Z</time>
      </trkpt>
      <trkpt lat="47.29132" lon="-2.3566">
        <ele>63.200000762939</ele>
        <time>2019-12-15T10:29:03.000Z</time>
      </trkpt>
      <trkpt lat="47.29123" lon="-2.35661">
        <ele>63.200000762939</ele>
        <time>2019-12-15T10:29:05.000Z</time>
      </trkpt>
      <trkpt lat="47.29104" lon="-2.3566">
        <ele>63.200000762939</ele>
        <time>2019-12-15T10:29:09.000Z</time>
      </trkpt>
      <trkpt lat="47.29096" lon="-2.35662">
        <ele>63.200000762939</ele>
        <time>2019-12-15T10:29:11.000Z</time>
      </trkpt>
      <trkpt lat="47.29091" lon="-2.35664">
        <ele>63.200000762939</ele>
        <time>2019-12-15T10:29:12.000Z</time>
      </trkpt>
      <trkpt lat="47.2907" lon="-2.35677">
        <ele>63.200000762939</ele>
        <time>2019-12-15T10:29:17.000Z</time>
      </trkpt>
      <trkpt lat="47.29058" lon="-2.35689">
        <ele>63.200000762939</ele>
        <time>2019-12-15T10:29:20.000Z</time>
      </trkpt>
      <trkpt lat="47.2905" lon="-2.35697">
        <ele>63.200000762939</ele>
        <time>2019-12-15T10:29:22.000Z</time>
      </trkpt>
      <trkpt lat="47.29038" lon="-2.35709">
        <ele>63.200000762939</ele>
        <time>2019-12-15T10:29:25.000Z</time>
      </trkpt>
      <trkpt lat="47.29026" lon="-2.3572">
        <ele>63.200000762939</ele>
        <time>2019-12-15T10:29:28.000Z</time>
      </trkpt>
      <trkpt lat="47.28991" lon="-2.35745">
        <ele>63.200000762939</ele>
        <time>2019-12-15T10:29:36.000Z</time>
      </trkpt>
      <trkpt lat="47.28954" lon="-2.35767">
        <ele>63.200000762939</ele>
        <time>2019-12-15T10:29:44.000Z</time>
      </trkpt>
      <trkpt lat="47.28917" lon="-2.3579">
        <ele>63.200000762939</ele>
        <time>2019-12-15T10:29:52.000Z</time>
      </trkpt>
      <trkpt lat="47.28913" lon="-2.35794">
        <ele>63.200000762939</ele>
        <time>2019-12-15T10:29:53.000Z</time>
      </trkpt>
      <trkpt lat="47.28904" lon="-2.35801">
        <ele>63.200000762939</ele>
        <time>2019-12-15T10:29:55.000Z</time>
      </trkpt>
      <trkpt lat="47.28895" lon="-2.35811">
        <ele>63.200000762939</ele>
        <time>2019-12-15T10:29:57.000Z</time>
      </trkpt>
      <trkpt lat="47.28868" lon="-2.35847">
        <ele>63.200000762939</ele>
        <time>2019-12-15T10:30:04.000Z</time>
      </trkpt>
      <trkpt lat="47.28849" lon="-2.35874">
        <ele>63.200000762939</ele>
        <time>2019-12-15T10:30:09.000Z</time>
      </trkpt>
      <trkpt lat="47.28845" lon="-2.35879">
        <ele>63.200000762939</ele>
        <time>2019-12-15T10:30:10.000Z</time>
      </trkpt>
      <trkpt lat="47.28826" lon="-2.35903">
        <ele>63.200000762939</ele>
        <time>2019-12-15T10:30:15.000Z</time>
      </trkpt>
      <trkpt lat="47.28786" lon="-2.3594">
        <ele>63.200000762939</ele>
        <time>2019-12-15T10:30:24.000Z</time>
      </trkpt>
      <trkpt lat="47.2875" lon="-2.35961">
        <ele>63.200000762939</ele>
        <time>2019-12-15T10:30:31.000Z</time>
      </trkpt>
      <trkpt lat="47.2872" lon="-2.35963">
        <ele>63.200000762939</ele>
        <time>2019-12-15T10:30:36.000Z</time>
      </trkpt>
      <trkpt lat="47.2868" lon="-2.35963">
        <ele>63.200000762939</ele>
        <time>2019-12-15T10:30:43.000Z</time>
      </trkpt>
      <trkpt lat="47.28646" lon="-2.35962">
        <ele>63.200000762939</ele>
        <time>2019-12-15T10:30:49.000Z</time>
      </trkpt>
      <trkpt lat="47.28622" lon="-2.35957">
        <ele>62.799999237061</ele>
        <time>2019-12-15T10:30:53.000Z</time>
      </trkpt>
      <trkpt lat="47.28617" lon="-2.35954">
        <ele>62.400001525879</ele>
        <time>2019-12-15T10:30:54.000Z</time>
      </trkpt>
      <trkpt lat="47.28612" lon="-2.35951">
        <ele>62</ele>
        <time>2019-12-15T10:30:55.000Z</time>
      </trkpt>
      <trkpt lat="47.28607" lon="-2.35946">
        <ele>61.599998474121</ele>
        <time>2019-12-15T10:30:56.000Z</time>
      </trkpt>
      <trkpt lat="47.28602" lon="-2.35941">
        <ele>61.200000762939</ele>
        <time>2019-12-15T10:30:57.000Z</time>
      </trkpt>
      <trkpt lat="47.28593" lon="-2.35929">
        <ele>61.200000762939</ele>
        <time>2019-12-15T10:30:59.000Z</time>
      </trkpt>
      <trkpt lat="47.28579" lon="-2.35896">
        <ele>61.200000762939</ele>
        <time>2019-12-15T10:31:03.000Z</time>
      </trkpt>
      <trkpt lat="47.28566" lon="-2.35865">
        <ele>61.200000762939</ele>
        <time>2019-12-15T10:31:07.000Z</time>
      </trkpt>
      <trkpt lat="47.28562" lon="-2.3586">
        <ele>61.200000762939</ele>
        <time>2019-12-15T10:31:08.000Z</time>
      </trkpt>
      <trkpt lat="47.28556" lon="-2.3585">
        <ele>61.200000762939</ele>
        <time>2019-12-15T10:31:10.000Z</time>
      </trkpt>
      <trkpt lat="47.28556" lon="-2.35845">
        <ele>61.200000762939</ele>
        <time>2019-12-15T10:31:11.000Z</time>
      </trkpt>
      <trkpt lat="47.28566" lon="-2.35818">
        <ele>61.200000762939</ele>
        <time>2019-12-15T10:31:16.000Z</time>
      </trkpt>
      <trkpt lat="47.28589" lon="-2.35773">
        <ele>61.200000762939</ele>
        <time>2019-12-15T10:31:22.000Z</time>
      </trkpt>
      <trkpt lat="47.28601" lon="-2.35739">
        <ele>61.200000762939</ele>
        <time>2019-12-15T10:31:26.000Z</time>
      </trkpt>
      <trkpt lat="47.28602" lon="-2.357">
        <ele>61.200000762939</ele>
        <time>2019-12-15T10:31:30.000Z</time>
      </trkpt>
      <trkpt lat="47.286" lon="-2.3569">
        <ele>61.200000762939</ele>
        <time>2019-12-15T10:31:31.000Z</time>
      </trkpt>
      <trkpt lat="47.28593" lon="-2.35632">
        <ele>61.200000762939</ele>
        <time>2019-12-15T10:31:37.000Z</time>
      </trkpt>
      <trkpt lat="47.28586" lon="-2.35559">
        <ele>61.200000762939</ele>
        <time>2019-12-15T10:31:44.000Z</time>
      </trkpt>
      <trkpt lat="47.28577" lon="-2.35498">
        <ele>61.200000762939</ele>
        <time>2019-12-15T10:31:50.000Z</time>
      </trkpt>
      <trkpt lat="47.2857" lon="-2.35452">
        <ele>61.200000762939</ele>
        <time>2019-12-15T10:31:55.000Z</time>
      </trkpt>
      <trkpt lat="47.28568" lon="-2.35442">
        <ele>61.200000762939</ele>
        <time>2019-12-15T10:31:56.000Z</time>
      </trkpt>
      <trkpt lat="47.28568" lon="-2.35432">
        <ele>61.200000762939</ele>
        <time>2019-12-15T10:31:57.000Z</time>
      </trkpt>
      <trkpt lat="47.28563" lon="-2.35402">
        <ele>61.200000762939</ele>
        <time>2019-12-15T10:32:00.000Z</time>
      </trkpt>
      <trkpt lat="47.28551" lon="-2.35352">
        <ele>61.200000762939</ele>
        <time>2019-12-15T10:32:05.000Z</time>
      </trkpt>
      <trkpt lat="47.28548" lon="-2.35344">
        <ele>61.200000762939</ele>
        <time>2019-12-15T10:32:06.000Z</time>
      </trkpt>
      <trkpt lat="47.28533" lon="-2.35307">
        <ele>61.200000762939</ele>
        <time>2019-12-15T10:32:10.000Z</time>
      </trkpt>
      <trkpt lat="47.28514" lon="-2.3525">
        <ele>61.200000762939</ele>
        <time>2019-12-15T10:32:16.000Z</time>
      </trkpt>
      <trkpt lat="47.28503" lon="-2.35211">
        <ele>61.200000762939</ele>
        <time>2019-12-15T10:32:20.000Z</time>
      </trkpt>
      <trkpt lat="47.285" lon="-2.35201">
        <ele>61.200000762939</ele>
        <time>2019-12-15T10:32:21.000Z</time>
      </trkpt>
      <trkpt lat="47.28483" lon="-2.35133">
        <ele>61.200000762939</ele>
        <time>2019-12-15T10:32:28.000Z</time>
      </trkpt>
      <trkpt lat="47.2848" lon="-2.35124">
        <ele>61.200000762939</ele>
        <time>2019-12-15T10:32:29.000Z</time>
      </trkpt>
      <trkpt lat="47.28475" lon="-2.35107">
        <ele>61.200000762939</ele>
        <time>2019-12-15T10:32:31.000Z</time>
      </trkpt>
      <trkpt lat="47.28472" lon="-2.35099">
        <ele>61.200000762939</ele>
        <time>2019-12-15T10:32:32.000Z</time>
      </trkpt>
      <trkpt lat="47.28451" lon="-2.35057">
        <ele>61.200000762939</ele>
        <time>2019-12-15T10:32:38.000Z</time>
      </trkpt>
      <trkpt lat="47.2843" lon="-2.35051">
        <ele>61.200000762939</ele>
        <time>2019-12-15T10:32:42.000Z</time>
      </trkpt>
      <trkpt lat="47.28419" lon="-2.35054">
        <ele>61.200000762939</ele>
        <time>2019-12-15T10:32:44.000Z</time>
      </trkpt>
      <trkpt lat="47.28408" lon="-2.35058">
        <ele>61.200000762939</ele>
        <time>2019-12-15T10:32:46.000Z</time>
      </trkpt>
      <trkpt lat="47.28372" lon="-2.3507">
        <ele>61.200000762939</ele>
        <time>2019-12-15T10:32:53.000Z</time>
      </trkpt>
      <trkpt lat="47.28329" lon="-2.35079">
        <ele>61.200000762939</ele>
        <time>2019-12-15T10:33:01.000Z</time>
      </trkpt>
      <trkpt lat="47.2829" lon="-2.35073">
        <ele>61.200000762939</ele>
        <time>2019-12-15T10:33:08.000Z</time>
      </trkpt>
      <trkpt lat="47.28285" lon="-2.3507">
        <ele>60.799999237061</ele>
        <time>2019-12-15T10:33:09.000Z</time>
      </trkpt>
      <trkpt lat="47.2828" lon="-2.35067">
        <ele>60.400001525879</ele>
        <time>2019-12-15T10:33:10.000Z</time>
      </trkpt>
      <trkpt lat="47.28276" lon="-2.35063">
        <ele>59.599998474121</ele>
        <time>2019-12-15T10:33:11.000Z</time>
      </trkpt>
      <trkpt lat="47.28271" lon="-2.35059">
        <ele>59.200000762939</ele>
        <time>2019-12-15T10:33:12.000Z</time>
      </trkpt>
      <trkpt lat="47.28267" lon="-2.35055">
        <ele>59.200000762939</ele>
        <time>2019-12-15T10:33:13.000Z</time>
      </trkpt>
      <trkpt lat="47.28259" lon="-2.35046">
        <ele>59.200000762939</ele>
        <time>2019-12-15T10:33:15.000Z</time>
      </trkpt>
      <trkpt lat="47.28244" lon="-2.35029">
        <ele>59.200000762939</ele>
        <time>2019-12-15T10:33:19.000Z</time>
      </trkpt>
      <trkpt lat="47.28235" lon="-2.3501">
        <ele>59.200000762939</ele>
        <time>2019-12-15T10:33:22.000Z</time>
      </trkpt>
      <trkpt lat="47.28232" lon="-2.35003">
        <ele>59.200000762939</ele>
        <time>2019-12-15T10:33:23.000Z</time>
      </trkpt>
      <trkpt lat="47.28208" lon="-2.34948">
        <ele>59.200000762939</ele>
        <time>2019-12-15T10:33:30.000Z</time>
      </trkpt>
      <trkpt lat="47.28191" lon="-2.34888">
        <ele>59.200000762939</ele>
        <time>2019-12-15T10:33:37.000Z</time>
      </trkpt>
      <trkpt lat="47.28179" lon="-2.34842">
        <ele>59.200000762939</ele>
        <time>2019-12-15T10:33:43.000Z</time>
      </trkpt>
      <trkpt lat="47.28176" lon="-2.34793">
        <ele>59.200000762939</ele>
        <time>2019-12-15T10:33:49.000Z</time>
      </trkpt>
      <trkpt lat="47.28175" lon="-2.34787">
        <ele>59.200000762939</ele>
        <time>2019-12-15T10:33:50.000Z</time>
      </trkpt>
      <trkpt lat="47.2817" lon="-2.34779">
        <ele>59.200000762939</ele>
        <time>2019-12-15T10:33:52.000Z</time>
      </trkpt>
      <trkpt lat="47.28159" lon="-2.34772">
        <ele>59.200000762939</ele>
        <time>2019-12-15T10:33:56.000Z</time>
      </trkpt>
      <trkpt lat="47.28157" lon="-2.34757">
        <ele>59.200000762939</ele>
        <time>2019-12-15T10:33:59.000Z</time>
      </trkpt>
      <trkpt lat="47.28156" lon="-2.34752">
        <ele>59.200000762939</ele>
        <time>2019-12-15T10:34:00.000Z</time>
      </trkpt>
      <trkpt lat="47.28152" lon="-2.3473">
        <ele>58.799999237061</ele>
        <time>2019-12-15T10:34:05.000Z</time>
      </trkpt>
      <trkpt lat="47.28151" lon="-2.34727">
        <ele>58.200000762939</ele>
        <time>2019-12-15T10:34:06.000Z</time>
      </trkpt>
      <trkpt lat="47.28151" lon="-2.34723">
        <ele>57.799999237061</ele>
        <time>2019-12-15T10:34:07.000Z</time>
      </trkpt>
      <trkpt lat="47.28151" lon="-2.3472">
        <ele>57.400001525879</ele>
        <time>2019-12-15T10:34:08.000Z</time>
      </trkpt>
      <trkpt lat="47.28153" lon="-2.34718">
        <ele>57</ele>
        <time>2019-12-15T10:34:09.000Z</time>
      </trkpt>
      <trkpt lat="47.28155" lon="-2.34716">
        <ele>57</ele>
        <time>2019-12-15T10:34:10.000Z</time>
      </trkpt>
      <trkpt lat="47.28153" lon="-2.34709">
        <ele>57</ele>
        <time>2019-12-15T10:34:14.000Z</time>
      </trkpt>
      <trkpt lat="47.28151" lon="-2.34709">
        <ele>57</ele>
        <time>2019-12-15T10:34:15.000Z</time>
      </trkpt>
      <trkpt lat="47.28143" lon="-2.34701">
        <ele>57</ele>
        <time>2019-12-15T10:34:18.000Z</time>
      </trkpt>
      <trkpt lat="47.28135" lon="-2.34678">
        <ele>57</ele>
        <time>2019-12-15T10:34:23.000Z</time>
      </trkpt>
      <trkpt lat="47.28116" lon="-2.34639">
        <ele>57</ele>
        <time>2019-12-15T10:34:32.000Z</time>
      </trkpt>
      <trkpt lat="47.28104" lon="-2.34602">
        <ele>57</ele>
        <time>2019-12-15T10:34:39.000Z</time>
      </trkpt>
      <trkpt lat="47.28107" lon="-2.34582">
        <ele>56.599998474121</ele>
        <time>2019-12-15T10:34:43.000Z</time>
      </trkpt>
      <trkpt lat="47.28109" lon="-2.34577">
        <ele>56.200000762939</ele>
        <time>2019-12-15T10:34:44.000Z</time>
      </trkpt>
      <trkpt lat="47.28111" lon="-2.34573">
        <ele>55.799999237061</ele>
        <time>2019-12-15T10:34:45.000Z</time>
      </trkpt>
      <trkpt lat="47.28113" lon="-2.34568">
        <ele>55.400001525879</ele>
        <time>2019-12-15T10:34:46.000Z</time>
      </trkpt>
      <trkpt lat="47.28116" lon="-2.34565">
        <ele>55</ele>
        <time>2019-12-15T10:34:47.000Z</time>
      </trkpt>
      <trkpt lat="47.28123" lon="-2.34559">
        <ele>55</ele>
        <time>2019-12-15T10:34:49.000Z</time>
      </trkpt>
      <trkpt lat="47.2814" lon="-2.34542">
        <ele>55</ele>
        <time>2019-12-15T10:34:54.000Z</time>
      </trkpt>
      <trkpt lat="47.28142" lon="-2.34537">
        <ele>55</ele>
        <time>2019-12-15T10:34:55.000Z</time>
      </trkpt>
      <trkpt lat="47.28147" lon="-2.34516">
        <ele>55</ele>
        <time>2019-12-15T10:35:00.000Z</time>
      </trkpt>
      <trkpt lat="47.28148" lon="-2.34509">
        <ele>55</ele>
        <time>2019-12-15T10:35:04.000Z</time>
      </trkpt>
      <trkpt lat="47.28152" lon="-2.34508">
        <ele>44.599998474121</ele>
        <time>2019-12-15T10:36:40.000Z</time>
      </trkpt>
      <trkpt lat="47.28154" lon="-2.34514">
        <ele>44.599998474121</ele>
        <time>2019-12-15T10:36:42.000Z</time>
      </trkpt>
      <trkpt lat="47.28161" lon="-2.34516">
        <ele>44.599998474121</ele>
        <time>2019-12-15T10:36:45.000Z</time>
      </trkpt>
      <trkpt lat="47.28167" lon="-2.34513">
        <ele>44.599998474121</ele>
        <time>2019-12-15T10:36:47.000Z</time>
      </trkpt>
      <trkpt lat="47.28178" lon="-2.3451">
        <ele>44.599998474121</ele>
        <time>2019-12-15T10:36:50.000Z</time>
      </trkpt>
      <trkpt lat="47.28204" lon="-2.34508">
        <ele>44.599998474121</ele>
        <time>2019-12-15T10:36:57.000Z</time>
      </trkpt>
      <trkpt lat="47.28216" lon="-2.34522">
        <ele>44.599998474121</ele>
        <time>2019-12-15T10:37:01.000Z</time>
      </trkpt>
      <trkpt lat="47.28222" lon="-2.34538">
        <ele>44.599998474121</ele>
        <time>2019-12-15T10:37:04.000Z</time>
      </trkpt>
      <trkpt lat="47.28227" lon="-2.34556">
        <ele>44.599998474121</ele>
        <time>2019-12-15T10:37:07.000Z</time>
      </trkpt>
      <trkpt lat="47.28236" lon="-2.34592">
        <ele>44.599998474121</ele>
        <time>2019-12-15T10:37:14.000Z</time>
      </trkpt>
      <trkpt lat="47.28233" lon="-2.34614">
        <ele>44.599998474121</ele>
        <time>2019-12-15T10:37:19.000Z</time>
      </trkpt>
      <trkpt lat="47.28223" lon="-2.34622">
        <ele>44.599998474121</ele>
        <time>2019-12-15T10:37:23.000Z</time>
      </trkpt>
      <trkpt lat="47.28217" lon="-2.34625">
        <ele>44.599998474121</ele>
        <time>2019-12-15T10:37:27.000Z</time>
      </trkpt>
      <trkpt lat="47.28217" lon="-2.34623">
        <ele>40.400001525879</ele>
        <time>2019-12-15T10:39:20.000Z</time>
      </trkpt>
      <trkpt lat="47.28213" lon="-2.34623">
        <ele>40.400001525879</ele>
        <time>2019-12-15T10:39:22.000Z</time>
      </trkpt>
      <trkpt lat="47.28201" lon="-2.34631">
        <ele>40.400001525879</ele>
        <time>2019-12-15T10:39:26.000Z</time>
      </trkpt>
      <trkpt lat="47.28194" lon="-2.34634">
        <ele>40.400001525879</ele>
        <time>2019-12-15T10:39:28.000Z</time>
      </trkpt>
      <trkpt lat="47.28184" lon="-2.34648">
        <ele>40.400001525879</ele>
        <time>2019-12-15T10:39:32.000Z</time>
      </trkpt>
      <trkpt lat="47.28183" lon="-2.34653">
        <ele>40.400001525879</ele>
        <time>2019-12-15T10:39:33.000Z</time>
      </trkpt>
      <trkpt lat="47.28184" lon="-2.34664">
        <ele>40.400001525879</ele>
        <time>2019-12-15T10:39:35.000Z</time>
      </trkpt>
      <trkpt lat="47.28182" lon="-2.34697">
        <ele>40.400001525879</ele>
        <time>2019-12-15T10:39:40.000Z</time>
      </trkpt>
      <trkpt lat="47.28179" lon="-2.34703">
        <ele>40.400001525879</ele>
        <time>2019-12-15T10:39:41.000Z</time>
      </trkpt>
      <trkpt lat="47.28166" lon="-2.34712">
        <ele>40.400001525879</ele>
        <time>2019-12-15T10:39:44.000Z</time>
      </trkpt>
      <trkpt lat="47.28161" lon="-2.34714">
        <ele>40.400001525879</ele>
        <time>2019-12-15T10:39:45.000Z</time>
      </trkpt>
      <trkpt lat="47.28158" lon="-2.34718">
        <ele>40.400001525879</ele>
        <time>2019-12-15T10:39:46.000Z</time>
      </trkpt>
      <trkpt lat="47.28151" lon="-2.34722">
        <ele>40.400001525879</ele>
        <time>2019-12-15T10:39:48.000Z</time>
      </trkpt>
      <trkpt lat="47.28145" lon="-2.3471">
        <ele>40.400001525879</ele>
        <time>2019-12-15T10:39:51.000Z</time>
      </trkpt>
      <trkpt lat="47.28136" lon="-2.34689">
        <ele>40.400001525879</ele>
        <time>2019-12-15T10:39:55.000Z</time>
      </trkpt>
      <trkpt lat="47.28131" lon="-2.34677">
        <ele>40.799999237061</ele>
        <time>2019-12-15T10:39:57.000Z</time>
      </trkpt>
      <trkpt lat="47.28128" lon="-2.3467">
        <ele>41.200000762939</ele>
        <time>2019-12-15T10:39:58.000Z</time>
      </trkpt>
      <trkpt lat="47.28125" lon="-2.34664">
        <ele>41.599998474121</ele>
        <time>2019-12-15T10:39:59.000Z</time>
      </trkpt>
      <trkpt lat="47.28123" lon="-2.34657">
        <ele>42</ele>
        <time>2019-12-15T10:40:00.000Z</time>
      </trkpt>
      <trkpt lat="47.2812" lon="-2.34651">
        <ele>42.400001525879</ele>
        <time>2019-12-15T10:40:01.000Z</time>
      </trkpt>
      <trkpt lat="47.28108" lon="-2.34617">
        <ele>42.400001525879</ele>
        <time>2019-12-15T10:40:06.000Z</time>
      </trkpt>
      <trkpt lat="47.28106" lon="-2.34601">
        <ele>42.400001525879</ele>
        <time>2019-12-15T10:40:08.000Z</time>
      </trkpt>
      <trkpt lat="47.28113" lon="-2.34571">
        <ele>42.400001525879</ele>
        <time>2019-12-15T10:40:12.000Z</time>
      </trkpt>
      <trkpt lat="47.28122" lon="-2.34559">
        <ele>42.400001525879</ele>
        <time>2019-12-15T10:40:14.000Z</time>
      </trkpt>
      <trkpt lat="47.28126" lon="-2.34555">
        <ele>42.400001525879</ele>
        <time>2019-12-15T10:40:15.000Z</time>
      </trkpt>
      <trkpt lat="47.28135" lon="-2.34546">
        <ele>42.400001525879</ele>
        <time>2019-12-15T10:40:17.000Z</time>
      </trkpt>
      <trkpt lat="47.2814" lon="-2.34541">
        <ele>42.799999237061</ele>
        <time>2019-12-15T10:40:18.000Z</time>
      </trkpt>
      <trkpt lat="47.28143" lon="-2.34534">
        <ele>43.400001525879</ele>
        <time>2019-12-15T10:40:19.000Z</time>
      </trkpt>
      <trkpt lat="47.28145" lon="-2.34527">
        <ele>43.799999237061</ele>
        <time>2019-12-15T10:40:20.000Z</time>
      </trkpt>
      <trkpt lat="47.28146" lon="-2.34519">
        <ele>44.200000762939</ele>
        <time>2019-12-15T10:40:21.000Z</time>
      </trkpt>
      <trkpt lat="47.28146" lon="-2.34511">
        <ele>44.599998474121</ele>
        <time>2019-12-15T10:40:22.000Z</time>
      </trkpt>
      <trkpt lat="47.28145" lon="-2.34502">
        <ele>44.599998474121</ele>
        <time>2019-12-15T10:40:23.000Z</time>
      </trkpt>
      <trkpt lat="47.28132" lon="-2.34472">
        <ele>44.599998474121</ele>
        <time>2019-12-15T10:40:27.000Z</time>
      </trkpt>
      <trkpt lat="47.28105" lon="-2.34432">
        <ele>44.599998474121</ele>
        <time>2019-12-15T10:40:33.000Z</time>
      </trkpt>
      <trkpt lat="47.28087" lon="-2.34405">
        <ele>45</ele>
        <time>2019-12-15T10:40:37.000Z</time>
      </trkpt>
      <trkpt lat="47.28082" lon="-2.34398">
        <ele>45.400001525879</ele>
        <time>2019-12-15T10:40:38.000Z</time>
      </trkpt>
      <trkpt lat="47.28078" lon="-2.34392">
        <ele>45.799999237061</ele>
        <time>2019-12-15T10:40:39.000Z</time>
      </trkpt>
      <trkpt lat="47.28075" lon="-2.34384">
        <ele>46.200000762939</ele>
        <time>2019-12-15T10:40:40.000Z</time>
      </trkpt>
      <trkpt lat="47.28071" lon="-2.34376">
        <ele>46.599998474121</ele>
        <time>2019-12-15T10:40:41.000Z</time>
      </trkpt>
      <trkpt lat="47.2806" lon="-2.34355">
        <ele>46.599998474121</ele>
        <time>2019-12-15T10:40:44.000Z</time>
      </trkpt>
      <trkpt lat="47.28055" lon="-2.34349">
        <ele>46.599998474121</ele>
        <time>2019-12-15T10:40:45.000Z</time>
      </trkpt>
      <trkpt lat="47.28052" lon="-2.34327">
        <ele>46.599998474121</ele>
        <time>2019-12-15T10:40:48.000Z</time>
      </trkpt>
      <trkpt lat="47.2805" lon="-2.34299">
        <ele>46.599998474121</ele>
        <time>2019-12-15T10:40:52.000Z</time>
      </trkpt>
      <trkpt lat="47.28035" lon="-2.34292">
        <ele>46.599998474121</ele>
        <time>2019-12-15T10:40:55.000Z</time>
      </trkpt>
      <trkpt lat="47.2803" lon="-2.34289">
        <ele>46.599998474121</ele>
        <time>2019-12-15T10:40:56.000Z</time>
      </trkpt>
      <trkpt lat="47.28006" lon="-2.34275">
        <ele>47</ele>
        <time>2019-12-15T10:41:00.000Z</time>
      </trkpt>
      <trkpt lat="47.28" lon="-2.34272">
        <ele>47.799999237061</ele>
        <time>2019-12-15T10:41:01.000Z</time>
      </trkpt>
      <trkpt lat="47.27994" lon="-2.34269">
        <ele>48.200000762939</ele>
        <time>2019-12-15T10:41:02.000Z</time>
      </trkpt>
      <trkpt lat="47.27987" lon="-2.34266">
        <ele>48.599998474121</ele>
        <time>2019-12-15T10:41:03.000Z</time>
      </trkpt>
      <trkpt lat="47.27968" lon="-2.34257">
        <ele>48.599998474121</ele>
        <time>2019-12-15T10:41:06.000Z</time>
      </trkpt>
      <trkpt lat="47.27947" lon="-2.34253">
        <ele>48.599998474121</ele>
        <time>2019-12-15T10:41:09.000Z</time>
      </trkpt>
      <trkpt lat="47.27941" lon="-2.34254">
        <ele>48.599998474121</ele>
        <time>2019-12-15T10:41:10.000Z</time>
      </trkpt>
      <trkpt lat="47.27911" lon="-2.34266">
        <ele>48.599998474121</ele>
        <time>2019-12-15T10:41:15.000Z</time>
      </trkpt>
      <trkpt lat="47.27898" lon="-2.34268">
        <ele>48.599998474121</ele>
        <time>2019-12-15T10:41:18.000Z</time>
      </trkpt>
      <trkpt lat="47.27894" lon="-2.34265">
        <ele>48.599998474121</ele>
        <time>2019-12-15T10:41:19.000Z</time>
      </trkpt>
      <trkpt lat="47.27883" lon="-2.34249">
        <ele>48.599998474121</ele>
        <time>2019-12-15T10:41:22.000Z</time>
      </trkpt>
      <trkpt lat="47.27879" lon="-2.34243">
        <ele>48.599998474121</ele>
        <time>2019-12-15T10:41:23.000Z</time>
      </trkpt>
      <trkpt lat="47.27876" lon="-2.34235">
        <ele>48.599998474121</ele>
        <time>2019-12-15T10:41:24.000Z</time>
      </trkpt>
      <trkpt lat="47.27868" lon="-2.3422">
        <ele>49</ele>
        <time>2019-12-15T10:41:26.000Z</time>
      </trkpt>
      <trkpt lat="47.27865" lon="-2.34212">
        <ele>49.400001525879</ele>
        <time>2019-12-15T10:41:27.000Z</time>
      </trkpt>
      <trkpt lat="47.27861" lon="-2.34205">
        <ele>49.799999237061</ele>
        <time>2019-12-15T10:41:28.000Z</time>
      </trkpt>
      <trkpt lat="47.27858" lon="-2.34197">
        <ele>50.200000762939</ele>
        <time>2019-12-15T10:41:29.000Z</time>
      </trkpt>
      <trkpt lat="47.27855" lon="-2.34189">
        <ele>50.599998474121</ele>
        <time>2019-12-15T10:41:30.000Z</time>
      </trkpt>
      <trkpt lat="47.27834" lon="-2.3415">
        <ele>50.599998474121</ele>
        <time>2019-12-15T10:41:35.000Z</time>
      </trkpt>
      <trkpt lat="47.27809" lon="-2.3412">
        <ele>50.599998474121</ele>
        <time>2019-12-15T10:41:40.000Z</time>
      </trkpt>
      <trkpt lat="47.27771" lon="-2.34074">
        <ele>50.599998474121</ele>
        <time>2019-12-15T10:41:48.000Z</time>
      </trkpt>
      <trkpt lat="47.27762" lon="-2.34063">
        <ele>50.599998474121</ele>
        <time>2019-12-15T10:41:50.000Z</time>
      </trkpt>
      <trkpt lat="47.27761" lon="-2.34048">
        <ele>50.599998474121</ele>
        <time>2019-12-15T10:41:52.000Z</time>
      </trkpt>
      <trkpt lat="47.27774" lon="-2.34031">
        <ele>50.599998474121</ele>
        <time>2019-12-15T10:41:55.000Z</time>
      </trkpt>
      <trkpt lat="47.27777" lon="-2.34024">
        <ele>50.599998474121</ele>
        <time>2019-12-15T10:41:56.000Z</time>
      </trkpt>
      <trkpt lat="47.2778" lon="-2.34016">
        <ele>51</ele>
        <time>2019-12-15T10:41:57.000Z</time>
      </trkpt>
      <trkpt lat="47.27781" lon="-2.34008">
        <ele>51.400001525879</ele>
        <time>2019-12-15T10:41:58.000Z</time>
      </trkpt>
      <trkpt lat="47.27781" lon="-2.33999">
        <ele>51.799999237061</ele>
        <time>2019-12-15T10:41:59.000Z</time>
      </trkpt>
      <trkpt lat="47.27781" lon="-2.3399">
        <ele>52.200000762939</ele>
        <time>2019-12-15T10:42:00.000Z</time>
      </trkpt>
      <trkpt lat="47.2778" lon="-2.3398">
        <ele>52.799999237061</ele>
        <time>2019-12-15T10:42:01.000Z</time>
      </trkpt>
      <trkpt lat="47.27776" lon="-2.33961">
        <ele>52.799999237061</ele>
        <time>2019-12-15T10:42:03.000Z</time>
      </trkpt>
      <trkpt lat="47.27769" lon="-2.33934">
        <ele>52.799999237061</ele>
        <time>2019-12-15T10:42:06.000Z</time>
      </trkpt>
      <trkpt lat="47.27743" lon="-2.33855">
        <ele>52.799999237061</ele>
        <time>2019-12-15T10:42:15.000Z</time>
      </trkpt>
      <trkpt lat="47.27719" lon="-2.33787">
        <ele>52.799999237061</ele>
        <time>2019-12-15T10:42:23.000Z</time>
      </trkpt>
      <trkpt lat="47.27706" lon="-2.33747">
        <ele>53.200000762939</ele>
        <time>2019-12-15T10:42:28.000Z</time>
      </trkpt>
      <trkpt lat="47.27705" lon="-2.33739">
        <ele>53.599998474121</ele>
        <time>2019-12-15T10:42:29.000Z</time>
      </trkpt>
      <trkpt lat="47.27706" lon="-2.33731">
        <ele>54</ele>
        <time>2019-12-15T10:42:30.000Z</time>
      </trkpt>
      <trkpt lat="47.2771" lon="-2.33724">
        <ele>54.400001525879</ele>
        <time>2019-12-15T10:42:31.000Z</time>
      </trkpt>
      <trkpt lat="47.27715" lon="-2.33718">
        <ele>54.799999237061</ele>
        <time>2019-12-15T10:42:32.000Z</time>
      </trkpt>
      <trkpt lat="47.27719" lon="-2.33712">
        <ele>54.799999237061</ele>
        <time>2019-12-15T10:42:33.000Z</time>
      </trkpt>
      <trkpt lat="47.27741" lon="-2.33687">
        <ele>54.799999237061</ele>
        <time>2019-12-15T10:42:37.000Z</time>
      </trkpt>
      <trkpt lat="47.27769" lon="-2.33657">
        <ele>54.799999237061</ele>
        <time>2019-12-15T10:42:42.000Z</time>
      </trkpt>
      <trkpt lat="47.27773" lon="-2.33628">
        <ele>54.799999237061</ele>
        <time>2019-12-15T10:42:45.000Z</time>
      </trkpt>
      <trkpt lat="47.27771" lon="-2.33607">
        <ele>54.799999237061</ele>
        <time>2019-12-15T10:42:47.000Z</time>
      </trkpt>
      <trkpt lat="47.27769" lon="-2.33576">
        <ele>54.799999237061</ele>
        <time>2019-12-15T10:42:50.000Z</time>
      </trkpt>
      <trkpt lat="47.27767" lon="-2.33525">
        <ele>55.200000762939</ele>
        <time>2019-12-15T10:42:55.000Z</time>
      </trkpt>
      <trkpt lat="47.27767" lon="-2.33515">
        <ele>55.799999237061</ele>
        <time>2019-12-15T10:42:56.000Z</time>
      </trkpt>
      <trkpt lat="47.27768" lon="-2.33505">
        <ele>56.200000762939</ele>
        <time>2019-12-15T10:42:57.000Z</time>
      </trkpt>
      <trkpt lat="47.27768" lon="-2.33494">
        <ele>56.599998474121</ele>
        <time>2019-12-15T10:42:58.000Z</time>
      </trkpt>
      <trkpt lat="47.27769" lon="-2.33484">
        <ele>57</ele>
        <time>2019-12-15T10:42:59.000Z</time>
      </trkpt>
      <trkpt lat="47.27775" lon="-2.33406">
        <ele>57</ele>
        <time>2019-12-15T10:43:06.000Z</time>
      </trkpt>
      <trkpt lat="47.27776" lon="-2.3333">
        <ele>57</ele>
        <time>2019-12-15T10:43:13.000Z</time>
      </trkpt>
      <trkpt lat="47.2777" lon="-2.33257">
        <ele>57</ele>
        <time>2019-12-15T10:43:20.000Z</time>
      </trkpt>
      <trkpt lat="47.27765" lon="-2.33199">
        <ele>57</ele>
        <time>2019-12-15T10:43:26.000Z</time>
      </trkpt>
      <trkpt lat="47.27764" lon="-2.33181">
        <ele>57.400001525879</ele>
        <time>2019-12-15T10:43:28.000Z</time>
      </trkpt>
      <trkpt lat="47.27761" lon="-2.33173">
        <ele>57.799999237061</ele>
        <time>2019-12-15T10:43:29.000Z</time>
      </trkpt>
      <trkpt lat="47.27758" lon="-2.33166">
        <ele>58.200000762939</ele>
        <time>2019-12-15T10:43:30.000Z</time>
      </trkpt>
      <trkpt lat="47.27757" lon="-2.33158">
        <ele>58.599998474121</ele>
        <time>2019-12-15T10:43:31.000Z</time>
      </trkpt>
      <trkpt lat="47.27756" lon="-2.3315">
        <ele>59</ele>
        <time>2019-12-15T10:43:32.000Z</time>
      </trkpt>
      <trkpt lat="47.27757" lon="-2.33132">
        <ele>59</ele>
        <time>2019-12-15T10:43:34.000Z</time>
      </trkpt>
      <trkpt lat="47.27757" lon="-2.33111">
        <ele>59</ele>
        <time>2019-12-15T10:43:36.000Z</time>
      </trkpt>
      <trkpt lat="47.27755" lon="-2.33088">
        <ele>59</ele>
        <time>2019-12-15T10:43:38.000Z</time>
      </trkpt>
      <trkpt lat="47.27753" lon="-2.3301">
        <ele>59</ele>
        <time>2019-12-15T10:43:44.000Z</time>
      </trkpt>
      <trkpt lat="47.27754" lon="-2.32926">
        <ele>59</ele>
        <time>2019-12-15T10:43:50.000Z</time>
      </trkpt>
      <trkpt lat="47.27754" lon="-2.32912">
        <ele>59</ele>
        <time>2019-12-15T10:43:51.000Z</time>
      </trkpt>
      <trkpt lat="47.27758" lon="-2.32822">
        <ele>59</ele>
        <time>2019-12-15T10:43:57.000Z</time>
      </trkpt>
      <trkpt lat="47.27757" lon="-2.32808">
        <ele>59</ele>
        <time>2019-12-15T10:43:58.000Z</time>
      </trkpt>
      <trkpt lat="47.27752" lon="-2.32783">
        <ele>59</ele>
        <time>2019-12-15T10:44:00.000Z</time>
      </trkpt>
      <trkpt lat="47.27745" lon="-2.32761">
        <ele>59</ele>
        <time>2019-12-15T10:44:02.000Z</time>
      </trkpt>
      <trkpt lat="47.27739" lon="-2.32751">
        <ele>59</ele>
        <time>2019-12-15T10:44:03.000Z</time>
      </trkpt>
      <trkpt lat="47.2773" lon="-2.32741">
        <ele>59</ele>
        <time>2019-12-15T10:44:04.000Z</time>
      </trkpt>
      <trkpt lat="47.27701" lon="-2.32703">
        <ele>59.400001525879</ele>
        <time>2019-12-15T10:44:08.000Z</time>
      </trkpt>
      <trkpt lat="47.27695" lon="-2.32693">
        <ele>59.799999237061</ele>
        <time>2019-12-15T10:44:09.000Z</time>
      </trkpt>
      <trkpt lat="47.2769" lon="-2.32684">
        <ele>60.200000762939</ele>
        <time>2019-12-15T10:44:10.000Z</time>
      </trkpt>
      <trkpt lat="47.27685" lon="-2.32674">
        <ele>60.599998474121</ele>
        <time>2019-12-15T10:44:11.000Z</time>
      </trkpt>
      <trkpt lat="47.2768" lon="-2.32664">
        <ele>61</ele>
        <time>2019-12-15T10:44:12.000Z</time>
      </trkpt>
      <trkpt lat="47.27667" lon="-2.32637">
        <ele>61</ele>
        <time>2019-12-15T10:44:15.000Z</time>
      </trkpt>
      <trkpt lat="47.2765" lon="-2.3259">
        <ele>61</ele>
        <time>2019-12-15T10:44:21.000Z</time>
      </trkpt>
      <trkpt lat="47.27635" lon="-2.32538">
        <ele>61</ele>
        <time>2019-12-15T10:44:28.000Z</time>
      </trkpt>
      <trkpt lat="47.27632" lon="-2.32523">
        <ele>61.400001525879</ele>
        <time>2019-12-15T10:44:30.000Z</time>
      </trkpt>
      <trkpt lat="47.2763" lon="-2.32516">
        <ele>61.799999237061</ele>
        <time>2019-12-15T10:44:31.000Z</time>
      </trkpt>
      <trkpt lat="47.27628" lon="-2.32509">
        <ele>62.200000762939</ele>
        <time>2019-12-15T10:44:32.000Z</time>
      </trkpt>
      <trkpt lat="47.27626" lon="-2.32501">
        <ele>62.599998474121</ele>
        <time>2019-12-15T10:44:33.000Z</time>
      </trkpt>
      <trkpt lat="47.27624" lon="-2.32494">
        <ele>63</ele>
        <time>2019-12-15T10:44:34.000Z</time>
      </trkpt>
      <trkpt lat="47.27622" lon="-2.32487">
        <ele>63</ele>
        <time>2019-12-15T10:44:35.000Z</time>
      </trkpt>
      <trkpt lat="47.2762" lon="-2.3248">
        <ele>63</ele>
        <time>2019-12-15T10:44:36.000Z</time>
      </trkpt>
      <trkpt lat="47.27611" lon="-2.32463">
        <ele>63</ele>
        <time>2019-12-15T10:44:39.000Z</time>
      </trkpt>
      <trkpt lat="47.27593" lon="-2.32441">
        <ele>63</ele>
        <time>2019-12-15T10:44:43.000Z</time>
      </trkpt>
      <trkpt lat="47.2758" lon="-2.32424">
        <ele>63</ele>
        <time>2019-12-15T10:44:46.000Z</time>
      </trkpt>
      <trkpt lat="47.27576" lon="-2.32407">
        <ele>63</ele>
        <time>2019-12-15T10:44:48.000Z</time>
      </trkpt>
      <trkpt lat="47.27578" lon="-2.32378">
        <ele>63</ele>
        <time>2019-12-15T10:44:51.000Z</time>
      </trkpt>
      <trkpt lat="47.27585" lon="-2.32361">
        <ele>63</ele>
        <time>2019-12-15T10:44:53.000Z</time>
      </trkpt>
      <trkpt lat="47.27591" lon="-2.32343">
        <ele>63</ele>
        <time>2019-12-15T10:44:55.000Z</time>
      </trkpt>
      <trkpt lat="47.27607" lon="-2.32304">
        <ele>63</ele>
        <time>2019-12-15T10:45:00.000Z</time>
      </trkpt>
      <trkpt lat="47.27609" lon="-2.32297">
        <ele>63</ele>
        <time>2019-12-15T10:45:01.000Z</time>
      </trkpt>
      <trkpt lat="47.27602" lon="-2.32279">
        <ele>63</ele>
        <time>2019-12-15T10:45:04.000Z</time>
      </trkpt>
      <trkpt lat="47.27586" lon="-2.32265">
        <ele>63</ele>
        <time>2019-12-15T10:45:07.000Z</time>
      </trkpt>
      <trkpt lat="47.2758" lon="-2.32261">
        <ele>63</ele>
        <time>2019-12-15T10:45:08.000Z</time>
      </trkpt>
      <trkpt lat="47.27541" lon="-2.32229">
        <ele>63</ele>
        <time>2019-12-15T10:45:14.000Z</time>
      </trkpt>
      <trkpt lat="47.27503" lon="-2.32184">
        <ele>63</ele>
        <time>2019-12-15T10:45:20.000Z</time>
      </trkpt>
      <trkpt lat="47.27459" lon="-2.32127">
        <ele>63</ele>
        <time>2019-12-15T10:45:27.000Z</time>
      </trkpt>
      <trkpt lat="47.27416" lon="-2.32073">
        <ele>63</ele>
        <time>2019-12-15T10:45:34.000Z</time>
      </trkpt>
      <trkpt lat="47.27374" lon="-2.32028">
        <ele>63</ele>
        <time>2019-12-15T10:45:40.000Z</time>
      </trkpt>
      <trkpt lat="47.27328" lon="-2.3198">
        <ele>63</ele>
        <time>2019-12-15T10:45:46.000Z</time>
      </trkpt>
      <trkpt lat="47.27321" lon="-2.31972">
        <ele>63</ele>
        <time>2019-12-15T10:45:47.000Z</time>
      </trkpt>
      <trkpt lat="47.27288" lon="-2.31942">
        <ele>63</ele>
        <time>2019-12-15T10:45:52.000Z</time>
      </trkpt>
      <trkpt lat="47.27281" lon="-2.31939">
        <ele>63</ele>
        <time>2019-12-15T10:45:53.000Z</time>
      </trkpt>
      <trkpt lat="47.27254" lon="-2.3193">
        <ele>63</ele>
        <time>2019-12-15T10:45:57.000Z</time>
      </trkpt>
      <trkpt lat="47.27215" lon="-2.31917">
        <ele>63</ele>
        <time>2019-12-15T10:46:03.000Z</time>
      </trkpt>
      <trkpt lat="47.27192" lon="-2.31896">
        <ele>63</ele>
        <time>2019-12-15T10:46:07.000Z</time>
      </trkpt>
      <trkpt lat="47.27182" lon="-2.31885">
        <ele>63.400001525879</ele>
        <time>2019-12-15T10:46:09.000Z</time>
      </trkpt>
      <trkpt lat="47.27177" lon="-2.31879">
        <ele>63.799999237061</ele>
        <time>2019-12-15T10:46:10.000Z</time>
      </trkpt>
      <trkpt lat="47.27173" lon="-2.31873">
        <ele>64.400001525879</ele>
        <time>2019-12-15T10:46:11.000Z</time>
      </trkpt>
      <trkpt lat="47.27168" lon="-2.31867">
        <ele>64.800003051758</ele>
        <time>2019-12-15T10:46:12.000Z</time>
      </trkpt>
      <trkpt lat="47.27163" lon="-2.31861">
        <ele>65.199996948242</ele>
        <time>2019-12-15T10:46:13.000Z</time>
      </trkpt>
      <trkpt lat="47.27159" lon="-2.31856">
        <ele>65.199996948242</ele>
        <time>2019-12-15T10:46:14.000Z</time>
      </trkpt>
      <trkpt lat="47.27139" lon="-2.31825">
        <ele>65.199996948242</ele>
        <time>2019-12-15T10:46:19.000Z</time>
      </trkpt>
      <trkpt lat="47.27107" lon="-2.31786">
        <ele>65.199996948242</ele>
        <time>2019-12-15T10:46:26.000Z</time>
      </trkpt>
      <trkpt lat="47.27074" lon="-2.31756">
        <ele>65.199996948242</ele>
        <time>2019-12-15T10:46:33.000Z</time>
      </trkpt>
      <trkpt lat="47.27037" lon="-2.31725">
        <ele>65.199996948242</ele>
        <time>2019-12-15T10:46:41.000Z</time>
      </trkpt>
      <trkpt lat="47.27019" lon="-2.31709">
        <ele>66</ele>
        <time>2019-12-15T10:46:45.000Z</time>
      </trkpt>
      <trkpt lat="47.27014" lon="-2.31706">
        <ele>66.400001525879</ele>
        <time>2019-12-15T10:46:46.000Z</time>
      </trkpt>
      <trkpt lat="47.27009" lon="-2.31703">
        <ele>66.800003051758</ele>
        <time>2019-12-15T10:46:47.000Z</time>
      </trkpt>
      <trkpt lat="47.27005" lon="-2.317">
        <ele>67.199996948242</ele>
        <time>2019-12-15T10:46:48.000Z</time>
      </trkpt>
      <trkpt lat="47.26971" lon="-2.31676">
        <ele>67.199996948242</ele>
        <time>2019-12-15T10:46:56.000Z</time>
      </trkpt>
      <trkpt lat="47.26949" lon="-2.31661">
        <ele>67.199996948242</ele>
        <time>2019-12-15T10:47:02.000Z</time>
      </trkpt>
      <trkpt lat="47.26924" lon="-2.31644">
        <ele>67.199996948242</ele>
        <time>2019-12-15T10:47:09.000Z</time>
      </trkpt>
      <trkpt lat="47.26899" lon="-2.31635">
        <ele>67.199996948242</ele>
        <time>2019-12-15T10:47:16.000Z</time>
      </trkpt>
      <trkpt lat="47.26887" lon="-2.31638">
        <ele>67.199996948242</ele>
        <time>2019-12-15T10:47:20.000Z</time>
      </trkpt>
      <trkpt lat="47.26885" lon="-2.31653">
        <ele>67.199996948242</ele>
        <time>2019-12-15T10:47:23.000Z</time>
      </trkpt>
      <trkpt lat="47.26887" lon="-2.31665">
        <ele>67.199996948242</ele>
        <time>2019-12-15T10:47:25.000Z</time>
      </trkpt>
      <trkpt lat="47.26891" lon="-2.31695">
        <ele>67.199996948242</ele>
        <time>2019-12-15T10:47:29.000Z</time>
      </trkpt>
      <trkpt lat="47.26892" lon="-2.31736">
        <ele>67.199996948242</ele>
        <time>2019-12-15T10:47:34.000Z</time>
      </trkpt>
      <trkpt lat="47.26891" lon="-2.31744">
        <ele>67.199996948242</ele>
        <time>2019-12-15T10:47:35.000Z</time>
      </trkpt>
      <trkpt lat="47.26879" lon="-2.31771">
        <ele>67.199996948242</ele>
        <time>2019-12-15T10:47:39.000Z</time>
      </trkpt>
      <trkpt lat="47.26866" lon="-2.31784">
        <ele>67.199996948242</ele>
        <time>2019-12-15T10:47:42.000Z</time>
      </trkpt>
      <trkpt lat="47.26861" lon="-2.31788">
        <ele>67.199996948242</ele>
        <time>2019-12-15T10:47:43.000Z</time>
      </trkpt>
      <trkpt lat="47.26856" lon="-2.3179">
        <ele>67.199996948242</ele>
        <time>2019-12-15T10:47:44.000Z</time>
      </trkpt>
      <trkpt lat="47.26823" lon="-2.31807">
        <ele>67.199996948242</ele>
        <time>2019-12-15T10:47:50.000Z</time>
      </trkpt>
      <trkpt lat="47.26781" lon="-2.31828">
        <ele>67.199996948242</ele>
        <time>2019-12-15T10:47:58.000Z</time>
      </trkpt>
      <trkpt lat="47.26747" lon="-2.31853">
        <ele>67.199996948242</ele>
        <time>2019-12-15T10:48:05.000Z</time>
      </trkpt>
      <trkpt lat="47.26737" lon="-2.31858">
        <ele>67.199996948242</ele>
        <time>2019-12-15T10:48:07.000Z</time>
      </trkpt>
      <trkpt lat="47.26729" lon="-2.31849">
        <ele>67.199996948242</ele>
        <time>2019-12-15T10:48:09.000Z</time>
      </trkpt>
      <trkpt lat="47.26724" lon="-2.3183">
        <ele>67.199996948242</ele>
        <time>2019-12-15T10:48:12.000Z</time>
      </trkpt>
      <trkpt lat="47.2671" lon="-2.31779">
        <ele>67.199996948242</ele>
        <time>2019-12-15T10:48:19.000Z</time>
      </trkpt>
      <trkpt lat="47.26694" lon="-2.31719">
        <ele>67.199996948242</ele>
        <time>2019-12-15T10:48:27.000Z</time>
      </trkpt>
      <trkpt lat="47.26683" lon="-2.31678">
        <ele>67.599998474121</ele>
        <time>2019-12-15T10:48:32.000Z</time>
      </trkpt>
      <trkpt lat="47.2668" lon="-2.3167">
        <ele>68</ele>
        <time>2019-12-15T10:48:33.000Z</time>
      </trkpt>
      <trkpt lat="47.26677" lon="-2.31662">
        <ele>68.400001525879</ele>
        <time>2019-12-15T10:48:34.000Z</time>
      </trkpt>
      <trkpt lat="47.26674" lon="-2.31654">
        <ele>68.800003051758</ele>
        <time>2019-12-15T10:48:35.000Z</time>
      </trkpt>
      <trkpt lat="47.26671" lon="-2.31646">
        <ele>69.199996948242</ele>
        <time>2019-12-15T10:48:36.000Z</time>
      </trkpt>
      <trkpt lat="47.26651" lon="-2.31599">
        <ele>69.199996948242</ele>
        <time>2019-12-15T10:48:42.000Z</time>
      </trkpt>
      <trkpt lat="47.26636" lon="-2.31564">
        <ele>69.199996948242</ele>
        <time>2019-12-15T10:48:47.000Z</time>
      </trkpt>
      <trkpt lat="47.26622" lon="-2.31566">
        <ele>69.199996948242</ele>
        <time>2019-12-15T10:48:50.000Z</time>
      </trkpt>
      <trkpt lat="47.26605" lon="-2.31577">
        <ele>69.199996948242</ele>
        <time>2019-12-15T10:48:53.000Z</time>
      </trkpt>
      <trkpt lat="47.26593" lon="-2.31586">
        <ele>69.199996948242</ele>
        <time>2019-12-15T10:48:55.000Z</time>
      </trkpt>
      <trkpt lat="47.26556" lon="-2.31612">
        <ele>69.199996948242</ele>
        <time>2019-12-15T10:49:00.000Z</time>
      </trkpt>
      <trkpt lat="47.26508" lon="-2.31639">
        <ele>69.199996948242</ele>
        <time>2019-12-15T10:49:06.000Z</time>
      </trkpt>
      <trkpt lat="47.26499" lon="-2.31642">
        <ele>69.199996948242</ele>
        <time>2019-12-15T10:49:07.000Z</time>
      </trkpt>
      <trkpt lat="47.26441" lon="-2.31655">
        <ele>69.199996948242</ele>
        <time>2019-12-15T10:49:14.000Z</time>
      </trkpt>
      <trkpt lat="47.26414" lon="-2.31657">
        <ele>69.199996948242</ele>
        <time>2019-12-15T10:49:18.000Z</time>
      </trkpt>
      <trkpt lat="47.26405" lon="-2.3164">
        <ele>69.199996948242</ele>
        <time>2019-12-15T10:49:21.000Z</time>
      </trkpt>
      <trkpt lat="47.26406" lon="-2.31608">
        <ele>69.199996948242</ele>
        <time>2019-12-15T10:49:25.000Z</time>
      </trkpt>
      <trkpt lat="47.26406" lon="-2.31562">
        <ele>69.199996948242</ele>
        <time>2019-12-15T10:49:31.000Z</time>
      </trkpt>
      <trkpt lat="47.26407" lon="-2.31556">
        <ele>69.199996948242</ele>
        <time>2019-12-15T10:49:32.000Z</time>
      </trkpt>
      <trkpt lat="47.26414" lon="-2.31553">
        <ele>69.199996948242</ele>
        <time>2019-12-15T10:49:34.000Z</time>
      </trkpt>
      <trkpt lat="47.26418" lon="-2.31553">
        <ele>69.199996948242</ele>
        <time>2019-12-15T10:49:37.000Z</time>
      </trkpt>
      <trkpt lat="47.26418" lon="-2.31553">
        <ele>69.199996948242</ele>
        <time>2019-12-15T10:49:38.000Z</time>
      </trkpt>
    </trkseg>
  </trk>
</gpx>